# Wetter Temperatur Luftdruck Luftfeuchtigkeit Sichtweite Windgeschwindigkeit Windrichtung Zeit
1 Clear 14 1029 41 0 2.24 141 09:41 08.04.2020
2 Clear 10 1029 66 0 1.79 83 09:19 08.04.2020
3 Clear 9 1029 66 0 2.24 148 08:58 08.04.2020
4 Clear 10 1029 67 0 1.79 120 08:39 08.04.2020
5 Clear 9 1030 68 0 2.24 146 08:21 08.04.2020
6 Clear 9 1030 55 0 2.96 116 07:43 08.04.2020
7 Clear 7 1030 71 0 2.96 116 07:22 08.04.2020
8 Clear 7 1030 71 0 2.96 116 06:32 08.04.2020
9 Clear 8 1030 69 0 2.89 98 05:22 08.04.2020
10 Clear 9 1031 64 0 2.68 99 02:51 08.04.2020
11 Clear 9 1032 62 0 2.69 94 02:22 08.04.2020
12 Clear 9 1032 59 0 2.69 94 01:56 08.04.2020
13 Clear 10 1032 58 0 2.69 94 01:28 08.04.2020
14 Clear 10 1032 56 0 2.69 94 00:49 08.04.2020
15 Clear 11 1032 55 0 0.89 11 00:31 08.04.2020
16 Clear 11 1032 55 0 3.43 68 23:57 07.04.2020
17 Clear 12 1032 55 0 3.43 68 23:38 07.04.2020
18 Clear 12 1032 55 0 0.45 35 23:19 07.04.2020
19 Clear 12 1032 56 0 3.43 68 22:56 07.04.2020
20 Clear 12 1032 56 0 3.43 68 22:38 07.04.2020
21 Clear 12 1032 57 0 3.43 68 22:18 07.04.2020
22 Clear 13 1032 55 0 3.43 68 21:43 07.04.2020
23 Clouds 14 1032 54 0 1.79 358 21:23 07.04.2020
24 Clouds 14 1032 53 0 0.45 43 20:59 07.04.2020
25 Clouds 14 1031 51 0 0.45 12 20:41 07.04.2020
26 Clouds 15 1031 50 0 1.34 23 20:21 07.04.2020
27 Clouds 16 1031 49 0 1.79 38 19:58 07.04.2020
28 Clouds 17 1031 48 0 2.68 12 19:38 07.04.2020
29 Clouds 18 1031 46 0 3.1 50 19:20 07.04.2020
30 Clouds 18 1031 44 0 1.34 28 18:59 07.04.2020
31 Clouds 18 1031 43 0 3.58 25 18:40 07.04.2020
32 Clouds 19 1031 41 0 1.79 23 18:21 07.04.2020
33 Clouds 19 1031 40 0 2.24 28 17:55 07.04.2020
34 Clouds 20 1031 39 0 2.24 359 17:37 07.04.2020
35 Clouds 20 1032 38 0 1.79 32 17:19 07.04.2020
36 Clouds 20 1032 37 0 2.66 30 16:43 07.04.2020
37 Clouds 20 1032 37 0 1.79 21 16:25 07.04.2020
38 Clouds 19 1031 53 0 1.34 347 15:44 07.04.2020
39 Clouds 19 1032 56 0 1.34 43 15:26 07.04.2020
40 Clouds 19 1032 59 0 1.34 295 14:56 07.04.2020
41 Clouds 18 1032 59 0 1.34 345 14:38 07.04.2020
42 Clouds 19 1032 44 0 1.79 21 14:19 07.04.2020
43 Clouds 19 1032 44 0 2.68 9 13:42 07.04.2020
44 Clouds 19 1032 44 0 2.68 9 13:42 07.04.2020
45 Clouds 18 1032 48 0 3.15 356 13:19 07.04.2020
46 Clouds 18 1032 53 0 3.58 326 12:57 07.04.2020
47 Clouds 16 1032 70 0 1.79 51 12:39 07.04.2020
48 Clouds 16 1032 71 0 1.34 290 12:21 07.04.2020
49 Clouds 16 1032 72 0 1.34 317 11:58 07.04.2020
50 Clouds 15 1033 62 0 2.68 350 11:39 07.04.2020
51 Clouds 15 1032 64 0 3.13 289 11:19 07.04.2020
52 Clouds 15 1032 65 0 3.58 307 10:54 07.04.2020
53 Clouds 15 1032 65 0 2.24 258 10:36 07.04.2020
54 Clouds 15 1032 67 0 2.68 314 10:18 07.04.2020
55 Clouds 14 1031 68 0 3.13 330 09:40 07.04.2020
56 Clear 12 1031 74 0 1.79 28 09:18 07.04.2020
57 Clear 11 1028 74 0 0.89 285 08:40 07.04.2020
58 Clear 11 1030 76 0 0.45 38 08:22 07.04.2020
59 Clear 9 1023 78 0 4 300 07:57 07.04.2020
60 Clear 10 1029 66 0 5.36 289 07:38 07.04.2020
61 Clear 10 1029 76 0 3.58 280 07:20 07.04.2020
62 Clear 9 1028 80 0 0.89 293 06:42 07.04.2020
63 Clear 9 1028 77 0 2.24 296 06:18 07.04.2020
64 Clear 9 1027 74 0 0.89 279 05:29 07.04.2020
65 Clear 10 1027 66 0 0.45 208 04:35 07.04.2020
66 Clear 9 1025 69 0 0.45 186 03:24 07.04.2020
67 Clear 8 1025 70 0 2.57 244 02:48 07.04.2020
68 Clear 9 1025 67 0 2.87 237 01:47 07.04.2020
69 Clear 9 1025 64 0 2.87 237 01:23 07.04.2020
70 Clear 10 1024 61 0 0.45 94 00:27 07.04.2020
71 Clear 10 1024 58 0 2.97 209 23:44 06.04.2020
72 Clear 10 1024 58 0 2.97 209 23:23 06.04.2020
73 Clear 11 1024 57 0 0.45 190 22:58 06.04.2020
74 Clear 12 1023 55 0 2.97 209 22:38 06.04.2020
75 Clear 12 1023 53 0 2.97 209 22:20 06.04.2020
76 Clear 13 1023 51 0 2.24 160 21:57 06.04.2020
77 Clear 13 1023 50 0 2.97 209 21:38 06.04.2020
78 Clear 14 1023 49 0 3.3 175 21:18 06.04.2020
79 Clear 14 1023 47 0 0.89 165 20:55 06.04.2020
80 Clear 15 1023 44 0 0.45 170 20:37 06.04.2020
81 Clear 16 1022 43 0 0.89 186 20:18 06.04.2020
82 Clear 18 1022 39 0 1.34 115 19:41 06.04.2020
83 Clear 20 1022 37 0 3.3 175 19:22 06.04.2020
84 Clear 20 1022 35 0 0.89 175 18:58 06.04.2020
85 Clear 20 1022 35 0 1.34 141 18:39 06.04.2020
86 Clear 21 1022 32 0 1.79 177 18:20 06.04.2020
87 Clear 21 1022 28 0 4.47 180 17:42 06.04.2020
88 Clear 22 1022 27 0 4.47 176 17:20 06.04.2020
89 Clear 21 1023 27 0 3.13 135 16:50 06.04.2020
90 Clear 21 1023 26 0 2.24 175 16:31 06.04.2020
91 Clear 21 1023 27 0 1.34 64 15:59 06.04.2020
92 Clear 21 1023 27 0 1.34 64 15:59 06.04.2020
93 Clear 20 1023 30 0 2.24 288 14:28 06.04.2020
94 Clear 20 1023 30 0 2.24 288 14:22 06.04.2020
95 Clear 20 1023 30 0 2.24 288 14:22 06.04.2020
96 Clear 20 1023 31 0 2.24 167 14:22 06.04.2020
97 Clear 20 1023 31 0 2.24 167 14:21 06.04.2020
98 Clear 20 1023 29 0 1.79 121 13:40 06.04.2020
99 Clear 20 1023 31 0 3.13 173 13:20 06.04.2020
100 Clear 19 1023 30 0 4.92 149 13:20 06.04.2020
101 Clear 18 1023 35 0 4.92 108 12:25 06.04.2020
102 Clear 18 1023 35 0 4.92 108 12:25 06.04.2020
103 Clear 18 1023 35 0 4.92 108 12:25 06.04.2020
104 Clear 18 1023 35 0 4.92 108 12:25 06.04.2020
105 Clear 16 1024 35 0 3.13 326 11:55 06.04.2020
106 Clear 16 1024 35 0 2.68 141 11:55 06.04.2020
107 Clear 16 1020 44 0 0.89 124 11:33 06.04.2020
108 Clear 16 1024 36 0 2.24 174 11:33 06.04.2020
109 Clear 16 1024 36 0 2.24 174 11:33 06.04.2020
110 Clear 16 1024 36 0 2.24 174 11:33 06.04.2020
111 Clear 15 1024 38 0 2.24 168 11:33 06.04.2020
112 Clear 14 1023 43 0 3.13 31 10:52 06.04.2020
113 Clear 14 1023 43 0 3.13 31 10:52 06.04.2020
114 Clear 14 1023 43 0 3.13 31 10:52 06.04.2020
115 Clear 14 1023 44 0 4.47 169 10:52 06.04.2020
116 Clear 14 1023 43 0 3.13 31 10:52 06.04.2020
117 Clear 14 1023 45 0 4.47 170 10:22 06.04.2020
118 Clear 12 1017 43 0 4.93 155 09:47 06.04.2020
119 Clear 8 1021 57 0 0.89 83 09:22 06.04.2020
120 Clear 8 1024 56 0 0.89 108 08:55 06.04.2020
121 Clear 8 1017 59 0 4.48 146 08:33 06.04.2020
122 Clear 6 1017 64 0 4.48 146 07:51 06.04.2020
123 Clear 6 1017 64 0 4.48 146 07:51 06.04.2020
124 Clear 6 1017 64 0 4.48 146 07:51 06.04.2020
125 Clear 6 1017 64 0 4.48 146 07:51 06.04.2020
126 Clear 4 1023 76 0 4.48 146 06:52 06.04.2020
127 Clear 4 1023 76 0 4.48 146 06:52 06.04.2020
128 Clear 4 1023 75 0 3.62 132 06:25 06.04.2020
129 Clear 5 1023 69 0 0.45 128 04:32 06.04.2020
130 Clear 6 1023 66 0 0.89 105 03:18 06.04.2020
131 Clear 6 1023 65 0 1.34 101 02:44 06.04.2020
132 Clear 8 1023 59 0 2.24 152 01:48 06.04.2020
133 Clear 8 1024 55 0 4.47 81 00:46 06.04.2020
134 Clear 9 1024 55 0 5.36 87 00:25 06.04.2020
135 Clear 9 1024 54 0 1.34 138 23:47 05.04.2020
136 Clear 9 1019 46 0 4.56 122 23:28 05.04.2020
137 Clear 9 1019 46 0 4.56 122 23:28 05.04.2020
138 Clear 9 1019 46 0 4.56 122 23:28 05.04.2020
139 Clear 9 1019 46 0 4.56 122 23:28 05.04.2020
140 Clear 9 1019 46 0 4.56 122 23:28 05.04.2020
141 Clear 10 1019 45 0 4.56 122 22:56 05.04.2020
142 Clear 10 1019 45 0 4.56 122 22:38 05.04.2020
143 Clear 10 1019 43 0 4.56 122 22:19 05.04.2020
144 Clear 11 1019 42 0 4.56 122 21:57 05.04.2020
145 Clear 11 1019 42 0 4.56 122 21:39 05.04.2020
146 Clear 11 1019 42 0 4.79 120 21:20 05.04.2020
147 Clear 11 1019 42 0 4.56 122 21:20 05.04.2020
148 Clear 11 1019 42 0 4.56 122 21:20 05.04.2020
149 Clear 11 1019 42 0 4.79 120 21:20 05.04.2020
150 Clear 11 1019 42 0 4.56 122 21:20 05.04.2020
151 Clear 13 1019 41 0 4.18 115 20:20 05.04.2020
152 Clear 14 1019 36 0 4.18 115 19:40 05.04.2020
153 Clear 15 1025 29 0 6.71 81 19:22 05.04.2020
154 Clear 15 1025 29 0 6.71 81 19:22 05.04.2020
155 Clear 16 1025 29 0 6.71 81 18:45 05.04.2020
156 Clear 16 1025 29 0 6.71 81 18:45 05.04.2020
157 Clear 17 1025 29 0 6.71 81 17:58 05.04.2020
158 Clear 17 1025 29 0 6.71 81 17:58 05.04.2020
159 Clear 17 1025 29 0 4.47 81 17:39 05.04.2020
160 Clear 17 1026 29 0 5.81 97 17:20 05.04.2020
161 Clear 17 1026 29 0 4.92 131 16:44 05.04.2020
162 Clear 17 1026 29 0 4.92 131 16:44 05.04.2020
163 Clear 17 1026 29 0 2.68 32 16:44 05.04.2020
164 Clear 17 1026 29 0 4.92 131 16:44 05.04.2020
165 Clear 17 1026 29 0 4.92 131 16:44 05.04.2020
166 Clear 17 1027 30 0 5.81 145 16:18 05.04.2020
167 Clear 17 1027 33 0 3.13 50 15:44 05.04.2020
168 Clear 17 1027 33 0 5.81 114 15:25 05.04.2020
169 Clear 17 1027 33 0 5.81 114 15:25 05.04.2020
170 Clear 17 1027 33 0 5.81 114 15:25 05.04.2020
171 Clear 17 1028 34 0 4.47 136 14:47 05.04.2020
172 Clear 17 1028 34 0 4.02 158 14:47 05.04.2020
173 Clear 17 1028 34 0 4.47 136 14:47 05.04.2020
174 Clear 17 1028 34 0 4.02 158 14:47 05.04.2020
175 Clear 17 1028 35 0 3.58 94 14:47 05.04.2020
176 Clear 17 1028 37 0 3.13 172 13:45 05.04.2020
177 Clear 16 1029 38 0 4.47 107 12:56 05.04.2020
178 Clear 13 1030 51 0 1.79 93 11:58 05.04.2020
179 Clear 13 1030 51 0 1.79 93 11:58 05.04.2020
180 Clear 13 1030 51 0 1.79 93 11:58 05.04.2020
181 Clear 13 1030 51 0 1.79 93 11:58 05.04.2020
182 Clear 13 1030 46 0 2.68 47 11:38 05.04.2020
183 Clear 12 1030 49 0 4.02 64 11:19 05.04.2020
184 Clear 12 1030 52 0 5.81 159 10:44 05.04.2020
185 Clear 11 1030 54 0 1.34 189 10:19 05.04.2020
186 Clear 10 1030 48 0 2.68 121 09:52 05.04.2020
187 Clear 10 1030 48 0 2.68 121 09:52 05.04.2020
188 Clear 10 1030 48 0 2.68 121 09:52 05.04.2020
189 Clear 10 1030 48 0 2.68 121 09:52 05.04.2020
190 Clear 10 1030 48 0 2.68 121 09:52 05.04.2020
191 Clear 7 1031 67 0 2.24 135 09:25 05.04.2020
192 Clear 7 1031 67 0 2.24 135 09:25 05.04.2020
193 Clear 7 1031 67 0 2.24 135 09:25 05.04.2020
194 Clear 7 1031 67 0 2.24 135 09:25 05.04.2020
195 Clear 7 1031 67 0 2.24 135 09:25 05.04.2020
196 Clear 3 1025 88 0 3.75 126 07:57 05.04.2020
197 Clear 3 1025 88 0 3.75 126 07:57 05.04.2020
198 Clear 2 1029 80 0 3.01 120 04:52 05.04.2020
199 Clear 2 1029 78 0 3.01 120 03:35 05.04.2020
200 Clear 2 1029 78 0 3.01 120 03:35 05.04.2020
201 Clear 2 1029 79 0 3.01 120 03:35 05.04.2020
202 Clear 2 1029 76 0 2.79 130 02:53 05.04.2020
203 Clear 2 1029 78 0 2.74 134 01:51 05.04.2020
204 Clear 3 1029 77 0 2.74 134 01:32 05.04.2020
205 Clear 3 1029 74 0 2.74 134 00:48 05.04.2020
206 Clear 3 1029 73 0 2.74 134 00:22 05.04.2020
207 Clear 3 1029 73 0 2.74 134 00:22 05.04.2020
208 Clear 3 1029 73 0 2.98 136 23:57 04.04.2020
209 Clear 3 1029 73 0 2.98 136 23:38 04.04.2020
210 Clear 4 1029 71 0 2.98 136 23:20 04.04.2020
211 Clear 5 1028 70 0 2.98 136 22:56 04.04.2020
212 Clear 5 1028 68 0 2.98 136 22:37 04.04.2020
213 Clear 6 1028 66 0 2.98 136 22:19 04.04.2020
214 Clear 6 1028 65 0 2.98 136 21:55 04.04.2020
215 Clear 7 1028 63 0 2.98 136 21:37 04.04.2020
216 Clear 7 1028 61 0 2.08 127 21:18 04.04.2020
217 Clear 8 1028 59 0 2.08 127 20:43 04.04.2020
218 Clear 9 1027 57 0 2.08 127 20:23 04.04.2020
219 Clear 10 1027 52 0 2.08 127 19:59 04.04.2020
220 Clear 11 1027 49 0 0.89 129 19:39 04.04.2020
221 Clear 11 1027 46 0 0.45 114 19:20 04.04.2020
222 Clear 12 1027 44 0 0.45 128 18:59 04.04.2020
223 Clear 12 1027 42 0 0.89 148 18:39 04.04.2020
224 Clear 13 1027 39 0 0.72 44 18:20 04.04.2020
225 Clear 13 1026 36 0 1.79 111 17:58 04.04.2020
226 Clear 13 1026 35 0 1.79 8 17:38 04.04.2020
227 Clear 14 1026 34 0 0.47 121 17:19 04.04.2020
228 Clear 14 1026 33 0 0.45 46 16:45 04.04.2020
229 Clear 14 1026 32 0 0.72 44 16:27 04.04.2020
230 Clear 14 1026 33 0 0.89 15 15:59 04.04.2020
231 Clear 13 1027 33 0 2.24 271 15:39 04.04.2020
232 Clouds 12 1021 36 0 1.14 287 15:19 04.04.2020
233 Clouds 13 1027 36 0 0.89 208 14:55 04.04.2020
234 Clouds 13 1021 36 0 1.14 287 14:37 04.04.2020
235 Clouds 12 1027 44 0 0.45 314 14:18 04.04.2020
236 Clouds 12 1021 38 0 1.11 265 13:42 04.04.2020
237 Clouds 13 1021 35 0 1.11 265 13:22 04.04.2020
238 Clouds 12 1027 35 0 0.45 271 12:58 04.04.2020
239 Clouds 13 1027 40 0 1.34 251 12:40 04.04.2020
240 Clouds 10 1027 52 0 0.45 352 12:21 04.04.2020
241 Clouds 9 1027 51 0 0.89 30 11:42 04.04.2020
242 Clouds 9 1027 51 0 0.45 44 11:23 04.04.2020
243 Clouds 9 1027 52 0 0.45 17 10:59 04.04.2020
244 Clouds 10 1026 47 0 1.79 152 10:41 04.04.2020
245 Clouds 9 1026 49 0 1.97 277 10:23 04.04.2020
246 Clouds 8 1026 58 0 1.97 277 09:57 04.04.2020
247 Clouds 8 1026 59 0 0.45 87 09:39 04.04.2020
248 Clouds 6 1025 60 0 0.89 84 09:21 04.04.2020
249 Clouds 6 1025 63 0 0.45 47 08:56 04.04.2020
250 Clouds 5 1025 64 0 0.45 53 08:37 04.04.2020
251 Clouds 5 1019 72 0 1.08 266 08:19 04.04.2020
252 Clouds 4 1019 84 0 1.08 266 07:40 04.04.2020
253 Clouds 4 1024 69 0 1.08 266 07:22 04.04.2020
254 Clouds 4 1024 69 0 1.08 266 07:22 04.04.2020
255 Clouds 4 1023 67 0 1.08 266 06:40 04.04.2020
256 Clouds 5 1023 63 0 1.34 310 05:57 04.04.2020
257 Clouds 5 1023 63 0 0.47 28 05:39 04.04.2020
258 Clouds 5 1016 68 0 0.47 28 05:21 04.04.2020
259 Clouds 6 1022 63 0 0.47 28 04:24 04.04.2020
260 Clouds 5 1016 70 0 0.47 28 03:45 04.04.2020
261 Clouds 6 1015 69 0 0.93 317 02:49 04.04.2020
262 Clouds 6 1021 58 0 0.93 317 02:30 04.04.2020
263 Clouds 6 1021 59 0 1.43 293 01:51 04.04.2020
264 Clouds 6 1020 61 0 1.43 293 01:22 04.04.2020
265 Clouds 6 1020 68 0 1.43 293 00:47 04.04.2020
266 Clouds 6 1020 66 0 1.43 293 00:27 04.04.2020
267 Clouds 7 1019 63 0 2.76 284 23:39 03.04.2020
268 Clouds 6 1019 63 0 2.76 284 23:21 03.04.2020
269 Clouds 7 1019 62 0 2.76 284 22:57 03.04.2020
270 Clouds 7 1019 63 0 2.76 284 22:39 03.04.2020
271 Clouds 7 1019 62 0 2.76 284 22:18 03.04.2020
272 Clouds 7 1018 60 0 2.76 284 21:43 03.04.2020
273 Clouds 7 1018 58 0 2.76 284 21:24 03.04.2020
274 Clouds 8 1018 58 0 0.45 259 20:57 03.04.2020
275 Clouds 8 1018 58 0 0.45 259 20:57 03.04.2020
276 Clouds 8 1018 57 0 2.33 278 20:37 03.04.2020
277 Clouds 8 1017 57 0 2.33 278 20:19 03.04.2020
278 Clouds 9 1017 54 0 2.33 278 19:57 03.04.2020
279 Clouds 9 1017 49 0 2.33 278 19:38 03.04.2020
280 Clouds 9 1017 48 0 2.68 282 19:20 03.04.2020
281 Clouds 10 1016 47 0 3.13 275 18:59 03.04.2020
282 Clouds 10 1016 44 0 3.58 289 18:41 03.04.2020
283 Clouds 11 1016 43 0 4.47 259 18:22 03.04.2020
284 Clouds 11 1016 41 0 1.79 303 17:55 03.04.2020
285 Clouds 11 1016 41 0 2.24 306 17:36 03.04.2020
286 Clouds 11 1016 39 0 6.71 272 17:18 03.04.2020
287 Clouds 11 1016 39 0 3.13 303 16:43 03.04.2020
288 Clouds 12 1015 38 0 4.02 287 16:21 03.04.2020
289 Clouds 12 1015 38 0 4.47 295 15:58 03.04.2020
290 Clouds 12 1015 37 0 6.26 261 15:39 03.04.2020
291 Clouds 12 1015 38 0 1.79 300 15:20 03.04.2020
292 Clouds 12 1015 38 0 4.92 265 14:56 03.04.2020
293 Clouds 11 1015 41 0 1.79 220 14:37 03.04.2020
294 Clouds 11 1009 38 0 6.45 287 14:19 03.04.2020
295 Clouds 11 1015 39 0 5.36 251 13:43 03.04.2020
296 Clouds 11 1015 37 0 3.58 266 13:25 03.04.2020
297 Clouds 12 1015 38 0 4.92 278 12:56 03.04.2020
298 Clouds 11 1015 42 0 3.13 210 12:37 03.04.2020
299 Clouds 9 1014 50 0 1.34 324 12:18 03.04.2020
300 Clouds 9 1014 54 0 1.34 276 11:54 03.04.2020
301 Clouds 9 1014 52 0 2.24 48 11:36 03.04.2020
302 Clouds 9 1014 55 0 1.34 268 11:18 03.04.2020
303 Clouds 9 1014 46 0 4.02 287 10:54 03.04.2020
304 Clouds 9 1014 49 0 2.68 252 10:36 03.04.2020
305 Clouds 8 1014 51 0 1.79 249 10:18 03.04.2020
306 Clouds 8 1013 52 0 3.58 265 09:40 03.04.2020
307 Clear 6 1013 65 0 1.34 11 09:22 03.04.2020
308 Clouds 6 1013 65 0 1.34 11 09:22 03.04.2020
309 Clouds 5 1012 67 0 1.34 11 08:57 03.04.2020
310 Clouds 5 1012 68 0 1.34 330 08:39 03.04.2020
311 Clouds 5 1009 73 0 0.89 67 08:20 03.04.2020
312 Clouds 5 1012 66 0 2.68 313 07:50 03.04.2020
313 Clouds 5 1012 67 0 2.68 271 07:31 03.04.2020
314 Clouds 6 1011 70 0 2.24 287 06:49 03.04.2020
315 Clouds 6 1010 68 0 4.02 297 06:24 03.04.2020
316 Rain 6 1010 68 0 0.45 263 05:40 03.04.2020
317 Rain 6 1008 71 0 1.34 256 03:45 03.04.2020
318 Clouds 6 1008 70 0 1.34 327 02:56 03.04.2020
319 Rain 6 1008 70 0 2.68 251 02:27 03.04.2020
320 Rain 6 1008 66 0 3.13 207 01:23 03.04.2020
321 Rain 6 1008 63 0 2.24 180 00:37 03.04.2020
322 Clouds 6 1008 64 0 5.36 249 00:19 03.04.2020
323 Clouds 6 1008 67 0 0.45 165 23:42 02.04.2020
324 Clouds 6 1008 67 0 0.89 266 23:23 02.04.2020
325 Clouds 6 1008 66 0 1.79 176 22:58 02.04.2020
326 Clouds 6 1008 67 0 0.89 304 22:39 02.04.2020
327 Clouds 6 1009 69 0 3.13 275 22:20 02.04.2020
328 Clouds 6 1009 67 0 0.45 327 21:54 02.04.2020
329 Clouds 6 1009 66 0 0.45 245 21:36 02.04.2020
330 Clouds 7 1009 64 0 3.58 224 21:18 02.04.2020
331 Clouds 7 1009 62 0 4.92 255 20:42 02.04.2020
332 Clouds 7 1009 60 0 2.68 303 20:22 02.04.2020
333 Clouds 8 1009 56 0 3.13 290 19:45 02.04.2020
334 Clouds 9 1009 54 0 3.13 261 19:21 02.04.2020
335 Clouds 9 1009 51 0 1.79 254 19:00 02.04.2020
336 Clouds 10 1009 48 0 4.02 237 18:41 02.04.2020
337 Clouds 10 1009 46 0 4.02 304 18:21 02.04.2020
338 Clouds 10 1009 46 0 5.36 279 18:21 02.04.2020
339 Clouds 10 1009 43 0 3.13 306 17:57 02.04.2020
340 Clouds 11 1009 42 0 2.68 261 17:39 02.04.2020
341 Clouds 11 1009 41 0 4.47 252 17:20 02.04.2020
342 Clouds 11 1010 41 0 4.47 289 16:56 02.04.2020
343 Clouds 11 1010 40 0 1.34 232 16:38 02.04.2020
344 Clouds 10 1005 46 0 6.39 267 16:20 02.04.2020
345 Clouds 10 1005 47 0 6.39 267 15:55 02.04.2020
346 Clouds 10 1005 45 0 6.39 267 15:37 02.04.2020
347 Clouds 10 1005 44 0 4.7 258 15:18 02.04.2020
348 Clouds 10 1005 42 0 4.7 258 14:40 02.04.2020
349 Clouds 10 1006 42 0 4.74 257 14:21 02.04.2020
350 Clouds 10 1006 42 0 4.74 257 13:59 02.04.2020
351 Clouds 10 1006 42 0 4.74 257 13:40 02.04.2020
352 Clouds 10 1007 43 0 4.74 257 13:21 02.04.2020
353 Clouds 10 1007 43 0 4.74 257 12:57 02.04.2020
354 Clouds 10 1007 44 0 4.74 257 12:39 02.04.2020
355 Clouds 9 1007 44 0 4.4 269 12:19 02.04.2020
356 Clouds 9 1007 44 0 4.4 269 12:19 02.04.2020
357 Clouds 9 1007 44 0 4.4 269 12:19 02.04.2020
358 Clouds 10 1013 50 0 0.89 282 11:57 02.04.2020
359 Clouds 9 1014 51 0 1.34 11 11:38 02.04.2020
360 Clouds 10 1014 45 0 2.68 292 11:19 02.04.2020
361 Clouds 10 1014 45 0 2.68 292 11:19 02.04.2020
362 Clouds 10 1014 45 0 2.68 292 11:19 02.04.2020
363 Clouds 9 1014 47 0 2.68 278 10:55 02.04.2020
364 Clouds 9 1014 51 0 0.45 245 10:37 02.04.2020
365 Clouds 9 1014 51 0 3.13 163 10:19 02.04.2020
366 Clouds 8 1014 58 0 3.58 249 09:56 02.04.2020
367 Clouds 7 1014 63 0 4.02 235 09:38 02.04.2020
368 Clouds 2 1014 85 0 3.28 252 09:19 02.04.2020
369 Clouds 3 1015 80 0 1.34 262 08:46 02.04.2020
370 Clouds 2 1015 81 0 1.79 255 08:26 02.04.2020
371 Clouds 2 1014 78 0 3.12 248 07:45 02.04.2020
372 Clouds 1 1014 78 0 1.79 177 07:21 02.04.2020
373 Clouds 1 1015 79 0 1.79 193 06:58 02.04.2020
374 Clouds -1 1015 84 0 0.45 297 06:22 02.04.2020
375 Clouds 0 1015 79 0 2.24 235 05:45 02.04.2020
376 Clouds 0 1015 79 0 3.13 242 04:35 02.04.2020
377 Clear 1 1016 75 0 2.24 239 01:52 02.04.2020
378 Clear 1 1016 77 0 0.89 252 00:50 02.04.2020
379 Clear 1 1016 78 0 3.58 248 00:29 02.04.2020
380 Clear 1 1016 77 0 3.16 269 23:57 01.04.2020
381 Clear 2 1017 75 0 0.45 93 23:37 01.04.2020
382 Clear 2 1017 75 0 3.16 269 23:18 01.04.2020
383 Clear 3 1017 73 0 3.16 269 22:41 01.04.2020
384 Clear 3 1017 71 0 3.16 269 22:22 01.04.2020
385 Clear 3 1017 71 0 3.16 269 21:58 01.04.2020
386 Clouds 4 1017 70 0 3.6 270 21:39 01.04.2020
387 Clouds 4 1017 68 0 2.47 279 21:19 01.04.2020
388 Clouds 6 1017 65 0 3.06 273 20:55 01.04.2020
389 Clouds 6 1017 64 0 3.06 273 20:37 01.04.2020
390 Clouds 7 1017 60 0 3.06 273 20:18 01.04.2020
391 Clouds 7 1017 56 0 3.06 273 19:55 01.04.2020
392 Clouds 7 1017 53 0 3.13 299 19:37 01.04.2020
393 Clouds 8 1017 50 0 3.13 28 19:19 01.04.2020
394 Clouds 9 1018 48 0 3.58 303 18:41 01.04.2020
395 Clouds 9 1018 47 0 4.02 279 18:21 01.04.2020
396 Clouds 10 1018 44 0 2.24 135 17:56 01.04.2020
397 Clouds 10 1018 40 0 0.45 110 17:37 01.04.2020
398 Clouds 11 1018 36 0 3.13 290 17:18 01.04.2020
399 Clouds 11 1018 36 0 5.36 204 16:56 01.04.2020
400 Clouds 11 1018 36 0 3.58 8 16:38 01.04.2020
401 Clouds 9 1019 38 0 1.34 52 16:19 01.04.2020
402 Clouds 9 1019 39 0 2.24 38 15:42 01.04.2020
403 Clouds 10 1020 36 0 5.81 269 15:22 01.04.2020
404 Clear 8 1030 39 0 4.38 280 14:59 01.04.2020
405 Clear 8 1030 39 0 4.38 280 14:39 01.04.2020
406 Clear 8 1030 39 0 4.38 280 14:21 01.04.2020
407 Clouds 8 1030 39 0 4.22 280 13:59 01.04.2020
408 Clouds 8 1030 39 0 4.22 280 13:39 01.04.2020
409 Clouds 9 1030 39 0 4.22 280 13:20 01.04.2020
410 Clouds 9 1030 39 0 4.22 280 12:57 01.04.2020
411 Clouds 9 1030 39 0 4.22 280 12:37 01.04.2020
412 Clear 7 1030 39 0 3.65 275 12:19 01.04.2020
413 Clear 7 1030 39 0 3.65 275 11:56 01.04.2020
414 Clear 6 1030 39 0 3.65 275 11:37 01.04.2020
415 Clear 6 1030 39 0 3.65 275 11:18 01.04.2020
416 Clear 6 1030 39 0 3.65 275 10:39 01.04.2020
417 Clear 6 1030 39 0 3.65 275 10:21 01.04.2020
418 Clear 5 1030 39 0 3.65 275 09:59 01.04.2020
419 Clear 5 1030 39 0 3.65 275 09:59 01.04.2020
420 Clear 4 1030 39 0 3.65 275 09:40 01.04.2020
421 Clear 1 1024 61 0 1.34 304 09:20 01.04.2020
422 Clear 1 1018 58 0 2.57 251 08:44 01.04.2020
423 Clear 1 1018 58 0 2.57 251 08:44 01.04.2020
424 Clear -1 1018 71 0 2.57 251 08:20 01.04.2020
425 Clear -2 1018 81 0 2.57 251 07:58 01.04.2020
426 Clear -3 1018 87 0 2.57 251 07:40 01.04.2020
427 Clear -3 1025 88 0 2.57 251 07:19 01.04.2020
428 Clear -3 1021 69 0 2.57 251 06:42 01.04.2020
429 Clear -3 1021 68 0 0.45 98 06:20 01.04.2020
430 Clear -5 1021 69 0 2.75 235 05:28 01.04.2020
431 Clear -4 1026 83 0 2.75 235 03:40 01.04.2020
432 Clear -4 1023 69 0 2.4 233 02:59 01.04.2020
433 Clear -4 1027 81 0 2.4 233 02:36 01.04.2020
434 Clear -4 1021 86 0 2.39 233 01:50 01.04.2020
435 Clear -3 1027 79 0 2.39 233 01:25 01.04.2020
436 Clear -3 1022 86 0 2.39 233 00:47 01.04.2020
437 Clear -3 1028 75 0 2.39 233 00:23 01.04.2020
438 Clear -2 1023 84 0 1.69 246 23:59 31.03.2020
439 Clear -2 1023 83 0 1.69 246 23:40 31.03.2020
440 Clear -2 1023 82 0 1.69 246 23:21 31.03.2020
441 Clear -1 1023 80 0 1.69 246 22:41 31.03.2020
442 Clear -1 1023 80 0 1.69 246 22:22 31.03.2020
443 Clear -1 1023 80 0 1.69 246 21:58 31.03.2020
444 Clear -1 1023 80 0 1.69 246 21:58 31.03.2020
445 Clear 0 1023 77 0 1.69 246 21:40 31.03.2020
446 Clouds 0 1023 73 0 0.79 247 21:21 31.03.2020
447 Clouds 1 1023 75 0 1.31 285 20:58 31.03.2020
448 Clouds 1 1023 75 0 1.31 285 20:57 31.03.2020
449 Clouds 1 1024 73 0 1.31 285 20:37 31.03.2020
450 Clouds 2 1024 69 0 1.31 285 20:19 31.03.2020
451 Clouds 3 1024 62 0 1.31 285 19:57 31.03.2020
452 Clouds 4 1024 50 0 1.31 285 19:38 31.03.2020
453 Clouds 5 1030 39 0 1.31 285 19:19 31.03.2020
454 Clouds 6 1030 39 0 1.31 285 18:46 31.03.2020
455 Clouds 6 1030 39 0 1.31 285 18:21 31.03.2020
456 Clouds 6 1029 39 0 1.34 337 17:58 31.03.2020
457 Clouds 6 1030 41 0 2.68 19 17:40 31.03.2020
458 Clouds 6 1030 39 0 1.34 53 17:21 31.03.2020
459 Clouds 6 1030 41 0 1.34 282 17:21 31.03.2020
460 Clouds 7 1030 39 0 2.68 352 16:57 31.03.2020
461 Clouds 6 1025 39 0 2.14 344 16:37 31.03.2020
462 Clouds 7 1031 42 0 1.79 11 16:18 31.03.2020
463 Clouds 7 1031 40 0 1.34 296 15:56 31.03.2020
464 Clouds 7 1031 40 0 1.34 296 15:56 31.03.2020
465 Clouds 7 1025 41 0 2.14 344 15:37 31.03.2020
466 Clouds 7 1025 41 0 2.14 344 15:37 31.03.2020
467 Clouds 7 1031 39 0 0.89 4 15:18 31.03.2020
468 Clouds 7 1031 39 0 4.02 302 14:56 31.03.2020
469 Clouds 7 1031 39 0 1.34 317 14:37 31.03.2020
470 Clouds 6 1031 39 0 1.79 36 14:18 31.03.2020
471 Clouds 7 1032 39 0 0.89 25 13:41 31.03.2020
472 Clouds 7 1026 39 0 2.59 43 13:19 31.03.2020
473 Clouds 6 1032 39 0 3.13 43 12:54 31.03.2020
474 Clouds 6 1032 40 0 2.24 91 12:36 31.03.2020
475 Clear 5 1032 40 0 1.34 330 12:18 31.03.2020
476 Clear 5 1032 40 0 2.24 9 11:38 31.03.2020
477 Clear 5 1032 43 0 3.58 14 11:19 31.03.2020
478 Clear 4 1032 52 0 0.89 118 10:57 31.03.2020
479 Clear 4 1032 61 0 3.13 94 10:39 31.03.2020
480 Clear 4 1032 63 0 3.13 98 10:21 31.03.2020
481 Clear 4 1032 66 0 0.89 323 09:56 31.03.2020
482 Clear 3 1032 65 0 0.89 93 09:37 31.03.2020
483 Clouds 3 1032 64 0 2.24 42 09:37 31.03.2020
484 Clouds 3 1032 64 0 2.24 42 09:37 31.03.2020
485 Clouds 3 1032 64 0 2.24 42 09:37 31.03.2020
486 Clear -1 1031 95 0 2.23 26 09:19 31.03.2020
487 Clear 1 1031 84 0 0.45 63 08:56 31.03.2020
488 Clear 1 1031 84 0 0.45 63 08:56 31.03.2020
489 Clear 1 1031 84 0 0.45 63 08:56 31.03.2020
490 Clear 1 1026 96 0 2.23 26 08:37 31.03.2020
491 Clear 0 1026 99 0 2.23 26 08:19 31.03.2020
492 Clear -1 1026 10 0 2.23 26 07:54 31.03.2020
493 Clear -1 1031 84 0 1.34 313 07:36 31.03.2020
494 Clear -1 1031 89 0 1.34 319 07:18 31.03.2020
495 Clear -1 1030 89 0 2.23 26 06:42 31.03.2020
496 Clear -1 1030 89 0 0.45 81 05:57 31.03.2020
497 Clear -1 1030 89 0 1.34 38 05:38 31.03.2020
498 Clear 0 1029 90 0 1.79 21 03:27 31.03.2020
499 Clouds 0 1028 90 0 1.34 317 01:52 31.03.2020
500 Clouds 0 1028 90 0 3.03 29 01:33 31.03.2020
501 Clouds 0 1028 89 0 3.03 29 00:46 31.03.2020
502 Clouds 1 1028 88 0 3.03 29 00:24 31.03.2020
503 Clouds 1 1027 86 0 1.93 347 23:41 30.03.2020
504 Clouds 1 1027 85 0 1.93 347 23:20 30.03.2020
505 Clouds 1 1027 84 0 1.93 347 22:58 30.03.2020
506 Clouds 2 1027 83 0 1.93 347 22:39 30.03.2020
507 Clouds 2 1027 82 0 1.93 347 22:20 30.03.2020
508 Clouds 2 1027 82 0 1.93 347 21:58 30.03.2020
509 Clouds 2 1027 82 0 1.34 261 21:39 30.03.2020
510 Rain 2 1026 81 0 2.24 343 21:21 30.03.2020
511 Rain 2 1021 89 0 3.09 317 20:59 30.03.2020
512 Rain 3 1026 82 0 0.89 323 20:39 30.03.2020
513 Rain 3 1026 81 0 2.24 293 20:20 30.03.2020
514 Rain 3 1026 80 0 3.09 317 19:57 30.03.2020
515 Rain 3 1026 79 0 3.09 317 19:39 30.03.2020
516 Rain 3 1026 90 0 0.45 269 19:20 30.03.2020
517 Rain 4 1025 76 0 1.34 283 18:56 30.03.2020
518 Rain 4 1025 76 0 1.79 309 18:36 30.03.2020
519 Rain 4 1025 75 0 4.47 287 18:18 30.03.2020
520 Rain 4 1025 74 0 3.13 273 17:55 30.03.2020
521 Rain 4 1025 73 0 2.68 326 17:36 30.03.2020
522 Rain 4 1025 71 0 1.79 271 17:18 30.03.2020
523 Rain 4 1026 76 0 1.79 286 16:41 30.03.2020
524 Rain 4 1026 75 0 1.34 186 16:21 30.03.2020
525 Rain 4 1026 72 0 2.68 242 16:21 30.03.2020
526 Rain 4 1026 66 0 1.34 289 15:56 30.03.2020
527 Rain 5 1026 65 0 2.24 314 15:38 30.03.2020
528 Clouds 5 1026 64 0 1.34 299 15:20 30.03.2020
529 Clouds 5 1026 61 0 1.79 297 14:58 30.03.2020
530 Clouds 5 1026 61 0 4.47 242 14:38 30.03.2020
531 Clouds 5 1026 59 0 5.36 287 14:19 30.03.2020
532 Clouds 5 1026 53 0 3.58 251 13:58 30.03.2020
533 Clouds 5 1027 52 0 0.89 230 13:39 30.03.2020
534 Clouds 4 1027 52 0 3.13 256 13:20 30.03.2020
535 Clouds 4 1027 48 0 5.36 223 12:45 30.03.2020
536 Clouds 3 1028 54 0 5.36 227 12:22 30.03.2020
537 Clouds 4 1028 47 0 2.24 145 11:59 30.03.2020
538 Clouds 4 1028 47 0 0.89 149 11:59 30.03.2020
539 Clouds 4 1028 48 0 3.58 359 11:41 30.03.2020
540 Clouds 3 1029 45 0 5.07 274 11:22 30.03.2020
541 Clouds 3 1029 46 0 1.34 256 10:57 30.03.2020
542 Clouds 3 1029 51 0 1.34 276 10:37 30.03.2020
543 Clouds 2 1029 52 0 1.34 238 10:19 30.03.2020
544 Clouds 2 1029 53 0 4.02 251 09:41 30.03.2020
545 Clouds 2 1029 53 0 4.02 251 09:41 30.03.2020
546 Clear 0 1029 68 0 1.34 6 09:20 30.03.2020
547 Clear 0 1023 62 0 3.41 271 08:58 30.03.2020
548 Clear -1 1023 64 0 3.41 271 08:38 30.03.2020
549 Clear -2 1024 73 0 3.41 271 08:20 30.03.2020
550 Clear -3 1024 73 0 3.41 271 07:44 30.03.2020
551 Clear -3 1030 66 0 3.41 271 07:23 30.03.2020
552 Clear -4 1030 80 0 0.89 177 06:47 30.03.2020
553 Clear -4 1030 79 0 3.41 271 06:25 30.03.2020
554 Clear -4 1030 79 0 2.54 308 05:44 30.03.2020
555 Clear -4 1031 76 0 2.54 308 04:37 30.03.2020
556 Clear -4 1031 74 0 0.45 269 04:18 30.03.2020
557 Clouds -3 1031 68 0 0.45 265 02:45 30.03.2020
558 Clear -2 1032 66 0 0.89 314 01:58 30.03.2020
559 Clear -2 1032 67 0 1.34 326 01:18 30.03.2020
560 Clear -1 1032 66 0 0.89 289 00:29 30.03.2020
561 Clear -1 1032 66 0 0.45 300 23:57 29.03.2020
562 Clear -1 1032 66 0 0.45 300 23:57 29.03.2020
563 Clear -1 1032 66 0 0.45 297 23:39 29.03.2020
564 Clear 0 1032 67 0 3.39 7 23:20 29.03.2020
565 Clear 0 1031 64 0 3.39 7 22:55 29.03.2020
566 Clear 1 1031 61 0 1.79 314 22:37 29.03.2020
567 Clear 1 1031 62 0 2.24 328 22:18 29.03.2020
568 Clouds 1 1031 65 0 2.68 348 21:39 29.03.2020
569 Snow 2 1031 64 0 0.89 345 21:20 29.03.2020
570 Snow 2 1031 62 0 4.92 310 20:56 29.03.2020
571 Snow 2 1030 61 0 5.81 359 20:37 29.03.2020
572 Snow 2 1030 59 0 2.68 25 20:19 29.03.2020
573 Snow 3 1029 58 0 3.58 352 19:59 29.03.2020
574 Snow 3 1029 57 0 4.47 19 19:41 29.03.2020
575 Snow 3 1029 62 0 5.36 23 19:23 29.03.2020
576 Snow 4 1028 62 0 2.68 338 18:57 29.03.2020
577 Snow 4 1028 63 0 4.47 348 18:38 29.03.2020
578 Snow 4 1028 63 0 6.26 25 18:20 29.03.2020
579 Snow 4 1027 69 0 6.26 359 17:56 29.03.2020
580 Snow 4 1027 68 0 8.05 9 17:38 29.03.2020
581 Snow 4 1027 67 0 10.73 316 17:19 29.03.2020
582 Snow 5 1027 71 0 4.02 359 16:57 29.03.2020
583 Snow 4 1026 69 0 8.49 357 16:38 29.03.2020
584 Snow 4 1026 74 0 5.36 28 16:38 29.03.2020
585 Snow 4 1026 77 0 6.26 359 16:19 29.03.2020
586 Snow 5 1026 74 0 6.26 19 15:43 29.03.2020
587 Snow 5 1026 74 0 6.26 19 15:43 29.03.2020
588 Snow 5 1026 66 0 3.58 45 15:25 29.03.2020
589 Snow 5 1025 70 0 7.6 327 14:59 29.03.2020
590 Snow 5 1025 79 0 8.05 359 14:40 29.03.2020
591 Snow 5 1025 83 0 4.02 300 14:20 29.03.2020
592 Snow 5 1025 83 0 0.89 295 13:59 29.03.2020
593 Snow 5 1024 87 0 4.02 323 13:41 29.03.2020
594 Snow 5 1024 86 0 4.47 29 13:21 29.03.2020
595 Snow 5 1024 82 0 9.39 352 12:57 29.03.2020
596 Snow 5 1024 84 0 4.02 5 12:38 29.03.2020
597 Rain 5 1023 86 0 4.02 341 12:19 29.03.2020
598 Rain 5 1023 86 0 6.26 345 11:57 29.03.2020
599 Rain 5 1023 87 0 8.05 314 11:57 29.03.2020
600 Rain 5 1023 83 0 4.47 358 11:37 29.03.2020
601 Rain 5 1022 78 0 3.58 306 11:19 29.03.2020
602 Rain 5 1022 72 0 4.92 300 10:39 29.03.2020
603 Rain 5 1022 74 0 2.24 355 10:20 29.03.2020
604 Rain 5 1021 70 0 1.79 321 09:55 29.03.2020
605 Rain 5 1021 70 0 4.47 328 09:37 29.03.2020
606 Clouds 5 1021 70 0 4.47 279 09:18 29.03.2020
607 Clouds 5 1021 69 0 4.02 296 08:43 29.03.2020
608 Clouds 4 1021 70 0 5.36 307 08:24 29.03.2020
609 Clouds 4 1021 72 0 2.24 316 07:47 29.03.2020
610 Clouds 4 1020 72 0 2.68 287 07:23 29.03.2020
611 Clouds 4 1020 76 0 4.47 304 06:34 29.03.2020
612 Clouds 4 1020 73 0 0.89 254 04:56 29.03.2020
613 Clouds 4 1014 75 0 4.2 314 03:41 29.03.2020
614 Clouds 4 1014 72 0 3.7 310 03:20 29.03.2020
615 Clouds 4 1020 69 0 1.79 323 01:40 29.03.2020
616 Clouds 4 1020 74 0 3.7 310 01:21 29.03.2020
617 Clouds 5 1020 68 0 4.45 296 00:40 29.03.2020
618 Clouds 5 1020 68 0 3.13 278 00:19 29.03.2020
619 Clouds 5 1020 67 0 3.13 273 23:41 28.03.2020
620 Clouds 5 1020 66 0 2.24 276 23:22 28.03.2020
621 Clouds 5 1020 62 0 0.89 241 22:46 28.03.2020
622 Clouds 6 1020 60 0 1.34 309 22:23 28.03.2020
623 Clouds 6 1020 57 0 0.89 290 21:59 28.03.2020
624 Clouds 7 1020 54 0 1.34 320 21:40 28.03.2020
625 Clouds 7 1020 53 0 3.13 345 21:21 28.03.2020
626 Clouds 7 1020 54 0 1.79 316 20:58 28.03.2020
627 Clouds 7 1020 57 0 0.89 324 20:38 28.03.2020
628 Clear 8 1020 58 0 2.95 353 20:20 28.03.2020
629 Clear 8 1013 55 0 0.45 0 19:56 28.03.2020
630 Clear 9 1019 51 0 1.34 303 19:36 28.03.2020
631 Clear 10 1019 50 0 2.24 323 19:18 28.03.2020
632 Clear 11 1019 49 0 1.79 321 18:47 28.03.2020
633 Clear 11 1019 49 0 3.13 328 18:22 28.03.2020
634 Clear 13 1018 47 0 1.79 357 17:58 28.03.2020
635 Clear 13 1018 45 0 1.79 19 17:38 28.03.2020
636 Clear 13 1018 43 0 4.47 300 17:19 28.03.2020
637 Clear 14 1019 37 0 3.58 287 16:42 28.03.2020
638 Clear 14 1019 35 0 2.68 313 16:20 28.03.2020
639 Clear 14 1019 35 0 3.13 335 15:56 28.03.2020
640 Clear 14 1019 34 0 3.13 310 15:37 28.03.2020
641 Clear 14 1019 33 0 3.13 307 15:18 28.03.2020
642 Clear 13 1019 38 0 2.68 314 14:42 28.03.2020
643 Clear 14 1020 31 0 5.36 327 14:22 28.03.2020
644 Clouds 14 1019 37 0 1.79 39 13:57 28.03.2020
645 Clouds 14 1020 32 0 4.47 359 13:37 28.03.2020
646 Clear 14 1020 31 0 3.58 306 13:18 28.03.2020
647 Clear 13 1021 33 0 1.34 310 12:38 28.03.2020
648 Clear 13 1021 33 0 4.02 317 12:19 28.03.2020
649 Clear 13 1021 37 0 7.15 323 11:42 28.03.2020
650 Clear 12 1021 52 0 0.89 60 11:21 28.03.2020
651 Clouds 11 1022 45 0 3.13 287 10:56 28.03.2020
652 Clouds 10 1022 48 0 2.68 326 10:37 28.03.2020
653 Clouds 9 1022 49 0 1.79 330 10:18 28.03.2020
654 Clouds 8 1022 54 0 3.13 302 09:41 28.03.2020
655 Clouds 8 1022 56 0 0.89 317 09:22 28.03.2020
656 Clouds 7 1022 51 0 4.47 245 08:45 28.03.2020
657 Clouds 7 1022 50 0 0.89 276 08:27 28.03.2020
658 Clouds 3 1021 86 0 0.45 58 07:59 28.03.2020
659 Clouds 3 1021 86 0 0.45 346 07:41 28.03.2020
660 Clouds 2 1016 84 0 3.23 347 06:55 28.03.2020
661 Clouds 1 1016 87 0 3.23 347 06:32 28.03.2020
662 Clouds 1 1022 81 0 3.23 347 05:41 28.03.2020
663 Clear 2 1022 80 0 1.34 317 05:19 28.03.2020
664 Clear 2 1021 79 0 3.13 313 04:40 28.03.2020
665 Clear 3 1021 74 0 2.24 331 03:21 28.03.2020
666 Clear 5 1022 67 0 0.89 319 01:49 28.03.2020
667 Clear 5 1022 67 0 0.89 290 01:25 28.03.2020
668 Clear 6 1022 65 0 2.24 323 00:56 28.03.2020
669 Clear 6 1022 65 0 1.34 343 00:35 28.03.2020
670 Clear 7 1022 65 0 1.34 306 23:55 27.03.2020
671 Clear 7 1022 65 0 0.89 316 23:37 27.03.2020
672 Clear 7 1022 63 0 0.45 292 23:18 27.03.2020
673 Clear 7 1022 61 0 1.34 355 22:55 27.03.2020
674 Clear 8 1022 60 0 1.34 320 22:37 27.03.2020
675 Clear 8 1022 58 0 0.89 326 22:18 27.03.2020
676 Clear 9 1022 55 0 1.79 359 21:42 27.03.2020
677 Clear 10 1022 53 0 3.34 43 21:24 27.03.2020
678 Clear 10 1022 53 0 0.89 345 20:58 27.03.2020
679 Clear 10 1022 53 0 0.89 345 20:58 27.03.2020
680 Clear 10 1022 51 0 3.34 43 20:39 27.03.2020
681 Clouds 11 1022 51 0 3.87 44 20:20 27.03.2020
682 Clouds 10 1021 49 0 1.34 18 19:57 27.03.2020
683 Clouds 11 1021 50 0 0.45 19 19:38 27.03.2020
684 Clouds 12 1021 48 0 3.87 44 19:20 27.03.2020
685 Clouds 13 1021 45 0 0.45 11 18:44 27.03.2020
686 Clouds 14 1021 43 0 0.45 84 18:24 27.03.2020
687 Clouds 14 1021 40 0 2.68 358 17:58 27.03.2020
688 Clouds 15 1020 38 0 1.79 18 17:39 27.03.2020
689 Clouds 15 1020 35 0 4.02 52 17:19 27.03.2020
690 Clouds 16 1021 33 0 3.58 33 16:44 27.03.2020
691 Clouds 16 1021 33 0 4.47 57 16:25 27.03.2020
692 Clouds 16 1021 33 0 2.24 359 15:56 27.03.2020
693 Clouds 16 1021 33 0 3.58 1 15:38 27.03.2020
694 Clouds 17 1021 34 0 2.24 14 15:19 27.03.2020
695 Clouds 18 1021 31 0 4.02 359 14:43 27.03.2020
696 Clouds 14 1020 54 0 5 62 14:24 27.03.2020
697 Clear 14 1022 52 0 4.94 75 13:55 27.03.2020
698 Clear 17 1022 29 0 3.58 14 13:36 27.03.2020
699 Clear 17 1022 30 0 3.13 83 13:18 27.03.2020
700 Clear 17 1022 31 0 4.02 56 12:43 27.03.2020
701 Clear 16 1023 32 0 1.79 39 12:19 27.03.2020
702 Clear 16 1023 33 0 7.15 1 11:57 27.03.2020
703 Clear 15 1023 33 0 3.13 14 11:39 27.03.2020
704 Clear 10 1023 64 0 4.61 78 11:21 27.03.2020
705 Clear 10 1023 64 0 4.61 78 10:54 27.03.2020
706 Clear 12 1023 41 0 3.13 2 10:36 27.03.2020
707 Clear 11 1024 44 0 1.79 43 10:18 27.03.2020
708 Clear 10 1024 46 0 1.79 19 09:54 27.03.2020
709 Clear 9 1024 47 0 3.58 8 09:36 27.03.2020
710 Clear 9 1024 47 0 1.34 28 09:18 27.03.2020
711 Clear 9 1014 47 0 1.34 1 08:54 27.03.2020
712 Clear 9 1024 43 0 2.68 55 08:36 27.03.2020
713 Clouds 2 1024 83 0 3.35 63 08:18 27.03.2020
714 Clear 2 1024 85 0 3.49 62 07:41 27.03.2020
715 Clear 2 1024 85 0 3.49 62 07:21 27.03.2020
716 Clear 4 1024 61 0 0.89 22 06:41 27.03.2020
717 Clear 3 1023 66 0 0.89 8 05:57 27.03.2020
718 Clear 3 1024 65 0 0.89 8 03:34 27.03.2020
719 Clouds 3 1024 63 0 1.79 358 02:19 27.03.2020
720 Clouds 4 1024 60 0 1.79 28 01:19 27.03.2020
721 Clear 4 1024 59 0 0.89 0 00:43 27.03.2020
722 Clear 4 1024 60 0 0.45 348 00:20 27.03.2020
723 Clear 5 1024 58 0 3.62 60 23:42 26.03.2020
724 Clear 5 1025 57 0 3.73 73 23:19 26.03.2020
725 Clear 5 1025 56 0 0.89 22 22:57 26.03.2020
726 Clear 6 1025 56 0 0.89 350 22:36 26.03.2020
727 Clear 6 1025 56 0 3.73 73 22:18 26.03.2020
728 Clear 6 1025 54 0 0.45 7 21:40 26.03.2020
729 Clear 6 1025 53 0 0.89 352 21:22 26.03.2020
730 Clear 6 1025 50 0 3.73 73 20:59 26.03.2020
731 Clear 7 1025 49 0 1.79 29 20:40 26.03.2020
732 Clear 7 1025 48 0 1.79 60 20:22 26.03.2020
733 Clear 7 1025 46 0 1.79 50 19:58 26.03.2020
734 Clear 8 1025 45 0 1.79 86 19:40 26.03.2020
735 Clear 8 1025 44 0 2.24 8 19:22 26.03.2020
736 Clear 9 1025 43 0 1.34 50 18:59 26.03.2020
737 Clear 9 1025 41 0 0.89 111 18:41 26.03.2020
738 Clear 9 1025 41 0 3.13 108 18:23 26.03.2020
739 Clear 11 1025 39 0 4.02 107 17:45 26.03.2020
740 Clear 11 1025 37 0 4.47 95 17:20 26.03.2020
741 Clear 11 1025 37 0 4.47 95 17:20 26.03.2020
742 Clear 12 1025 34 0 4.92 107 16:59 26.03.2020
743 Clear 12 1025 33 0 4.02 86 16:38 26.03.2020
744 Clear 12 1025 32 0 5.36 107 16:20 26.03.2020
745 Clear 12 1025 32 0 4.02 42 15:56 26.03.2020
746 Clear 12 1025 31 0 2.24 94 15:38 26.03.2020
747 Clear 12 1026 31 0 8.49 87 15:19 26.03.2020
748 Clear 12 1026 30 0 3.13 114 14:43 26.03.2020
749 Clear 12 1026 32 0 3.58 46 14:25 26.03.2020
750 Clear 12 1026 32 0 3.58 46 14:25 26.03.2020
751 Clear 12 1026 32 0 7.6 70 13:59 26.03.2020
752 Clear 12 1026 31 0 0.45 26 13:40 26.03.2020
753 Clear 11 1027 31 0 8.94 64 13:21 26.03.2020
754 Clear 11 1027 31 0 8.94 64 13:21 26.03.2020
755 Clear 11 1027 32 0 3.13 35 12:54 26.03.2020
756 Clear 11 1027 32 0 1.79 57 12:36 26.03.2020
757 Clear 10 1027 34 0 2.24 115 12:18 26.03.2020
758 Clear 10 1027 35 0 8.05 95 11:43 26.03.2020
759 Clear 5 1027 63 0 4.8 96 11:19 26.03.2020
760 Clear 8 1028 40 0 4.47 59 10:42 26.03.2020
761 Clear 8 1028 39 0 2.24 98 10:42 26.03.2020
762 Clear 7 1028 42 0 3.13 93 10:20 26.03.2020
763 Clear 6 1028 45 0 1.34 26 09:55 26.03.2020
764 Clear 6 1028 44 0 1.79 49 09:55 26.03.2020
765 Clear 6 1028 45 0 0.89 64 09:37 26.03.2020
766 Clear 4 1028 47 0 3.13 47 09:19 26.03.2020
767 Clear 6 1029 40 0 3.58 334 08:42 26.03.2020
768 Clear 6 1029 40 0 4.8 96 08:24 26.03.2020
769 Clear -2 1028 90 0 3.56 86 07:57 26.03.2020
770 Clear -2 1028 90 0 3.56 86 07:38 26.03.2020
771 Clear -2 1028 90 0 3.56 86 07:19 26.03.2020
772 Clear 0 1028 62 0 3.56 86 06:35 26.03.2020
773 Clear -2 1027 66 0 1.79 7 05:51 26.03.2020
774 Clear -1 1027 63 0 3.27 90 03:47 26.03.2020
775 Clear -1 1027 62 0 3.27 90 03:26 26.03.2020
776 Clear 0 1027 59 0 3.27 90 02:52 26.03.2020
777 Clear 1 1028 54 0 3.77 90 01:19 26.03.2020
778 Clear 1 1028 52 0 1.79 64 00:33 26.03.2020
779 Clear 2 1029 48 0 3.77 90 23:44 25.03.2020
780 Clear 2 1029 48 0 3.77 90 23:26 25.03.2020
781 Clear 3 1029 45 0 0.45 40 22:56 25.03.2020
782 Clear 3 1029 44 0 4.52 95 22:38 25.03.2020
783 Clear 3 1029 43 0 1.34 84 22:19 25.03.2020
784 Clear 3 1029 43 0 4.52 95 22:19 25.03.2020
785 Clear 3 1029 42 0 4.52 95 21:54 25.03.2020
786 Clear 3 1029 41 0 1.79 90 21:36 25.03.2020
787 Clear 4 1029 41 0 4.52 95 21:18 25.03.2020
788 Clear 4 1029 38 0 4.52 95 20:39 25.03.2020
789 Clouds 5 1029 37 0 1.79 23 20:20 25.03.2020
790 Clouds 2 1029 75 0 4.28 79 19:57 25.03.2020
791 Clouds 2 1029 75 0 4.28 79 19:38 25.03.2020
792 Clouds 6 1029 32 0 3.58 47 19:20 25.03.2020
793 Clouds 7 1028 31 0 2.68 124 18:54 25.03.2020
794 Clouds 7 1028 31 0 2.24 26 18:36 25.03.2020
795 Clouds 8 1028 31 0 1.34 87 18:18 25.03.2020
796 Clouds 9 1028 27 0 1.79 351 17:41 25.03.2020
797 Clouds 9 1028 26 0 0.45 66 17:22 25.03.2020
798 Clouds 9 1029 26 0 3.13 93 17:22 25.03.2020
799 Clouds 9 1029 26 0 2.68 62 16:59 25.03.2020
800 Clouds 10 1029 25 0 3.58 105 16:39 25.03.2020
801 Clouds 10 1029 25 0 2.24 71 16:21 25.03.2020
802 Clouds 10 1029 25 0 2.24 71 16:21 25.03.2020
803 Clouds 10 1030 24 0 5.81 77 15:44 25.03.2020
804 Clouds 11 1030 24 0 5.36 66 15:21 25.03.2020
805 Clouds 11 1030 25 0 1.34 117 14:59 25.03.2020
806 Clouds 11 1031 25 0 4.02 98 14:40 25.03.2020
807 Clouds 7 1031 52 0 6.18 100 14:20 25.03.2020
808 Clouds 10 1031 26 0 4.02 67 13:46 25.03.2020
809 Clouds 9 1031 27 0 2.68 79 13:25 25.03.2020
810 Clouds 10 1032 27 0 2.68 45 12:55 25.03.2020
811 Clouds 9 1032 27 0 2.68 162 12:37 25.03.2020
812 Clouds 9 1032 28 0 6.26 176 12:18 25.03.2020
813 Clouds 8 1033 29 0 4.02 107 11:41 25.03.2020
814 Clouds 7 1033 31 0 4.47 162 11:21 25.03.2020
815 Clear 6 1033 33 0 7.6 104 10:59 25.03.2020
816 Clear 6 1033 35 0 6.26 93 10:40 25.03.2020
817 Clear 5 1033 35 0 6.71 66 10:19 25.03.2020
818 Clear 5 1033 40 0 5.36 90 09:59 25.03.2020
819 Clear 4 1033 42 0 2.68 359 09:40 25.03.2020
820 Clear 4 1033 42 0 1.34 60 09:21 25.03.2020
821 Clear 4 1033 43 0 0.45 21 08:43 25.03.2020
822 Clear 6 1034 38 0 2.24 90 08:25 25.03.2020
823 Clear -2 1033 88 0 3.31 106 07:59 25.03.2020
824 Clear -1 1028 51 0 3.31 106 07:39 25.03.2020
825 Clear -1 1028 51 0 3.31 106 07:19 25.03.2020
826 Clear -2 1028 59 0 3.31 106 06:45 25.03.2020
827 Clear -2 1033 67 0 3.31 106 06:25 25.03.2020
828 Clear -3 1033 71 0 3.31 106 05:50 25.03.2020
829 Clear -4 1033 69 0 2.78 116 04:59 25.03.2020
830 Clear -3 1033 68 0 2.78 116 04:36 25.03.2020
831 Clear -3 1034 67 0 2.78 116 03:34 25.03.2020
832 Clear -2 1034 60 0 3.17 113 01:57 25.03.2020
833 Clear -2 1034 60 0 3.17 113 01:20 25.03.2020
834 Clear -2 1034 63 0 1.79 111 00:47 25.03.2020
835 Clear -2 1034 66 0 3.12 112 00:19 25.03.2020
836 Clear -1 1034 64 0 3.12 112 23:44 24.03.2020
837 Clear -1 1035 62 0 3.12 112 23:25 24.03.2020
838 Clear 0 1035 58 0 3.52 111 22:55 24.03.2020
839 Clear 0 1035 57 0 3.52 111 22:37 24.03.2020
840 Clear 0 1035 54 0 3.52 111 22:19 24.03.2020
841 Clear 0 1035 51 0 3.52 111 21:55 24.03.2020
842 Clear 1 1035 55 0 3.52 111 21:36 24.03.2020
843 Clear 1 1035 52 0 3.52 111 21:18 24.03.2020
844 Clear 1 1034 48 0 3.52 111 20:43 24.03.2020
845 Clear 2 1034 45 0 0.45 111 20:24 24.03.2020
846 Clear 3 1034 43 0 0.89 94 19:57 24.03.2020
847 Clear 4 1034 43 0 1.34 47 19:39 24.03.2020
848 Clear 5 1034 41 0 1.79 73 19:18 24.03.2020
849 Clear 5 1034 38 0 2.68 40 18:55 24.03.2020
850 Clear 5 1034 38 0 2.68 50 18:55 24.03.2020
851 Clear 5 1034 35 0 2.68 87 18:36 24.03.2020
852 Clear 6 1034 32 0 1.34 81 18:18 24.03.2020
853 Clear 7 1034 28 0 3.13 95 17:42 24.03.2020
854 Clear 8 1034 28 0 3.13 112 17:22 24.03.2020
855 Clear 8 1034 26 0 3.13 90 16:58 24.03.2020
856 Clear 8 1034 26 0 2.68 119 16:39 24.03.2020
857 Clear 8 1035 24 0 2.24 138 16:21 24.03.2020
858 Clear 8 1035 25 0 1.79 131 15:58 24.03.2020
859 Clear 8 1035 25 0 3.58 163 15:37 24.03.2020
860 Clear 8 1035 26 0 5.36 71 15:19 24.03.2020
861 Clear 8 1035 26 0 4.47 119 14:43 24.03.2020
862 Clear 9 1036 25 0 6.71 138 14:19 24.03.2020
863 Clear 9 1036 28 0 3.58 138 13:44 24.03.2020
864 Clear 9 1037 26 0 4.02 56 13:24 24.03.2020
865 Clear 8 1037 25 0 1.34 91 12:58 24.03.2020
866 Clear 8 1037 28 0 6.71 91 12:38 24.03.2020
867 Clear 8 1037 28 0 6.71 91 12:38 24.03.2020
868 Clear 7 1038 29 0 3.58 88 12:20 24.03.2020
869 Clear 7 1038 31 0 3.58 162 11:40 24.03.2020
870 Clear 5 1038 34 0 4.02 163 11:20 24.03.2020
871 Clear 5 1038 34 0 5.81 93 10:54 24.03.2020
872 Clear 5 1038 35 0 4.47 71 10:36 24.03.2020
873 Clear 5 1039 37 0 4.92 134 10:18 24.03.2020
874 Clear 4 1038 47 0 1.79 118 09:42 24.03.2020
875 Clear 4 1038 49 0 2.68 125 09:24 24.03.2020
876 Clear 3 1033 39 0 3.98 125 08:40 24.03.2020
877 Clear -1 1039 59 0 1.34 126 08:21 24.03.2020
878 Clear -1 1038 61 0 1.79 228 07:52 24.03.2020
879 Clear -2 1038 64 0 1.34 113 07:25 24.03.2020
880 Clear -4 1033 77 0 3.13 120 06:59 24.03.2020
881 Clear -4 1037 69 0 0.45 45 06:34 24.03.2020
882 Clear -4 1037 71 0 3.13 120 05:30 24.03.2020
883 Clear -4 1037 69 0 3.06 131 04:49 24.03.2020
884 Clear -3 1036 69 0 3.06 131 03:19 24.03.2020
885 Clear -3 1036 68 0 3.02 127 02:25 24.03.2020
886 Clear -2 1037 66 0 2.97 124 00:53 24.03.2020
887 Clear -2 1037 62 0 2.97 124 00:26 24.03.2020
888 Clear -2 1037 67 0 2.97 124 23:55 23.03.2020
889 Clear -2 1037 68 0 2.97 124 23:37 23.03.2020
890 Clear -2 1037 67 0 2.96 117 23:19 23.03.2020
891 Clear -1 1037 65 0 2.96 117 22:43 23.03.2020
892 Clear -1 1037 63 0 2.96 117 22:22 23.03.2020
893 Clear -1 1037 61 0 2.96 117 21:55 23.03.2020
894 Clear -1 1037 62 0 2.96 117 21:37 23.03.2020
895 Clear -1 1037 61 0 2.96 117 21:18 23.03.2020
896 Clear 0 1032 51 0 2.96 117 20:42 23.03.2020
897 Clear 1 1037 51 0 3.47 118 20:24 23.03.2020
898 Clear 1 1037 46 0 0.45 112 19:56 23.03.2020
899 Clear 2 1037 45 0 3 108 19:37 23.03.2020
900 Clear 2 1037 43 0 1.34 104 19:19 23.03.2020
901 Clear 3 1037 43 0 1.79 52 18:54 23.03.2020
902 Clear 3 1037 44 0 0.45 76 18:36 23.03.2020
903 Clear 5 1036 39 0 0.89 57 18:18 23.03.2020
904 Clear 5 1036 34 0 0.89 114 17:41 23.03.2020
905 Clear 6 1036 34 0 1.34 95 17:20 23.03.2020
906 Clear 6 1036 30 0 2.24 118 16:55 23.03.2020
907 Clear 6 1036 28 0 3.58 97 16:36 23.03.2020
908 Clear 6 1036 29 0 3.13 104 16:18 23.03.2020
909 Clear 7 1037 30 0 3.58 71 15:40 23.03.2020
910 Clear 7 1037 29 0 2.68 46 15:19 23.03.2020
911 Clear 7 1038 31 0 2.68 132 14:38 23.03.2020
912 Clear 6 1038 31 0 4.02 182 14:19 23.03.2020
913 Clear 6 1038 31 0 3.58 87 13:57 23.03.2020
914 Clear 6 1038 32 0 1.34 211 13:38 23.03.2020
915 Clear 6 1038 30 0 4.02 98 13:38 23.03.2020
916 Clear 6 1038 31 0 2.24 67 13:20 23.03.2020
917 Clear 6 1039 33 0 2.24 149 12:44 23.03.2020
918 Clear 6 1039 32 0 2.24 149 12:25 23.03.2020
919 Clear 6 1039 32 0 4.47 39 11:58 23.03.2020
920 Clear 6 1039 34 0 2.24 146 11:38 23.03.2020
921 Clear 4 1039 34 0 5.36 98 11:19 23.03.2020
922 Clear 4 1039 35 0 4.02 76 10:56 23.03.2020
923 Clear 4 1040 36 0 6.26 98 10:37 23.03.2020
924 Clear 4 1040 37 0 4.47 52 10:19 23.03.2020
925 Clear 3 1040 44 0 4.47 86 09:44 23.03.2020
926 Clear 3 1040 47 0 2.24 73 09:21 23.03.2020
927 Clear 2 1040 50 0 3.58 115 08:56 23.03.2020
928 Clear 2 1040 39 0 2.68 52 08:36 23.03.2020
929 Clear -1 1041 58 0 0.89 84 08:18 23.03.2020
930 Clear -2 1035 65 0 3.13 103 07:42 23.03.2020
931 Clear -2 1035 69 0 3.13 103 07:21 23.03.2020
932 Clear -4 1035 75 0 3.13 103 06:49 23.03.2020
933 Clear -5 1039 73 0 3.13 103 05:51 23.03.2020
934 Clear -4 1039 73 0 2.77 116 04:58 23.03.2020
935 Clear -4 1034 66 0 2.77 116 03:26 23.03.2020
936 Clear -3 1039 66 0 2.89 116 01:51 23.03.2020
937 Clear -3 1039 67 0 2.89 116 01:32 23.03.2020
938 Clear -2 1039 63 0 3.1 110 00:36 23.03.2020
939 Clear -2 1038 55 0 3.1 110 23:47 22.03.2020
940 Clear -2 1038 53 0 3.1 110 23:26 22.03.2020
941 Clear -1 1038 53 0 4.13 106 22:45 22.03.2020
942 Clear -1 1038 49 0 4.13 106 22:24 22.03.2020
943 Clear 0 1038 53 0 4.13 106 21:56 22.03.2020
944 Clear 0 1038 50 0 1.34 112 21:37 22.03.2020
945 Clear 1 1038 49 0 1.34 95 21:19 22.03.2020
946 Clear 1 1037 56 0 4.13 106 20:46 22.03.2020
947 Clear 1 1037 55 0 3.95 107 20:25 22.03.2020
948 Clear 2 1037 47 0 4.68 78 19:58 22.03.2020
949 Clear 2 1037 44 0 1.34 94 19:40 22.03.2020
950 Clear 2 1037 45 0 1.34 60 19:40 22.03.2020
951 Clear 2 1037 44 0 0.45 86 19:20 22.03.2020
952 Clear 3 1037 42 0 1.34 97 18:59 22.03.2020
953 Clear 4 1036 40 0 2.24 119 18:41 22.03.2020
954 Clear 4 1036 39 0 0.89 50 18:22 22.03.2020
955 Clear 5 1036 38 0 0.89 110 17:59 22.03.2020
956 Clear 5 1036 34 0 4.02 40 17:39 22.03.2020
957 Clear 5 1036 34 0 4.02 40 17:39 22.03.2020
958 Clear 6 1035 32 0 1.79 57 17:21 22.03.2020
959 Clear 6 1035 32 0 6.04 84 16:59 22.03.2020
960 Clear 6 1035 31 0 4.47 73 16:41 22.03.2020
961 Clear 6 1035 33 0 3.13 77 16:21 22.03.2020
962 Clear 7 1035 32 0 2.68 74 15:58 22.03.2020
963 Clear 7 1035 31 0 2.24 50 15:39 22.03.2020
964 Clear 7 1035 30 0 5.36 101 14:47 22.03.2020
965 Clear 7 1036 33 0 4.02 57 14:19 22.03.2020
966 Clear 6 1036 33 0 4.92 79 13:58 22.03.2020
967 Clear 6 1036 34 0 2.24 36 13:40 22.03.2020
968 Clear 7 1036 36 0 2.68 18 13:19 22.03.2020
969 Clear 6 1036 40 0 3.58 36 12:44 22.03.2020
970 Clear 7 1036 40 0 5.81 1 12:21 22.03.2020
971 Clear 6 1036 44 0 2.68 93 11:58 22.03.2020
972 Clear 6 1036 46 0 4.02 56 11:39 22.03.2020
973 Clear 5 1036 46 0 3.58 21 11:20 22.03.2020
974 Clear 4 1036 48 0 0.89 42 10:43 22.03.2020
975 Clear 4 1036 49 0 4.92 52 10:24 22.03.2020
976 Clear 4 1036 51 0 6.26 87 09:59 22.03.2020
977 Clear 4 1037 53 0 4.47 94 09:40 22.03.2020
978 Clear 4 1036 55 0 4.02 8 09:19 22.03.2020
979 Clear 3 1031 57 0 6.3 81 08:42 22.03.2020
980 Clear 2 1036 67 0 1.79 47 08:23 22.03.2020
981 Clear 1 1036 70 0 1.34 31 07:50 22.03.2020
982 Clear 0 1036 72 0 0.89 27 07:22 22.03.2020
983 Clear -2 1035 80 0 1.34 343 05:57 22.03.2020
984 Clear -2 1035 81 0 4.87 67 05:31 22.03.2020
985 Clear -1 1034 80 0 1.34 359 03:25 22.03.2020
986 Clear 0 1033 75 0 1.79 40 01:26 22.03.2020
987 Clear 0 1033 73 0 2.68 33 00:47 22.03.2020
988 Clear 0 1033 73 0 2.68 38 00:25 22.03.2020
989 Clear 1 1033 72 0 3.13 63 23:42 21.03.2020
990 Clear 1 1033 71 0 1.79 359 23:19 21.03.2020
991 Clear 1 1033 71 0 2.68 359 22:55 21.03.2020
992 Clear 1 1033 70 0 1.34 55 22:36 21.03.2020
993 Clear 1 1033 69 0 2.68 55 22:18 21.03.2020
994 Clear 1 1032 66 0 3.58 50 21:41 21.03.2020
995 Clear 2 1032 65 0 0.89 359 21:23 21.03.2020
996 Clear 2 1032 61 0 1.34 12 20:59 21.03.2020
997 Clear 2 1032 61 0 3.58 9 20:41 21.03.2020
998 Clouds 3 1032 60 0 1.79 11 20:19 21.03.2020
999 Clouds 3 1031 59 0 0.45 12 19:44 21.03.2020
1000 Clouds 3 1031 60 0 2.24 7 19:25 21.03.2020
1001 Clouds 4 1031 61 0 4.91 52 18:58 21.03.2020
1002 Clouds 4 1031 57 0 1.34 43 18:39 21.03.2020
1003 Clouds 5 1031 53 0 0.89 28 18:20 21.03.2020
1004 Clouds 6 1030 50 0 2.24 35 17:57 21.03.2020
1005 Clouds 7 1030 49 0 6.71 355 17:39 21.03.2020
1006 Clouds 7 1030 47 0 0.89 56 17:20 21.03.2020
1007 Clouds 7 1030 47 0 3.13 9 16:41 21.03.2020
1008 Clouds 7 1030 46 0 8.05 39 16:22 21.03.2020
1009 Clouds 8 1030 40 0 6.26 38 15:57 21.03.2020
1010 Clouds 7 1030 44 0 2.68 49 15:39 21.03.2020
1011 Clouds 7 1030 44 0 2.68 49 15:39 21.03.2020
1012 Clouds 7 1030 42 0 5.36 15 15:20 21.03.2020
1013 Clouds 7 1030 39 0 4.02 127 14:55 21.03.2020
1014 Clouds 7 1030 40 0 5.81 50 14:37 21.03.2020
1015 Clouds 7 1030 40 0 4.47 84 14:18 21.03.2020
1016 Clouds 7 1031 45 0 5.36 50 13:57 21.03.2020
1017 Clouds 6 1031 43 0 4.92 9 13:38 21.03.2020
1018 Clouds 7 1031 48 0 0.89 11 13:19 21.03.2020
1019 Clouds 7 1031 46 0 3.58 320 12:41 21.03.2020
1020 Clouds 7 1031 50 0 3.13 77 12:20 21.03.2020
1021 Clouds 6 1031 50 0 6.26 36 11:59 21.03.2020
1022 Clouds 6 1030 53 0 6.26 4 11:39 21.03.2020
1023 Clear 6 1030 53 0 6.26 4 11:20 21.03.2020
1024 Clear 6 1030 53 0 6.26 4 10:58 21.03.2020
1025 Clear 6 1030 53 0 6.26 4 10:40 21.03.2020
1026 Clear 6 1030 53 0 6.26 4 10:22 21.03.2020
1027 Clear 6 1030 53 0 6.26 4 09:59 21.03.2020
1028 Clear 6 1030 58 0 6.26 35 09:39 21.03.2020
1029 Clear 6 1030 56 0 7.15 359 09:39 21.03.2020
1030 Clear 6 1030 60 0 3.13 26 09:20 21.03.2020
1031 Clear 6 1030 67 0 5.36 4 08:55 21.03.2020
1032 Clear 6 1030 60 0 2.24 46 08:37 21.03.2020
1033 Clouds 4 1030 74 0 2.68 56 08:19 21.03.2020
1034 Clouds 4 1025 86 0 5.45 49 07:39 21.03.2020
1035 Clouds 3 1025 89 0 5.45 49 07:20 21.03.2020
1036 Clouds 3 1029 83 0 4.02 21 06:44 21.03.2020
1037 Clouds 3 1029 87 0 2.24 22 06:25 21.03.2020
1038 Clouds 3 1029 86 0 0.89 36 05:41 21.03.2020
1039 Clouds 3 1028 83 0 4.47 352 04:34 21.03.2020
1040 Clouds 4 1028 79 0 4.47 40 02:38 21.03.2020
1041 Clouds 5 1027 83 0 2.68 359 01:54 21.03.2020
1042 Clouds 5 1027 82 0 2.68 359 01:28 21.03.2020
1043 Clouds 6 1027 81 0 4.47 300 00:43 21.03.2020
1044 Clouds 6 1027 81 0 4.47 300 00:43 21.03.2020
1045 Clouds 6 1027 80 0 4.47 355 00:24 21.03.2020
1046 Clouds 6 1027 79 0 4.02 359 23:45 20.03.2020
1047 Clouds 6 1027 78 0 4.47 340 23:23 20.03.2020
1048 Clouds 6 1027 77 0 3.58 334 22:44 20.03.2020
1049 Clouds 6 1027 76 0 2.68 9 22:25 20.03.2020
1050 Clouds 6 1027 73 0 3.13 306 21:59 20.03.2020
1051 Clouds 6 1027 73 0 4.92 358 21:41 20.03.2020
1052 Clouds 6 1027 71 0 4.92 359 21:20 20.03.2020
1053 Clouds 6 1027 71 0 4.92 359 21:20 20.03.2020
1054 Clouds 6 1027 70 0 4.02 307 20:59 20.03.2020
1055 Clouds 7 1027 69 0 3.58 14 20:41 20.03.2020
1056 Clouds 7 1026 70 0 3.13 359 20:21 20.03.2020
1057 Rain 7 1026 71 0 2.68 18 19:58 20.03.2020
1058 Rain 7 1026 71 0 4.92 359 19:40 20.03.2020
1059 Rain 7 1026 68 0 1.84 55 19:18 20.03.2020
1060 Rain 7 1026 67 0 0.45 341 18:39 20.03.2020
1061 Rain 7 1026 67 0 0.45 341 18:39 20.03.2020
1062 Rain 7 1026 66 0 1.84 55 18:20 20.03.2020
1063 Rain 8 1026 64 0 0.89 18 17:57 20.03.2020
1064 Rain 8 1026 63 0 0.89 23 17:39 20.03.2020
1065 Clouds 8 1026 66 0 1.79 307 17:20 20.03.2020
1066 Clouds 9 1025 69 0 2.24 335 16:43 20.03.2020
1067 Clouds 9 1025 69 0 1.79 4 16:22 20.03.2020
1068 Clouds 9 1025 68 0 0.45 313 15:59 20.03.2020
1069 Clouds 9 1026 74 0 3.98 8 15:41 20.03.2020
1070 Clouds 9 1026 75 0 1.79 358 15:21 20.03.2020
1071 Clouds 9 1026 75 0 0.89 333 14:54 20.03.2020
1072 Clouds 8 1026 77 0 3.13 359 14:36 20.03.2020
1073 Rain 8 1026 73 0 0.89 16 14:18 20.03.2020
1074 Rain 8 1026 73 0 1.79 316 13:40 20.03.2020
1075 Rain 8 1026 77 0 1.34 235 13:19 20.03.2020
1076 Rain 8 1026 79 0 2.24 297 12:39 20.03.2020
1077 Rain 8 1026 84 0 0.45 297 12:20 20.03.2020
1078 Rain 8 1026 85 0 1.34 22 11:57 20.03.2020
1079 Rain 8 1026 85 0 1.79 344 11:38 20.03.2020
1080 Rain 8 1026 86 0 0.45 355 11:19 20.03.2020
1081 Rain 8 1026 89 0 4.38 39 10:41 20.03.2020
1082 Rain 8 1026 90 0 0.89 38 10:21 20.03.2020
1083 Rain 8 1025 91 0 2.68 16 09:57 20.03.2020
1084 Rain 8 1026 91 0 1.34 358 09:39 20.03.2020
1085 Rain 7 1026 91 0 3.58 331 09:19 20.03.2020
1086 Rain 7 1025 92 0 3.13 21 08:42 20.03.2020
1087 Rain 8 1025 92 0 1.79 358 08:22 20.03.2020
1088 Rain 7 1025 92 0 0.89 1 07:54 20.03.2020
1089 Rain 7 1025 92 0 2.68 12 07:36 20.03.2020
1090 Rain 8 1025 91 0 2.68 14 07:18 20.03.2020
1091 Rain 7 1025 87 0 1.34 311 06:41 20.03.2020
1092 Rain 8 1024 83 0 3.96 35 06:41 20.03.2020
1093 Clouds 8 1024 80 0 1.34 297 04:52 20.03.2020
1094 Clouds 8 1025 80 0 3.09 39 03:40 20.03.2020
1095 Clouds 8 1025 80 0 4.02 344 02:20 20.03.2020
1096 Clouds 8 1025 80 0 1.34 354 01:33 20.03.2020
1097 Clouds 8 1025 80 0 0.89 314 00:33 20.03.2020
1098 Clouds 9 1025 82 0 1.79 359 23:49 19.03.2020
1099 Clouds 9 1025 81 0 0.45 345 23:30 19.03.2020
1100 Clouds 9 1025 81 0 2.24 358 22:58 19.03.2020
1101 Clouds 9 1025 81 0 0.89 321 22:38 19.03.2020
1102 Clouds 9 1025 80 0 1.34 317 22:20 19.03.2020
1103 Clouds 9 1025 80 0 0.89 345 21:56 19.03.2020
1104 Clouds 10 1025 80 0 1.34 350 21:37 19.03.2020
1105 Clouds 10 1025 80 0 1.79 300 21:18 19.03.2020
1106 Clouds 10 1025 80 0 0.89 7 20:42 19.03.2020
1107 Clouds 10 1025 80 0 2.68 292 20:23 19.03.2020
1108 Rain 10 1025 79 0 2.24 324 19:57 19.03.2020
1109 Rain 10 1025 78 0 4.02 71 19:38 19.03.2020
1110 Rain 11 1025 77 0 2.24 358 19:20 19.03.2020
1111 Rain 11 1025 75 0 1.34 320 18:56 19.03.2020
1112 Rain 11 1025 74 0 1.79 357 18:38 19.03.2020
1113 Rain 12 1025 73 0 1.34 21 18:19 19.03.2020
1114 Rain 13 1024 72 0 3.58 359 17:42 19.03.2020
1115 Rain 14 1024 69 0 1.34 52 17:19 19.03.2020
1116 Rain 13 1024 68 0 0.45 310 16:55 19.03.2020
1117 Rain 14 1024 67 0 1.79 321 16:37 19.03.2020
1118 Rain 14 1024 66 0 2.68 4 16:19 19.03.2020
1119 Rain 14 1024 65 0 3.13 359 15:41 19.03.2020
1120 Rain 15 1024 63 0 2.68 15 15:22 19.03.2020
1121 Rain 15 1019 66 0 2.52 3 14:43 19.03.2020
1122 Rain 15 1025 50 0 0.89 30 14:21 19.03.2020
1123 Rain 15 1024 55 0 4.17 334 13:56 19.03.2020
1124 Rain 15 1019 65 0 4.17 334 13:37 19.03.2020
1125 Rain 15 1025 54 0 0.89 46 13:18 19.03.2020
1126 Rain 15 1025 48 0 4.02 239 12:40 19.03.2020
1127 Rain 15 1025 61 0 1.34 35 12:22 19.03.2020
1128 Rain 15 1025 50 0 4.02 313 11:57 19.03.2020
1129 Rain 15 1025 52 0 2.68 343 11:38 19.03.2020
1130 Clouds 14 1026 61 0 1.34 30 11:19 19.03.2020
1131 Clouds 15 1026 62 0 0.45 274 10:41 19.03.2020
1132 Clouds 13 1026 66 0 2.54 278 10:20 19.03.2020
1133 Clouds 13 1025 58 0 0.89 46 09:57 19.03.2020
1134 Clouds 12 1025 61 0 2.24 248 09:37 19.03.2020
1135 Clouds 11 1025 65 0 3.13 275 09:18 19.03.2020
1136 Clouds 11 1024 68 0 0.45 149 08:42 19.03.2020
1137 Clouds 9 1024 71 0 0.45 230 08:21 19.03.2020
1138 Clouds 10 1024 76 0 1.34 186 07:46 19.03.2020
1139 Clouds 9 1024 77 0 2.29 266 07:28 19.03.2020
1140 Clouds 10 1024 79 0 2.29 266 06:43 19.03.2020
1141 Clouds 9 1024 79 0 2.29 266 05:49 19.03.2020
1142 Clouds 9 1024 79 0 1.92 246 04:58 19.03.2020
1143 Clouds 10 1024 79 0 1.92 246 04:40 19.03.2020
1144 Clouds 9 1024 82 0 1.92 246 02:50 19.03.2020
1145 Clear 9 1024 79 0 2.49 245 01:25 19.03.2020
1146 Clear 7 1024 79 0 0.45 158 00:32 19.03.2020
1147 Clear 7 1024 78 0 2.59 240 23:57 18.03.2020
1148 Clear 7 1024 77 0 2.59 240 23:31 18.03.2020
1149 Clear 7 1024 78 0 1.79 248 22:58 18.03.2020
1150 Clear 7 1024 77 0 2.52 245 22:40 18.03.2020
1151 Clear 8 1024 75 0 1.34 153 22:21 18.03.2020
1152 Clear 8 1024 74 0 2.52 245 21:54 18.03.2020
1153 Clear 9 1024 72 0 2.52 245 21:36 18.03.2020
1154 Clear 9 1024 70 0 2.52 245 21:18 18.03.2020
1155 Clear 10 1024 67 0 0.89 153 20:41 18.03.2020
1156 Clear 10 1024 65 0 2.65 238 20:21 18.03.2020
1157 Clouds 11 1024 63 0 2.62 281 19:59 18.03.2020
1158 Clouds 12 1024 62 0 2.62 281 19:40 18.03.2020
1159 Clouds 12 1024 62 0 0.45 179 19:21 18.03.2020
1160 Clouds 13 1024 60 0 2.62 281 18:56 18.03.2020
1161 Clouds 14 1023 59 0 2.62 281 18:37 18.03.2020
1162 Clouds 15 1023 54 0 2.62 281 18:18 18.03.2020
1163 Clouds 16 1023 46 0 0.45 289 17:41 18.03.2020
1164 Clouds 17 1023 43 0 0.45 211 17:22 18.03.2020
1165 Clouds 17 1023 41 0 4.02 237 16:59 18.03.2020
1166 Clouds 17 1023 41 0 4.02 237 16:59 18.03.2020
1167 Clouds 17 1023 40 0 1.34 306 16:40 18.03.2020
1168 Clouds 17 1023 38 0 1.34 292 16:20 18.03.2020
1169 Clouds 17 1024 37 0 2.24 182 15:56 18.03.2020
1170 Clouds 18 1024 35 0 1.79 0 15:37 18.03.2020
1171 Clouds 18 1024 34 0 2.68 241 15:18 18.03.2020
1172 Clouds 17 1024 30 0 0.89 160 14:42 18.03.2020
1173 Clouds 17 1025 30 0 4.47 293 14:21 18.03.2020
1174 Clouds 17 1025 33 0 2.24 256 13:40 18.03.2020
1175 Clouds 16 1025 38 0 0.89 234 13:19 18.03.2020
1176 Clouds 17 1026 38 0 1.79 196 12:43 18.03.2020
1177 Clouds 16 1026 38 0 2.24 239 12:21 18.03.2020
1178 Clouds 16 1026 42 0 1.34 272 11:59 18.03.2020
1179 Clouds 16 1026 47 0 1.79 182 11:37 18.03.2020
1180 Clouds 16 1026 47 0 1.79 182 11:37 18.03.2020
1181 Clouds 14 1026 45 0 4.16 238 11:18 18.03.2020
1182 Clouds 14 1026 45 0 2.24 227 10:56 18.03.2020
1183 Clouds 14 1026 44 0 1.79 186 10:56 18.03.2020
1184 Clouds 14 1026 48 0 3.13 143 10:36 18.03.2020
1185 Clouds 14 1026 51 0 4.16 238 10:18 18.03.2020
1186 Clouds 12 1027 59 0 2.24 132 09:42 18.03.2020
1187 Clouds 11 1027 61 0 0.89 166 09:23 18.03.2020
1188 Clouds 9 1027 66 0 1.79 128 08:55 18.03.2020
1189 Clouds 9 1027 69 0 0.89 160 08:36 18.03.2020
1190 Clouds 8 1027 69 0 0.89 248 08:18 18.03.2020
1191 Clouds 6 1027 69 0 0.89 131 07:40 18.03.2020
1192 Clouds 6 1027 67 0 0.89 103 07:22 18.03.2020
1193 Clouds 5 1027 78 0 0.89 193 06:42 18.03.2020
1194 Clouds 4 1027 80 0 3.6 221 05:47 18.03.2020
1195 Clouds 4 1027 79 0 2.71 210 05:19 18.03.2020
1196 Clouds 4 1027 81 0 2.71 210 03:53 18.03.2020
1197 Clouds 5 1027 79 0 2.71 210 02:37 18.03.2020
1198 Clouds 6 1027 79 0 2.39 219 01:46 18.03.2020
1199 Clouds 6 1027 78 0 2.39 219 01:21 18.03.2020
1200 Clouds 6 1028 76 0 0.89 196 00:23 18.03.2020
1201 Clouds 7 1028 75 0 2.42 220 23:47 17.03.2020
1202 Clouds 7 1028 74 0 2.42 220 23:26 17.03.2020
1203 Clouds 8 1028 72 0 0.45 200 22:47 17.03.2020
1204 Clouds 8 1028 71 0 2.58 217 22:29 17.03.2020
1205 Clouds 9 1028 68 0 2.58 217 21:59 17.03.2020
1206 Clouds 9 1028 67 0 0.89 151 21:39 17.03.2020
1207 Clouds 9 1028 65 0 2.45 228 21:20 17.03.2020
1208 Clouds 10 1028 65 0 2.58 217 20:39 17.03.2020
1209 Clouds 10 1028 65 0 0.89 167 20:21 17.03.2020
1210 Clouds 10 1028 64 0 2.22 287 19:56 17.03.2020
1211 Clouds 10 1028 64 0 2.22 287 19:38 17.03.2020
1212 Clouds 11 1028 60 0 2.22 287 19:18 17.03.2020
1213 Clouds 11 1027 56 0 2.22 287 18:55 17.03.2020
1214 Clouds 12 1027 55 0 2.22 287 18:37 17.03.2020
1215 Clouds 12 1027 53 0 2.22 287 18:19 17.03.2020
1216 Clouds 14 1027 45 0 2.22 287 17:40 17.03.2020
1217 Clouds 14 1027 40 0 0.89 278 17:21 17.03.2020
1218 Clouds 14 1027 37 0 1.34 276 16:54 17.03.2020
1219 Clouds 15 1027 38 0 1.79 320 16:36 17.03.2020
1220 Clouds 15 1027 35 0 3.13 273 16:18 17.03.2020
1221 Clouds 15 1028 35 0 1.34 262 15:41 17.03.2020
1222 Clouds 15 1028 39 0 1.34 230 15:19 17.03.2020
1223 Clouds 15 1028 41 0 2.24 234 14:42 17.03.2020
1224 Clouds 15 1028 38 0 2.68 249 14:21 17.03.2020
1225 Clouds 15 1028 44 0 1.79 237 13:44 17.03.2020
1226 Clouds 15 1028 45 0 2.68 289 13:26 17.03.2020
1227 Clouds 15 1028 49 0 2.24 224 12:58 17.03.2020
1228 Clouds 14 1028 49 0 4.02 242 12:40 17.03.2020
1229 Clouds 14 1028 50 0 2.68 293 12:21 17.03.2020
1230 Clouds 13 1028 58 0 2.24 261 11:46 17.03.2020
1231 Clouds 12 1028 61 0 3.13 302 11:27 17.03.2020
1232 Clouds 11 1028 63 0 2.68 273 10:58 17.03.2020
1233 Clouds 10 1011 77 0 4.25 293 10:38 17.03.2020
1234 Clouds 9 1011 77 0 4.25 293 10:20 17.03.2020
1235 Clouds 9 1011 77 0 4.25 293 09:57 17.03.2020
1236 Clouds 9 1011 77 0 4.25 293 09:39 17.03.2020
1237 Clouds 10 1011 77 0 4.25 293 09:18 17.03.2020
1238 Clouds 9 1011 77 0 4.25 293 08:43 17.03.2020
1239 Rain 8 1027 86 0 1.08 245 08:21 17.03.2020
1240 Rain 7 1027 86 0 1.08 245 07:50 17.03.2020
1241 Rain 7 1026 86 0 1.08 245 07:26 17.03.2020
1242 Rain 7 1026 85 0 1.08 245 06:58 17.03.2020
1243 Rain 7 1026 84 0 1.08 245 06:33 17.03.2020
1244 Rain 6 1025 83 0 1.08 245 05:49 17.03.2020
1245 Clouds 6 1025 83 0 0.55 272 03:40 17.03.2020
1246 Clouds 5 1024 86 0 0.55 272 02:46 17.03.2020
1247 Clouds 5 1024 86 0 0.94 232 01:43 17.03.2020
1248 Clouds 5 1024 86 0 0.45 180 01:24 17.03.2020
1249 Clouds 5 1024 84 0 0.72 246 00:38 17.03.2020
1250 Clouds 6 1024 84 0 0.45 208 23:45 16.03.2020
1251 Clouds 6 1024 83 0 0.45 189 23:27 16.03.2020
1252 Clouds 7 1024 81 0 1.24 298 22:41 16.03.2020
1253 Clouds 7 1024 81 0 1.24 298 22:23 16.03.2020
1254 Clouds 7 1024 80 0 1.24 298 21:58 16.03.2020
1255 Clouds 8 1023 79 0 0.89 213 21:40 16.03.2020
1256 Clouds 8 1023 78 0 0.89 189 21:21 16.03.2020
1257 Clouds 8 1023 78 0 1.24 298 20:56 16.03.2020
1258 Clouds 9 1023 76 0 1.24 298 20:37 16.03.2020
1259 Clouds 9 1023 75 0 0.89 199 20:19 16.03.2020
1260 Clouds 10 1022 72 0 2.12 330 19:41 16.03.2020
1261 Clouds 11 1022 69 0 2.12 330 19:21 16.03.2020
1262 Clouds 12 1022 67 0 2.12 330 18:56 16.03.2020
1263 Clouds 13 1021 64 0 2.12 330 18:37 16.03.2020
1264 Clouds 14 1021 61 0 2.12 330 18:18 16.03.2020
1265 Clouds 15 1020 53 0 1.34 293 17:42 16.03.2020
1266 Clouds 16 1020 49 0 0.89 26 17:22 16.03.2020
1267 Clouds 16 1020 46 0 3.13 256 16:46 16.03.2020
1268 Clouds 16 1020 43 0 4.02 265 16:27 16.03.2020
1269 Clouds 17 1020 42 0 3.52 299 15:56 16.03.2020
1270 Clouds 17 1020 39 0 3.13 272 15:37 16.03.2020
1271 Clouds 17 1020 40 0 2.68 244 15:18 16.03.2020
1272 Clouds 17 1019 38 0 2.68 247 14:42 16.03.2020
1273 Clouds 17 1019 37 0 2.24 309 14:19 16.03.2020
1274 Clouds 17 1019 39 0 0.89 215 13:42 16.03.2020
1275 Clouds 16 1019 40 0 0.45 176 13:23 16.03.2020
1276 Clouds 16 1019 41 0 1.79 208 12:46 16.03.2020
1277 Clouds 16 1019 40 0 1.34 285 12:26 16.03.2020
1278 Clouds 16 1019 43 0 1.34 290 11:59 16.03.2020
1279 Clouds 15 1019 45 0 1.79 302 11:41 16.03.2020
1280 Clouds 14 1018 47 0 1.79 258 11:18 16.03.2020
1281 Clouds 13 1018 50 0 0.45 234 10:42 16.03.2020
1282 Clouds 12 1018 53 0 0.89 179 10:24 16.03.2020
1283 Clouds 11 1018 59 0 1.34 145 09:45 16.03.2020
1284 Clouds 10 1018 60 0 0.89 232 09:27 16.03.2020
1285 Clouds 9 1017 59 0 2.39 259 08:56 16.03.2020
1286 Clouds 6 1012 64 0 2.78 201 08:26 16.03.2020
1287 Clouds 4 1012 72 0 2.78 201 07:50 16.03.2020
1288 Clouds 3 1016 64 0 0.89 141 07:28 16.03.2020
1289 Clouds 2 1017 75 0 2.78 201 06:54 16.03.2020
1290 Clouds 2 1017 75 0 2.78 201 06:54 16.03.2020
1291 Clouds 2 1016 77 0 2.78 201 06:27 16.03.2020
1292 Clouds 2 1016 75 0 2.78 201 05:54 16.03.2020
1293 Clouds 3 1015 68 0 1.34 152 02:46 16.03.2020
1294 Clouds 4 1015 68 0 1.79 143 01:20 16.03.2020
1295 Clouds 4 1015 69 0 1.34 127 00:42 16.03.2020
1296 Clouds 4 1015 70 0 0.89 139 23:49 15.03.2020
1297 Clouds 4 1015 70 0 0.89 127 23:21 15.03.2020
1298 Clouds 5 1015 70 0 0.89 167 22:58 15.03.2020
1299 Clouds 6 1015 69 0 0.89 114 22:37 15.03.2020
1300 Clouds 6 1015 68 0 0.89 176 22:19 15.03.2020
1301 Clouds 6 1015 67 0 0.89 179 21:39 15.03.2020
1302 Clouds 6 1015 65 0 3.7 181 21:19 15.03.2020
1303 Clouds 7 1015 61 0 1.34 122 20:44 15.03.2020
1304 Clouds 7 1015 60 0 3.58 136 20:22 15.03.2020
1305 Clouds 8 1015 59 0 2.68 134 19:59 15.03.2020
1306 Clouds 8 1015 59 0 1.79 128 19:41 15.03.2020
1307 Clouds 9 1015 57 0 1.34 117 19:23 15.03.2020
1308 Clouds 9 1015 57 0 0.45 117 18:58 15.03.2020
1309 Clouds 10 1015 55 0 2.68 128 18:39 15.03.2020
1310 Clouds 10 1015 55 0 1.79 165 18:21 15.03.2020
1311 Clouds 11 1015 52 0 4.92 139 17:54 15.03.2020
1312 Clouds 12 1015 49 0 1.34 146 17:36 15.03.2020
1313 Clouds 13 1015 45 0 1.79 125 17:18 15.03.2020
1314 Clouds 13 1015 40 0 4.02 175 16:42 15.03.2020
1315 Clouds 14 1015 40 0 3.58 160 16:24 15.03.2020
1316 Clouds 14 1016 41 0 4.02 208 15:58 15.03.2020
1317 Clouds 13 1018 32 0 2.68 352 15:40 15.03.2020
1318 Clouds 13 1017 42 0 2.24 184 15:19 15.03.2020
1319 Clouds 13 1017 42 0 4.92 138 14:46 15.03.2020
1320 Clouds 13 1017 44 0 3.13 158 14:24 15.03.2020
1321 Clouds 13 1019 42 0 3.58 178 13:58 15.03.2020
1322 Clouds 13 1019 42 0 3.13 212 13:38 15.03.2020
1323 Clouds 13 1019 42 0 3.13 212 13:38 15.03.2020
1324 Clouds 13 1019 42 0 3.13 212 13:38 15.03.2020
1325 Clouds 13 1018 42 0 7.6 193 13:20 15.03.2020
1326 Clouds 13 1019 44 0 2.68 175 12:44 15.03.2020
1327 Clouds 13 1019 46 0 6.71 153 12:26 15.03.2020
1328 Clouds 12 1019 48 0 3.13 152 11:57 15.03.2020
1329 Clouds 12 1020 49 0 6.71 156 11:39 15.03.2020
1330 Clouds 10 1021 51 0 3.58 217 11:20 15.03.2020
1331 Clouds 10 1020 55 0 3.58 167 10:56 15.03.2020
1332 Clouds 10 1020 56 0 6.26 91 10:36 15.03.2020
1333 Clouds 10 1020 56 0 3.13 127 10:18 15.03.2020
1334 Clouds 8 1020 62 0 3.58 160 09:40 15.03.2020
1335 Clouds 7 1020 62 0 3.58 64 09:21 15.03.2020
1336 Clouds 6 1020 60 0 3.13 153 08:42 15.03.2020
1337 Clouds 4 1015 67 0 4.85 171 08:20 15.03.2020
1338 Clouds 3 1015 71 0 4.85 171 07:51 15.03.2020
1339 Clouds 2 1015 74 0 4.85 171 07:31 15.03.2020
1340 Clouds 1 1021 75 0 4.85 171 06:53 15.03.2020
1341 Clouds 1 1022 84 0 3.58 155 05:50 15.03.2020
1342 Clouds 0 1022 83 0 4.47 186 05:19 15.03.2020
1343 Clouds 0 1022 84 0 5.81 165 04:43 15.03.2020
1344 Clouds 0 1022 84 0 3.58 128 04:24 15.03.2020
1345 Clouds 0 1023 84 0 1.79 135 03:48 15.03.2020
1346 Clouds 0 1023 82 0 1.34 122 02:44 15.03.2020
1347 Clear 0 1023 79 0 0.45 159 01:35 15.03.2020
1348 Clear 1 1023 75 0 4.02 112 00:46 15.03.2020
1349 Clear 1 1024 74 0 1.79 149 00:27 15.03.2020
1350 Clear 1 1024 73 0 3.58 103 23:56 14.03.2020
1351 Clear 1 1024 73 0 2.68 158 23:37 14.03.2020
1352 Clear 1 1024 73 0 3.58 100 23:18 14.03.2020
1353 Clear 2 1024 72 0 3.58 131 22:44 14.03.2020
1354 Clear 1 1024 73 0 1.34 155 22:26 14.03.2020
1355 Clear 2 1025 73 0 0.89 132 21:57 14.03.2020
1356 Clear 2 1025 72 0 0.45 59 21:36 14.03.2020
1357 Clear 2 1024 71 0 1.79 146 21:18 14.03.2020
1358 Clear 3 1025 72 0 3.13 138 20:59 14.03.2020
1359 Clear 3 1025 72 0 0.89 115 20:40 14.03.2020
1360 Clouds 3 1025 69 0 0.89 107 20:19 14.03.2020
1361 Clouds 3 1025 68 0 1.34 119 19:56 14.03.2020
1362 Clouds 4 1025 68 0 1.34 155 19:38 14.03.2020
1363 Clouds 4 1025 67 0 0.45 31 19:19 14.03.2020
1364 Clouds 5 1024 64 0 4.17 125 18:37 14.03.2020
1365 Clouds 6 1024 62 0 4.17 125 18:19 14.03.2020
1366 Clouds 6 1024 62 0 4.17 125 18:19 14.03.2020
1367 Clouds 8 1024 56 0 1.34 118 17:39 14.03.2020
1368 -273 0 0 0 0 0 17:21 14.03.2020
1369 Clouds 9 1024 51 0 1.79 127 16:41 14.03.2020
1370 Clouds 9 1024 49 0 2.68 179 16:23 14.03.2020
1371 Clouds 9 1024 47 0 3.13 199 15:59 14.03.2020
1372 Clouds 9 1025 48 0 0.45 158 15:27 14.03.2020
1373 Clouds 9 1025 47 0 3.58 87 14:59 14.03.2020
1374 Clouds 9 1025 46 0 2.24 177 14:38 14.03.2020
1375 Clear 8 1025 49 0 1.34 102 14:20 14.03.2020
1376 Clear 9 1025 49 0 2.24 84 13:56 14.03.2020
1377 Clear 8 1025 49 0 4.92 131 13:38 14.03.2020
1378 Clear 8 1025 52 0 4.02 90 13:19 14.03.2020
1379 Clear 8 1025 52 0 4.47 105 12:43 14.03.2020
1380 Clear 7 1026 50 0 4.02 112 12:25 14.03.2020
1381 Clear 8 1026 59 0 0.45 79 11:44 14.03.2020
1382 Clear 6 1026 65 0 1.34 193 11:25 14.03.2020
1383 Clear 6 1026 67 0 1.79 135 10:54 14.03.2020
1384 Clear 6 1026 67 0 0.89 172 10:36 14.03.2020
1385 Clear 6 1026 71 0 2.94 136 10:18 14.03.2020
1386 Clear 5 1026 74 0 2.24 153 09:41 14.03.2020
1387 Clear 6 1026 73 0 3.13 86 09:22 14.03.2020
1388 Clear 4 1025 70 0 1.34 160 08:47 14.03.2020
1389 Clear 1 1025 88 0 0.45 97 08:27 14.03.2020
1390 Clear 0 1019 98 0 0.45 97 07:48 14.03.2020
1391 Clear -1 1019 10 0 0.45 97 07:23 14.03.2020
1392 Clear -2 1018 10 0 0.45 97 06:59 14.03.2020
1393 Clear -2 1023 90 0 0.45 97 06:39 14.03.2020
1394 Clear -1 1023 89 0 2.18 301 05:19 14.03.2020
1395 Clear 1 1022 85 0 0.45 204 03:42 14.03.2020
1396 Clear 1 1022 85 0 0.89 225 03:23 14.03.2020
1397 Clouds 2 1022 86 0 3.18 292 02:20 14.03.2020
1398 Clouds 3 1021 84 0 0.45 306 00:42 14.03.2020
1399 Clouds 4 1021 80 0 4.02 282 23:45 13.03.2020
1400 Clouds 4 1021 80 0 3.58 283 23:27 13.03.2020
1401 Clouds 5 1020 77 0 1.34 299 22:49 13.03.2020
1402 Clouds 5 1020 75 0 3.58 289 22:26 13.03.2020
1403 Clouds 5 1019 80 0 6.26 289 21:44 13.03.2020
1404 Clouds 5 1018 87 0 4.79 300 21:21 13.03.2020
1405 Clouds 5 1018 88 0 4.79 300 20:58 13.03.2020
1406 Clouds 6 1018 90 0 0.45 220 20:39 13.03.2020
1407 Clouds 6 1018 88 0 0.89 302 20:20 13.03.2020
1408 Clouds 6 1017 86 0 1.79 211 19:47 13.03.2020
1409 Clouds 6 1017 87 0 1.34 242 19:28 13.03.2020
1410 Clouds 6 1016 87 0 0.89 303 18:47 13.03.2020
1411 Clouds 7 1016 89 0 4.02 220 18:29 13.03.2020
1412 Clouds 7 1015 85 0 1.34 254 17:57 13.03.2020
1413 Clouds 8 1015 83 0 1.79 311 17:38 13.03.2020
1414 Rain 8 1015 80 0 2.68 306 17:20 13.03.2020
1415 Rain 8 1014 77 0 2.68 273 16:42 13.03.2020
1416 Rain 8 1014 78 0 5.81 316 16:24 13.03.2020
1417 Rain 8 1014 82 0 3.58 242 15:58 13.03.2020
1418 Rain 8 1014 82 0 4.02 278 15:38 13.03.2020
1419 Rain 8 1014 82 0 2.68 227 15:20 13.03.2020
1420 Rain 9 1014 85 0 5.36 278 14:41 13.03.2020
1421 Rain 9 1013 71 0 4.47 210 14:22 13.03.2020
1422 Rain 9 1006 83 0 13.04 272 13:57 13.03.2020
1423 Rain 9 1006 75 0 13.04 272 13:39 13.03.2020
1424 Rain 9 1013 59 0 5.36 352 13:19 13.03.2020
1425 Rain 9 1012 59 0 5.36 324 12:55 13.03.2020
1426 Rain 9 1012 59 0 4.47 303 12:36 13.03.2020
1427 Rain 10 1011 57 0 6.26 280 12:18 13.03.2020
1428 Rain 9 1011 60 0 4.92 262 11:42 13.03.2020
1429 Rain 9 1011 61 0 6.26 210 11:24 13.03.2020
1430 Clouds 9 1011 64 0 8.94 207 10:57 13.03.2020
1431 Clouds 9 1011 70 0 1.34 333 10:39 13.03.2020
1432 Clouds 9 1011 68 0 3.13 317 10:21 13.03.2020
1433 Clouds 9 1010 57 0 5.36 183 09:44 13.03.2020
1434 Clouds 8 1010 59 0 10.73 223 09:25 13.03.2020
1435 Clouds 7 1010 67 0 1.34 151 08:47 13.03.2020
1436 Clear 6 1010 73 0 0.89 234 08:23 13.03.2020
1437 Clear 6 1010 74 0 1.79 117 07:58 13.03.2020
1438 Clear 6 1010 76 0 1.34 172 07:38 13.03.2020
1439 Clear 5 1010 79 0 1.34 42 07:19 13.03.2020
1440 Clear 5 1010 80 0 1.34 186 06:44 13.03.2020
1441 Clear 5 1010 81 0 2.68 200 06:44 13.03.2020
1442 Clear 5 1010 80 0 0.45 194 05:56 13.03.2020
1443 Clear 5 1010 78 0 0.89 203 05:37 13.03.2020
1444 Clear 4 1010 85 0 4.54 235 04:38 13.03.2020
1445 Clear 3 1010 82 0 4.54 235 03:50 13.03.2020
1446 Clouds 4 1010 79 0 4.02 237 01:48 13.03.2020
1447 Clouds 4 1010 81 0 0.89 193 01:19 13.03.2020
1448 Clouds 4 1010 82 0 0.45 11 00:56 13.03.2020
1449 Clouds 4 1010 82 0 4.88 240 00:38 13.03.2020
1450 Clouds 4 1010 81 0 4.88 240 00:18 13.03.2020
1451 Clouds 5 1010 80 0 4.88 240 23:37 12.03.2020
1452 Clouds 5 1011 80 0 1.34 258 23:18 12.03.2020
1453 Clouds 6 1011 78 0 0.89 244 22:41 12.03.2020
1454 Clouds 5 1010 76 0 3.13 228 22:23 12.03.2020
1455 Clouds 5 1010 68 0 2.68 293 21:54 12.03.2020
1456 Clouds 5 1010 67 0 1.79 273 21:36 12.03.2020
1457 Clouds 4 1009 68 0 5.4 251 21:18 12.03.2020
1458 Clouds 5 1009 70 0 0.89 221 20:42 12.03.2020
1459 Clear 5 1009 68 0 3.87 237 20:20 12.03.2020
1460 Clear 6 1009 66 0 3.87 237 19:42 12.03.2020
1461 Clear 6 1009 63 0 3.87 237 19:21 12.03.2020
1462 Clear 7 1009 60 0 3.87 237 18:58 12.03.2020
1463 Clear 8 1010 54 0 0.89 237 18:39 12.03.2020
1464 Clear 9 1010 50 0 1.34 259 18:21 12.03.2020
1465 Clear 10 1009 41 0 3.13 280 17:41 12.03.2020
1466 Clear 11 1009 41 0 3.13 280 17:22 12.03.2020
1467 Clear 10 1009 42 0 5.36 208 16:58 12.03.2020
1468 Clear 11 1009 40 0 4.02 237 16:40 12.03.2020
1469 Clear 11 1009 40 0 6.26 272 16:21 12.03.2020
1470 Clear 11 1009 36 0 6.26 300 15:48 12.03.2020
1471 Clear 11 1009 36 0 7.6 275 15:28 12.03.2020
1472 Clear 11 1009 36 0 7.6 275 15:28 12.03.2020
1473 Clear 11 1009 38 0 4.02 255 14:55 12.03.2020
1474 Clear 11 1009 39 0 6.71 276 14:37 12.03.2020
1475 Rain 11 1009 37 0 4.92 292 14:18 12.03.2020
1476 Rain 11 1008 37 0 9.39 287 13:38 12.03.2020
1477 Rain 11 1008 45 0 6.26 249 13:20 12.03.2020
1478 Rain 11 1008 48 0 6.71 290 12:55 12.03.2020
1479 Rain 11 1008 49 0 6.26 302 12:37 12.03.2020
1480 Rain 11 1008 49 0 12.52 280 12:18 12.03.2020
1481 Rain 11 1007 50 0 5.81 313 11:55 12.03.2020
1482 Rain 11 1006 50 0 3.58 211 11:36 12.03.2020
1483 Rain 11 1006 55 0 7.15 276 11:18 12.03.2020
1484 Rain 12 1005 66 0 3.13 323 10:43 12.03.2020
1485 Rain 11 1005 67 0 5.36 304 10:23 12.03.2020
1486 Rain 11 1004 66 0 6.71 197 09:59 12.03.2020
1487 Rain 13 1004 72 0 4.47 263 09:40 12.03.2020
1488 Rain 13 1004 77 0 8.94 251 09:22 12.03.2020
1489 Rain 12 1004 83 0 7.6 189 08:39 12.03.2020
1490 Clouds 12 1004 79 0 4.92 287 08:18 12.03.2020
1491 Clouds 12 1002 70 0 3.13 38 07:47 12.03.2020
1492 Clouds 13 1002 71 0 2.24 107 07:22 12.03.2020
1493 Clouds 12 1003 75 0 1.79 204 06:26 12.03.2020
1494 Clouds 13 1003 77 0 2.68 108 05:35 12.03.2020
1495 Clouds 12 1005 81 0 2.68 223 03:45 12.03.2020
1496 Clouds 12 1006 85 0 4.02 136 02:21 12.03.2020
1497 Rain 11 1007 88 0 4.47 136 01:29 12.03.2020
1498 Clouds 11 1008 87 0 0.89 81 00:42 12.03.2020
1499 Clouds 11 1008 84 0 2.24 100 23:59 11.03.2020
1500 Clouds 11 1008 84 0 3.58 107 23:40 11.03.2020
1501 Clouds 10 1009 84 0 2.24 74 23:22 11.03.2020
1502 Clouds 10 1009 85 0 4.67 210 22:45 11.03.2020
1503 Clouds 10 1009 85 0 2.24 166 22:25 11.03.2020
1504 Clouds 10 1010 84 0 1.34 129 21:58 11.03.2020
1505 Clouds 10 1010 84 0 1.79 191 21:40 11.03.2020
1506 Clouds 10 1010 84 0 3.58 199 21:22 11.03.2020
1507 Clouds 10 1011 82 0 0.89 231 20:58 11.03.2020
1508 Clouds 10 1011 80 0 2.24 183 20:39 11.03.2020
1509 Rain 10 1011 80 0 0.89 119 20:19 11.03.2020
1510 Rain 10 1011 81 0 1.79 173 19:43 11.03.2020
1511 Rain 10 1006 83 0 2.87 230 19:25 11.03.2020
1512 Rain 10 1011 80 0 2.87 230 18:58 11.03.2020
1513 Rain 10 1011 80 0 2.87 230 18:39 11.03.2020
1514 Rain 11 1011 80 0 0.89 129 18:21 11.03.2020
1515 Rain 11 1011 77 0 0.89 239 17:57 11.03.2020
1516 Rain 12 1011 73 0 2.87 230 17:39 11.03.2020
1517 Clouds 12 1011 70 0 2.24 196 17:20 11.03.2020
1518 Clouds 13 1011 64 0 3.13 170 16:46 11.03.2020
1519 Clouds 13 1011 63 0 3.58 183 16:22 11.03.2020
1520 Clouds 13 1011 59 0 5.81 259 15:46 11.03.2020
1521 Clouds 13 1012 62 0 1.34 307 15:24 11.03.2020
1522 Clouds 13 1012 61 0 4.02 255 14:59 11.03.2020
1523 Clouds 13 1012 62 0 2.68 327 14:41 11.03.2020
1524 Clouds 14 1012 58 0 4.47 207 14:22 11.03.2020
1525 Clouds 13 1012 59 0 5.81 299 13:45 11.03.2020
1526 Clouds 13 1011 58 0 2.68 211 13:27 11.03.2020
1527 Clouds 14 1011 54 0 7.15 259 12:58 11.03.2020
1528 Clouds 13 1011 57 0 4.47 266 12:40 11.03.2020
1529 Clouds 13 1011 57 0 3.58 271 12:19 11.03.2020
1530 Clouds 13 1011 58 0 6.71 170 11:55 11.03.2020
1531 Clouds 12 1011 59 0 3.58 231 11:36 11.03.2020
1532 Clouds 11 1011 63 0 1.34 172 11:18 11.03.2020
1533 Clouds 11 1011 66 0 2.24 214 10:42 11.03.2020
1534 Clouds 11 1010 69 0 2.24 319 10:18 11.03.2020
1535 Clouds 10 1010 72 0 4.47 206 09:43 11.03.2020
1536 Clouds 10 1010 73 0 1.34 237 09:25 11.03.2020
1537 Clouds 10 1010 75 0 2.68 215 08:58 11.03.2020
1538 Clouds 9 1009 82 0 0.89 231 08:39 11.03.2020
1539 Rain 9 1009 82 0 0.89 231 08:18 11.03.2020
1540 Rain 9 1009 82 0 5.81 237 07:42 11.03.2020
1541 Rain 9 1008 82 0 2.24 256 07:19 11.03.2020
1542 Rain 9 1008 77 0 2.24 237 06:43 11.03.2020
1543 Rain 9 1007 86 0 3.13 238 05:36 11.03.2020
1544 Rain 9 1006 87 0 1.34 191 04:29 11.03.2020
1545 Rain 9 1004 86 0 3.58 302 02:20 11.03.2020
1546 Rain 10 1003 91 0 3.58 295 01:27 11.03.2020
1547 Rain 11 1002 83 0 6.26 297 00:46 11.03.2020
1548 Rain 11 1001 83 0 2.68 293 00:18 11.03.2020
1549 Rain 12 1001 84 0 5.36 261 23:40 10.03.2020
1550 Rain 11 1001 83 0 8.05 245 23:21 10.03.2020
1551 Rain 11 1001 83 0 4.02 207 22:39 10.03.2020
1552 Rain 11 1001 84 0 2.68 302 22:20 10.03.2020
1553 Rain 10 1001 85 0 2.68 228 21:57 10.03.2020
1554 Rain 10 1001 85 0 2.68 228 21:57 10.03.2020
1555 Rain 10 1001 86 0 2.68 200 21:39 10.03.2020
1556 Rain 10 1001 85 0 2.24 235 21:20 10.03.2020
1557 Rain 10 1001 86 0 2.24 151 20:59 10.03.2020
1558 Rain 9 1001 86 0 0.89 169 20:41 10.03.2020
1559 Rain 9 1001 86 0 1.79 238 20:18 10.03.2020
1560 Rain 9 1002 86 0 4.47 146 19:57 10.03.2020
1561 Rain 8 1002 86 0 2.24 194 19:38 10.03.2020
1562 Rain 8 1002 86 0 2.24 194 19:38 10.03.2020
1563 Rain 8 1002 87 0 1.79 170 19:20 10.03.2020
1564 Rain 8 1002 88 0 3.13 129 18:45 10.03.2020
1565 Rain 8 1002 88 0 0.89 145 18:26 10.03.2020
1566 Rain 8 1002 87 0 3.58 197 17:58 10.03.2020
1567 Rain 8 1002 87 0 2.24 213 17:40 10.03.2020
1568 Rain 8 1003 86 0 4.92 200 17:21 10.03.2020
1569 Rain 9 1003 86 0 2.24 204 16:39 10.03.2020
1570 Rain 9 1003 85 0 2.68 193 16:20 10.03.2020
1571 Rain 9 1004 84 0 4.47 128 15:57 10.03.2020
1572 Rain 10 1004 82 0 1.79 142 15:39 10.03.2020
1573 Rain 10 1004 80 0 5.36 163 15:19 10.03.2020
1574 Rain 9 1004 79 0 1.34 218 14:54 10.03.2020
1575 Rain 10 1004 76 0 4.47 200 14:36 10.03.2020
1576 Rain 9 1004 73 0 2.68 286 14:18 10.03.2020
1577 Rain 9 1004 72 0 3.58 179 13:42 10.03.2020
1578 Rain 9 1004 71 0 4.92 234 13:24 10.03.2020
1579 Rain 7 1005 85 0 5.81 236 12:42 10.03.2020
1580 Rain 7 1006 87 0 3.58 228 12:21 10.03.2020
1581 Rain 7 1005 76 0 3.58 207 11:59 10.03.2020
1582 Rain 8 1005 75 0 5.36 184 11:41 10.03.2020
1583 Rain 7 1005 76 0 4.47 213 11:22 10.03.2020
1584 Rain 7 1005 77 0 2.24 187 10:54 10.03.2020
1585 Rain 7 1005 78 0 5.36 180 10:36 10.03.2020
1586 Rain 7 1005 79 0 2.68 145 10:18 10.03.2020
1587 Rain 6 1006 84 0 5.81 143 09:42 10.03.2020
1588 Rain 6 1006 82 0 6.26 124 09:19 10.03.2020
1589 Rain 6 1000 92 0 8.42 208 08:53 10.03.2020
1590 Rain 6 1007 84 0 4.02 136 08:33 10.03.2020
1591 Clouds 5 1007 84 0 3.58 131 07:53 10.03.2020
1592 Clouds 5 1008 83 0 5.85 195 07:34 10.03.2020
1593 Clouds 5 1009 82 0 3.58 172 06:50 10.03.2020
1594 Clouds 5 1009 82 0 2.68 119 06:31 10.03.2020
1595 Clouds 4 1010 82 0 6.71 200 05:42 10.03.2020
1596 Clouds 4 1011 84 0 1.79 153 04:56 10.03.2020
1597 Clouds 4 1011 84 0 2.24 170 04:25 10.03.2020
1598 Clouds 3 1013 88 0 1.34 152 02:46 10.03.2020
1599 Clear 3 1013 88 0 0.45 159 01:31 10.03.2020
1600 Clear 3 1014 88 0 2.24 175 00:50 10.03.2020
1601 Clear 4 1013 88 0 0.45 182 00:27 10.03.2020
1602 Clear 4 1014 87 0 0.45 203 23:41 09.03.2020
1603 Clear 4 1015 86 0 0.45 189 23:22 09.03.2020
1604 Clear 4 1015 86 0 0.45 114 22:57 09.03.2020
1605 Clear 4 1015 86 0 3.51 230 22:37 09.03.2020
1606 Clear 4 1015 86 0 3.51 230 22:18 09.03.2020
1607 Clear 4 1015 86 0 3.51 230 21:43 09.03.2020
1608 Clear 4 1015 86 0 3.51 230 21:22 09.03.2020
1609 Clear 5 1015 86 0 3.51 230 20:58 09.03.2020
1610 Clear 5 1015 85 0 0.45 201 20:40 09.03.2020
1611 Rain 6 1015 85 0 0.89 173 20:20 09.03.2020
1612 Rain 7 1015 83 0 2.56 256 19:45 09.03.2020
1613 Rain 7 1015 82 0 2.56 256 19:26 09.03.2020
1614 Rain 8 1015 80 0 2.56 256 18:59 09.03.2020
1615 Rain 8 1014 79 0 2.56 256 18:40 09.03.2020
1616 Rain 9 1014 75 0 1.34 262 18:21 09.03.2020
1617 Rain 10 1014 69 0 1.79 254 17:59 09.03.2020
1618 Rain 10 1014 64 0 1.79 359 17:39 09.03.2020
1619 Rain 10 1014 63 0 2.68 302 17:20 09.03.2020
1620 Rain 11 1014 65 0 3.13 309 16:59 09.03.2020
1621 Rain 11 1013 59 0 0.45 244 16:41 09.03.2020
1622 Rain 12 1013 58 0 5.92 282 16:22 09.03.2020
1623 Rain 11 1013 59 0 4.02 263 15:58 09.03.2020
1624 Rain 12 1013 57 0 3.13 254 15:39 09.03.2020
1625 Rain 12 1012 57 0 0.89 261 15:21 09.03.2020
1626 Rain 12 1012 53 0 2.24 282 14:59 09.03.2020
1627 Rain 11 1012 64 0 1.34 330 14:38 09.03.2020
1628 Clouds 12 1012 54 0 4.92 268 14:20 09.03.2020
1629 Clouds 12 1012 61 0 5.9 266 13:58 09.03.2020
1630 Clouds 11 1012 61 0 0.89 292 13:39 09.03.2020
1631 Clouds 11 1012 62 0 2.68 265 13:39 09.03.2020
1632 Clouds 11 1012 64 0 2.24 256 13:20 09.03.2020
1633 Clouds 11 1006 67 0 5.62 272 12:44 09.03.2020
1634 Clouds 12 1012 60 0 1.79 326 12:24 09.03.2020
1635 Clouds 11 1012 65 0 3.13 265 11:58 09.03.2020
1636 Clouds 11 1012 65 0 2.24 285 11:40 09.03.2020
1637 Clouds 11 1012 65 0 4.92 359 11:20 09.03.2020
1638 Clouds 10 1012 67 0 3.58 317 10:55 09.03.2020
1639 Clouds 10 1011 68 0 2.24 269 10:37 09.03.2020
1640 Clouds 9 1011 74 0 2.68 299 10:18 09.03.2020
1641 Clouds 9 1011 78 0 0.89 262 09:42 09.03.2020
1642 Clouds 8 1011 82 0 1.79 276 09:24 09.03.2020
1643 Clouds 7 1011 86 0 5.95 279 08:46 09.03.2020
1644 Clouds 7 1010 87 0 1.79 258 08:28 09.03.2020
1645 Clouds 7 1010 87 0 2.48 245 07:57 09.03.2020
1646 Clouds 7 1010 87 0 2.48 245 07:37 09.03.2020
1647 Clouds 7 1010 87 0 2.48 245 07:18 09.03.2020
1648 Clouds 7 1009 87 0 2.24 167 06:39 09.03.2020
1649 Clouds 6 1009 87 0 2.48 245 06:21 09.03.2020
1650 Clouds 7 1009 87 0 2.48 245 05:42 09.03.2020
1651 Clouds 7 1009 87 0 0.89 110 04:59 09.03.2020
1652 Clouds 7 1009 86 0 2.24 162 04:39 09.03.2020
1653 Clouds 7 1009 85 0 1.79 359 04:20 09.03.2020
1654 Clouds 7 1009 85 0 1.79 359 04:20 09.03.2020
1655 Clouds 7 1009 81 0 2.24 155 02:53 09.03.2020
1656 Rain 7 1010 81 0 1.34 131 00:44 09.03.2020
1657 Rain 7 1010 81 0 2.24 149 00:25 09.03.2020
1658 Rain 7 1010 81 0 1.34 166 23:59 08.03.2020
1659 Rain 7 1011 81 0 0.89 129 23:39 08.03.2020
1660 Rain 7 1011 81 0 0.45 127 23:20 08.03.2020
1661 Rain 8 1011 79 0 1.34 146 22:42 08.03.2020
1662 Rain 8 1011 78 0 0.45 91 22:22 08.03.2020
1663 Rain 8 1011 78 0 0.45 138 21:59 08.03.2020
1664 Rain 8 1011 78 0 1.34 160 21:59 08.03.2020
1665 Rain 8 1011 78 0 0.89 117 21:41 08.03.2020
1666 Rain 8 1012 78 0 0.45 170 21:23 08.03.2020
1667 Rain 8 1012 79 0 3.92 213 20:58 08.03.2020
1668 Rain 8 1012 79 0 2.24 105 20:38 08.03.2020
1669 Clouds 8 1012 79 0 1.34 179 20:20 08.03.2020
1670 Clouds 8 1012 78 0 0.89 163 19:40 08.03.2020
1671 Clouds 8 1012 78 0 2.24 156 19:20 08.03.2020
1672 Clouds 9 1012 77 0 1.34 175 18:58 08.03.2020
1673 Clouds 9 1012 75 0 1.34 153 18:39 08.03.2020
1674 Clouds 9 1012 74 0 0.45 162 18:20 08.03.2020
1675 Clouds 10 1012 71 0 2.68 128 17:41 08.03.2020
1676 Clouds 10 1012 69 0 4.92 182 17:22 08.03.2020
1677 Clouds 11 1012 68 0 3.58 184 16:59 08.03.2020
1678 Clouds 11 1012 68 0 3.13 152 16:41 08.03.2020
1679 Clouds 11 1012 65 0 2.68 187 16:22 08.03.2020
1680 Clouds 11 1012 61 0 2.68 176 15:55 08.03.2020
1681 Clouds 12 1012 62 0 3.58 223 15:37 08.03.2020
1682 Clouds 12 1013 63 0 2.24 201 15:18 08.03.2020
1683 Clouds 12 1013 61 0 1.79 177 14:40 08.03.2020
1684 Clouds 12 1013 59 0 2.24 176 14:21 08.03.2020
1685 Clouds 11 1014 59 0 4.92 199 13:55 08.03.2020
1686 Clouds 11 1010 57 0 4.47 160 13:36 08.03.2020
1687 Clouds 11 1010 57 0 4.47 160 13:18 08.03.2020
1688 Clouds 10 1016 72 0 3.13 252 12:38 08.03.2020
1689 Clouds 10 1015 59 0 3.13 138 12:18 08.03.2020
1690 Clouds 9 1016 61 0 5.36 132 11:42 08.03.2020
1691 Clouds 9 1016 63 0 3.13 155 11:23 08.03.2020
1692 Clouds 8 1017 64 0 3.58 182 10:58 08.03.2020
1693 Clouds 8 1017 67 0 1.79 128 10:40 08.03.2020
1694 Clouds 7 1018 17 0 2.24 173 10:21 08.03.2020
1695 Clouds 6 1018 17 0 2.24 173 09:40 08.03.2020
1696 Clouds 6 1018 17 0 2.24 173 09:22 08.03.2020
1697 Clouds 5 1018 17 0 2.24 173 08:49 08.03.2020
1698 Clouds 5 1018 17 0 2.24 173 08:49 08.03.2020
1699 Clouds 4 1018 77 0 1.79 118 08:24 08.03.2020
1700 Clouds 3 1018 79 0 0.89 122 07:50 08.03.2020
1701 Clouds 3 1017 81 0 1.34 153 07:28 08.03.2020
1702 Clouds 2 1017 82 0 2.24 143 06:54 08.03.2020
1703 Clouds 2 1017 83 0 2.68 141 06:35 08.03.2020
1704 Clouds 1 1018 84 0 0.45 135 05:58 08.03.2020
1705 Clouds 1 1018 87 0 3.84 198 04:50 08.03.2020
1706 Clouds 1 1019 89 0 0.89 183 03:27 08.03.2020
1707 Clouds 1 1019 89 0 3.84 198 02:27 08.03.2020
1708 Clear 1 1020 89 0 3.55 220 01:21 08.03.2020
1709 Clear 2 1020 88 0 3.55 220 00:42 08.03.2020
1710 Clear 2 1020 88 0 3.55 220 00:24 08.03.2020
1711 Clear 3 1020 88 0 3.55 220 23:43 07.03.2020
1712 Clear 3 1020 88 0 0.45 170 23:22 07.03.2020
1713 Clear 3 1020 87 0 2.93 230 22:40 07.03.2020
1714 Clear 4 1021 87 0 0.45 208 22:21 07.03.2020
1715 Clear 4 1021 86 0 2.93 230 21:48 07.03.2020
1716 Clear 4 1020 86 0 2.93 230 21:25 07.03.2020
1717 Clear 5 1020 85 0 2.93 230 20:42 07.03.2020
1718 Clouds 5 1020 83 0 3.56 279 20:23 07.03.2020
1719 Clouds 5 1020 81 0 3.18 280 19:59 07.03.2020
1720 Clouds 5 1020 79 0 3.18 280 19:40 07.03.2020
1721 Clouds 6 1020 76 0 3.58 237 19:20 07.03.2020
1722 Clouds 6 1019 74 0 1.79 249 18:42 07.03.2020
1723 Clouds 7 1019 73 0 0.89 199 18:24 07.03.2020
1724 Clouds 7 1019 71 0 0.89 170 17:56 07.03.2020
1725 Clouds 7 1018 68 0 1.79 278 17:38 07.03.2020
1726 Rain 7 1018 68 0 0.89 271 17:18 07.03.2020
1727 Rain 8 1018 65 0 0.89 300 16:43 07.03.2020
1728 Rain 8 1017 63 0 3.13 286 16:23 07.03.2020
1729 Rain 8 1017 63 0 3.13 286 16:23 07.03.2020
1730 Rain 8 1017 60 0 5.36 283 15:58 07.03.2020
1731 Rain 8 1017 59 0 2.68 311 15:40 07.03.2020
1732 Rain 8 1017 59 0 4.47 292 15:21 07.03.2020
1733 Rain 8 1017 62 0 4.02 303 14:58 07.03.2020
1734 Rain 9 1017 56 0 3.13 262 14:39 07.03.2020
1735 Rain 8 1017 61 0 2.68 319 14:21 07.03.2020
1736 Rain 8 1016 62 0 4.92 296 13:40 07.03.2020
1737 Rain 8 1016 62 0 4.92 280 13:21 07.03.2020
1738 Rain 8 1016 61 0 4.92 295 12:45 07.03.2020
1739 Rain 8 1016 60 0 5.36 290 12:45 07.03.2020
1740 Rain 7 1015 63 0 7.15 269 12:23 07.03.2020
1741 Rain 7 1015 67 0 5.36 272 11:59 07.03.2020
1742 Rain 7 1015 67 0 3.13 343 11:41 07.03.2020
1743 Rain 7 1015 65 0 4.47 359 11:23 07.03.2020
1744 Clouds 6 1014 68 0 8.49 302 10:56 07.03.2020
1745 Clouds 6 1014 70 0 4.47 263 10:36 07.03.2020
1746 Clouds 6 1014 72 0 4.47 282 10:18 07.03.2020
1747 Clouds 5 1013 76 0 8.05 269 09:40 07.03.2020
1748 Clouds 5 1013 78 0 4.47 290 09:19 07.03.2020
1749 Clouds 5 1013 80 0 8.94 273 08:57 07.03.2020
1750 Clouds 5 1012 81 0 6.71 299 08:39 07.03.2020
1751 Rain 5 1012 82 0 3.13 285 08:20 07.03.2020
1752 Rain 4 1011 85 0 3.13 193 07:44 07.03.2020
1753 Rain 4 1011 85 0 2.24 302 07:21 07.03.2020
1754 Rain 4 1008 93 0 1.34 28 06:39 07.03.2020
1755 Rain 5 997 90 0 7.28 311 05:59 07.03.2020
1756 Rain 5 997 90 0 7.28 311 05:40 07.03.2020
1757 Rain 5 997 90 0 7.28 313 03:36 07.03.2020
1758 Rain 4 997 90 0 7.28 313 02:43 07.03.2020
1759 Rain 4 997 90 0 6.77 304 01:51 07.03.2020
1760 Rain 4 997 90 0 6.64 303 00:43 07.03.2020
1761 Rain 4 997 90 0 6.64 303 00:23 07.03.2020
1762 Rain 4 997 90 0 6.64 303 00:23 07.03.2020
1763 Rain 4 997 90 0 6.64 303 00:23 07.03.2020
1764 Rain 4 997 90 0 6.64 303 23:58 06.03.2020
1765 Rain 4 997 90 0 6.64 303 23:39 06.03.2020
1766 Rain 4 997 90 0 6.42 285 23:21 06.03.2020
1767 Rain 4 997 90 0 6.42 285 22:44 06.03.2020
1768 Rain 4 997 90 0 6.42 285 22:44 06.03.2020
1769 Rain 4 997 90 0 6.42 285 22:20 06.03.2020
1770 Rain 5 997 90 0 6.42 285 21:47 06.03.2020
1771 Rain 5 997 90 0 6.42 285 21:21 06.03.2020
1772 Rain 5 997 90 0 6.42 285 20:45 06.03.2020
1773 Rain 6 997 90 0 4.63 295 20:23 06.03.2020
1774 Rain 6 997 90 0 4.63 295 19:58 06.03.2020
1775 Rain 6 997 90 0 4.63 295 19:40 06.03.2020
1776 Rain 6 997 91 0 4.63 295 19:21 06.03.2020
1777 Rain 7 996 89 0 4.63 295 18:42 06.03.2020
1778 Rain 7 995 89 0 0.45 359 18:20 06.03.2020
1779 Rain 7 995 89 0 4.63 295 17:56 06.03.2020
1780 Rain 7 994 89 0 4.63 295 17:38 06.03.2020
1781 Rain 8 994 89 0 2.06 260 17:20 06.03.2020
1782 Rain 8 994 88 0 1.34 304 16:54 06.03.2020
1783 Rain 8 993 88 0 0.89 296 16:36 06.03.2020
1784 Rain 8 993 88 0 0.89 296 16:36 06.03.2020
1785 Rain 8 993 88 0 4.92 296 16:18 06.03.2020
1786 Rain 8 993 85 0 2.68 313 15:41 06.03.2020
1787 Rain 8 993 84 0 1.34 321 15:22 06.03.2020
1788 Rain 9 992 86 0 0.89 328 14:40 06.03.2020
1789 Rain 8 992 85 0 1.34 314 14:22 06.03.2020
1790 Rain 9 992 87 0 0.45 230 13:55 06.03.2020
1791 Rain 9 992 87 0 1.34 127 13:37 06.03.2020
1792 Rain 9 977 87 0 3.71 195 13:18 06.03.2020
1793 Rain 9 991 78 0 4.92 310 12:54 06.03.2020
1794 Rain 9 991 83 0 0.45 151 12:36 06.03.2020
1795 Rain 9 991 87 0 3.71 195 12:18 06.03.2020
1796 Rain 9 991 89 0 3.71 195 11:42 06.03.2020
1797 Rain 8 991 91 0 0.45 103 11:20 06.03.2020
1798 Rain 7 991 92 0 3.87 180 10:56 06.03.2020
1799 Rain 6 991 92 0 1.34 80 10:36 06.03.2020
1800 Rain 6 991 92 0 3.87 180 10:18 06.03.2020
1801 Rain 6 990 93 0 3.87 180 09:42 06.03.2020
1802 Rain 6 990 93 0 3.87 180 09:23 06.03.2020
1803 Rain 6 990 93 0 3.87 180 09:23 06.03.2020
1804 Rain 5 990 93 0 3.87 180 08:56 06.03.2020
1805 Rain 5 990 93 0 3.87 180 08:38 06.03.2020
1806 Rain 5 990 93 0 3.94 122 08:19 06.03.2020
1807 Rain 5 989 93 0 3.94 122 07:45 06.03.2020
1808 Rain 5 989 93 0 3.94 122 07:24 06.03.2020
1809 Rain 5 989 92 0 3.94 122 06:47 06.03.2020
1810 Rain 5 989 92 0 3.94 122 06:28 06.03.2020
1811 Rain 5 989 92 0 3.94 122 05:39 06.03.2020
1812 Rain 4 989 92 0 5.89 123 05:20 06.03.2020
1813 Rain 4 989 92 0 4.02 90 04:41 06.03.2020
1814 Rain 5 991 91 0 5.81 117 01:45 06.03.2020
1815 Rain 5 991 89 0 4.47 47 01:26 06.03.2020
1816 Rain 6 991 88 0 1.79 98 00:59 06.03.2020
1817 Rain 6 992 85 0 3.13 77 00:31 06.03.2020
1818 Rain 6 992 85 0 3.13 77 00:31 06.03.2020
1819 Rain 6 993 77 0 3.58 98 23:44 05.03.2020
1820 Rain 6 993 75 0 2.68 160 23:25 05.03.2020
1821 Clouds 7 993 68 0 3.13 110 22:57 05.03.2020
1822 Clouds 7 993 63 0 4.47 117 22:38 05.03.2020
1823 Clouds 7 993 60 0 4.02 107 22:19 05.03.2020
1824 Clouds 7 993 59 0 2.68 69 21:56 05.03.2020
1825 Clouds 7 994 58 0 4.02 108 21:37 05.03.2020
1826 Clouds 7 993 58 0 2.24 105 21:37 05.03.2020
1827 Clouds 7 994 58 0 5.81 118 21:19 05.03.2020
1828 Clouds 7 994 58 0 2.68 55 20:55 05.03.2020
1829 Clouds 7 995 59 0 2.68 60 20:36 05.03.2020
1830 Clouds 7 995 60 0 3.13 155 20:18 05.03.2020
1831 Clouds 7 995 59 0 4.02 79 19:55 05.03.2020
1832 Clouds 7 995 58 0 1.79 53 19:37 05.03.2020
1833 Clouds 7 995 57 0 1.79 79 19:18 05.03.2020
1834 Clouds 7 995 57 0 3.58 83 19:18 05.03.2020
1835 Clouds 8 995 58 0 4.02 29 18:38 05.03.2020
1836 Clouds 8 995 57 0 5.36 76 18:19 05.03.2020
1837 Clouds 8 997 59 0 2.24 133 17:59 05.03.2020
1838 Clouds 8 997 55 0 1.79 141 17:40 05.03.2020
1839 Clouds 9 996 55 0 6.71 100 17:21 05.03.2020
1840 Clouds 10 997 56 0 4.92 97 16:54 05.03.2020
1841 Clouds 10 997 54 0 4.02 74 16:36 05.03.2020
1842 Clouds 10 998 54 0 4.02 112 16:18 05.03.2020
1843 Clouds 10 998 50 0 4.47 81 15:44 05.03.2020
1844 Clouds 10 999 48 0 4.92 70 15:22 05.03.2020
1845 Clouds 11 999 47 0 4.47 132 14:56 05.03.2020
1846 Clouds 11 1000 53 0 2.68 135 14:37 05.03.2020
1847 Clouds 11 1000 50 0 9.39 93 14:18 05.03.2020
1848 Clouds 10 1001 55 0 4.02 139 13:43 05.03.2020
1849 Clouds 10 1001 57 0 3.13 142 13:21 05.03.2020
1850 Clouds 10 1002 60 0 6.71 101 12:58 05.03.2020
1851 Clouds 10 1002 59 0 3.58 87 12:40 05.03.2020
1852 Clouds 10 1002 59 0 3.58 87 12:40 05.03.2020
1853 Clouds 9 1003 63 0 3.13 121 12:19 05.03.2020
1854 Clouds 9 1003 66 0 4.47 69 11:57 05.03.2020
1855 Clouds 9 1003 68 0 2.68 94 11:37 05.03.2020
1856 Clouds 8 1004 67 0 2.24 67 11:19 05.03.2020
1857 Clouds 7 1004 69 0 3.13 107 10:57 05.03.2020
1858 Clouds 7 1004 70 0 2.24 97 10:39 05.03.2020
1859 Clouds 7 1005 70 0 3.13 115 10:20 05.03.2020
1860 Clouds 6 1005 77 0 1.79 146 09:45 05.03.2020
1861 Clouds 5 1005 81 0 0.89 183 09:27 05.03.2020
1862 Clouds 3 1006 81 0 1.34 15 08:47 05.03.2020
1863 Clouds 2 1006 87 0 0.45 146 08:29 05.03.2020
1864 Clouds 1 1007 91 0 2.78 169 07:49 05.03.2020
1865 Clouds 1 1006 89 0 2.78 169 07:23 05.03.2020
1866 Clouds 0 1006 92 0 0.45 119 06:59 05.03.2020
1867 Clouds 0 1006 91 0 1.34 127 06:41 05.03.2020
1868 Clouds 1 1007 91 0 2.78 169 06:19 05.03.2020
1869 Clouds 1 1007 90 0 2.78 169 05:32 05.03.2020
1870 Clouds 1 1008 90 0 2.72 204 04:23 05.03.2020
1871 Clouds 1 1008 89 0 2.72 204 03:58 05.03.2020
1872 Clouds 2 1008 90 0 2.72 204 02:25 05.03.2020
1873 Clouds 2 1009 90 0 2.7 219 01:24 05.03.2020
1874 Clouds 2 1009 89 0 2.7 219 00:44 05.03.2020
1875 Clouds 3 1010 88 0 2.7 219 23:56 04.03.2020
1876 Clouds 3 1010 88 0 2.7 219 23:38 04.03.2020
1877 Clouds 3 1010 88 0 3.12 219 23:20 04.03.2020
1878 Clouds 3 1010 87 0 3.12 219 22:54 04.03.2020
1879 Clouds 4 1010 86 0 3.12 219 22:36 04.03.2020
1880 Clouds 4 1010 85 0 3.12 219 22:18 04.03.2020
1881 Clouds 4 1010 84 0 2.68 223 21:41 04.03.2020
1882 Clouds 4 1010 83 0 3.12 219 21:21 04.03.2020
1883 Clouds 4 1010 83 0 2.68 256 20:58 04.03.2020
1884 Clouds 4 1010 83 0 2.68 256 20:58 04.03.2020
1885 Clouds 4 1010 82 0 0.89 238 20:39 04.03.2020
1886 Clear 4 1010 82 0 1.79 282 20:21 04.03.2020
1887 Clouds 4 1010 83 0 3.04 237 19:43 04.03.2020
1888 Clouds 4 1009 83 0 3.04 237 19:24 04.03.2020
1889 Clouds 5 1007 75 0 3.04 237 18:59 04.03.2020
1890 Clouds 5 1009 82 0 3.04 237 18:41 04.03.2020
1891 Clouds 6 1009 83 0 1.79 225 18:22 04.03.2020
1892 Clouds 6 1009 80 0 0.89 262 17:59 04.03.2020
1893 Clouds 6 1008 78 0 3.04 237 17:38 04.03.2020
1894 Rain 7 1008 74 0 4.04 267 17:20 04.03.2020
1895 Rain 7 1008 72 0 4.04 267 16:55 04.03.2020
1896 Rain 8 1009 70 0 0.89 265 16:36 04.03.2020
1897 Rain 8 1009 67 0 0.45 56 16:18 04.03.2020
1898 Rain 8 1009 69 0 0.89 156 15:42 04.03.2020
1899 Rain 8 1009 69 0 1.34 351 15:23 04.03.2020
1900 Rain 8 1009 67 0 3.58 278 14:56 04.03.2020
1901 Rain 9 1009 67 0 2.68 280 14:38 04.03.2020
1902 Rain 9 1008 61 0 3.58 276 14:19 04.03.2020
1903 Rain 9 1008 61 0 0.89 235 13:57 04.03.2020
1904 Rain 8 1008 62 0 1.34 214 13:39 04.03.2020
1905 Rain 8 1008 62 0 1.34 214 13:39 04.03.2020
1906 Rain 9 1008 58 0 1.34 225 13:20 04.03.2020
1907 Rain 9 1009 61 0 0.45 252 12:45 04.03.2020
1908 Rain 9 1008 61 0 3.13 248 12:27 04.03.2020
1909 Rain 8 1009 62 0 1.79 146 11:59 04.03.2020
1910 Rain 8 1009 63 0 4.92 262 11:41 04.03.2020
1911 Clouds 8 1009 68 0 4.47 258 11:23 04.03.2020
1912 Clouds 7 1009 73 0 0.45 272 10:57 04.03.2020
1913 Clouds 7 1009 73 0 0.45 167 10:39 04.03.2020
1914 Clouds 6 1009 73 0 1.79 239 10:18 04.03.2020
1915 Clouds 6 1009 80 0 4.17 238 09:42 04.03.2020
1916 Clouds 4 1009 79 0 4.17 238 09:21 04.03.2020
1917 Clouds 3 1009 80 0 4.17 238 08:48 04.03.2020
1918 Clear 2 988 78 0 3.92 241 08:28 04.03.2020
1919 Clouds 1 1009 84 0 3.01 237 07:56 04.03.2020
1920 Clouds 1 1009 83 0 3.01 237 07:38 04.03.2020
1921 Clouds 0 1009 87 0 3.01 237 07:20 04.03.2020
1922 Clouds 0 1008 89 0 0.89 206 06:43 04.03.2020
1923 Clouds -1 1008 89 0 0.89 218 06:23 04.03.2020
1924 Clouds 0 1008 89 0 0.89 153 05:50 04.03.2020
1925 Clouds 0 1008 87 0 0.45 183 04:30 04.03.2020
1926 Clouds 0 1007 88 0 0.89 218 03:44 04.03.2020
1927 Clouds 1 1007 89 0 2.86 247 03:25 04.03.2020
1928 Clouds 0 1007 89 0 2.86 247 02:55 04.03.2020
1929 Clouds 1 1007 88 0 3.7 249 02:21 04.03.2020
1930 Clouds 1 1007 89 0 0.89 279 01:55 04.03.2020
1931 Clouds 1 1006 88 0 0.45 143 00:52 04.03.2020
1932 Clouds 1 1006 87 0 3.58 243 00:27 04.03.2020
1933 Clouds 2 1005 86 0 3.58 243 23:48 03.03.2020
1934 Clouds 2 1005 86 0 0.89 265 23:28 03.03.2020
1935 Clear 2 1005 85 0 3.16 260 22:59 03.03.2020
1936 Clear 2 1005 85 0 0.89 271 22:41 03.03.2020
1937 Clear 3 1005 84 0 2.68 265 22:20 03.03.2020
1938 Clear 3 1005 83 0 1.34 271 21:58 03.03.2020
1939 Clear 3 1005 84 0 1.79 266 21:39 03.03.2020
1940 Clear 3 1004 83 0 1.79 304 21:20 03.03.2020
1941 Clear 4 1004 81 0 1.34 266 20:56 03.03.2020
1942 Clear 4 1004 80 0 1.79 232 20:37 03.03.2020
1943 Clouds 4 1004 78 0 3.6 270 20:18 03.03.2020
1944 Clouds 5 1003 76 0 0.89 214 19:55 03.03.2020
1945 Clouds 5 1003 78 0 3.6 270 19:36 03.03.2020
1946 Clouds 5 1010 77 0 3.6 270 19:18 03.03.2020
1947 Clouds 5 1010 77 0 3.6 270 18:55 03.03.2020
1948 Clouds 6 1003 74 0 3.6 270 18:37 03.03.2020
1949 Clouds 6 1003 71 0 3.6 270 18:18 03.03.2020
1950 Clouds 7 1002 63 0 1.34 286 17:40 03.03.2020
1951 Clouds 7 1002 63 0 3.6 270 17:22 03.03.2020
1952 Clouds 8 1003 63 0 0.89 20 16:59 03.03.2020
1953 Clouds 8 1001 56 0 3.13 230 16:38 03.03.2020
1954 Clouds 8 1002 63 0 1.34 325 16:20 03.03.2020
1955 Clouds 8 1002 63 0 1.79 345 16:20 03.03.2020
1956 Clouds 8 1002 67 0 1.34 352 15:58 03.03.2020
1957 Clouds 8 1002 66 0 2.24 255 15:40 03.03.2020
1958 Clouds 8 1001 68 0 1.79 343 15:20 03.03.2020
1959 Clouds 8 1000 58 0 3.13 283 14:43 03.03.2020
1960 Rain 7 1001 72 0 2.68 4 14:20 03.03.2020
1961 Rain 7 999 60 0 1.34 279 13:58 03.03.2020
1962 Rain 7 1000 86 0 1.79 6 13:40 03.03.2020
1963 Rain 6 996 80 0 0.89 7 13:22 03.03.2020
1964 Rain 7 999 68 0 4.92 275 12:49 03.03.2020
1965 Rain 7 999 71 0 4.47 323 12:27 03.03.2020
1966 Rain 7 999 75 0 5.36 310 11:59 03.03.2020
1967 Rain 7 999 80 0 2.24 314 11:38 03.03.2020
1968 Rain 7 998 82 0 3.13 271 11:19 03.03.2020
1969 Rain 7 998 84 0 4.92 307 10:57 03.03.2020
1970 Rain 6 998 84 0 6.26 307 10:38 03.03.2020
1971 Rain 6 998 84 0 4.92 265 10:19 03.03.2020
1972 Rain 6 997 82 0 3.58 304 09:45 03.03.2020
1973 Rain 6 997 81 0 0.89 234 09:23 03.03.2020
1974 Rain 5 998 89 0 0.45 342 08:59 03.03.2020
1975 Rain 5 997 84 0 2.68 292 08:40 03.03.2020
1976 Clouds 5 997 89 0 0.45 254 08:22 03.03.2020
1977 Clouds 5 996 83 0 2.63 297 07:44 03.03.2020
1978 Clouds 4 997 88 0 0.45 341 07:24 03.03.2020
1979 Clouds 4 996 87 0 2.63 297 06:55 03.03.2020
1980 Clouds 4 994 99 0 2.63 297 06:27 03.03.2020
1981 Clouds 4 995 83 0 2.63 297 05:49 03.03.2020
1982 Clouds 4 995 83 0 2.63 297 05:31 03.03.2020
1983 Clouds 5 994 83 0 1.13 83 04:48 03.03.2020
1984 Clouds 5 993 82 0 1.13 83 02:37 03.03.2020
1985 Clouds 5 993 81 0 0.45 337 01:27 03.03.2020
1986 Clouds 5 993 82 0 1.05 73 00:41 03.03.2020
1987 Clouds 5 993 82 0 1.05 73 00:22 03.03.2020
1988 Clouds 5 993 82 0 1.05 73 23:48 02.03.2020
1989 Clouds 5 993 82 0 1.05 73 23:23 02.03.2020
1990 Clouds 5 993 80 0 2.17 89 22:57 02.03.2020
1991 Clouds 5 993 80 0 2.17 89 22:57 02.03.2020
1992 Clouds 6 993 80 0 2.17 89 22:38 02.03.2020
1993 Clouds 6 992 78 0 2.17 89 22:19 02.03.2020
1994 Clouds 6 992 75 0 0.45 40 21:56 02.03.2020
1995 Clouds 6 992 75 0 0.89 22 21:37 02.03.2020
1996 Clouds 6 992 75 0 0.89 77 21:19 02.03.2020
1997 Clouds 6 992 73 0 1.34 83 20:55 02.03.2020
1998 Clouds 7 992 71 0 2.17 89 20:37 02.03.2020
1999 Clouds 7 992 71 0 2.24 77 20:18 02.03.2020
2000 Clouds 7 992 67 0 3.85 104 19:54 02.03.2020
2001 Clouds 7 992 67 0 3.85 104 19:36 02.03.2020
2002 Clouds 7 992 67 0 3.85 104 19:18 02.03.2020
2003 Clouds 7 992 67 0 3.85 104 18:42 02.03.2020
2004 Clouds 7 955 67 0 2.24 77 18:19 02.03.2020
2005 Clouds 7 955 67 0 2.24 77 18:19 02.03.2020
2006 Clouds 8 992 68 0 2.24 90 17:57 02.03.2020
2007 Clouds 8 992 66 0 3.85 104 17:39 02.03.2020
2008 Clouds 8 992 65 0 0.89 127 17:20 02.03.2020
2009 Clouds 9 992 63 0 1.34 122 16:54 02.03.2020
2010 Clouds 10 992 59 0 4.92 166 16:36 02.03.2020
2011 Clouds 10 992 56 0 3.13 101 16:18 02.03.2020
2012 Clouds 10 992 56 0 3.58 111 15:42 02.03.2020
2013 Clouds 11 993 57 0 1.34 110 15:19 02.03.2020
2014 Clouds 11 992 50 0 2.68 129 14:40 02.03.2020
2015 Clouds 11 992 49 0 4.02 158 14:20 02.03.2020
2016 Clouds 11 992 53 0 1.79 148 13:58 02.03.2020
2017 Clouds 11 992 52 0 0.89 132 13:38 02.03.2020
2018 Clouds 11 993 55 0 3.13 204 13:18 02.03.2020
2019 Clouds 10 994 52 0 3.58 128 12:43 02.03.2020
2020 Clouds 10 994 54 0 3.13 124 12:19 02.03.2020
2021 Clouds 10 994 57 0 1.79 196 11:55 02.03.2020
2022 Clouds 9 995 62 0 1.17 120 11:36 02.03.2020
2023 Rain 8 994 63 0 1.79 220 11:18 02.03.2020
2024 Rain 8 994 69 0 3.58 292 10:42 02.03.2020
2025 Rain 7 994 72 0 0.45 4 10:20 02.03.2020
2026 Rain 7 995 75 0 0.89 241 09:59 02.03.2020
2027 Rain 7 994 78 0 2.24 290 09:40 02.03.2020
2028 Rain 6 994 82 0 3.58 224 09:22 02.03.2020
2029 Rain 6 994 80 0 0.45 306 08:43 02.03.2020
2030 Rain 5 995 92 0 1.34 321 08:22 02.03.2020
2031 Rain 5 993 87 0 1.34 263 07:42 02.03.2020
2032 Rain 5 993 87 0 0.89 300 07:19 02.03.2020
2033 Rain 6 992 88 0 0.89 321 06:38 02.03.2020
2034 Rain 6 992 87 0 4.02 299 05:53 02.03.2020
2035 Rain 6 990 87 0 0.89 175 04:25 02.03.2020
2036 Rain 6 990 88 0 0.89 156 03:22 02.03.2020
2037 Rain 6 990 88 0 4.92 167 02:48 02.03.2020
2038 Rain 6 991 89 0 6.71 170 01:49 02.03.2020
2039 Rain 6 991 88 0 3.13 153 01:30 02.03.2020
2040 Rain 6 992 87 0 0.89 132 00:23 02.03.2020
2041 Rain 6 992 85 0 1.34 132 23:58 01.03.2020
2042 Rain 6 993 82 0 1.79 149 23:40 01.03.2020
2043 Clouds 6 993 81 0 2.68 193 23:20 01.03.2020
2044 Clouds 5 993 79 0 0.89 129 22:43 01.03.2020
2045 Clouds 5 994 80 0 0.45 162 22:21 01.03.2020
2046 Clouds 5 994 79 0 1.34 131 21:56 01.03.2020
2047 Clouds 5 994 78 0 2.68 77 21:38 01.03.2020
2048 Clouds 5 994 78 0 0.89 143 21:19 01.03.2020
2049 Clouds 5 994 77 0 1.79 204 20:44 01.03.2020
2050 Clouds 5 994 77 0 0.89 118 20:25 01.03.2020
2051 Clouds 5 994 77 0 0.89 118 20:25 01.03.2020
2052 Clouds 6 994 78 0 0.89 128 19:59 01.03.2020
2053 Clouds 6 995 77 0 1.34 108 19:40 01.03.2020
2054 Clouds 7 996 76 0 3.18 176 19:21 01.03.2020
2055 Clouds 6 997 73 0 0.45 181 18:41 01.03.2020
2056 Clouds 7 965 73 0 1.34 153 18:21 01.03.2020
2057 Clouds 7 970 73 0 0.89 146 18:21 01.03.2020
2058 Clouds 8 995 70 0 3.18 176 17:58 01.03.2020
2059 Clouds 8 995 68 0 0.45 170 17:40 01.03.2020
2060 Clouds 9 995 66 0 3.18 176 17:22 01.03.2020
2061 Rain 10 995 65 0 5.19 234 16:59 01.03.2020
2062 Rain 10 995 61 0 0.89 136 16:39 01.03.2020
2063 Rain 10 995 61 0 0.89 280 16:39 01.03.2020
2064 Rain 11 995 62 0 0.45 179 16:19 01.03.2020
2065 Rain 11 995 61 0 5.19 234 15:59 01.03.2020
2066 Rain 11 995 59 0 3.13 254 15:40 01.03.2020
2067 Rain 10 995 61 0 1.79 300 15:22 01.03.2020
2068 Rain 10 997 71 0 4.47 315 14:58 01.03.2020
2069 Rain 10 995 63 0 3.58 234 14:39 01.03.2020
2070 Rain 9 995 59 0 5.19 234 14:21 01.03.2020
2071 Rain 9 995 60 0 3.13 224 13:57 01.03.2020
2072 Rain 9 995 64 0 0.89 2 13:38 01.03.2020
2073 Rain 9 995 64 0 0.89 2 13:38 01.03.2020
2074 Rain 10 995 66 0 1.79 269 13:19 01.03.2020
2075 Rain 10 995 66 0 2.24 251 13:19 01.03.2020
2076 Rain 10 995 66 0 2.24 275 12:56 01.03.2020
2077 Rain 10 995 67 0 1.34 319 12:38 01.03.2020
2078 Rain 9 995 71 0 2.24 234 12:19 01.03.2020
2079 Rain 10 995 68 0 4.92 206 11:40 01.03.2020
2080 Clouds 10 995 63 0 1.79 141 11:19 01.03.2020
2081 Clouds 10 995 61 0 2.68 173 10:56 01.03.2020
2082 Rain 9 995 63 0 3.13 210 10:37 01.03.2020
2083 Clouds 9 995 63 0 5.36 114 10:18 01.03.2020
2084 Rain 9 995 69 0 2.68 175 09:44 01.03.2020
2085 Clouds 8 998 73 0 3.58 254 09:26 01.03.2020
2086 Rain 7 996 74 0 0.45 148 08:47 01.03.2020
2087 Clouds 6 996 75 0 2.24 76 08:28 01.03.2020
2088 Clouds 5 996 73 0 1.34 105 07:59 01.03.2020
2089 Clouds 5 996 76 0 1.34 74 07:40 01.03.2020
2090 Clouds 4 996 81 0 1.34 211 07:22 01.03.2020
2091 Clouds 4 996 82 0 2.68 211 06:43 01.03.2020
2092 Clouds 4 996 82 0 4.8 206 06:21 01.03.2020
2093 Clouds 6 995 77 0 0.89 47 03:40 01.03.2020
2094 Clouds 6 996 80 0 1.34 167 02:23 01.03.2020
2095 Clouds 6 996 79 0 4.02 182 01:46 01.03.2020
2096 Clouds 6 996 80 0 3.58 186 01:20 01.03.2020
2097 Clouds 6 996 80 0 3.58 186 01:20 01.03.2020
2098 Clouds 6 995 81 0 1.79 231 00:40 01.03.2020
2099 Clouds 6 995 83 0 3.13 248 00:20 01.03.2020
2100 Clouds 7 995 82 0 6.74 217 23:45 29.02.2020
2101 Rain 7 995 81 0 0.45 255 23:26 29.02.2020
2102 Rain 8 995 86 0 1.34 115 22:42 29.02.2020
2103 Rain 8 994 84 0 0.89 108 22:22 29.02.2020
2104 Rain 9 993 81 0 1.34 289 21:42 29.02.2020
2105 Rain 9 993 80 0 2.24 282 21:22 29.02.2020
2106 Rain 10 993 83 0 2.68 91 20:43 29.02.2020
2107 Rain 10 993 83 0 2.68 91 20:43 29.02.2020
2108 Clouds 10 992 84 0 4.02 283 20:21 29.02.2020
2109 Clouds 10 992 83 0 8.05 259 19:56 29.02.2020
2110 Clouds 11 991 69 0 7.15 279 19:38 29.02.2020
2111 Clouds 11 990 69 0 6.71 160 19:19 29.02.2020
2112 Clouds 11 990 74 0 3.58 167 18:43 29.02.2020
2113 Clouds 11 990 74 0 1.34 177 18:24 29.02.2020
2114 Clouds 11 990 71 0 3.13 159 17:58 29.02.2020
2115 Clouds 11 990 70 0 4.02 146 17:40 29.02.2020
2116 Clouds 11 990 70 0 3.58 169 17:20 29.02.2020
2117 Clouds 11 991 71 0 2.68 160 16:45 29.02.2020
2118 Clouds 11 991 71 0 5.81 158 16:22 29.02.2020
2119 Clouds 12 991 72 0 4.92 176 15:59 29.02.2020
2120 Clouds 12 992 69 0 8.05 166 15:41 29.02.2020
2121 Clouds 11 992 72 0 5.81 151 15:21 29.02.2020
2122 Clouds 12 993 74 0 4.92 176 14:42 29.02.2020
2123 Clouds 11 992 74 0 4.02 165 14:42 29.02.2020
2124 Clouds 12 993 72 0 2.68 134 14:23 29.02.2020
2125 Clouds 12 994 69 0 3.13 184 13:57 29.02.2020
2126 Clouds 12 994 67 0 2.68 129 13:38 29.02.2020
2127 Clouds 11 994 65 0 3.13 153 13:20 29.02.2020
2128 Clouds 11 995 71 0 2.24 173 12:42 29.02.2020
2129 Clouds 10 995 73 0 6.26 136 12:22 29.02.2020
2130 Clouds 10 996 73 0 2.24 156 11:57 29.02.2020
2131 Clouds 9 996 73 0 8.94 208 11:39 29.02.2020
2132 Clouds 9 996 76 0 7.15 184 11:21 29.02.2020
2133 Clouds 8 997 78 0 3.58 148 10:46 29.02.2020
2134 Clouds 7 997 80 0 3.58 86 10:28 29.02.2020
2135 Clouds 7 997 82 0 5.81 148 09:50 29.02.2020
2136 Clouds 6 998 82 0 4.02 206 09:27 29.02.2020
2137 Clouds 5 963 87 0 1.79 199 08:43 29.02.2020
2138 Clouds 5 993 98 0 6.18 204 08:24 29.02.2020
2139 Clouds 5 998 88 0 3.13 182 07:59 29.02.2020
2140 Clouds 4 998 88 0 5.36 163 07:41 29.02.2020
2141 Clouds 3 994 10 0 7.06 196 07:18 29.02.2020
2142 Clouds 3 994 10 0 7.06 196 06:45 29.02.2020
2143 Clouds 3 995 10 0 7.06 196 06:25 29.02.2020
2144 Clouds 3 1000 91 0 2.68 170 05:47 29.02.2020
2145 Rain 2 996 10 0 6.15 199 04:50 29.02.2020
2146 Rain 2 1002 92 0 4.92 155 03:43 29.02.2020
2147 Rain 2 1002 92 0 4.47 179 03:22 29.02.2020
2148 Rain 2 1003 91 0 3.13 196 02:38 29.02.2020
2149 Rain 3 1006 88 0 2.68 138 01:23 29.02.2020
2150 Rain 4 1010 75 0 2.24 274 00:37 29.02.2020
2151 Rain 4 1009 75 0 6.26 117 23:56 28.02.2020
2152 Rain 4 1009 74 0 4.47 151 23:36 28.02.2020
2153 Clouds 4 1009 77 0 4.88 182 23:18 28.02.2020
2154 Clouds 4 1009 75 0 2.68 155 22:41 28.02.2020
2155 Clouds 4 1010 76 0 3.13 131 22:19 28.02.2020
2156 Clouds 4 1010 76 0 3.58 204 21:41 28.02.2020
2157 Clouds 4 1010 77 0 2.68 184 21:21 28.02.2020
2158 Clouds 4 1011 76 0 4.47 149 20:56 28.02.2020
2159 Clouds 3 1011 75 0 3.13 152 20:37 28.02.2020
2160 Clouds 4 1012 73 0 2.68 163 20:19 28.02.2020
2161 Clouds 4 1012 73 0 2.24 139 19:56 28.02.2020
2162 Clouds 4 1012 75 0 2.24 138 19:37 28.02.2020
2163 Clouds 4 1013 75 0 1.34 119 19:18 28.02.2020
2164 Clouds 5 1013 74 0 1.34 97 18:44 28.02.2020
2165 Clouds 5 1013 72 0 0.45 210 18:23 28.02.2020
2166 Clouds 6 1014 69 0 2.68 255 17:41 28.02.2020
2167 Clouds 6 1014 68 0 1.34 153 17:23 28.02.2020
2168 Clouds 6 1014 68 0 1.34 153 17:23 28.02.2020
2169 Clouds 7 1014 64 0 5.42 258 16:56 28.02.2020
2170 Clouds 7 1014 61 0 3.58 247 16:37 28.02.2020
2171 Clouds 8 1014 59 0 5.36 273 16:18 28.02.2020
2172 Clouds 8 1014 61 0 3.58 273 15:55 28.02.2020
2173 Clouds 8 1014 61 0 3.58 273 15:55 28.02.2020
2174 Clouds 8 1014 58 0 2.68 266 15:36 28.02.2020
2175 Clouds 8 1014 56 0 2.68 300 15:18 28.02.2020
2176 Clouds 8 1015 59 0 3.58 265 14:42 28.02.2020
2177 Clouds 8 1014 59 0 0.89 183 14:19 28.02.2020
2178 Clouds 9 1014 58 0 2.68 211 13:58 28.02.2020
2179 Clouds 9 1014 60 0 3.58 304 13:40 28.02.2020
2180 Clear 8 1016 65 0 3.13 273 13:19 28.02.2020
2181 Clear 8 1014 57 0 2.68 319 12:43 28.02.2020
2182 Clear 8 1014 60 0 3.58 295 12:25 28.02.2020
2183 Clear 7 1014 61 0 5.81 287 11:55 28.02.2020
2184 Clear 6 1014 66 0 2.68 304 11:37 28.02.2020
2185 Clouds 6 1014 68 0 4.02 273 11:18 28.02.2020
2186 Clouds 6 1008 71 0 8.38 287 10:43 28.02.2020
2187 Clouds 5 1015 82 0 2.24 333 10:23 28.02.2020
2188 Clouds 5 1008 85 0 8.38 287 09:47 28.02.2020
2189 Clouds 5 1008 82 0 8.38 287 09:22 28.02.2020
2190 Clouds 4 1008 92 0 8.38 287 08:58 28.02.2020
2191 Clouds 3 1008 94 0 8.38 287 08:40 28.02.2020
2192 Snow 3 1007 95 0 7.57 292 08:20 28.02.2020
2193 Snow 3 1007 98 0 7.57 292 07:42 28.02.2020
2194 Snow 3 1006 99 0 7.57 292 07:24 28.02.2020
2195 Snow 2 1011 92 0 1.79 319 06:47 28.02.2020
2196 Snow 2 1005 10 0 7.57 292 06:26 28.02.2020
2197 Clouds 2 1003 10 0 6.4 278 04:47 28.02.2020
2198 Clouds 2 1003 10 0 6.4 278 04:19 28.02.2020
2199 Clouds 1 1007 92 0 0.89 320 02:46 28.02.2020
2200 Clouds 1 1001 10 0 6.4 278 02:28 28.02.2020
2201 Clouds 1 1000 10 0 3.41 295 01:26 28.02.2020
2202 Clouds 2 999 10 0 3.41 295 00:30 28.02.2020
2203 Clouds 2 998 10 0 3.41 295 23:42 27.02.2020
2204 Snow 2 997 99 0 1.49 289 23:21 27.02.2020
2205 Snow 2 997 99 0 1.49 289 22:55 27.02.2020
2206 Snow 2 1002 92 0 1.49 289 22:37 27.02.2020
2207 Snow 3 1001 92 0 1.49 289 22:19 27.02.2020
2208 Snow 3 995 97 0 1.49 289 21:41 27.02.2020
2209 Snow 3 995 96 0 1.49 289 21:19 27.02.2020
2210 Snow 3 995 97 0 1.49 289 20:58 27.02.2020
2211 Snow 3 994 97 0 1.49 289 20:39 27.02.2020
2212 Snow 3 994 97 0 2.11 84 20:21 27.02.2020
2213 Snow 3 994 95 0 2.11 84 19:56 27.02.2020
2214 Snow 4 998 79 0 2.11 84 19:38 27.02.2020
2215 Snow 4 998 78 0 2.11 84 19:19 27.02.2020
2216 Snow 4 993 92 0 2.11 84 18:42 27.02.2020
2217 Snow 4 993 88 0 2.11 84 18:24 27.02.2020
2218 Snow 4 992 89 0 2.11 84 17:58 27.02.2020
2219 Snow 5 992 89 0 2.11 84 17:40 27.02.2020
2220 Rain 5 992 84 0 2.4 177 17:20 27.02.2020
2221 Rain 6 993 80 0 2.4 177 16:59 27.02.2020
2222 Rain 6 993 76 0 2.4 177 16:39 27.02.2020
2223 Rain 6 993 73 0 2.4 177 16:19 27.02.2020
2224 Rain 6 993 71 0 2.4 177 15:58 27.02.2020
2225 Rain 6 999 68 0 0.89 250 15:37 27.02.2020
2226 Rain 6 994 75 0 2.4 177 15:18 27.02.2020
2227 Rain 6 994 78 0 2.4 177 14:56 27.02.2020
2228 Rain 7 994 64 0 2.4 177 14:37 27.02.2020
2229 Rain 7 1000 71 0 2.68 253 14:18 27.02.2020
2230 Rain 7 995 63 0 4.33 230 13:42 27.02.2020
2231 Snow 7 995 58 0 4.61 231 13:21 27.02.2020
2232 Snow 7 995 58 0 4.61 231 13:21 27.02.2020
2233 Snow 7 996 60 0 4.61 231 12:55 27.02.2020
2234 Snow 7 996 64 0 4.61 231 12:37 27.02.2020
2235 Snow 7 997 65 0 4.61 231 12:18 27.02.2020
2236 Snow 7 997 67 0 4.61 231 11:41 27.02.2020
2237 Snow 6 1003 76 0 3.13 269 11:21 27.02.2020
2238 Clouds 5 998 84 0 4.71 249 10:44 27.02.2020
2239 Clouds 4 998 86 0 4.71 249 10:23 27.02.2020
2240 Clouds 4 998 92 0 4.71 249 09:49 27.02.2020
2241 Clouds 4 998 90 0 4.71 249 09:29 27.02.2020
2242 Clouds 3 1005 85 0 1.79 252 08:58 27.02.2020
2243 Clouds 3 999 94 0 4.71 249 08:40 27.02.2020
2244 Clouds 3 999 96 0 3.47 242 08:22 27.02.2020
2245 Clouds 3 999 99 0 3.83 239 07:44 27.02.2020
2246 Clouds 3 998 99 0 3.83 239 07:25 27.02.2020
2247 Clouds 3 998 10 0 3.83 239 06:46 27.02.2020
2248 Clouds 3 1004 92 0 1.34 277 05:43 27.02.2020
2249 Clouds 3 998 10 0 6.61 268 03:40 27.02.2020
2250 Clouds 3 998 10 0 5.77 275 02:21 27.02.2020
2251 Clouds 3 997 10 0 5.16 268 00:45 27.02.2020
2252 Clouds 3 997 10 0 5.16 268 00:26 27.02.2020
2253 Clouds 3 997 10 0 5.16 268 23:40 26.02.2020
2254 Rain 3 997 10 0 6.44 286 23:19 26.02.2020
2255 Rain 3 1002 91 0 1.79 15 22:57 26.02.2020
2256 Rain 3 996 10 0 6.44 286 22:39 26.02.2020
2257 Rain 3 996 10 0 6.44 286 22:39 26.02.2020
2258 Rain 2 996 10 0 6.44 286 22:20 26.02.2020
2259 Rain 2 996 10 0 6.44 286 21:56 26.02.2020
2260 Rain 2 996 10 0 6.44 286 21:37 26.02.2020
2261 Rain 2 996 10 0 6.44 286 21:18 26.02.2020
2262 Rain 2 995 10 0 6.44 286 20:55 26.02.2020
2263 Rain 2 995 10 0 6.44 286 20:36 26.02.2020
2264 Rain 2 995 10 0 6.44 286 20:36 26.02.2020
2265 Rain 2 995 10 0 4.48 252 20:18 26.02.2020
2266 Rain 2 995 10 0 4.48 252 20:18 26.02.2020
2267 Rain 3 995 10 0 4.48 252 19:45 26.02.2020
2268 Rain 3 995 10 0 4.48 252 19:21 26.02.2020
2269 Rain 3 995 10 0 4.48 252 19:21 26.02.2020
2270 Rain 4 994 10 0 4.48 252 18:58 26.02.2020
2271 Rain 3 994 10 0 4.48 252 18:40 26.02.2020
2272 Rain 4 993 10 0 4.48 252 18:22 26.02.2020
2273 Rain 4 993 10 0 4.48 252 17:56 26.02.2020
2274 Rain 5 993 10 0 4.48 252 17:37 26.02.2020
2275 Rain 5 992 10 0 6.18 293 17:18 26.02.2020
2276 Rain 6 992 81 0 6.18 293 16:43 26.02.2020
2277 Rain 6 991 81 0 6.18 293 16:22 26.02.2020
2278 Rain 6 991 80 0 6.18 293 15:56 26.02.2020
2279 Rain 6 991 80 0 6.18 293 15:37 26.02.2020
2280 Rain 5 996 88 0 1.79 42 15:18 26.02.2020
2281 Rain 5 996 90 0 1.79 79 14:42 26.02.2020
2282 Snow 5 995 89 0 2.24 44 14:22 26.02.2020
2283 Snow 6 989 96 0 6.19 294 13:43 26.02.2020
2284 Snow 6 989 96 0 7.14 291 13:22 26.02.2020
2285 Snow 6 988 94 0 7.14 291 12:42 26.02.2020
2286 Snow 4 993 81 0 3.58 305 12:23 26.02.2020
2287 Snow 4 988 10 0 7.14 291 11:59 26.02.2020
2288 Snow 5 988 10 0 7.14 291 11:41 26.02.2020
2289 Snow 5 988 10 0 7.14 291 11:22 26.02.2020
2290 Snow 5 988 10 0 5.93 247 10:58 26.02.2020
2291 Snow 5 988 10 0 5.93 247 10:39 26.02.2020
2292 Snow 4 988 10 0 5.93 247 10:20 26.02.2020
2293 Snow 3 987 10 0 5.93 247 09:43 26.02.2020
2294 Snow 3 987 10 0 5.93 247 09:22 26.02.2020
2295 Snow 3 987 10 0 5.93 247 08:56 26.02.2020
2296 Snow 3 987 10 0 5.93 247 08:36 26.02.2020
2297 Clouds 3 987 10 0 3.48 216 08:18 26.02.2020
2298 Clouds 3 987 10 0 3.48 216 07:42 26.02.2020
2299 Clouds 3 992 92 0 0.89 224 07:23 26.02.2020
2300 Clouds 2 987 10 0 3.48 216 06:50 26.02.2020
2301 Clouds 2 987 10 0 3.48 216 06:32 26.02.2020
2302 Clouds 2 987 10 0 3.48 216 05:51 26.02.2020
2303 Clouds 2 987 10 0 3.48 216 05:23 26.02.2020
2304 Clouds 2 987 10 0 3.37 218 04:23 26.02.2020
2305 Snow 3 988 10 0 4.4 259 02:23 26.02.2020
2306 Snow 4 988 10 0 4.4 259 01:45 26.02.2020
2307 Rain 4 988 10 0 5.31 299 00:48 26.02.2020
2308 Rain 5 988 99 0 5.31 299 00:24 26.02.2020
2309 Rain 5 988 88 0 5.31 299 23:45 25.02.2020
2310 Rain 4 988 88 0 5.31 299 23:27 25.02.2020
2311 Clouds 4 988 88 0 4.08 214 22:59 25.02.2020
2312 Clouds 4 988 87 0 4.08 214 22:41 25.02.2020
2313 Clouds 4 989 84 0 4.08 214 22:19 25.02.2020
2314 Clouds 4 989 82 0 4.08 214 21:56 25.02.2020
2315 Clouds 4 989 81 0 4.08 214 21:36 25.02.2020
2316 Clouds 4 990 82 0 4.08 214 21:18 25.02.2020
2317 Clouds 4 990 84 0 4.08 214 20:55 25.02.2020
2318 Clouds 5 996 68 0 0.45 270 20:36 25.02.2020
2319 Clouds 5 996 67 0 0.89 240 20:18 25.02.2020
2320 Clouds 5 990 64 0 4.58 226 19:42 25.02.2020
2321 Clouds 6 990 64 0 4.58 226 19:19 25.02.2020
2322 Clouds 6 990 68 0 4.58 226 18:43 25.02.2020
2323 Clouds 7 990 67 0 4.58 226 18:22 25.02.2020
2324 Clouds 7 990 63 0 4.58 226 18:00 25.02.2020
2325 Clouds 8 990 59 0 4.58 226 17:38 25.02.2020
2326 Rain 9 991 52 0 7.49 258 17:20 25.02.2020
2327 Rain 10 991 46 0 7.49 258 16:59 25.02.2020
2328 Rain 10 991 46 0 7.49 258 16:40 25.02.2020
2329 Rain 10 991 46 0 7.49 258 16:40 25.02.2020
2330 Rain 10 991 47 0 7.49 258 16:22 25.02.2020
2331 Rain 10 997 58 0 2.68 266 15:59 25.02.2020
2332 Rain 10 997 63 0 2.68 271 15:41 25.02.2020
2333 Rain 10 997 68 0 2.24 323 15:19 25.02.2020
2334 Rain 10 991 58 0 7.49 258 14:57 25.02.2020
2335 Rain 10 997 75 0 2.24 36 14:37 25.02.2020
2336 Rain 11 997 66 0 2.68 23 14:18 25.02.2020
2337 Rain 11 997 66 0 2.68 23 14:18 25.02.2020
2338 Rain 11 991 60 0 7.42 269 13:55 25.02.2020
2339 Rain 11 997 65 0 2.24 328 13:37 25.02.2020
2340 Clouds 10 997 66 0 1.79 319 13:19 25.02.2020
2341 Clouds 10 998 67 0 1.79 290 12:42 25.02.2020
2342 Clouds 10 998 66 0 2.68 316 12:22 25.02.2020
2343 Clouds 10 992 67 0 9.09 271 11:57 25.02.2020
2344 Clouds 10 992 68 0 9.09 271 11:39 25.02.2020
2345 Clouds 11 992 69 0 6.46 267 11:19 25.02.2020
2346 Clouds 10 992 77 0 6.46 267 10:59 25.02.2020
2347 Clouds 10 998 72 0 3.58 288 10:40 25.02.2020
2348 Clouds 9 992 83 0 6.46 267 10:22 25.02.2020
2349 Clouds 10 992 81 0 6.46 267 09:42 25.02.2020
2350 Clouds 9 993 80 0 6.46 267 09:22 25.02.2020
2351 Clouds 9 993 79 0 6.46 267 08:55 25.02.2020
2352 Clouds 9 993 79 0 6.46 267 08:37 25.02.2020
2353 Clouds 8 993 80 0 4.73 256 08:19 25.02.2020
2354 Clouds 9 993 81 0 4.73 256 07:40 25.02.2020
2355 Clouds 9 993 81 0 4.73 256 07:20 25.02.2020
2356 Clouds 9 993 83 0 4.73 256 06:41 25.02.2020
2357 Clouds 9 1000 90 0 1.34 250 05:37 25.02.2020
2358 Clouds 10 993 91 0 4.85 239 03:44 25.02.2020
2359 Rain 9 994 10 0 4.75 230 02:00 25.02.2020
2360 Rain 9 995 10 0 4.43 228 00:48 25.02.2020
2361 Rain 9 995 10 0 4.43 228 00:48 25.02.2020
2362 Rain 9 995 10 0 4.43 228 00:29 25.02.2020
2363 Rain 8 995 10 0 4.43 228 23:44 24.02.2020
2364 Rain 8 995 10 0 4.43 228 23:22 24.02.2020
2365 Rain 7 996 10 0 6.05 241 22:43 24.02.2020
2366 Rain 6 996 10 0 6.05 241 22:21 24.02.2020
2367 Rain 7 1003 92 0 1.79 259 21:58 24.02.2020
2368 Rain 6 997 10 0 6.05 241 21:39 24.02.2020
2369 Rain 5 997 10 0 6.05 241 21:20 24.02.2020
2370 Rain 5 1001 85 0 6.05 241 20:59 24.02.2020
2371 Rain 5 1000 99 0 2.68 0 20:41 24.02.2020
2372 Rain 5 998 10 0 5.88 186 20:19 24.02.2020
2373 Rain 5 1005 89 0 1.79 314 19:58 24.02.2020
2374 Rain 5 999 10 0 5.88 186 19:40 24.02.2020
2375 Rain 5 999 10 0 5.88 186 19:21 24.02.2020
2376 Rain 5 1000 92 0 5.88 186 18:55 24.02.2020
2377 Rain 5 1000 88 0 5.88 186 18:37 24.02.2020
2378 Rain 5 1008 88 0 2.24 179 18:19 24.02.2020
2379 Rain 5 1002 83 0 5.88 186 17:42 24.02.2020
2380 Rain 5 1008 86 0 4.47 158 17:21 24.02.2020
2381 Rain 6 1004 85 0 5.6 174 16:58 24.02.2020
2382 Rain 6 1005 79 0 5.6 174 16:39 24.02.2020
2383 Rain 6 1011 17 0 1.79 165 16:20 24.02.2020
2384 Rain 7 981 72 0 2.24 208 15:59 24.02.2020
2385 Rain 7 1012 71 0 2.24 149 15:40 24.02.2020
2386 Rain 8 1012 72 0 4.47 145 15:21 24.02.2020
2387 Rain 8 1014 68 0 3.13 208 14:58 24.02.2020
2388 Rain 8 1010 68 0 5.6 174 14:39 24.02.2020
2389 Clouds 8 1014 65 0 4.47 163 14:19 24.02.2020
2390 Clouds 8 1015 61 0 5.81 218 13:56 24.02.2020
2391 Clouds 8 1015 60 0 4.02 111 13:37 24.02.2020
2392 Clouds 8 1015 60 0 1.79 159 13:19 24.02.2020
2393 Clouds 8 1016 62 0 1.34 189 12:55 24.02.2020
2394 Clouds 9 1017 63 0 0.89 176 12:37 24.02.2020
2395 Clouds 9 1018 64 0 4.37 211 12:18 24.02.2020
2396 Clouds 9 1018 64 0 4.02 258 11:42 24.02.2020
2397 Clouds 8 1018 63 0 2.24 303 11:23 24.02.2020
2398 Clouds 7 1019 64 0 4.92 292 10:44 24.02.2020
2399 Clouds 7 1020 67 0 2.68 241 10:25 24.02.2020
2400 Clouds 6 1020 70 0 0.45 189 09:41 24.02.2020
2401 Clouds 6 1021 76 0 2.68 262 09:19 24.02.2020
2402 Clouds 5 1015 79 0 5.67 275 08:57 24.02.2020
2403 Clouds 5 1015 79 0 5.67 275 08:37 24.02.2020
2404 Clouds 5 1015 80 0 7.27 278 08:19 24.02.2020
2405 Clouds 4 1021 77 0 2.24 316 07:41 24.02.2020
2406 Clouds 4 1021 80 0 1.79 266 07:23 24.02.2020
2407 Clouds 4 1021 79 0 1.34 297 06:34 24.02.2020
2408 Clouds 4 1021 80 0 2.24 15 05:52 24.02.2020
2409 Clouds 4 1014 87 0 7.27 278 05:28 24.02.2020
2410 Clouds 4 1013 87 0 7.92 276 03:27 24.02.2020
2411 Clouds 4 1013 87 0 7.92 276 02:51 24.02.2020
2412 Clouds 4 1012 87 0 9.74 291 01:41 24.02.2020
2413 Clouds 4 1012 87 0 9.57 290 00:52 24.02.2020
2414 Clouds 5 1011 86 0 9.57 290 00:21 24.02.2020
2415 Clouds 5 1010 85 0 9.57 290 23:58 23.02.2020
2416 Clouds 5 1010 86 0 9.57 290 23:40 23.02.2020
2417 Rain 5 1010 87 0 11.39 298 23:18 23.02.2020
2418 Rain 5 1009 85 0 11.39 298 22:54 23.02.2020
2419 Rain 5 1009 90 0 11.39 298 22:36 23.02.2020
2420 Rain 5 1010 99 0 5.81 0 22:18 23.02.2020
2421 Rain 6 1013 83 0 4.47 317 21:43 23.02.2020
2422 Rain 6 1006 97 0 11.39 298 21:19 23.02.2020
2423 Rain 6 1006 98 0 11.39 298 20:56 23.02.2020
2424 Rain 7 1005 10 0 11.39 298 20:37 23.02.2020
2425 Rain 8 1008 79 0 4.47 98 20:19 23.02.2020
2426 Rain 8 1002 10 0 14.47 286 19:56 23.02.2020
2427 Rain 8 1001 95 0 14.47 286 19:37 23.02.2020
2428 Rain 8 1001 96 0 14.47 286 19:18 23.02.2020
2429 Rain 8 1001 96 0 14.47 286 19:18 23.02.2020
2430 Rain 9 1005 83 0 4.92 60 18:54 23.02.2020
2431 Rain 10 999 99 0 14.47 286 18:36 23.02.2020
2432 Rain 10 1000 84 0 11.18 218 18:18 23.02.2020
2433 Rain 11 1000 84 0 11.18 218 17:54 23.02.2020
2434 Rain 11 1000 84 0 11.18 218 17:36 23.02.2020
2435 Rain 12 1000 84 0 11.18 218 17:18 23.02.2020
2436 Rain 12 1000 84 0 6.71 183 16:42 23.02.2020
2437 Rain 12 1000 83 0 10.28 225 16:23 23.02.2020
2438 Rain 12 1000 83 0 7.15 254 15:56 23.02.2020
2439 Rain 12 1000 86 0 4.92 249 15:37 23.02.2020
2440 Rain 11 1000 85 0 10.73 232 15:19 23.02.2020
2441 Rain 10 1000 87 0 3.13 245 14:55 23.02.2020
2442 Rain 9 1001 88 0 1.79 285 14:37 23.02.2020
2443 Rain 9 1001 88 0 1.34 166 14:19 23.02.2020
2444 Rain 8 1001 88 0 5.81 180 13:56 23.02.2020
2445 Rain 8 1002 88 0 4.47 203 13:38 23.02.2020
2446 Rain 8 1002 88 0 3.13 136 13:19 23.02.2020
2447 Rain 8 1004 87 0 1.34 131 12:41 23.02.2020
2448 Rain 8 1005 86 0 1.34 148 12:21 23.02.2020
2449 Rain 8 1001 10 0 7.82 235 11:54 23.02.2020
2450 Rain 8 1002 10 0 7.82 235 11:36 23.02.2020
2451 Rain 7 1003 10 0 3.7 210 11:18 23.02.2020
2452 Rain 7 1005 10 0 3.7 210 10:41 23.02.2020
2453 Rain 7 1006 10 0 3.7 210 10:23 23.02.2020
2454 Rain 7 1013 94 0 3.7 210 09:59 23.02.2020
2455 Rain 7 1013 94 0 3.7 210 09:39 23.02.2020
2456 Rain 7 1013 94 0 3.7 210 09:20 23.02.2020
2457 Rain 7 1008 98 0 3.7 210 08:51 23.02.2020
2458 Rain 7 1008 97 0 6.02 266 08:30 23.02.2020
2459 Rain 7 1009 92 0 7.21 272 07:54 23.02.2020
2460 Rain 7 1009 92 0 7.21 272 07:35 23.02.2020
2461 Rain 7 1009 90 0 7.21 272 06:39 23.02.2020
2462 Rain 7 1010 80 0 7.21 272 05:43 23.02.2020
2463 Rain 8 1010 72 0 7.98 284 04:26 23.02.2020
2464 Rain 8 1010 74 0 7.98 284 02:59 23.02.2020
2465 Rain 8 1011 79 0 7.98 284 02:25 23.02.2020
2466 Rain 8 1010 79 0 8.81 271 01:23 23.02.2020
2467 Rain 7 1010 81 0 8.81 271 00:45 23.02.2020
2468 Rain 7 1010 87 0 8.81 271 00:24 23.02.2020
2469 Rain 7 1010 91 0 8.81 271 23:45 22.02.2020
2470 Rain 7 1010 91 0 8.81 271 23:45 22.02.2020
2471 Rain 7 1010 95 0 8.81 271 23:26 22.02.2020
2472 Rain 7 1011 99 0 6.7 270 22:56 22.02.2020
2473 Rain 7 1010 97 0 6.7 270 22:36 22.02.2020
2474 Rain 7 1010 96 0 6.7 270 22:18 22.02.2020
2475 Rain 7 1011 96 0 6.7 270 21:40 22.02.2020
2476 Rain 7 1011 95 0 6.7 270 21:22 22.02.2020
2477 Rain 9 999 84 0 6.71 259 20:46 22.02.2020
2478 Clouds 10 999 71 0 6.71 259 20:24 22.02.2020
2479 Clouds 10 999 75 0 6.71 259 19:56 22.02.2020
2480 Clouds 11 999 75 0 6.71 259 19:37 22.02.2020
2481 Clouds 10 999 75 0 6.71 259 19:18 22.02.2020
2482 Clouds 11 1014 63 0 6.71 261 18:39 22.02.2020
2483 Clouds 11 1014 62 0 10.28 244 18:21 22.02.2020
2484 Clouds 11 1014 61 0 2.24 230 17:57 22.02.2020
2485 Clouds 11 1014 61 0 6.71 286 17:39 22.02.2020
2486 Clouds 11 1013 61 0 6.71 241 17:21 22.02.2020
2487 Clouds 12 1013 62 0 1.79 0 16:57 22.02.2020
2488 Clouds 12 1014 61 0 0.89 175 16:38 22.02.2020
2489 Clouds 12 1014 60 0 4.92 201 16:20 22.02.2020
2490 Clouds 12 1014 60 0 4.92 201 16:20 22.02.2020
2491 Clouds 12 1014 57 0 4.92 247 15:43 22.02.2020
2492 Clouds 12 1013 54 0 9.83 223 15:25 22.02.2020
2493 Clouds 12 1014 50 0 12.52 254 14:55 22.02.2020
2494 Clouds 12 1014 51 0 3.13 245 14:37 22.02.2020
2495 Clouds 12 1013 49 0 3.13 287 14:18 22.02.2020
2496 Clouds 12 1008 43 0 9.15 238 13:41 22.02.2020
2497 Clouds 12 1011 55 0 5.36 225 13:19 22.02.2020
2498 Clouds 11 1007 37 0 9.23 242 12:46 22.02.2020
2499 Clouds 11 1008 34 0 9.23 242 12:24 22.02.2020
2500 Clouds 11 1008 33 0 9.23 242 11:55 22.02.2020
2501 Clouds 11 1008 32 0 9.23 242 11:36 22.02.2020
2502 Clouds 9 974 47 0 1.34 152 11:18 22.02.2020
2503 Clouds 10 1008 37 0 8.47 227 11:18 22.02.2020
2504 Clouds 10 1009 36 0 8.47 227 10:40 22.02.2020
2505 Clouds 8 1010 48 0 8.47 227 10:20 22.02.2020
2506 Clouds 8 1010 55 0 8.47 227 09:58 22.02.2020
2507 Clouds 8 1010 55 0 8.47 227 09:39 22.02.2020
2508 Clouds 7 1010 55 0 8.47 227 09:21 22.02.2020
2509 Clouds 6 1011 76 0 8.47 227 08:50 22.02.2020
2510 Clouds 6 1011 76 0 8.47 227 08:28 22.02.2020
2511 Clouds 6 1012 77 0 6.75 233 07:52 22.02.2020
2512 Clouds 5 1011 79 0 6.75 233 07:20 22.02.2020
2513 Clouds 6 1019 76 0 2.68 260 06:50 22.02.2020
2514 Clouds 6 1012 73 0 6.75 233 06:32 22.02.2020
2515 Clouds 7 1014 69 0 4.46 221 04:42 22.02.2020
2516 Clouds 7 1015 69 0 4.46 221 03:33 22.02.2020
2517 Clouds 7 1015 69 0 4.46 221 02:33 22.02.2020
2518 Clouds 7 1023 69 0 4.02 266 01:47 22.02.2020
2519 Clouds 7 1016 69 0 5.42 223 01:27 22.02.2020
2520 Clouds 7 1017 69 0 6.08 226 00:46 22.02.2020
2521 Clouds 7 1017 68 0 6.08 226 00:28 22.02.2020
2522 Clouds 7 1017 69 0 6.08 226 23:52 21.02.2020
2523 Clouds 7 1017 69 0 6.08 226 23:24 21.02.2020
2524 Clouds 7 1018 69 0 7.01 225 22:57 21.02.2020
2525 Clouds 7 1018 69 0 7.01 225 22:39 21.02.2020
2526 -273 0 0 0 0 0 22:21 21.02.2020
2527 Clouds 7 1022 72 0 7.01 225 21:42 21.02.2020
2528 Clouds 7 1018 68 0 7.01 225 21:24 21.02.2020
2529 Clouds 7 1021 85 0 1.79 0 20:58 21.02.2020
2530 Clouds 7 1019 66 0 7.01 225 20:38 21.02.2020
2531 Clouds 7 1019 67 0 4.21 229 20:19 21.02.2020
2532 Clouds 7 1019 67 0 3.81 223 19:39 21.02.2020
2533 Clouds 7 1019 67 0 3.81 223 19:39 21.02.2020
2534 Clouds 7 1019 67 0 3.81 223 19:19 21.02.2020
2535 Clouds 7 1018 67 0 3.81 223 18:42 21.02.2020
2536 Clouds 7 1018 67 0 3.81 223 18:23 21.02.2020
2537 Clouds 7 1018 66 0 3.81 223 17:57 21.02.2020
2538 Clouds 7 1018 64 0 3.81 223 17:37 21.02.2020
2539 Clouds 7 1025 65 0 2.24 254 17:19 21.02.2020
2540 Clouds 8 1018 63 0 6.15 258 16:42 21.02.2020
2541 Clouds 8 1018 63 0 6.15 258 16:22 21.02.2020
2542 Clouds 8 1018 61 0 6.15 258 15:58 21.02.2020
2543 Clouds 8 1025 61 0 2.68 289 15:38 21.02.2020
2544 Clouds 8 1025 61 0 2.68 302 15:18 21.02.2020
2545 Clouds 8 1021 62 0 6.15 258 14:42 21.02.2020
2546 Clouds 8 1025 61 0 2.68 320 14:21 21.02.2020
2547 Rain 8 1025 61 0 3.13 277 13:59 21.02.2020
2548 Rain 8 1018 59 0 7.85 268 13:39 21.02.2020
2549 Rain 8 1018 59 0 7.48 270 13:39 21.02.2020
2550 Rain 8 1018 58 0 7.48 270 13:20 21.02.2020
2551 Rain 8 1018 61 0 7.85 268 12:43 21.02.2020
2552 Rain 8 1018 61 0 7.85 268 12:24 21.02.2020
2553 Rain 8 1018 63 0 7.85 268 11:56 21.02.2020
2554 Rain 8 1017 64 0 7.85 268 11:38 21.02.2020
2555 Rain 7 1017 64 0 8.19 276 11:19 21.02.2020
2556 Rain 7 1017 69 0 8.19 276 10:42 21.02.2020
2557 Rain 7 1017 69 0 8.19 276 10:42 21.02.2020
2558 Rain 7 1019 68 0 8.19 276 10:22 21.02.2020
2559 Rain 7 1016 70 0 8.19 276 09:58 21.02.2020
2560 Rain 6 1016 67 0 8.19 276 09:39 21.02.2020
2561 Rain 6 1016 67 0 8.19 276 09:20 21.02.2020
2562 Rain 6 1015 74 0 8.19 276 08:56 21.02.2020
2563 Rain 5 1015 74 0 8.19 276 08:36 21.02.2020
2564 Clouds 5 1014 77 0 9.06 276 08:18 21.02.2020
2565 Clouds 5 1014 80 0 9.06 276 07:42 21.02.2020
2566 Clouds 4 1013 80 0 9.06 276 07:21 21.02.2020
2567 Clouds 4 1013 81 0 9.06 276 06:56 21.02.2020
2568 Clouds 4 1013 83 0 9.06 276 06:33 21.02.2020
2569 Clouds 5 1012 84 0 9.06 276 05:58 21.02.2020
2570 Clouds 5 1011 84 0 9.06 276 05:31 21.02.2020
2571 Rain 5 1009 90 0 9.59 291 04:26 21.02.2020
2572 Rain 5 1011 82 0 2.24 293 03:52 21.02.2020
2573 Rain 5 1007 99 0 9.59 291 02:59 21.02.2020
2574 Rain 6 1004 97 0 12 269 01:44 21.02.2020
2575 Rain 7 1003 95 0 12.88 289 01:22 21.02.2020
2576 Rain 7 1009 82 0 3.58 300 00:39 21.02.2020
2577 Rain 7 1002 93 0 12.88 289 00:20 21.02.2020
2578 Rain 7 1002 92 0 12.88 289 23:43 20.02.2020
2579 Rain 7 1009 74 0 2.68 261 23:22 20.02.2020
2580 Clouds 7 1002 89 0 7.43 205 22:55 20.02.2020
2581 Clouds 7 1003 87 0 7.43 205 22:37 20.02.2020
2582 Clouds 7 1010 76 0 2.24 231 22:18 20.02.2020
2583 Clouds 7 1003 81 0 7.43 205 21:54 20.02.2020
2584 Clouds 7 1004 84 0 7.43 205 21:36 20.02.2020
2585 Clouds 7 1011 82 0 1.79 224 21:18 20.02.2020
2586 Clouds 7 1004 85 0 7.43 205 20:54 20.02.2020
2587 Clouds 7 1004 85 0 7.43 205 20:36 20.02.2020
2588 Clouds 7 1005 85 0 5.85 197 20:18 20.02.2020
2589 Clouds 7 1013 80 0 2.24 181 19:42 20.02.2020
2590 Clouds 8 1006 85 0 5.67 198 19:24 20.02.2020
2591 Clouds 8 1006 85 0 5.67 198 19:24 20.02.2020
2592 Clouds 8 1007 83 0 5.67 198 18:59 20.02.2020
2593 Clouds 8 1004 81 0 6.26 359 18:38 20.02.2020
2594 Clouds 8 1012 78 0 3.58 165 18:19 20.02.2020
2595 Clouds 8 1012 78 0 3.58 165 18:19 20.02.2020
2596 Clouds 8 980 77 0 2.68 180 17:41 20.02.2020
2597 Clouds 8 1013 77 0 5.81 170 17:22 20.02.2020
2598 Clouds 9 1013 74 0 4.47 180 16:59 20.02.2020
2599 Clouds 9 1013 73 0 2.24 95 16:40 20.02.2020
2600 Clouds 9 1013 71 0 5.81 156 16:21 20.02.2020
2601 Clouds 9 1014 73 0 4.47 177 15:59 20.02.2020
2602 Clouds 9 1014 73 0 1.79 166 15:41 20.02.2020
2603 Clouds 9 1014 72 0 4.92 175 15:20 20.02.2020
2604 Clouds 9 1015 71 0 4.47 152 14:55 20.02.2020
2605 Clouds 9 1015 71 0 2.68 225 14:37 20.02.2020
2606 Rain 9 1015 71 0 1.79 214 14:19 20.02.2020
2607 Rain 8 1016 72 0 4.02 146 13:44 20.02.2020
2608 Rain 8 1016 73 0 3.58 197 13:20 20.02.2020
2609 Clouds 7 1016 74 0 2.68 190 12:58 20.02.2020
2610 Clouds 7 1016 75 0 1.34 135 12:38 20.02.2020
2611 Clouds 7 1017 77 0 4.92 201 12:19 20.02.2020
2612 Clouds 7 1017 75 0 1.79 239 11:54 20.02.2020
2613 Clouds 7 1017 74 0 2.24 189 11:36 20.02.2020
2614 Clouds 6 1017 75 0 1.79 190 11:18 20.02.2020
2615 Clouds 5 1018 76 0 2.24 148 10:42 20.02.2020
2616 Clouds 5 1018 78 0 1.79 182 10:21 20.02.2020
2617 Clouds 5 1018 78 0 1.79 182 10:21 20.02.2020
2618 Clouds 4 1013 92 0 5.82 204 09:55 20.02.2020
2619 Clouds 3 1013 92 0 5.82 204 09:36 20.02.2020
2620 Clouds 3 1013 93 0 5.82 204 09:18 20.02.2020
2621 Clouds 3 1013 96 0 5.82 204 08:40 20.02.2020
2622 Rain 2 1013 99 0 5.42 202 08:22 20.02.2020
2623 Clouds 2 1013 99 0 3.71 187 07:47 20.02.2020
2624 Clouds 2 1020 80 0 0.89 238 07:26 20.02.2020
2625 Clouds 2 1013 93 0 3.71 187 06:56 20.02.2020
2626 Clouds 1 1013 89 0 3.71 187 06:31 20.02.2020
2627 Clouds 1 1020 81 0 0.89 175 05:47 20.02.2020
2628 Clear 1 1014 88 0 3.75 204 05:19 20.02.2020
2629 Clear 1 1014 90 0 3.75 204 04:29 20.02.2020
2630 Clear 1 1015 97 0 3.75 204 03:40 20.02.2020
2631 Clear 1 1015 94 0 3.75 204 02:45 20.02.2020
2632 Clear 3 1015 86 0 3.1 224 01:23 20.02.2020
2633 Clear 3 1015 80 0 3.13 223 00:37 20.02.2020
2634 Clear 4 1015 80 0 3.13 223 23:55 19.02.2020
2635 Clear 5 1015 77 0 6.11 270 23:24 19.02.2020
2636 Clear 5 1014 78 0 6.11 270 22:59 19.02.2020
2637 Clear 5 1014 78 0 6.11 270 22:41 19.02.2020
2638 Clear 5 1014 77 0 6.11 270 22:41 19.02.2020
2639 Clear 6 1020 69 0 2.24 282 22:21 19.02.2020
2640 Clear 5 1014 75 0 6.11 270 21:57 19.02.2020
2641 Clear 5 1014 75 0 6.11 270 21:39 19.02.2020
2642 Clear 5 1014 77 0 6.11 270 21:18 19.02.2020
2643 Clear 5 1014 77 0 6.11 270 21:18 19.02.2020
2644 Clear 5 1014 79 0 6.11 270 20:56 19.02.2020
2645 Clear 5 1020 72 0 3.13 322 20:37 19.02.2020
2646 Clouds 5 1013 88 0 7.32 277 20:18 19.02.2020
2647 Clouds 5 1013 90 0 7.32 277 19:56 19.02.2020
2648 Clouds 5 1019 76 0 2.24 327 19:37 19.02.2020
2649 Clouds 5 1013 95 0 7.32 277 19:18 19.02.2020
2650 Clouds 5 1013 92 0 7.32 277 18:57 19.02.2020
2651 Clouds 5 1012 84 0 7.32 277 18:39 19.02.2020
2652 Clouds 5 1012 87 0 7.32 277 18:20 19.02.2020
2653 Clouds 6 1018 82 0 2.68 331 17:43 19.02.2020
2654 Rain 6 1017 73 0 2.24 318 17:20 19.02.2020
2655 Rain 6 1011 89 0 9.92 279 16:55 19.02.2020
2656 Rain 6 1017 74 0 2.68 324 16:37 19.02.2020
2657 Rain 6 1010 89 0 9.92 279 16:18 19.02.2020
2658 Rain 7 1010 85 0 9.92 279 15:41 19.02.2020
2659 Rain 7 1010 85 0 9.92 279 15:23 19.02.2020
2660 Rain 7 1009 80 0 9.92 279 14:56 19.02.2020
2661 Rain 7 1009 80 0 9.92 279 14:56 19.02.2020
2662 Rain 7 1009 89 0 9.92 279 14:37 19.02.2020
2663 Rain 7 1009 89 0 9.92 279 14:37 19.02.2020
2664 Rain 7 1009 92 0 9.47 287 14:19 19.02.2020
2665 Rain 8 1008 60 0 9.47 287 13:41 19.02.2020
2666 Rain 7 1008 65 0 9.47 287 13:21 19.02.2020
2667 Rain 7 1008 70 0 9.11 283 12:55 19.02.2020
2668 Rain 7 1008 65 0 9.11 283 12:36 19.02.2020
2669 Rain 7 1008 78 0 1.34 38 12:18 19.02.2020
2670 Rain 7 1007 70 0 9.11 283 11:38 19.02.2020
2671 Rain 6 1007 73 0 8.69 279 11:20 19.02.2020
2672 Rain 6 1007 78 0 8.69 279 10:58 19.02.2020
2673 Rain 6 1007 86 0 8.69 279 10:38 19.02.2020
2674 Rain 5 1007 93 0 8.69 279 10:20 19.02.2020
2675 Rain 5 1006 96 0 8.69 279 09:58 19.02.2020
2676 Rain 5 1006 97 0 8.69 279 09:37 19.02.2020
2677 Rain 5 1006 99 0 8.69 279 09:19 19.02.2020
2678 Rain 6 1005 10 0 8.69 279 08:46 19.02.2020
2679 Rain 6 1005 10 0 8.69 279 08:24 19.02.2020
2680 Clouds 6 1004 95 0 5.87 214 07:46 19.02.2020
2681 Clouds 6 1004 95 0 5.87 214 07:26 19.02.2020
2682 Clouds 6 1004 94 0 5.87 214 06:57 19.02.2020
2683 Clouds 6 1005 77 0 1.79 108 06:34 19.02.2020
2684 Clouds 6 1006 77 0 5.83 206 04:28 19.02.2020
2685 Clouds 5 1015 77 0 2.24 208 03:22 19.02.2020
2686 Clouds 5 1009 72 0 1.79 19 02:33 19.02.2020
2687 Clouds 5 1009 79 0 5.61 220 01:33 19.02.2020
2688 Clouds 5 1010 72 0 1.79 112 00:53 19.02.2020
2689 Clouds 5 1010 77 0 6.03 221 00:34 19.02.2020
2690 Clouds 5 1011 72 0 6.03 221 23:57 18.02.2020
2691 Clouds 5 1011 72 0 6.03 221 23:39 18.02.2020
2692 Clouds 6 1019 80 0 2.24 297 23:19 18.02.2020
2693 Clouds 6 1019 80 0 2.24 297 23:19 18.02.2020
2694 Clouds 6 1012 73 0 5.6 219 22:54 18.02.2020
2695 Clouds 5 1012 75 0 5.6 219 22:36 18.02.2020
2696 Clouds 6 1013 77 0 5.6 219 22:18 18.02.2020
2697 Clouds 6 1013 77 0 5.6 219 21:38 18.02.2020
2698 Clouds 6 1013 77 0 5.6 219 21:20 18.02.2020
2699 Clouds 6 1013 76 0 5.6 219 20:59 18.02.2020
2700 Clouds 6 1013 76 0 5.6 219 20:39 18.02.2020
2701 Rain 6 1013 75 0 4.28 241 20:21 18.02.2020
2702 Rain 6 1013 75 0 4.28 241 20:21 18.02.2020
2703 Rain 6 1020 82 0 2.68 264 19:57 18.02.2020
2704 Rain 6 1020 82 0 2.68 264 19:57 18.02.2020
2705 Rain 7 1014 72 0 4.28 241 19:39 18.02.2020
2706 Rain 6 995 74 0 1.34 183 19:19 18.02.2020
2707 Rain 7 1019 71 0 0.89 84 18:42 18.02.2020
2708 Rain 7 1019 72 0 1.79 186 18:21 18.02.2020
2709 Rain 7 1019 72 0 1.79 186 18:21 18.02.2020
2710 Rain 7 1018 68 0 0.89 268 17:57 18.02.2020
2711 Rain 7 1018 69 0 6.26 248 17:39 18.02.2020
2712 Rain 7 1018 68 0 4.92 249 17:39 18.02.2020
2713 Clouds 8 1018 66 0 4.02 269 17:19 18.02.2020
2714 Clouds 8 1018 62 0 6.95 256 16:40 18.02.2020
2715 Clouds 9 1018 62 0 4.47 278 16:21 18.02.2020
2716 Clouds 9 1018 60 0 4.47 258 15:54 18.02.2020
2717 Clouds 9 1018 58 0 3.13 275 15:36 18.02.2020
2718 Clouds 9 1019 56 0 3.13 262 15:18 18.02.2020
2719 Clouds 9 1019 55 0 4.47 283 14:54 18.02.2020
2720 Clouds 9 1019 53 0 3.58 201 14:36 18.02.2020
2721 Clouds 9 1019 53 0 5.36 141 14:18 18.02.2020
2722 Clouds 9 1019 52 0 8.05 225 13:41 18.02.2020
2723 Clouds 9 1019 53 0 2.68 276 13:41 18.02.2020
2724 Clouds 9 1019 52 0 5.81 289 13:21 18.02.2020
2725 Clouds 8 1019 60 0 2.24 252 12:44 18.02.2020
2726 Clouds 8 1019 59 0 8.05 235 12:25 18.02.2020
2727 Clouds 8 1019 56 0 6.71 359 11:59 18.02.2020
2728 Clouds 8 1019 62 0 5.36 180 11:41 18.02.2020
2729 Clouds 8 1019 62 0 5.36 180 11:41 18.02.2020
2730 Clouds 7 1019 62 0 5.81 221 11:22 18.02.2020
2731 Rain 7 1019 69 0 8.05 228 10:44 18.02.2020
2732 Rain 6 1019 75 0 9.39 227 10:24 18.02.2020
2733 Rain 5 1019 82 0 4.47 215 09:57 18.02.2020
2734 Rain 5 1018 83 0 4.47 231 09:39 18.02.2020
2735 Rain 5 1018 85 0 5.81 279 09:20 18.02.2020
2736 Rain 5 1018 85 0 6.26 262 09:20 18.02.2020
2737 Rain 6 1018 86 0 3.58 279 08:58 18.02.2020
2738 Rain 6 1018 85 0 2.24 279 08:39 18.02.2020
2739 Rain 6 1018 85 0 5.36 231 08:19 18.02.2020
2740 Rain 6 1017 85 0 1.34 210 07:52 18.02.2020
2741 Rain 6 1016 88 0 2.68 162 07:29 18.02.2020
2742 Rain 6 1016 87 0 0.89 186 06:55 18.02.2020
2743 Rain 6 1016 86 0 2.24 265 06:29 18.02.2020
2744 Rain 6 1016 85 0 4.47 228 05:53 18.02.2020
2745 Rain 6 1016 84 0 0.45 90 05:22 18.02.2020
2746 Clouds 7 1015 85 0 3.58 237 03:57 18.02.2020
2747 Clouds 7 1015 81 0 0.89 182 02:58 18.02.2020
2748 Rain 7 1014 80 0 2.24 256 01:45 18.02.2020
2749 Rain 6 1014 81 0 3.13 193 00:45 18.02.2020
2750 Rain 6 1014 81 0 0.45 225 00:19 18.02.2020
2751 Rain 6 1014 83 0 1.79 271 23:44 17.02.2020
2752 Rain 6 1014 83 0 4.61 248 23:25 17.02.2020
2753 Clouds 6 1013 83 0 5.3 225 22:59 17.02.2020
2754 Clouds 6 1013 83 0 2.24 183 22:41 17.02.2020
2755 Clouds 6 1014 82 0 5.3 225 22:20 17.02.2020
2756 Clouds 7 1014 85 0 1.79 282 21:41 17.02.2020
2757 Clouds 7 1013 85 0 5.3 225 21:20 17.02.2020
2758 Clouds 7 1013 84 0 5.3 225 20:59 17.02.2020
2759 Clouds 7 1013 83 0 1.34 223 20:39 17.02.2020
2760 Clouds 7 1013 82 0 5.59 216 20:21 17.02.2020
2761 Clouds 7 1013 77 0 2.68 141 19:56 17.02.2020
2762 Clouds 7 1012 77 0 4.92 201 19:38 17.02.2020
2763 Clouds 7 1012 76 0 4.47 172 19:19 17.02.2020
2764 Clouds 8 1012 74 0 1.79 151 18:37 17.02.2020
2765 Clouds 8 1012 72 0 1.79 131 18:19 17.02.2020
2766 Clouds 9 1012 71 0 4.02 159 17:57 17.02.2020
2767 Clouds 9 1012 68 0 4.02 193 17:37 17.02.2020
2768 Clouds 9 1012 60 0 1.34 230 17:18 17.02.2020
2769 Clouds 9 1012 60 0 1.34 230 17:18 17.02.2020
2770 Clouds 10 1012 61 0 0.89 217 16:54 17.02.2020
2771 Clouds 10 1012 62 0 4.96 219 16:36 17.02.2020
2772 Clouds 10 1012 61 0 0.45 4 16:18 17.02.2020
2773 Clouds 11 1011 57 0 3.13 90 15:44 17.02.2020
2774 Clouds 11 1012 57 0 2.68 241 15:26 17.02.2020
2775 Clouds 11 1012 55 0 1.79 314 14:47 17.02.2020
2776 Clouds 11 1012 54 0 2.68 128 14:29 17.02.2020
2777 Clouds 11 1012 55 0 0.45 8 13:59 17.02.2020
2778 Clouds 11 1012 53 0 7.48 236 13:40 17.02.2020
2779 Clouds 11 1012 54 0 0.89 172 13:20 17.02.2020
2780 Clouds 11 1013 55 0 1.79 234 12:56 17.02.2020
2781 Clouds 11 1012 55 0 1.79 25 12:38 17.02.2020
2782 Clouds 11 1012 55 0 3.13 187 12:19 17.02.2020
2783 Clouds 10 1013 56 0 1.34 203 11:45 17.02.2020
2784 Clouds 10 1013 55 0 2.68 234 11:26 17.02.2020
2785 Clouds 10 1013 60 0 5.81 184 10:57 17.02.2020
2786 Clouds 10 1013 60 0 0.45 18 10:39 17.02.2020
2787 Clouds 10 1013 61 0 6.71 253 10:20 17.02.2020
2788 Clouds 10 1013 61 0 1.34 196 09:57 17.02.2020
2789 Clouds 9 1008 59 0 6.71 253 09:38 17.02.2020
2790 Clouds 9 1013 61 0 1.79 309 09:19 17.02.2020
2791 Clouds 9 1012 63 0 4.02 293 08:42 17.02.2020
2792 Clouds 9 1012 66 0 1.34 187 08:23 17.02.2020
2793 Clouds 9 1012 65 0 0.89 330 07:59 17.02.2020
2794 Clouds 9 1011 66 0 0.89 128 07:39 17.02.2020
2795 Clouds 9 1011 66 0 4.47 173 07:21 17.02.2020
2796 Clouds 9 1011 63 0 1.34 320 06:46 17.02.2020
2797 Clouds 9 1010 63 0 10.28 259 06:27 17.02.2020
2798 Clouds 10 1010 64 0 5.81 265 05:40 17.02.2020
2799 Rain 10 1009 63 0 2.68 242 04:39 17.02.2020
2800 Rain 10 1007 75 0 0.89 199 02:59 17.02.2020
2801 Rain 11 1007 72 0 6.71 218 01:25 17.02.2020
2802 Rain 11 1006 69 0 2.68 263 00:39 17.02.2020
2803 Rain 11 1006 70 0 3.13 235 00:39 17.02.2020
2804 Rain 12 1005 69 0 2.68 311 00:19 17.02.2020
2805 Rain 13 1005 65 0 3.58 272 23:52 16.02.2020
2806 Rain 13 1004 67 0 6.26 279 23:27 16.02.2020
2807 Clouds 15 1002 50 0 14.31 276 22:56 16.02.2020
2808 Clouds 16 1001 49 0 3.58 296 22:38 16.02.2020
2809 Clouds 15 1000 50 0 8.49 173 22:20 16.02.2020
2810 Clouds 15 1000 49 0 5.36 114 21:55 16.02.2020
2811 Clouds 15 1000 47 0 4.47 148 21:37 16.02.2020
2812 Clouds 15 1000 47 0 5.36 214 21:18 16.02.2020
2813 Clouds 15 1000 47 0 15.2 169 20:55 16.02.2020
2814 Clouds 15 1000 47 0 3.58 179 20:36 16.02.2020
2815 Clouds 15 1000 47 0 11.62 104 20:18 16.02.2020
2816 Clouds 15 1000 49 0 3.58 166 19:56 16.02.2020
2817 Clouds 14 1001 52 0 6.71 135 19:36 16.02.2020
2818 Clouds 14 1001 52 0 2.68 158 19:18 16.02.2020
2819 Clouds 14 1001 54 0 3.13 187 18:41 16.02.2020
2820 Clouds 14 1002 54 0 4.92 169 18:23 16.02.2020
2821 Clouds 15 1002 52 0 4.92 206 17:45 16.02.2020
2822 Clouds 15 1002 52 0 5.36 221 17:21 16.02.2020
2823 Clouds 15 1003 53 0 3.13 242 16:58 16.02.2020
2824 Clouds 15 1003 53 0 2.68 170 16:39 16.02.2020
2825 Clouds 15 1003 53 0 5.81 184 16:39 16.02.2020
2826 Clouds 15 1003 53 0 9.39 186 16:21 16.02.2020
2827 Clouds 15 1003 54 0 4.92 220 16:21 16.02.2020
2828 Clouds 16 1003 55 0 0.89 119 15:58 16.02.2020
2829 Clouds 16 1003 55 0 2.24 173 15:38 16.02.2020
2830 Clouds 16 1003 55 0 4.02 175 15:20 16.02.2020
2831 Clouds 15 1006 56 0 5.81 222 14:41 16.02.2020
2832 Clouds 15 1004 58 0 1.34 151 14:23 16.02.2020
2833 Clouds 15 1005 58 0 5.36 207 13:48 16.02.2020
2834 Clouds 15 1005 60 0 2.24 183 13:25 16.02.2020
2835 Rain 14 1006 61 0 11.62 201 12:58 16.02.2020
2836 Rain 14 1006 63 0 4.02 148 12:38 16.02.2020
2837 Rain 14 1006 64 0 6.26 180 12:19 16.02.2020
2838 Rain 12 1007 66 0 4.92 204 11:40 16.02.2020
2839 Rain 12 1006 65 0 4.02 118 11:19 16.02.2020
2840 Rain 12 1007 67 0 4.02 189 10:58 16.02.2020
2841 Rain 12 1007 68 0 1.34 167 10:58 16.02.2020
2842 Rain 11 1007 70 0 3.13 169 10:39 16.02.2020
2843 Rain 11 1007 69 0 4.92 55 10:39 16.02.2020
2844 Rain 11 1007 71 0 3.13 152 10:21 16.02.2020
2845 Rain 11 1007 71 0 5.36 193 10:21 16.02.2020
2846 Rain 11 1007 73 0 3.13 206 09:58 16.02.2020
2847 Rain 11 1008 77 0 2.68 200 09:37 16.02.2020
2848 Rain 11 1008 77 0 2.68 200 09:37 16.02.2020
2849 Rain 11 1007 79 0 3.13 166 09:19 16.02.2020
2850 Rain 11 1008 73 0 3.58 203 08:49 16.02.2020
2851 Clouds 10 1008 66 0 5.36 201 08:22 16.02.2020
2852 Clouds 10 1008 66 0 5.36 201 08:22 16.02.2020
2853 Clouds 10 1009 66 0 4.92 210 07:59 16.02.2020
2854 Clouds 10 1009 67 0 2.24 141 07:39 16.02.2020
2855 Clouds 9 1009 70 0 0.45 112 06:39 16.02.2020
2856 Clouds 9 1010 72 0 1.79 128 05:37 16.02.2020
2857 Clouds 9 1010 72 0 3.13 156 04:35 16.02.2020
2858 Clouds 8 1010 70 0 1.79 196 03:18 16.02.2020
2859 Clouds 8 1011 72 0 6.26 231 01:57 16.02.2020
2860 Clouds 8 1012 73 0 2.68 152 01:37 16.02.2020
2861 Clouds 8 1012 75 0 3.58 127 01:19 16.02.2020
2862 Clouds 7 1012 78 0 1.79 90 00:41 16.02.2020
2863 Clouds 7 1013 78 0 0.45 125 00:22 16.02.2020
2864 Clouds 7 1013 78 0 2.68 119 23:43 15.02.2020
2865 Clouds 7 1014 80 0 1.34 166 23:25 15.02.2020
2866 Clouds 7 1014 80 0 3.13 159 22:57 15.02.2020
2867 Clouds 7 1014 80 0 1.34 175 22:39 15.02.2020
2868 Clouds 7 1014 82 0 3.58 125 22:19 15.02.2020
2869 Clouds 7 1014 83 0 0.45 125 21:55 15.02.2020
2870 Clouds 7 1015 82 0 1.79 119 21:37 15.02.2020
2871 Clouds 7 1015 82 0 2.24 131 21:19 15.02.2020
2872 Clouds 7 1015 81 0 6.26 141 20:38 15.02.2020
2873 Clouds 7 1016 80 0 3.13 88 20:20 15.02.2020
2874 Clouds 7 1016 81 0 2.68 131 19:43 15.02.2020
2875 Clouds 7 1016 80 0 3.58 143 19:22 15.02.2020
2876 Clouds 7 1016 78 0 4.02 143 18:43 15.02.2020
2877 Clouds 8 1016 77 0 3.58 162 18:22 15.02.2020
2878 Clouds 8 1017 77 0 3.58 128 17:57 15.02.2020
2879 Clouds 8 1017 77 0 3.13 180 17:57 15.02.2020
2880 Clouds 8 1017 77 0 1.34 119 17:38 15.02.2020
2881 Clouds 9 1017 77 0 3.13 160 17:19 15.02.2020
2882 Clouds 10 1017 74 0 3.58 165 16:43 15.02.2020
2883 Clouds 10 1017 72 0 4.92 172 16:24 15.02.2020
2884 Clouds 11 1017 71 0 4.92 165 15:58 15.02.2020
2885 Clouds 11 1017 67 0 2.24 119 15:40 15.02.2020
2886 Clouds 11 1018 65 0 4.47 184 15:21 15.02.2020
2887 Clouds 11 1018 64 0 4.02 179 14:44 15.02.2020
2888 Clouds 11 1018 66 0 4.47 175 14:19 15.02.2020
2889 Clouds 12 1019 64 0 3.13 175 13:54 15.02.2020
2890 Clouds 11 1019 65 0 3.58 173 13:36 15.02.2020
2891 Clouds 10 1019 68 0 2.68 145 13:18 15.02.2020
2892 Clouds 10 1019 72 0 1.79 62 12:42 15.02.2020
2893 Clouds 10 1020 70 0 1.79 187 12:22 15.02.2020
2894 Clouds 10 1020 69 0 6.2 210 11:49 15.02.2020
2895 Clouds 9 1020 71 0 4.02 146 11:31 15.02.2020
2896 Clouds 8 1021 75 0 2.24 151 10:56 15.02.2020
2897 Clouds 7 1021 78 0 2.24 208 10:37 15.02.2020
2898 Clouds 7 1021 82 0 4.92 204 10:19 15.02.2020
2899 Clouds 6 1021 82 0 1.79 134 09:43 15.02.2020
2900 Clouds 5 1021 83 0 3.58 91 09:25 15.02.2020
2901 Clouds 3 1022 88 0 2.68 166 08:44 15.02.2020
2902 Clouds 2 1022 89 0 2.68 124 08:25 15.02.2020
2903 Clouds 2 1022 90 0 1.34 199 07:59 15.02.2020
2904 Clouds 2 1021 90 0 0.89 169 07:39 15.02.2020
2905 Clouds 1 1021 91 0 1.34 103 07:18 15.02.2020
2906 Clouds 1 1022 90 0 0.89 141 06:37 15.02.2020
2907 Clouds 2 1022 90 0 2.24 122 05:55 15.02.2020
2908 Clouds 2 1022 90 0 1.34 173 04:49 15.02.2020
2909 Clouds 2 1023 89 0 3.52 180 03:58 15.02.2020
2910 Clouds 3 1023 89 0 3.52 180 02:58 15.02.2020
2911 Clouds 3 1024 88 0 3.52 180 02:24 15.02.2020
2912 Clouds 4 1024 89 0 3.13 198 01:43 15.02.2020
2913 Clouds 4 1024 88 0 0.45 175 00:58 15.02.2020
2914 Clouds 4 1024 88 0 3.05 193 00:28 15.02.2020
2915 Clouds 5 1024 87 0 0.89 183 23:45 14.02.2020
2916 Clouds 5 1024 86 0 3.05 193 23:21 14.02.2020
2917 Clouds 5 1024 86 0 2.37 223 22:56 14.02.2020
2918 Clouds 5 1024 86 0 2.37 223 22:37 14.02.2020
2919 Clouds 5 1024 86 0 2.37 223 22:19 14.02.2020
2920 Clouds 5 1024 86 0 2.37 223 21:49 14.02.2020
2921 Clouds 5 1024 85 0 2.37 223 21:30 14.02.2020
2922 Clouds 5 1023 86 0 2.37 223 20:45 14.02.2020
2923 Clouds 5 1023 86 0 2.34 278 20:20 14.02.2020
2924 Clouds 5 1023 85 0 2.34 278 19:59 14.02.2020
2925 Clouds 6 1022 84 0 2.34 278 19:40 14.02.2020
2926 Clouds 5 1021 83 0 2.34 278 19:22 14.02.2020
2927 Clouds 5 1018 10 0 2.34 278 18:56 14.02.2020
2928 Clouds 5 1018 10 0 2.34 278 18:38 14.02.2020
2929 Clouds 5 1017 10 0 2.34 278 18:19 14.02.2020
2930 Clouds 6 1017 10 0 2.34 278 17:43 14.02.2020
2931 Clouds 7 1021 78 0 1.34 307 17:21 14.02.2020
2932 Clouds 7 1020 78 0 1.79 283 16:59 14.02.2020
2933 Clouds 7 1020 77 0 0.89 261 16:40 14.02.2020
2934 Clouds 8 1020 75 0 1.79 272 16:22 14.02.2020
2935 Clouds 8 1020 73 0 1.79 286 15:56 14.02.2020
2936 Clouds 8 1019 72 0 3.58 303 15:37 14.02.2020
2937 Clouds 8 1019 71 0 0.89 244 15:19 14.02.2020
2938 Clouds 8 1019 69 0 2.68 289 14:58 14.02.2020
2939 Clouds 8 1019 69 0 2.68 341 14:40 14.02.2020
2940 Rain 9 1018 68 0 5.81 279 14:21 14.02.2020
2941 Rain 8 1018 66 0 0.89 213 13:54 14.02.2020
2942 Rain 8 1018 71 0 3.13 302 13:36 14.02.2020
2943 Rain 8 1018 69 0 4.47 242 13:18 14.02.2020
2944 Rain 8 1017 74 0 2.24 259 12:55 14.02.2020
2945 Rain 8 1017 74 0 2.68 269 12:37 14.02.2020
2946 Rain 8 1017 74 0 5.36 289 12:18 14.02.2020
2947 Rain 7 1017 73 0 1.34 310 11:54 14.02.2020
2948 Rain 7 1013 85 0 0.45 152 11:36 14.02.2020
2949 Rain 7 1011 96 0 4.38 277 11:18 14.02.2020
2950 Rain 7 1015 85 0 1.34 256 10:40 14.02.2020
2951 Rain 6 1015 86 0 3.13 279 10:21 14.02.2020
2952 Rain 6 1014 89 0 0.45 256 09:44 14.02.2020
2953 Rain 5 1014 88 0 2.24 158 09:22 14.02.2020
2954 Rain 5 1013 88 0 1.34 252 08:56 14.02.2020
2955 Rain 5 1013 89 0 2.68 239 08:38 14.02.2020
2956 Rain 4 1012 89 0 1.34 203 08:19 14.02.2020
2957 Rain 4 1011 90 0 0.89 247 07:49 14.02.2020
2958 Rain 3 1011 91 0 0.89 282 07:24 14.02.2020
2959 Rain 3 1010 91 0 1.79 286 06:38 14.02.2020
2960 Rain 3 1009 91 0 0.45 242 06:18 14.02.2020
2961 Rain 3 1008 91 0 1.34 262 05:28 14.02.2020
2962 Rain 2 1007 91 0 1.44 282 03:46 14.02.2020
2963 Rain 2 1005 92 0 1.34 230 02:53 14.02.2020
2964 Rain 1 1005 92 0 2.34 224 01:56 14.02.2020
2965 Clouds 1 1003 91 0 1.84 221 00:45 14.02.2020
2966 Clouds 1 1003 91 0 1.84 221 00:45 14.02.2020
2967 Clouds 2 1003 90 0 1.84 221 00:26 14.02.2020
2968 Clouds 2 1003 90 0 1.84 221 23:57 13.02.2020
2969 Clouds 2 1003 90 0 1.84 221 23:38 13.02.2020
2970 Clouds 2 1002 90 0 0.45 359 23:18 13.02.2020
2971 Clouds 3 1002 89 0 2.99 196 22:40 13.02.2020
2972 Clouds 3 1001 88 0 0.45 162 22:19 13.02.2020
2973 Clouds 4 1001 88 0 0.45 190 21:58 13.02.2020
2974 Clouds 4 1001 87 0 1.34 162 21:39 13.02.2020
2975 Clouds 4 1001 87 0 0.45 193 21:20 13.02.2020
2976 Clouds 4 1001 86 0 2.68 179 20:42 13.02.2020
2977 Clouds 4 1001 86 0 3.13 166 20:22 13.02.2020
2978 Rain 4 1001 86 0 0.89 165 19:57 13.02.2020
2979 Rain 4 1001 86 0 1.34 160 19:39 13.02.2020
2980 Rain 4 1001 86 0 1.34 160 19:39 13.02.2020
2981 Rain 4 1001 86 0 4.92 138 19:20 13.02.2020
2982 Rain 4 1001 86 0 3.13 118 18:57 13.02.2020
2983 Rain 4 1001 85 0 5.36 159 18:39 13.02.2020
2984 Rain 4 1001 85 0 4.47 160 18:20 13.02.2020
2985 Rain 4 1001 85 0 2.68 104 17:57 13.02.2020
2986 Rain 4 1001 86 0 5.81 170 17:37 13.02.2020
2987 Rain 4 1002 85 0 5.81 98 17:18 13.02.2020
2988 Rain 4 1002 86 0 7.15 169 16:42 13.02.2020
2989 Rain 4 1003 86 0 5.81 104 16:21 13.02.2020
2990 Rain 4 1003 87 0 6.26 166 15:58 13.02.2020
2991 Rain 4 1004 86 0 4.47 143 15:39 13.02.2020
2992 Rain 5 1004 86 0 2.24 182 15:20 13.02.2020
2993 Rain 5 1005 83 0 3.58 151 14:59 13.02.2020
2994 Rain 5 1006 82 0 4.02 146 14:40 13.02.2020
2995 Rain 6 1006 75 0 2.24 170 14:22 13.02.2020
2996 Clouds 5 1007 72 0 1.79 173 13:59 13.02.2020
2997 Clouds 5 1007 72 0 4.47 81 13:41 13.02.2020
2998 Clouds 6 1008 71 0 4.47 173 13:18 13.02.2020
2999 Clouds 6 1008 72 0 1.34 182 12:48 13.02.2020
3000 Clouds 5 1009 73 0 7.15 182 12:30 13.02.2020
3001 Clouds 5 1009 73 0 4.02 179 12:30 13.02.2020
3002 Clouds 5 1010 72 0 3.58 169 11:58 13.02.2020
3003 Clouds 5 1010 72 0 4.92 169 11:40 13.02.2020
3004 Clouds 5 1011 73 0 1.79 111 11:19 13.02.2020
3005 Clouds 5 1011 74 0 5.36 156 10:43 13.02.2020
3006 Clouds 5 1004 76 0 5.09 203 10:25 13.02.2020
3007 Clouds 4 1009 78 0 2.68 182 09:50 13.02.2020
3008 Clouds 3 1012 80 0 4.02 176 09:26 13.02.2020
3009 Clouds 2 1006 84 0 1.34 207 08:48 13.02.2020
3010 Clouds 2 1013 85 0 0.45 201 08:20 13.02.2020
3011 Clear 1 1014 89 0 2.68 189 07:57 13.02.2020
3012 Clear 1 1014 89 0 2.24 179 07:38 13.02.2020
3013 Clear 1 1014 89 0 0.45 200 07:19 13.02.2020
3014 Clear 1 1014 89 0 0.89 135 06:44 13.02.2020
3015 Clear 1 1014 88 0 1.79 167 05:59 13.02.2020
3016 Clear 1 1014 88 0 4.58 233 05:20 13.02.2020
3017 Clear 1 1014 87 0 4.58 233 04:25 13.02.2020
3018 Clear 2 1014 84 0 3.13 206 03:45 13.02.2020
3019 Clear 2 1014 84 0 0.89 148 03:18 13.02.2020
3020 Clear 2 1014 83 0 0.45 177 02:45 13.02.2020
3021 Clear 2 1014 84 0 6.18 251 02:19 13.02.2020
3022 Clear 3 1014 81 0 0.89 35 01:27 13.02.2020
3023 Clear 3 1014 82 0 1.34 197 00:32 13.02.2020
3024 Clear 3 1013 78 0 1.34 285 23:58 12.02.2020
3025 Clear 3 1013 78 0 1.34 265 23:38 12.02.2020
3026 Clear 3 1013 81 0 6.42 257 23:19 12.02.2020
3027 Clear 3 1013 76 0 1.34 204 22:44 12.02.2020
3028 Clear 3 1013 75 0 2.68 309 22:24 12.02.2020
3029 Clear 3 1008 75 0 6.42 257 21:58 12.02.2020
3030 Clear 3 1008 75 0 6.42 257 21:58 12.02.2020
3031 Clear 3 1013 73 0 5.36 241 21:39 12.02.2020
3032 Clear 3 1013 73 0 5.36 241 21:39 12.02.2020
3033 Clear 3 1013 73 0 4.02 237 21:19 12.02.2020
3034 Clear 4 1013 73 0 3.13 273 20:56 12.02.2020
3035 Clear 3 1013 73 0 3.13 273 20:56 12.02.2020
3036 Clear 4 1012 73 0 2.68 26 20:37 12.02.2020
3037 Clouds 4 1012 72 0 4.02 254 20:19 12.02.2020
3038 Clouds 4 1012 74 0 2.24 244 19:44 12.02.2020
3039 Clouds 4 1012 76 0 6.2 261 19:23 12.02.2020
3040 Clouds 4 1011 68 0 1.34 241 18:56 12.02.2020
3041 Clouds 4 1011 69 0 2.68 245 18:37 12.02.2020
3042 Clouds 4 1010 69 0 2.24 224 18:18 12.02.2020
3043 Clouds 5 1010 65 0 3.58 237 17:42 12.02.2020
3044 Clouds 5 1010 64 0 1.34 221 17:20 12.02.2020
3045 Clouds 5 1009 59 0 9.39 211 16:59 12.02.2020
3046 Clouds 6 1009 58 0 4.92 237 16:39 12.02.2020
3047 Clouds 6 1009 59 0 5.81 272 16:39 12.02.2020
3048 Clouds 6 1009 57 0 5.36 245 16:19 12.02.2020
3049 Clouds 6 1009 55 0 1.79 230 15:41 12.02.2020
3050 Clouds 7 1009 53 0 4.47 265 15:23 12.02.2020
3051 Clouds 7 1010 51 0 5.36 333 14:57 12.02.2020
3052 Clouds 7 1010 51 0 4.92 41 14:39 12.02.2020
3053 Clouds 7 1009 50 0 8.05 314 14:19 12.02.2020
3054 Snow 7 1008 51 0 4.47 292 13:56 12.02.2020
3055 Snow 7 1008 54 0 2.68 8 13:38 12.02.2020
3056 Clouds 7 1008 53 0 5.36 317 13:19 12.02.2020
3057 Clouds 7 1008 55 0 8.49 251 12:57 12.02.2020
3058 Clouds 7 1008 54 0 2.24 238 12:37 12.02.2020
3059 Clouds 7 1008 54 0 5.36 259 12:18 12.02.2020
3060 Clouds 6 1008 58 0 8.49 251 11:56 12.02.2020
3061 Clouds 6 1008 58 0 5.36 214 11:37 12.02.2020
3062 Clouds 6 1007 58 0 6.26 295 11:19 12.02.2020
3063 Clouds 6 1007 58 0 5.36 268 10:54 12.02.2020
3064 Clouds 6 1007 60 0 10.28 252 10:36 12.02.2020
3065 Clouds 5 998 61 0 6.26 242 10:18 12.02.2020
3066 Clouds 5 1007 63 0 5.36 230 09:41 12.02.2020
3067 Clouds 5 1007 64 0 14.75 235 09:41 12.02.2020
3068 Clouds 5 1007 63 0 5.36 230 09:41 12.02.2020
3069 Clouds 4 1006 66 0 4.92 230 09:21 12.02.2020
3070 Clouds 4 1006 69 0 4.02 302 08:57 12.02.2020
3071 Clouds 4 1006 71 0 6.26 215 08:37 12.02.2020
3072 Clear 3 1006 72 0 6.71 230 08:19 12.02.2020
3073 Clear 3 1006 73 0 4.47 248 07:44 12.02.2020
3074 Clear 3 1006 73 0 4.47 248 07:44 12.02.2020
3075 Clear 3 1006 72 0 6.71 265 07:23 12.02.2020
3076 Clear 3 1005 70 0 10.73 265 06:57 12.02.2020
3077 Clear 3 1005 74 0 4.47 228 06:24 12.02.2020
3078 Clear 3 1005 72 0 12.07 238 05:39 12.02.2020
3079 Clear 3 1005 73 0 4.92 258 04:58 12.02.2020
3080 Clear 3 1005 73 0 6.26 252 04:40 12.02.2020
3081 Clear 3 1004 74 0 4.02 261 03:42 12.02.2020
3082 Clear 3 1004 74 0 4.47 239 03:23 12.02.2020
3083 Clear 3 1004 76 0 4.47 217 02:31 12.02.2020
3084 Clear 3 1004 77 0 4.02 232 01:59 12.02.2020
3085 Clear 3 1004 79 0 5.81 280 00:58 12.02.2020
3086 Clear 3 1004 80 0 4.02 232 00:39 12.02.2020
3087 Clear 3 1004 81 0 9.39 238 00:21 12.02.2020
3088 Clear 3 1004 84 0 5.36 241 23:42 11.02.2020
3089 Clear 3 1003 86 0 8.05 247 23:24 11.02.2020
3090 Clear 3 1003 88 0 3.58 263 22:56 11.02.2020
3091 Clear 3 1003 87 0 2.24 262 22:38 11.02.2020
3092 Clear 3 1003 82 0 5.81 241 22:19 11.02.2020
3093 Clear 3 1003 87 0 4.92 231 21:56 11.02.2020
3094 Clear 3 998 85 0 9.12 264 21:56 11.02.2020
3095 Clear 3 1003 87 0 4.47 256 21:37 11.02.2020
3096 Clear 3 1002 82 0 7.6 237 21:18 11.02.2020
3097 Clear 4 1003 80 0 8.49 239 20:56 11.02.2020
3098 Clear 4 1002 80 0 5.36 218 20:38 11.02.2020
3099 Clear 4 1002 80 0 5.36 218 20:38 11.02.2020
3100 Clouds 4 1002 82 0 7.15 245 20:18 11.02.2020
3101 Clouds 4 1002 82 0 7.15 245 20:18 11.02.2020
3102 Clouds 4 1002 82 0 5.36 234 19:54 11.02.2020
3103 Clouds 4 1001 78 0 5.81 285 19:36 11.02.2020
3104 Clouds 4 1001 77 0 3.13 286 19:18 11.02.2020
3105 Clouds 4 999 81 0 3.13 228 18:42 11.02.2020
3106 Clouds 4 1001 79 0 3.58 263 18:24 11.02.2020
3107 Clouds 4 1000 78 0 4.02 297 17:55 11.02.2020
3108 Clouds 5 1000 79 0 11.62 214 17:37 11.02.2020
3109 Rain 5 1000 79 0 8.05 249 17:18 11.02.2020
3110 Rain 5 1000 77 0 4.92 244 17:18 11.02.2020
3111 Rain 5 1000 84 0 2.68 310 16:57 11.02.2020
3112 Rain 5 1000 83 0 4.47 235 16:57 11.02.2020
3113 Rain 5 1000 84 0 1.79 266 16:38 11.02.2020
3114 Rain 6 999 65 0 2.68 275 16:20 11.02.2020
3115 Rain 7 998 59 0 5.81 220 15:47 11.02.2020
3116 Rain 7 998 59 0 4.47 324 15:29 11.02.2020
3117 Rain 7 998 58 0 12.52 249 14:58 11.02.2020
3118 Rain 7 998 55 0 6.71 254 14:39 11.02.2020
3119 Clouds 7 998 55 0 3.58 289 14:19 11.02.2020
3120 Clouds 7 998 52 0 9.83 255 13:42 11.02.2020
3121 Clouds 7 998 53 0 4.02 221 13:22 11.02.2020
3122 Clouds 7 998 56 0 8.05 263 12:59 11.02.2020
3123 Clouds 7 998 58 0 3.58 244 12:41 11.02.2020
3124 Clouds 7 998 59 0 13.41 211 12:41 11.02.2020
3125 Clouds 6 998 58 0 6.71 186 12:21 11.02.2020
3126 Clouds 6 997 57 0 5.81 259 11:57 11.02.2020
3127 Clouds 6 994 57 0 4.47 269 11:39 11.02.2020
3128 Clouds 6 997 59 0 10.28 213 11:19 11.02.2020
3129 Clouds 6 997 64 0 4.02 183 10:40 11.02.2020
3130 Clouds 5 997 64 0 6.71 179 10:21 11.02.2020
3131 Clouds 5 997 69 0 13.24 267 09:58 11.02.2020
3132 Clouds 5 997 70 0 7.15 245 09:40 11.02.2020
3133 Clouds 5 996 70 0 7.6 254 09:22 11.02.2020
3134 Clouds 5 996 72 0 5.81 271 08:49 11.02.2020
3135 Clouds 4 996 73 0 5.81 251 08:25 11.02.2020
3136 Clouds 4 995 72 0 5.36 263 07:55 11.02.2020
3137 Clouds 3 995 74 0 16.09 234 07:34 11.02.2020
3138 Clouds 3 995 79 0 3.13 248 06:58 11.02.2020
3139 Clouds 3 995 82 0 4.02 247 06:39 11.02.2020
3140 Clouds 3 994 83 0 4.02 214 06:20 11.02.2020
3141 Clouds 3 994 86 0 4.02 272 05:47 11.02.2020
3142 Clouds 3 994 86 0 4.02 272 05:47 11.02.2020
3143 Snow 3 994 86 0 6.26 244 05:20 11.02.2020
3144 Snow 4 994 85 0 4.02 278 04:34 11.02.2020
3145 Snow 4 991 86 0 2.24 231 02:40 11.02.2020
3146 Snow 3 991 87 0 4.02 224 02:22 11.02.2020
3147 Rain 4 990 88 0 5.36 292 01:32 11.02.2020
3148 Rain 6 989 75 0 2.68 203 00:32 11.02.2020
3149 Rain 6 989 80 0 1.79 239 23:52 10.02.2020
3150 Rain 6 989 80 0 4.02 173 23:31 10.02.2020
3151 Rain 6 990 82 0 2.68 242 22:58 10.02.2020
3152 Rain 6 991 82 0 2.24 177 22:38 10.02.2020
3153 Rain 6 991 82 0 3.13 101 22:20 10.02.2020
3154 Rain 5 992 81 0 2.68 206 21:43 10.02.2020
3155 Rain 5 992 82 0 1.34 204 21:25 10.02.2020
3156 Rain 4 993 81 0 1.79 26 20:58 10.02.2020
3157 Rain 4 993 82 0 3.58 175 20:38 10.02.2020
3158 Clouds 4 994 84 0 1.79 203 20:20 10.02.2020
3159 Clouds 4 995 86 0 0.45 179 19:58 10.02.2020
3160 Clouds 4 995 85 0 6.32 241 19:38 10.02.2020
3161 Clouds 4 996 85 0 2.24 167 19:19 10.02.2020
3162 Clouds 4 996 83 0 0.45 231 18:59 10.02.2020
3163 Clouds 4 997 81 0 6.32 241 18:40 10.02.2020
3164 Clouds 5 997 81 0 5.81 191 18:21 10.02.2020
3165 Clouds 5 997 84 0 6.26 265 17:58 10.02.2020
3166 Clouds 5 997 84 0 3.58 231 17:38 10.02.2020
3167 Rain 5 997 86 0 4.92 245 17:19 10.02.2020
3168 Rain 5 997 89 0 10.73 230 16:58 10.02.2020
3169 Rain 6 997 89 0 9.83 218 16:40 10.02.2020
3170 Rain 6 997 81 0 13.41 213 16:19 10.02.2020
3171 Rain 6 995 75 0 8.05 259 15:56 10.02.2020
3172 Rain 6 995 76 0 9.39 245 15:38 10.02.2020
3173 Rain 6 995 77 0 6.26 262 15:20 10.02.2020
3174 Rain 6 990 91 0 11.15 267 14:56 10.02.2020
3175 Rain 7 992 79 0 5.36 249 14:37 10.02.2020
3176 Rain 6 995 83 0 1.79 276 14:18 10.02.2020
3177 Rain 7 994 84 0 4.92 282 13:42 10.02.2020
3178 Rain 6 994 86 0 8.49 218 13:24 10.02.2020
3179 Rain 6 994 86 0 8.49 218 13:24 10.02.2020
3180 Rain 7 994 85 0 6.71 306 12:54 10.02.2020
3181 Rain 8 993 74 0 5.81 300 12:36 10.02.2020
3182 Rain 8 992 76 0 4.47 206 12:18 10.02.2020
3183 Rain 8 991 75 0 6.71 256 11:43 10.02.2020
3184 Rain 7 991 81 0 5.81 255 11:20 10.02.2020
3185 Rain 7 990 85 0 4.47 261 10:47 10.02.2020
3186 Rain 8 990 89 0 7.6 297 10:28 10.02.2020
3187 Rain 8 989 86 0 4.47 215 09:48 10.02.2020
3188 Rain 8 988 89 0 3.58 262 09:27 10.02.2020
3189 Rain 7 989 88 0 3.13 297 08:59 10.02.2020
3190 Rain 7 988 87 0 4.92 299 08:38 10.02.2020
3191 Rain 8 987 73 0 3.13 271 08:19 10.02.2020
3192 -273 0 0 0 0 0 07:51 10.02.2020
3193 Rain 8 986 75 0 4.47 242 07:32 10.02.2020
3194 Rain 8 986 78 0 4.92 266 06:30 10.02.2020
3195 Rain 9 986 75 0 0.89 220 04:51 10.02.2020
3196 Rain 9 985 75 0 6.71 275 03:53 10.02.2020
3197 Rain 11 987 88 0 12.07 249 02:57 10.02.2020
3198 Rain 10 987 89 0 4.47 235 02:36 10.02.2020
3199 Rain 13 985 65 0 5.36 156 01:21 10.02.2020
3200 Rain 13 987 64 0 7.15 190 00:37 10.02.2020
3201 Rain 13 987 65 0 15.2 121 00:19 10.02.2020
3202 Rain 13 989 63 0 5.81 223 23:41 09.02.2020
3203 Rain 13 989 62 0 4.47 52 23:23 09.02.2020
3204 Rain 13 989 62 0 2.24 256 23:23 09.02.2020
3205 Rain 13 990 61 0 6.26 194 22:44 09.02.2020
3206 Rain 13 991 60 0 14.31 194 22:22 09.02.2020
3207 Rain 13 991 60 0 6.26 213 21:54 09.02.2020
3208 Rain 13 992 58 0 6.26 208 21:36 09.02.2020
3209 Rain 13 992 58 0 6.26 208 21:36 09.02.2020
3210 Rain 13 993 58 0 5.36 204 21:18 09.02.2020
3211 Rain 13 994 57 0 4.92 170 20:44 09.02.2020
3212 Clouds 12 993 56 0 6.71 213 20:21 09.02.2020
3213 Clouds 12 995 56 0 7.6 145 19:54 09.02.2020
3214 Clouds 12 996 55 0 5.81 97 19:36 09.02.2020
3215 Clouds 12 997 57 0 6.71 217 19:18 09.02.2020
3216 Clouds 12 997 57 0 5.36 170 18:41 09.02.2020
3217 Clouds 12 998 59 0 4.47 215 18:23 09.02.2020
3218 Clouds 12 998 62 0 4.47 234 17:56 09.02.2020
3219 Clouds 12 999 61 0 4.47 208 17:37 09.02.2020
3220 Clouds 12 1000 60 0 9.83 189 17:19 09.02.2020
3221 Clouds 12 1001 63 0 3.58 132 16:41 09.02.2020
3222 Clouds 12 1002 62 0 11.18 186 16:22 09.02.2020
3223 Clouds 11 1003 63 0 3.58 153 15:58 09.02.2020
3224 Clouds 11 1003 63 0 4.47 175 15:40 09.02.2020
3225 Clouds 12 1004 64 0 4.47 170 15:21 09.02.2020
3226 Clouds 11 1005 64 0 7.15 163 14:56 09.02.2020
3227 Clouds 12 1005 64 0 4.02 167 14:37 09.02.2020
3228 Clouds 12 1005 65 0 5.81 183 14:19 09.02.2020
3229 Clouds 12 1007 62 0 3.58 124 13:42 09.02.2020
3230 Clouds 12 1008 62 0 4.02 186 13:24 09.02.2020
3231 Clouds 12 1009 61 0 2.68 173 12:55 09.02.2020
3232 Clouds 12 1010 62 0 5.81 163 12:37 09.02.2020
3233 Clouds 11 1010 64 0 8.49 153 12:18 09.02.2020
3234 Clouds 11 1012 65 0 3.58 173 11:40 09.02.2020
3235 Clouds 10 1011 67 0 5.36 151 11:19 09.02.2020
3236 Clouds 10 1012 67 0 4.47 152 10:56 09.02.2020
3237 Clouds 9 1011 68 0 2.68 117 10:38 09.02.2020
3238 Clouds 9 1014 68 0 2.68 83 10:19 09.02.2020
3239 Clouds 7 1014 74 0 5.36 138 09:40 09.02.2020
3240 Clouds 7 1013 76 0 6.71 112 09:20 09.02.2020
3241 Clouds 6 1013 78 0 3.13 179 08:44 09.02.2020
3242 Clouds 6 1016 78 0 3.13 165 08:26 09.02.2020
3243 Clouds 6 1017 79 0 1.79 129 07:57 09.02.2020
3244 Clouds 5 1017 79 0 1.79 152 07:34 09.02.2020
3245 Clouds 6 1017 79 0 1.34 125 06:44 09.02.2020
3246 Clouds 6 1018 76 0 3.13 107 05:57 09.02.2020
3247 Clouds 6 1018 75 0 3.13 189 05:35 09.02.2020
3248 Clouds 6 1018 77 0 3.13 255 04:54 09.02.2020
3249 Clouds 7 1018 78 0 3.13 201 03:51 09.02.2020
3250 Clouds 7 1019 76 0 0.45 110 02:44 09.02.2020
3251 Clouds 7 1019 76 0 4.43 193 02:24 09.02.2020
3252 Clouds 7 1019 76 0 0.45 228 01:34 09.02.2020
3253 Clouds 6 1020 78 0 4.71 214 00:42 09.02.2020
3254 Clouds 6 1020 79 0 4.71 214 00:23 09.02.2020
3255 Clouds 6 1020 79 0 4.71 214 23:42 08.02.2020
3256 Clouds 6 1020 78 0 4.04 233 23:20 08.02.2020
3257 Clouds 6 1020 79 0 4.04 233 22:42 08.02.2020
3258 Clouds 6 1020 79 0 1.34 175 22:22 08.02.2020
3259 Clouds 6 1020 80 0 4.04 233 22:22 08.02.2020
3260 Clouds 6 1020 79 0 4.04 233 21:59 08.02.2020
3261 Clouds 6 1020 79 0 4.04 233 21:40 08.02.2020
3262 Clouds 6 1020 78 0 0.89 132 21:21 08.02.2020
3263 Clouds 6 1020 79 0 1.34 101 20:57 08.02.2020
3264 Clouds 6 1020 79 0 0.89 60 20:38 08.02.2020
3265 Clouds 6 1020 79 0 1.79 156 20:19 08.02.2020
3266 Clouds 6 1020 78 0 1.79 165 19:55 08.02.2020
3267 Clouds 6 1020 77 0 2.68 145 19:37 08.02.2020
3268 Clouds 6 1020 77 0 2.68 138 19:19 08.02.2020
3269 Clouds 6 1020 75 0 2.24 167 18:43 08.02.2020
3270 Clouds 6 1020 76 0 2.68 158 18:24 08.02.2020
3271 Clouds 6 1020 76 0 1.34 159 17:44 08.02.2020
3272 Clouds 7 1020 76 0 2.24 175 17:22 08.02.2020
3273 Clouds 7 1020 75 0 1.79 155 16:59 08.02.2020
3274 Clouds 8 1020 75 0 0.89 124 16:40 08.02.2020
3275 Clouds 8 1020 72 0 2.68 169 16:21 08.02.2020
3276 Clouds 9 1020 69 0 1.34 134 15:43 08.02.2020
3277 Clouds 9 1021 66 0 0.89 76 15:19 08.02.2020
3278 Clouds 9 1021 63 0 0.45 169 14:59 08.02.2020
3279 Clouds 9 1021 62 0 3.13 156 14:41 08.02.2020
3280 Clear 9 1021 60 0 3.58 101 14:19 08.02.2020
3281 Clear 9 1021 63 0 2.68 107 13:55 08.02.2020
3282 Clear 9 1021 63 0 2.68 134 13:37 08.02.2020
3283 Clear 9 1021 60 0 4.02 141 13:18 08.02.2020
3284 Clear 8 1022 62 0 4.02 158 12:38 08.02.2020
3285 Clear 8 1022 63 0 1.79 153 12:19 08.02.2020
3286 Clear 7 1022 67 0 4.02 186 11:43 08.02.2020
3287 Clear 6 1022 69 0 5.36 182 11:22 08.02.2020
3288 Clear 6 1022 72 0 1.79 217 10:59 08.02.2020
3289 Clear 6 1021 74 0 1.79 156 10:40 08.02.2020
3290 Clear 5 1022 77 0 7.15 180 10:20 08.02.2020
3291 Clear 4 1022 81 0 2.68 194 09:50 08.02.2020
3292 Clear 3 1021 85 0 0.89 149 09:26 08.02.2020
3293 Clear 2 1023 87 0 4.47 87 08:48 08.02.2020
3294 Clear 2 1023 89 0 4.47 165 08:29 08.02.2020
3295 Clear 1 1023 90 0 1.34 105 07:59 08.02.2020
3296 Clear 1 1023 90 0 2.24 172 07:39 08.02.2020
3297 Clear 1 1023 90 0 3.13 128 06:56 08.02.2020
3298 Clear 1 1023 90 0 1.79 152 06:23 08.02.2020
3299 Clear 1 1023 89 0 4.64 167 05:40 08.02.2020
3300 Clear 1 1023 89 0 1.79 172 05:21 08.02.2020
3301 Clear 1 1023 89 0 0.89 166 04:37 08.02.2020
3302 Clear 2 1024 88 0 0.89 135 03:41 08.02.2020
3303 Clear 2 1024 87 0 0.89 129 02:51 08.02.2020
3304 Clear 3 1025 86 0 2.24 141 01:37 08.02.2020
3305 Clear 3 1025 85 0 0.89 172 01:19 08.02.2020
3306 Clear 4 1025 85 0 2.24 165 00:39 08.02.2020
3307 Clear 4 1025 84 0 0.45 163 00:20 08.02.2020
3308 Clear 4 1026 82 0 1.79 136 23:43 07.02.2020
3309 Clear 5 1026 80 0 3.13 176 23:20 07.02.2020
3310 Clear 6 1022 79 0 4.07 145 22:56 07.02.2020
3311 Clear 6 1022 80 0 4.07 145 22:37 07.02.2020
3312 Clear 6 1025 99 0 1.34 0 22:19 07.02.2020
3313 Clear 5 1022 84 0 4.07 145 21:42 07.02.2020
3314 Clear 6 1023 86 0 4.07 145 21:22 07.02.2020
3315 Clear 6 1023 87 0 4.07 145 20:55 07.02.2020
3316 Clear 6 1023 87 0 4.07 145 20:37 07.02.2020
3317 Clouds 6 1027 79 0 0.89 167 20:18 07.02.2020
3318 Clouds 6 1027 78 0 1.34 155 19:40 07.02.2020
3319 Clouds 6 1027 79 0 3.13 173 19:19 07.02.2020
3320 Clouds 6 1027 78 0 1.79 170 18:56 07.02.2020
3321 Clouds 6 1027 79 0 1.79 104 18:38 07.02.2020
3322 Clouds 6 1027 79 0 0.89 156 18:19 07.02.2020
3323 Clouds 6 1027 78 0 4.47 170 17:43 07.02.2020
3324 Clouds 7 1027 77 0 1.79 146 17:22 07.02.2020
3325 Clouds 7 1028 77 0 0.89 132 16:57 07.02.2020
3326 Clouds 7 1028 75 0 2.24 152 16:38 07.02.2020
3327 Clouds 7 1028 75 0 0.89 112 16:19 07.02.2020
3328 Clouds 7 1028 73 0 2.68 132 15:47 07.02.2020
3329 Clouds 7 1028 72 0 2.24 182 15:22 07.02.2020
3330 Clouds 7 1028 72 0 1.34 114 14:46 07.02.2020
3331 Clouds 7 1029 73 0 0.89 136 14:26 07.02.2020
3332 Clouds 7 1029 76 0 2.24 165 13:58 07.02.2020
3333 Clouds 7 1029 74 0 1.34 162 13:39 07.02.2020
3334 Clouds 7 1029 76 0 2.49 113 13:21 07.02.2020
3335 Clouds 7 1029 77 0 2.24 107 12:56 07.02.2020
3336 Clouds 7 1029 79 0 2.49 113 12:38 07.02.2020
3337 Clouds 7 1030 80 0 0.45 91 12:20 07.02.2020
3338 Clouds 7 1030 81 0 2.49 113 11:42 07.02.2020
3339 Clouds 7 1030 81 0 0.89 149 11:21 07.02.2020
3340 Clouds 6 1026 95 0 1.34 316 10:42 07.02.2020
3341 Clouds 6 1030 82 0 1.34 316 10:24 07.02.2020
3342 Clouds 6 1030 83 0 1.34 316 09:58 07.02.2020
3343 Clouds 6 1030 84 0 1.34 316 09:39 07.02.2020
3344 Clouds 6 1030 84 0 1.34 316 09:21 07.02.2020
3345 Clouds 5 1030 86 0 1.34 316 08:43 07.02.2020
3346 Clouds 5 1030 86 0 2.93 299 08:21 07.02.2020
3347 Clouds 5 1030 86 0 2.7 299 07:49 07.02.2020
3348 Clouds 5 1029 86 0 2.7 299 07:30 07.02.2020
3349 Clouds 5 1029 85 0 2.7 299 06:47 07.02.2020
3350 Clouds 5 1029 85 0 2.7 299 06:47 07.02.2020
3351 Clouds 5 1029 85 0 1.34 278 06:27 07.02.2020
3352 Clouds 5 1029 84 0 2.7 299 05:58 07.02.2020
3353 Clouds 5 1029 84 0 2.7 299 05:37 07.02.2020
3354 Clouds 5 1029 83 0 4 288 03:43 07.02.2020
3355 Clouds 5 1029 83 0 3.89 284 01:53 07.02.2020
3356 Clouds 5 1029 82 0 2.24 283 00:59 07.02.2020
3357 Clouds 5 1029 82 0 1.79 247 00:26 07.02.2020
3358 Clouds 5 1029 81 0 0.45 290 23:38 06.02.2020
3359 Clouds 5 1029 81 0 1.34 299 23:19 06.02.2020
3360 Clouds 5 1029 80 0 2.24 211 22:47 06.02.2020
3361 Clouds 5 1029 80 0 1.79 331 22:26 06.02.2020
3362 Clouds 5 1029 80 0 2.68 316 21:58 06.02.2020
3363 Clouds 5 1028 80 0 0.45 286 21:36 06.02.2020
3364 Clouds 5 1028 80 0 0.89 282 21:18 06.02.2020
3365 Clouds 5 1029 79 0 1.79 275 20:55 06.02.2020
3366 Clouds 5 1029 79 0 2.24 310 20:36 06.02.2020
3367 Clouds 5 1029 78 0 0.89 241 20:18 06.02.2020
3368 Clouds 5 1028 77 0 1.34 296 19:56 06.02.2020
3369 Clouds 6 1028 77 0 1.79 299 19:37 06.02.2020
3370 Clouds 6 1028 77 0 0.89 283 19:19 06.02.2020
3371 Clouds 6 1028 78 0 4.55 288 18:42 06.02.2020
3372 Clouds 6 1028 78 0 4.55 288 18:24 06.02.2020
3373 Clouds 6 1028 77 0 4.55 288 17:59 06.02.2020
3374 Clouds 6 1028 76 0 0.45 210 17:41 06.02.2020
3375 Clouds 6 1028 76 0 1.34 303 17:20 06.02.2020
3376 Clouds 6 1028 75 0 2.24 309 16:43 06.02.2020
3377 Clouds 6 1028 76 0 2.68 261 16:25 06.02.2020
3378 Clouds 6 1028 73 0 1.34 319 15:44 06.02.2020
3379 Clouds 6 1028 74 0 1.79 295 15:24 06.02.2020
3380 Clouds 7 1028 76 0 2.68 293 14:59 06.02.2020
3381 Clouds 7 1028 76 0 2.68 273 14:41 06.02.2020
3382 Clouds 7 1028 73 0 3.58 248 14:23 06.02.2020
3383 Clouds 7 1028 73 0 4.47 282 13:45 06.02.2020
3384 Clouds 7 1028 74 0 1.79 265 13:26 06.02.2020
3385 Clouds 7 1027 73 0 3.13 299 12:45 06.02.2020
3386 Clouds 6 1029 76 0 4.92 184 12:20 06.02.2020
3387 Clouds 6 1029 76 0 2.68 248 11:59 06.02.2020
3388 Clouds 6 1029 76 0 1.79 238 11:41 06.02.2020
3389 Clouds 5 1029 76 0 1.79 331 11:22 06.02.2020
3390 Clouds 5 1029 78 0 0.89 302 10:58 06.02.2020
3391 Clouds 5 1029 79 0 1.34 330 10:40 06.02.2020
3392 Clouds 5 1029 81 0 3.58 244 10:21 06.02.2020
3393 Clouds 5 1029 82 0 2.24 228 09:58 06.02.2020
3394 Clouds 4 1029 83 0 0.89 334 09:40 06.02.2020
3395 Clouds 4 1029 83 0 0.89 190 09:20 06.02.2020
3396 Clouds 3 1029 86 0 0.45 310 08:43 06.02.2020
3397 Clouds 3 1029 86 0 5.53 287 08:23 06.02.2020
3398 Clouds 3 1028 87 0 2.24 224 07:55 06.02.2020
3399 Clouds 3 1028 87 0 2.24 224 07:55 06.02.2020
3400 Clouds 3 1028 89 0 5.53 287 07:29 06.02.2020
3401 Clouds 2 1028 90 0 0.45 247 06:48 06.02.2020
3402 Clouds 2 1028 89 0 0.45 280 06:19 06.02.2020
3403 Clouds 2 1029 89 0 1.34 265 05:32 06.02.2020
3404 Clouds 3 1025 86 0 5.48 280 03:49 06.02.2020
3405 Clouds 3 1030 84 0 2.24 232 03:18 06.02.2020
3406 Clouds 3 1031 80 0 3.13 223 01:56 06.02.2020
3407 Clouds 3 1031 80 0 5.24 278 01:24 06.02.2020
3408 Clouds 3 1032 80 0 0.45 283 00:38 06.02.2020
3409 Clouds 3 1032 80 0 1.34 295 00:19 06.02.2020
3410 Clouds 2 1032 80 0 1.34 316 23:40 05.02.2020
3411 Clouds 2 1032 78 0 1.79 290 23:22 05.02.2020
3412 Clouds 3 1032 78 0 1.79 259 22:54 05.02.2020
3413 Clouds 2 1032 80 0 0.89 258 22:36 05.02.2020
3414 Clouds 2 1032 81 0 0.45 262 22:18 05.02.2020
3415 Clouds 2 1032 85 0 1.79 242 21:40 05.02.2020
3416 Clouds 2 1032 85 0 1.34 196 21:22 05.02.2020
3417 Clouds 2 1033 86 0 4.62 269 20:55 05.02.2020
3418 Clouds 2 1033 86 0 4.62 269 20:36 05.02.2020
3419 Clouds 2 1033 86 0 3.9 276 20:18 05.02.2020
3420 Clouds 2 1032 86 0 1.34 239 19:55 05.02.2020
3421 Clouds 2 1032 85 0 0.45 175 19:36 05.02.2020
3422 Clouds 2 1032 84 0 0.45 299 19:18 05.02.2020
3423 Clouds 2 1032 81 0 2.24 197 18:43 05.02.2020
3424 Clouds 2 1033 81 0 2.24 225 18:20 05.02.2020
3425 Clouds 2 1032 82 0 2.24 248 17:55 05.02.2020
3426 Clouds 3 1033 83 0 0.89 248 17:36 05.02.2020
3427 Clear 3 1033 82 0 1.79 262 17:18 05.02.2020
3428 Clear 4 1033 75 0 0.45 248 16:42 05.02.2020
3429 Clear 4 1033 71 0 0.89 306 16:24 05.02.2020
3430 Clear 5 1033 71 0 2.68 302 15:58 05.02.2020
3431 Clear 5 1033 69 0 2.68 306 15:38 05.02.2020
3432 Clear 5 1033 67 0 5.36 292 15:18 05.02.2020
3433 Clear 5 1033 67 0 3.58 303 14:42 05.02.2020
3434 Clear 5 1033 68 0 4.19 287 14:23 05.02.2020
3435 Clouds 5 1034 67 0 1.34 262 13:58 05.02.2020
3436 Clouds 5 1034 66 0 2.68 296 13:38 05.02.2020
3437 Clouds 5 1034 66 0 3.13 302 13:19 05.02.2020
3438 Clouds 5 1033 68 0 3.58 296 12:43 05.02.2020
3439 Clouds 5 1034 71 0 4.02 283 12:23 05.02.2020
3440 Clouds 5 1033 70 0 4.47 259 11:55 05.02.2020
3441 Clouds 4 1033 67 0 1.79 358 11:36 05.02.2020
3442 Clouds 4 1033 68 0 3.13 321 11:18 05.02.2020
3443 Clouds 4 1033 74 0 4.02 295 10:42 05.02.2020
3444 Clouds 3 1032 75 0 2.24 327 10:24 05.02.2020
3445 Clouds 3 1031 76 0 3.58 324 09:45 05.02.2020
3446 Clouds 2 1031 77 0 1.79 348 09:23 05.02.2020
3447 Clouds 2 1031 78 0 3.13 293 08:59 05.02.2020
3448 Clouds 2 1030 78 0 3.58 302 08:41 05.02.2020
3449 Clouds 2 1030 77 0 2.68 295 08:22 05.02.2020
3450 Clouds 3 1029 78 0 3.58 313 07:45 05.02.2020
3451 Clouds 3 1029 76 0 3.58 296 07:26 05.02.2020
3452 Clouds 3 1027 75 0 3.13 350 06:46 05.02.2020
3453 Clouds 3 1027 76 0 3.13 1 06:23 05.02.2020
3454 Clouds 3 1026 73 0 5.81 292 05:51 05.02.2020
3455 Clouds 4 1026 75 0 2.68 295 05:18 05.02.2020
3456 Clouds 4 1025 74 0 3.58 313 04:45 05.02.2020
3457 Clouds 4 1023 74 0 2.24 299 03:48 05.02.2020
3458 Clouds 4 1021 72 0 4.02 310 02:25 05.02.2020
3459 Snow 4 1020 70 0 7.15 313 01:37 05.02.2020
3460 Clouds 4 1020 72 0 2.68 359 01:37 05.02.2020
3461 Clouds 4 1019 75 0 5.36 302 00:42 05.02.2020
3462 Clouds 4 1018 78 0 9.83 286 23:57 04.02.2020
3463 Clouds 4 1018 83 0 6.26 290 23:37 04.02.2020
3464 Clouds 4 1017 86 0 5.36 340 23:18 04.02.2020
3465 Clouds 4 1017 88 0 4.92 310 22:54 04.02.2020
3466 Clouds 4 1016 92 0 8.94 302 22:36 04.02.2020
3467 Clouds 5 1015 78 0 3.58 316 22:18 04.02.2020
3468 Clouds 5 1015 80 0 5.36 285 21:41 04.02.2020
3469 Clouds 5 1015 79 0 12.07 287 21:41 04.02.2020
3470 Clouds 5 1015 79 0 12.07 287 21:41 04.02.2020
3471 Clouds 5 1014 80 0 5.36 249 21:19 04.02.2020
3472 Clouds 5 1014 80 0 8.05 282 20:59 04.02.2020
3473 Clouds 5 1014 79 0 6.71 302 20:41 04.02.2020
3474 Clouds 5 1014 78 0 4.92 304 20:21 04.02.2020
3475 Clouds 5 1013 79 0 3.13 259 19:58 04.02.2020
3476 Clouds 5 1013 79 0 5.36 300 19:40 04.02.2020
3477 Clouds 5 1013 80 0 7.15 307 19:22 04.02.2020
3478 Clouds 5 1012 80 0 3.13 266 18:56 04.02.2020
3479 Clouds 5 1012 80 0 4.92 276 18:37 04.02.2020
3480 Clouds 5 1012 81 0 3.13 299 18:19 04.02.2020
3481 Clouds 5 1011 82 0 3.13 266 17:43 04.02.2020
3482 Clouds 5 1011 82 0 3.13 266 17:43 04.02.2020
3483 Rain 5 1011 83 0 4.92 310 17:21 04.02.2020
3484 Rain 5 1011 84 0 2.68 280 16:57 04.02.2020
3485 Rain 5 1010 82 0 3.13 287 16:38 04.02.2020
3486 Rain 5 1010 80 0 6.71 295 16:19 04.02.2020
3487 Rain 6 1009 73 0 1.79 279 15:56 04.02.2020
3488 Rain 6 1010 75 0 6.26 300 15:56 04.02.2020
3489 Rain 6 1009 73 0 4.47 286 15:38 04.02.2020
3490 Rain 7 1009 70 0 4.02 266 15:19 04.02.2020
3491 Rain 7 1009 71 0 5.36 293 14:42 04.02.2020
3492 Rain 7 1008 70 0 6.71 303 14:23 04.02.2020
3493 Rain 7 1008 68 0 6.26 302 13:58 04.02.2020
3494 Rain 7 1008 68 0 5.36 285 13:39 04.02.2020
3495 Rain 7 1008 69 0 5.81 300 13:20 04.02.2020
3496 Rain 7 1008 71 0 4.02 296 12:44 04.02.2020
3497 Rain 6 1008 71 0 5.36 282 12:26 04.02.2020
3498 Rain 7 1007 76 0 6.26 307 11:58 04.02.2020
3499 Rain 6 1008 76 0 2.24 327 11:39 04.02.2020
3500 Clouds 6 1008 79 0 1.79 251 11:21 04.02.2020
3501 Clouds 6 1007 79 0 3.13 300 10:59 04.02.2020
3502 Clouds 6 1007 82 0 4.02 300 10:40 04.02.2020
3503 Clouds 6 1007 81 0 4.92 309 10:22 04.02.2020
3504 Clouds 5 1006 82 0 2.68 279 09:41 04.02.2020
3505 Clouds 5 1002 88 0 8.41 292 09:23 04.02.2020
3506 Clouds 5 1005 84 0 4.02 314 08:58 04.02.2020
3507 Clouds 4 1005 86 0 3.13 290 08:39 04.02.2020
3508 Rain 4 1005 88 0 5.81 282 08:21 04.02.2020
3509 Rain 4 1004 90 0 2.24 299 07:46 04.02.2020
3510 Rain 4 1003 87 0 4.02 287 07:22 04.02.2020
3511 Rain 4 1002 83 0 5.81 316 06:43 04.02.2020
3512 Rain 5 1002 88 0 6.85 295 06:18 04.02.2020
3513 Rain 5 1001 90 0 0.45 143 05:29 04.02.2020
3514 Rain 5 1000 90 0 2.24 256 03:53 04.02.2020
3515 Rain 6 1001 90 0 3.99 311 03:34 04.02.2020
3516 Rain 6 997 10 0 3.99 311 02:56 04.02.2020
3517 Rain 6 1001 89 0 1.34 289 02:32 04.02.2020
3518 Rain 6 1001 89 0 1.33 256 01:54 04.02.2020
3519 Rain 6 1002 88 0 0.89 211 01:35 04.02.2020
3520 Rain 6 1002 88 0 0.89 211 01:35 04.02.2020
3521 Rain 7 1002 87 0 1.34 159 00:45 04.02.2020
3522 Rain 7 1003 85 0 1.02 259 00:21 04.02.2020
3523 Rain 7 1004 85 0 1.02 259 23:40 03.02.2020
3524 Rain 7 1004 86 0 1.02 259 23:22 03.02.2020
3525 Clouds 7 1005 86 0 3.01 258 22:40 03.02.2020
3526 Clouds 7 1006 87 0 3.01 258 22:21 03.02.2020
3527 Clouds 8 1006 87 0 3.01 258 21:59 03.02.2020
3528 Clouds 8 1007 87 0 3.01 258 21:39 03.02.2020
3529 Clouds 8 1007 87 0 3.01 258 21:19 03.02.2020
3530 Clouds 8 1008 85 0 3.01 258 20:42 03.02.2020
3531 Rain 8 1008 84 0 5.74 275 20:20 03.02.2020
3532 Rain 8 1008 81 0 2.24 265 19:58 03.02.2020
3533 Rain 8 1008 82 0 5.57 275 19:40 03.02.2020
3534 Rain 9 1008 82 0 0.89 155 19:21 03.02.2020
3535 Rain 9 1008 83 0 2.68 249 18:57 03.02.2020
3536 Rain 9 1008 83 0 3.13 166 18:38 03.02.2020
3537 Rain 9 1008 84 0 5.57 275 18:20 03.02.2020
3538 Rain 9 1008 84 0 1.79 262 18:20 03.02.2020
3539 Rain 9 1008 85 0 2.68 303 17:54 03.02.2020
3540 Rain 9 1008 85 0 3.13 262 17:36 03.02.2020
3541 Rain 9 1008 83 0 2.24 317 17:18 03.02.2020
3542 Rain 9 1008 80 0 4.47 306 16:40 03.02.2020
3543 Rain 9 1008 82 0 3.58 265 16:21 03.02.2020
3544 Rain 9 1008 82 0 3.58 265 16:21 03.02.2020
3545 Rain 10 1008 81 0 2.24 265 15:56 03.02.2020
3546 Rain 10 1008 81 0 4.47 268 15:56 03.02.2020
3547 Rain 10 1008 83 0 1.79 310 15:38 03.02.2020
3548 Rain 10 1008 82 0 2.24 287 15:19 03.02.2020
3549 Rain 10 1008 76 0 4.47 297 14:45 03.02.2020
3550 Rain 10 1008 79 0 2.68 289 14:27 03.02.2020
3551 Rain 10 1008 80 0 3.13 275 13:59 03.02.2020
3552 Rain 10 1008 80 0 7.02 267 13:41 03.02.2020
3553 Rain 10 1008 81 0 3.13 230 13:20 03.02.2020
3554 Rain 10 1009 82 0 2.68 232 12:56 03.02.2020
3555 Rain 10 1009 79 0 1.79 244 12:37 03.02.2020
3556 Rain 10 1008 79 0 2.68 320 12:19 03.02.2020
3557 Rain 9 1008 81 0 1.79 303 11:40 03.02.2020
3558 Clouds 9 1008 81 0 3.13 307 11:20 03.02.2020
3559 Clouds 9 1008 81 0 2.68 287 10:58 03.02.2020
3560 Clouds 9 1008 85 0 3.58 258 10:40 03.02.2020
3561 Clouds 9 1008 84 0 4.92 283 10:21 03.02.2020
3562 Clouds 8 1003 97 0 7.41 277 09:42 03.02.2020
3563 Clouds 8 1003 10 0 7.41 277 09:21 03.02.2020
3564 Clouds 7 1002 10 0 7.41 277 08:41 03.02.2020
3565 Rain 7 1004 99 0 0.45 0 08:23 03.02.2020
3566 Rain 7 1002 10 0 6.53 272 07:58 03.02.2020
3567 Rain 7 1002 10 0 6.53 272 07:39 03.02.2020
3568 Rain 7 1004 99 0 0.45 0 07:21 03.02.2020
3569 Rain 7 1002 10 0 6.53 272 06:49 03.02.2020
3570 Rain 7 1002 10 0 6.53 272 06:27 03.02.2020
3571 Rain 7 1002 10 0 6.53 272 05:36 03.02.2020
3572 Rain 7 1001 10 0 5.18 273 04:59 03.02.2020
3573 Rain 7 1001 10 0 5.18 273 03:19 03.02.2020
3574 Rain 7 1005 88 0 5.18 273 02:34 03.02.2020
3575 Rain 7 1001 10 0 3.79 286 01:41 03.02.2020
3576 Rain 7 1001 10 0 6.87 285 00:46 03.02.2020
3577 Rain 7 1001 10 0 6.87 285 00:23 03.02.2020
3578 Rain 7 1001 10 0 6.87 285 23:39 02.02.2020
3579 Rain 7 1001 10 0 3.3 279 23:20 02.02.2020
3580 Rain 7 1001 10 0 3.3 279 22:57 02.02.2020
3581 Rain 7 1001 10 0 3.3 279 22:57 02.02.2020
3582 Rain 6 1001 10 0 3.3 279 22:38 02.02.2020
3583 Rain 6 1001 10 0 3.3 279 22:19 02.02.2020
3584 Rain 6 1001 10 0 3.3 279 21:54 02.02.2020
3585 Rain 6 1001 10 0 3.3 279 21:36 02.02.2020
3586 Rain 6 1001 10 0 3.3 279 21:18 02.02.2020
3587 Rain 6 1000 10 0 3.3 279 20:55 02.02.2020
3588 Rain 6 1000 10 0 3.3 279 20:36 02.02.2020
3589 Rain 6 1000 10 0 1.38 226 20:18 02.02.2020
3590 Rain 6 1000 10 0 1.49 224 19:55 02.02.2020
3591 Rain 6 1000 10 0 1.49 224 19:36 02.02.2020
3592 Rain 6 1000 10 0 1.49 224 19:18 02.02.2020
3593 Rain 6 1000 10 0 1.49 224 18:39 02.02.2020
3594 Rain 7 1000 10 0 1.49 224 18:21 02.02.2020
3595 Rain 7 1000 10 0 1.49 224 17:58 02.02.2020
3596 Rain 7 1000 10 0 1.49 224 17:38 02.02.2020
3597 Rain 7 1000 10 0 1.61 218 17:19 02.02.2020
3598 Rain 7 1000 10 0 1.61 218 16:58 02.02.2020
3599 Rain 7 1003 82 0 0.45 82 16:39 02.02.2020
3600 Rain 7 1000 10 0 1.61 218 16:19 02.02.2020
3601 Rain 7 1000 10 0 1.61 218 15:59 02.02.2020
3602 Rain 8 1002 99 0 1.34 0 15:39 02.02.2020
3603 Rain 8 1000 10 0 1.61 218 15:20 02.02.2020
3604 Rain 7 1000 10 0 1.61 218 14:57 02.02.2020
3605 Rain 8 1003 99 0 2.24 0 14:39 02.02.2020
3606 Rain 8 1000 10 0 4.12 262 14:18 02.02.2020
3607 Rain 8 1001 10 0 4.12 262 13:55 02.02.2020
3608 Rain 8 1004 79 0 1.34 130 13:36 02.02.2020
3609 Clouds 8 1001 99 0 3.72 263 13:18 02.02.2020
3610 Clouds 8 1001 98 0 3.93 232 12:42 02.02.2020
3611 Clouds 9 1002 94 0 3.93 232 12:22 02.02.2020
3612 Clouds 9 1002 80 0 3.93 232 11:56 02.02.2020
3613 Clouds 9 1002 77 0 3.72 263 11:38 02.02.2020
3614 Clouds 9 1002 76 0 4.65 259 11:18 02.02.2020
3615 Clouds 9 1005 75 0 1.79 108 10:55 02.02.2020
3616 Clouds 9 1002 76 0 4.18 259 10:55 02.02.2020
3617 Clouds 9 1005 74 0 1.79 104 10:36 02.02.2020
3618 Clouds 9 1002 76 0 4.18 259 10:18 02.02.2020
3619 Clouds 9 1002 76 0 4.65 259 09:41 02.02.2020
3620 Clouds 8 1002 77 0 4.65 259 09:21 02.02.2020
3621 Clouds 8 1002 76 0 4.18 259 08:58 02.02.2020
3622 Clouds 8 1002 79 0 4.18 259 08:40 02.02.2020
3623 Clouds 8 1005 76 0 1.79 70 08:21 02.02.2020
3624 Clouds 8 1004 77 0 1.79 170 07:45 02.02.2020
3625 Clouds 8 1002 80 0 7.55 266 07:27 02.02.2020
3626 Clouds 8 1001 77 0 7.55 266 06:41 02.02.2020
3627 Clouds 8 1004 75 0 1.79 70 06:23 02.02.2020
3628 Clouds 8 1001 76 0 7.55 266 05:47 02.02.2020
3629 Clouds 8 1001 73 0 7.07 263 04:38 02.02.2020
3630 Clouds 8 1001 70 0 7.07 263 03:25 02.02.2020
3631 Clouds 8 1000 70 0 7.07 263 02:27 02.02.2020
3632 Clouds 8 1000 70 0 8.35 264 01:52 02.02.2020
3633 Clouds 8 999 71 0 7.44 262 01:19 02.02.2020
3634 Clouds 8 999 73 0 7.44 262 00:43 02.02.2020
3635 Clouds 8 999 74 0 7.44 262 00:20 02.02.2020
3636 Clouds 8 999 75 0 7.44 262 23:45 01.02.2020
3637 Rain 9 999 75 0 5.16 254 23:21 01.02.2020
3638 Rain 9 999 77 0 5.16 254 22:50 01.02.2020
3639 Rain 9 999 78 0 5.16 254 22:20 01.02.2020
3640 Rain 9 998 80 0 5.16 254 21:57 01.02.2020
3641 Rain 9 998 78 0 5.16 254 21:38 01.02.2020
3642 Rain 9 998 81 0 5.16 254 21:18 01.02.2020
3643 Rain 10 997 78 0 5.16 254 20:40 01.02.2020
3644 Clouds 10 996 84 0 3.13 287 20:20 01.02.2020
3645 Rain 10 996 82 0 3.13 287 19:57 01.02.2020
3646 Rain 10 996 82 0 3.13 287 19:39 01.02.2020
3647 Rain 10 996 88 0 5.69 263 19:19 01.02.2020
3648 Rain 10 996 88 0 5.69 263 18:57 01.02.2020
3649 Rain 10 996 94 0 5.69 263 18:39 01.02.2020
3650 Rain 11 996 82 0 3.13 287 18:21 01.02.2020
3651 Rain 11 996 82 0 3.13 287 17:56 01.02.2020
3652 Rain 11 996 82 0 3.13 287 17:38 01.02.2020
3653 Rain 11 996 89 0 3.13 287 17:19 01.02.2020
3654 Rain 11 995 10 0 5.21 268 16:42 01.02.2020
3655 Rain 11 995 10 0 5.21 268 16:24 01.02.2020
3656 Rain 11 995 10 0 5.21 268 15:58 01.02.2020
3657 Rain 11 996 89 0 3.13 287 15:38 01.02.2020
3658 Rain 12 996 89 0 3.13 287 15:19 01.02.2020
3659 Rain 11 995 10 0 5.21 268 14:41 01.02.2020
3660 Rain 11 995 10 0 5.71 224 14:21 01.02.2020
3661 Rain 12 996 84 0 3.13 287 13:58 01.02.2020
3662 Rain 11 995 10 0 5.71 224 13:39 01.02.2020
3663 Rain 11 995 10 0 6.02 225 13:18 01.02.2020
3664 Rain 11 996 83 0 3.13 287 12:41 01.02.2020
3665 Rain 11 996 83 0 3.13 287 12:23 01.02.2020
3666 Rain 11 996 83 0 3.13 287 11:45 01.02.2020
3667 Rain 12 996 83 0 3.13 287 11:24 01.02.2020
3668 Rain 12 996 79 0 3.13 287 10:59 01.02.2020
3669 Rain 12 996 79 0 3.13 287 10:41 01.02.2020
3670 Rain 12 996 79 0 3.13 287 10:23 01.02.2020
3671 Rain 12 996 79 0 3.13 287 09:59 01.02.2020
3672 Rain 12 996 79 0 3.13 287 09:41 01.02.2020
3673 Rain 12 996 79 0 3.13 287 09:21 01.02.2020
3674 Rain 12 996 79 0 3.13 287 08:58 01.02.2020
3675 Clouds 12 996 78 0 3.13 287 08:18 01.02.2020
3676 Clouds 12 996 78 0 3.13 287 07:41 01.02.2020
3677 Clouds 12 996 78 0 3.13 287 07:22 01.02.2020
3678 Clouds 12 996 78 0 3.13 287 06:44 01.02.2020
3679 Clouds 12 996 78 0 3.13 287 05:54 01.02.2020
3680 Clouds 12 996 83 0 3.13 287 04:32 01.02.2020
3681 Clouds 12 996 83 0 3.13 287 03:26 01.02.2020
3682 Clouds 12 1000 76 0 4.7 237 02:58 01.02.2020
3683 Clouds 12 996 83 0 3.13 287 02:39 01.02.2020
3684 Clouds 12 996 87 0 3.13 287 02:19 01.02.2020
3685 Clouds 12 996 87 0 3.13 287 01:46 01.02.2020
3686 Clouds 12 996 87 0 3.13 287 01:27 01.02.2020
3687 Clouds 12 996 87 0 3.13 287 00:24 01.02.2020
3688 Clouds 12 996 87 0 3.13 287 23:41 31.01.2020
3689 Clouds 12 996 86 0 3.13 287 23:19 31.01.2020
3690 Clouds 12 996 86 0 3.13 287 22:57 31.01.2020
3691 Clouds 12 996 86 0 3.13 287 22:39 31.01.2020
3692 Clouds 12 996 86 0 3.13 287 22:21 31.01.2020
3693 Clouds 12 996 86 0 3.13 287 21:55 31.01.2020
3694 Clouds 12 996 86 0 3.13 287 21:37 31.01.2020
3695 Clouds 12 996 86 0 3.13 287 21:18 31.01.2020
3696 Clouds 12 996 86 0 3.13 287 20:55 31.01.2020
3697 Clouds 11 996 86 0 3.13 287 20:37 31.01.2020
3698 Clouds 11 996 84 0 3.13 287 20:18 31.01.2020
3699 Clouds 11 996 84 0 3.13 287 19:54 31.01.2020
3700 Clouds 11 996 84 0 3.13 287 19:36 31.01.2020
3701 Clouds 11 996 84 0 3.13 287 19:18 31.01.2020
3702 Clouds 11 996 84 0 3.13 287 18:38 31.01.2020
3703 Clouds 10 1002 73 0 3.68 251 18:20 31.01.2020
3704 Clouds 11 996 84 0 3.13 287 17:46 31.01.2020
3705 Clouds 11 996 84 0 3.13 287 17:46 31.01.2020
3706 Clouds 11 996 74 0 3.13 287 17:27 31.01.2020
3707 Clouds 11 996 74 0 3.13 287 16:58 31.01.2020
3708 Clouds 11 996 74 0 3.13 287 16:38 31.01.2020
3709 Clouds 12 996 74 0 3.13 287 16:19 31.01.2020
3710 Clouds 12 996 74 0 3.13 287 15:58 31.01.2020
3711 Clouds 12 996 74 0 3.13 287 15:40 31.01.2020
3712 Clouds 12 996 74 0 3.13 287 15:20 31.01.2020
3713 Clouds 12 996 74 0 3.13 287 14:44 31.01.2020
3714 Clouds 12 996 74 0 3.13 287 14:24 31.01.2020
3715 Clouds 12 996 69 0 3.13 287 13:56 31.01.2020
3716 Clouds 12 996 69 0 3.13 287 13:38 31.01.2020
3717 Clouds 12 996 69 0 3.13 287 13:20 31.01.2020
3718 Clouds 12 996 69 0 3.13 287 12:44 31.01.2020
3719 Clouds 12 996 69 0 3.13 287 12:24 31.01.2020
3720 Clouds 12 996 69 0 3.13 287 11:55 31.01.2020
3721 Clouds 12 996 69 0 3.13 287 11:37 31.01.2020
3722 Rain 11 996 78 0 3.13 287 11:19 31.01.2020
3723 Rain 11 1005 67 0 7.15 292 10:43 31.01.2020
3724 Rain 11 1005 70 0 4.47 300 10:23 31.01.2020
3725 Rain 11 1005 70 0 0.89 263 09:58 31.01.2020
3726 Rain 10 1005 72 0 4.02 280 09:39 31.01.2020
3727 Rain 10 1005 75 0 4.92 256 09:19 31.01.2020
3728 Rain 11 1004 75 0 2.68 287 08:54 31.01.2020
3729 Rain 10 1004 75 0 4.02 297 08:28 31.01.2020
3730 Rain 10 1003 77 0 2.68 300 07:59 31.01.2020
3731 Rain 10 1003 75 0 1.34 232 07:40 31.01.2020
3732 Rain 10 1002 76 0 3.13 287 07:18 31.01.2020
3733 Rain 10 1001 79 0 3.13 296 06:27 31.01.2020
3734 Rain 10 1000 77 0 3.58 296 05:53 31.01.2020
3735 Rain 10 1000 82 0 2.68 248 05:18 31.01.2020
3736 Rain 10 999 91 0 5.81 249 03:47 31.01.2020
3737 Clouds 9 993 87 0 7.88 237 01:44 31.01.2020
3738 Rain 8 998 80 0 3.58 359 00:47 31.01.2020
3739 Rain 8 998 80 0 7.86 237 00:29 31.01.2020
3740 Rain 7 998 81 0 4.02 199 23:58 30.01.2020
3741 Rain 7 994 83 0 7.86 237 23:39 30.01.2020
3742 Clouds 7 999 79 0 4.02 190 23:20 30.01.2020
3743 Clouds 7 1000 80 0 4.92 211 22:38 30.01.2020
3744 Clouds 7 1000 81 0 3.13 207 22:19 30.01.2020
3745 Clouds 7 1001 83 0 1.79 71 21:57 30.01.2020
3746 Clouds 7 1001 80 0 1.79 235 21:39 30.01.2020
3747 Clouds 6 1001 79 0 2.68 128 21:18 30.01.2020
3748 Clouds 6 1002 79 0 3.13 166 20:56 30.01.2020
3749 Clouds 6 1002 80 0 3.58 172 20:37 30.01.2020
3750 Clouds 6 1002 80 0 3.13 175 20:19 30.01.2020
3751 Clouds 6 1003 81 0 1.34 194 19:42 30.01.2020
3752 Clouds 6 1004 81 0 2.24 186 19:19 30.01.2020
3753 Clouds 6 1004 82 0 5.81 176 18:58 30.01.2020
3754 Clouds 6 1004 82 0 2.68 203 18:58 30.01.2020
3755 Clouds 6 1004 82 0 1.79 142 18:37 30.01.2020
3756 Clouds 7 1000 83 0 5.9 209 18:18 30.01.2020
3757 Clouds 7 1005 79 0 1.79 197 17:41 30.01.2020
3758 Clouds 7 1005 79 0 4.48 223 17:19 30.01.2020
3759 Clouds 7 1005 79 0 2.24 98 16:58 30.01.2020
3760 Clouds 8 1006 77 0 2.24 206 16:39 30.01.2020
3761 Clouds 8 1006 76 0 1.79 149 16:21 30.01.2020
3762 Clouds 8 1006 72 0 4.02 244 15:44 30.01.2020
3763 Clouds 9 1006 70 0 4.48 223 15:21 30.01.2020
3764 Clouds 9 1007 69 0 4.02 259 14:58 30.01.2020
3765 Clouds 9 1007 67 0 2.68 258 14:39 30.01.2020
3766 Rain 9 1007 68 0 3.58 271 14:21 30.01.2020
3767 Rain 9 1007 70 0 4.92 283 13:41 30.01.2020
3768 Clouds 9 1007 71 0 4.47 269 13:23 30.01.2020
3769 Clouds 8 1002 80 0 4.86 248 12:56 30.01.2020
3770 Clouds 8 1007 71 0 8.94 252 12:38 30.01.2020
3771 Clouds 8 1003 81 0 4.86 248 12:19 30.01.2020
3772 Clouds 8 1008 72 0 4.47 241 11:41 30.01.2020
3773 Clouds 8 1008 72 0 4.92 159 11:22 30.01.2020
3774 Clouds 7 1008 74 0 5.81 295 10:59 30.01.2020
3775 Clouds 7 1008 73 0 6.71 187 10:40 30.01.2020
3776 Clouds 7 1008 74 0 1.79 173 10:20 30.01.2020
3777 Clouds 7 1008 75 0 0.45 173 09:45 30.01.2020
3778 Clouds 6 1008 76 0 2.24 4 09:26 30.01.2020
3779 Clouds 6 1008 77 0 4.47 273 08:43 30.01.2020
3780 Clouds 6 1007 78 0 3.13 293 08:22 30.01.2020
3781 Clouds 6 1007 80 0 0.89 256 07:59 30.01.2020
3782 Clouds 6 1007 80 0 3.58 225 07:41 30.01.2020
3783 Clouds 5 1007 81 0 5.14 235 07:19 30.01.2020
3784 Clouds 5 1007 81 0 3.13 208 06:45 30.01.2020
3785 Clouds 5 1008 81 0 3.13 193 06:26 30.01.2020
3786 Clouds 5 1008 81 0 1.34 189 05:39 30.01.2020
3787 Clouds 4 1008 82 0 4.02 189 05:19 30.01.2020
3788 Clouds 3 1009 84 0 1.79 187 03:48 30.01.2020
3789 Clouds 3 1009 85 0 3.13 103 03:24 30.01.2020
3790 Clouds 3 1010 90 0 4.66 243 01:41 30.01.2020
3791 Clouds 3 1010 90 0 1.34 196 00:37 30.01.2020
3792 Clouds 3 1010 89 0 4.63 243 00:19 30.01.2020
3793 Clouds 3 1010 89 0 4.63 243 00:19 30.01.2020
3794 Clouds 3 1010 89 0 1.79 287 23:44 29.01.2020
3795 Clouds 3 1010 88 0 3.13 265 23:20 29.01.2020
3796 Clouds 3 1009 88 0 4.47 273 22:56 29.01.2020
3797 Clouds 3 1009 88 0 2.24 210 22:38 29.01.2020
3798 Clouds 4 1004 91 0 7.42 274 22:19 29.01.2020
3799 Clouds 4 1009 88 0 3.13 283 21:56 29.01.2020
3800 Clouds 4 1008 88 0 3.58 280 21:37 29.01.2020
3801 Clouds 4 1008 88 0 3.58 280 21:37 29.01.2020
3802 Clouds 4 1008 88 0 3.58 103 21:18 29.01.2020
3803 Clouds 4 1008 88 0 2.24 300 20:57 29.01.2020
3804 Clouds 4 1008 88 0 1.79 204 20:37 29.01.2020
3805 Rain 4 1007 89 0 3.13 359 20:18 29.01.2020
3806 Rain 4 1007 90 0 8.21 276 19:55 29.01.2020
3807 Rain 4 1007 89 0 8.21 276 19:36 29.01.2020
3808 Rain 4 1007 89 0 8.21 276 19:18 29.01.2020
3809 Rain 5 1006 88 0 1.79 324 18:40 29.01.2020
3810 Rain 4 1006 87 0 8.21 276 18:19 29.01.2020
3811 Rain 5 1005 85 0 8.49 263 17:41 29.01.2020
3812 Clouds 5 1004 81 0 1.79 40 17:23 29.01.2020
3813 Clouds 6 999 85 0 7.35 266 16:59 29.01.2020
3814 Clouds 6 995 76 0 11.62 247 16:40 29.01.2020
3815 Clouds 6 995 76 0 11.62 247 16:20 29.01.2020
3816 Clouds 6 998 71 0 7.35 266 15:40 29.01.2020
3817 -273 0 0 0 0 0 15:22 29.01.2020
3818 Clouds 6 995 76 0 11.62 247 14:58 29.01.2020
3819 Clouds 6 998 67 0 7.35 266 14:40 29.01.2020
3820 Clouds 6 998 70 0 8.68 259 14:18 29.01.2020
3821 Clouds 6 997 68 0 8.68 259 13:41 29.01.2020
3822 Rain 6 1004 74 0 4.47 309 13:22 29.01.2020
3823 Rain 6 997 74 0 7.98 259 12:57 29.01.2020
3824 Rain 6 997 72 0 7.98 259 12:39 29.01.2020
3825 Rain 6 995 76 0 11.62 247 12:21 29.01.2020
3826 Rain 5 995 76 0 11.62 247 11:56 29.01.2020
3827 Rain 5 995 76 0 11.62 247 11:37 29.01.2020
3828 Clouds 5 995 76 0 11.62 247 11:19 29.01.2020
3829 Clouds 5 995 76 0 11.62 247 10:45 29.01.2020
3830 Clouds 5 995 76 0 11.62 247 10:22 29.01.2020
3831 Clouds 4 995 76 0 11.62 247 09:40 29.01.2020
3832 Clouds 4 995 76 0 11.62 247 09:40 29.01.2020
3833 Clouds 4 995 76 0 11.62 247 09:22 29.01.2020
3834 Clouds 4 995 76 0 11.62 247 08:59 29.01.2020
3835 Clouds 4 995 76 0 11.62 247 08:40 29.01.2020
3836 Clouds 4 995 76 0 11.62 247 08:22 29.01.2020
3837 Clouds 4 995 76 0 11.62 247 07:45 29.01.2020
3838 Clouds 4 995 76 0 11.62 247 07:25 29.01.2020
3839 Clouds 4 995 76 0 11.62 247 06:55 29.01.2020
3840 Clouds 4 995 76 0 11.62 247 06:37 29.01.2020
3841 Clouds 4 995 76 0 11.62 247 06:37 29.01.2020
3842 Clouds 3 995 76 0 11.62 247 06:19 29.01.2020
3843 Clouds 3 995 76 0 11.62 247 05:47 29.01.2020
3844 Clouds 3 995 76 0 11.62 247 05:29 29.01.2020
3845 Clouds 3 995 76 0 11.62 247 04:38 29.01.2020
3846 Clouds 4 995 76 0 11.62 247 03:58 29.01.2020
3847 Clouds 4 995 76 0 11.62 247 02:33 29.01.2020
3848 Snow 4 995 76 0 11.62 247 00:59 29.01.2020
3849 Snow 4 995 76 0 11.62 247 00:36 29.01.2020
3850 Snow 4 995 76 0 11.62 247 00:18 29.01.2020
3851 Snow 4 995 76 0 11.62 247 23:39 28.01.2020
3852 Clear 4 995 76 0 11.62 247 23:19 28.01.2020
3853 Clear 4 995 76 0 11.62 247 22:49 28.01.2020
3854 Clear 4 995 76 0 11.62 247 22:27 28.01.2020
3855 Clear 4 995 76 0 11.62 247 21:57 28.01.2020
3856 Clear 4 995 76 0 11.62 247 21:38 28.01.2020
3857 Clear 4 995 76 0 11.62 247 21:19 28.01.2020
3858 Clear 4 995 76 0 11.62 247 20:45 28.01.2020
3859 Clear 4 995 76 0 11.62 247 20:26 28.01.2020
3860 Clouds 4 995 76 0 11.62 247 19:55 28.01.2020
3861 Clouds 4 995 76 0 11.62 247 19:37 28.01.2020
3862 Clouds 4 995 76 0 11.62 247 19:19 28.01.2020
3863 Clouds 4 995 76 0 11.62 247 19:19 28.01.2020
3864 Clouds 4 994 74 0 1.34 204 18:42 28.01.2020
3865 Clouds 4 994 74 0 9.39 207 18:23 28.01.2020
3866 Clouds 5 994 74 0 5.36 259 17:59 28.01.2020
3867 Clouds 5 993 72 0 6.62 249 17:40 28.01.2020
3868 Rain 5 993 74 0 4.92 256 17:21 28.01.2020
3869 Rain 5 993 77 0 13.86 251 16:59 28.01.2020
3870 Rain 6 993 75 0 5.36 238 16:40 28.01.2020
3871 Rain 6 992 73 0 6.26 152 16:22 28.01.2020
3872 Rain 6 992 76 0 3.58 170 15:48 28.01.2020
3873 Rain 6 991 78 0 8.91 265 15:20 28.01.2020
3874 Rain 6 991 82 0 1.34 208 14:59 28.01.2020
3875 Rain 5 991 82 0 7.6 211 14:41 28.01.2020
3876 Rain 6 991 83 0 6.71 252 14:18 28.01.2020
3877 Rain 6 990 85 0 1.34 223 13:42 28.01.2020
3878 Rain 6 990 85 0 5.36 152 13:24 28.01.2020
3879 Rain 7 990 83 0 3.13 213 12:45 28.01.2020
3880 Rain 7 991 82 0 3.58 197 12:25 28.01.2020
3881 Rain 8 991 80 0 1.79 105 11:59 28.01.2020
3882 Rain 8 991 80 0 4.92 81 11:41 28.01.2020
3883 Clouds 7 991 79 0 5.81 359 11:21 28.01.2020
3884 Clouds 7 992 79 0 5.36 105 10:44 28.01.2020
3885 Clouds 7 992 81 0 4.02 173 10:26 28.01.2020
3886 Clouds 7 992 81 0 4.47 201 09:59 28.01.2020
3887 Clouds 6 992 84 0 3.13 191 09:41 28.01.2020
3888 Clouds 6 993 88 0 2.68 227 09:20 28.01.2020
3889 Clouds 6 993 88 0 2.24 166 09:20 28.01.2020
3890 Clouds 6 993 88 0 2.68 158 08:44 28.01.2020
3891 Rain 6 993 87 0 1.79 156 08:25 28.01.2020
3892 Rain 6 993 89 0 1.34 169 07:53 28.01.2020
3893 Rain 6 993 89 0 1.79 156 07:31 28.01.2020
3894 Rain 6 994 88 0 3.13 166 06:47 28.01.2020
3895 Rain 6 994 88 0 2.24 159 06:24 28.01.2020
3896 Rain 6 994 89 0 1.79 177 05:38 28.01.2020
3897 Clouds 6 994 89 0 2.24 135 05:20 28.01.2020
3898 Clouds 6 996 87 0 3.58 79 03:49 28.01.2020
3899 Clouds 6 997 84 0 4.02 134 02:46 28.01.2020
3900 Clouds 6 997 84 0 4.02 134 02:46 28.01.2020
3901 Clouds 6 998 84 0 3.58 115 02:25 28.01.2020
3902 Clouds 6 998 84 0 2.68 95 01:55 28.01.2020
3903 Clouds 6 999 84 0 0.45 21 01:22 28.01.2020
3904 Clouds 6 999 86 0 3.58 158 00:45 28.01.2020
3905 Clouds 6 1000 87 0 2.24 125 00:22 28.01.2020
3906 Clouds 6 1000 89 0 0.45 183 23:44 27.01.2020
3907 Rain 6 1001 89 0 3.13 163 23:20 27.01.2020
3908 Rain 6 1002 91 0 3.58 83 22:45 27.01.2020
3909 Rain 6 1002 90 0 3.13 359 22:20 27.01.2020
3910 Rain 6 1002 90 0 3.13 359 22:20 27.01.2020
3911 Rain 6 1002 90 0 3.13 359 22:20 27.01.2020
3912 Rain 6 1002 90 0 2.24 139 21:58 27.01.2020
3913 Rain 6 1003 90 0 5.93 195 21:39 27.01.2020
3914 Rain 7 1003 90 0 1.79 101 21:19 27.01.2020
3915 Rain 7 1003 90 0 3.13 359 20:57 27.01.2020
3916 Rain 7 1004 90 0 1.79 101 20:38 27.01.2020
3917 Clouds 7 1004 90 0 1.79 359 20:19 27.01.2020
3918 Clouds 7 1004 89 0 0.89 359 19:57 27.01.2020
3919 Clouds 7 999 99 0 5.8 194 19:38 27.01.2020
3920 Clouds 7 1000 98 0 5.8 194 19:20 27.01.2020
3921 Clouds 7 1007 82 0 1.79 253 18:40 27.01.2020
3922 Clouds 7 1001 88 0 5.8 194 18:21 27.01.2020
3923 Clouds 8 1001 88 0 5.8 194 17:58 27.01.2020
3924 Clouds 8 1001 88 0 5.8 194 17:38 27.01.2020
3925 Clouds 8 1002 88 0 5.81 211 17:19 27.01.2020
3926 Clouds 8 1002 88 0 5.81 211 16:56 27.01.2020
3927 Clouds 8 1002 85 0 5.81 211 16:37 27.01.2020
3928 Clouds 8 1002 85 0 5.81 211 16:19 27.01.2020
3929 Clouds 9 1003 82 0 5.81 211 15:41 27.01.2020
3930 Clouds 9 1003 82 0 5.81 211 15:20 27.01.2020
3931 Clouds 9 1009 80 0 1.79 289 14:59 27.01.2020
3932 Clouds 9 1003 83 0 5.81 211 14:40 27.01.2020
3933 Clouds 9 1003 82 0 7.6 213 14:21 27.01.2020
3934 Clouds 9 1004 79 0 1.34 114 13:54 27.01.2020
3935 Clouds 8 1004 84 0 7.6 213 13:36 27.01.2020
3936 Clouds 8 1004 85 0 7.3 215 13:18 27.01.2020
3937 Clouds 8 1005 86 0 7.3 215 12:41 27.01.2020
3938 Clouds 8 1012 84 0 1.79 119 12:22 27.01.2020
3939 Clouds 7 1012 85 0 3.13 274 11:43 27.01.2020
3940 Clouds 7 1012 85 0 2.24 185 11:22 27.01.2020
3941 Clouds 6 1006 92 0 5.27 205 10:57 27.01.2020
3942 Clouds 6 1006 94 0 5.27 205 10:39 27.01.2020
3943 Clouds 4 1016 89 0 5.27 205 10:20 27.01.2020
3944 Clouds 3 1016 89 0 5.27 205 09:40 27.01.2020
3945 Clouds 3 1016 89 0 5.27 205 09:19 27.01.2020
3946 Clouds 2 1016 89 0 5.27 205 08:58 27.01.2020
3947 Clouds 2 1016 89 0 5.27 205 08:40 27.01.2020
3948 Clouds 2 1016 89 0 4.24 205 08:19 27.01.2020
3949 Clouds 2 1016 89 0 5.11 210 07:50 27.01.2020
3950 Clouds 2 1016 89 0 5.11 210 07:32 27.01.2020
3951 Clouds 2 1016 89 0 5.11 210 06:39 27.01.2020
3952 Clouds 1 1016 89 0 5.11 210 05:53 27.01.2020
3953 Clouds 1 1016 89 0 3.98 217 05:18 27.01.2020
3954 Clouds 1 1016 89 0 3.98 217 03:36 27.01.2020
3955 Clouds 1 1016 89 0 3.42 217 01:57 27.01.2020
3956 Clouds 1 1016 89 0 3.31 220 01:28 27.01.2020
3957 Clouds 1 1016 89 0 3.31 220 01:28 27.01.2020
3958 Clouds 1 1016 89 0 3.31 220 00:42 27.01.2020
3959 Clouds 1 1016 89 0 3.31 220 00:22 27.01.2020
3960 Clouds 1 1016 89 0 3.31 220 00:22 27.01.2020
3961 Clouds 2 1016 89 0 3.31 220 23:58 26.01.2020
3962 Clouds 2 1016 89 0 3.31 220 23:39 26.01.2020
3963 Clouds 2 1016 89 0 3.31 213 23:18 26.01.2020
3964 Clouds 2 1016 89 0 3.31 213 22:39 26.01.2020
3965 Clouds 1 1016 89 0 3.31 213 22:20 26.01.2020
3966 Clouds 1 1016 89 0 3.31 213 21:58 26.01.2020
3967 Clouds 1 1016 89 0 3.31 213 21:40 26.01.2020
3968 Clouds 1 1016 89 0 3.31 213 21:21 26.01.2020
3969 Clouds 1 1016 89 0 3.31 213 20:58 26.01.2020
3970 Clouds 1 1016 89 0 3.31 213 20:39 26.01.2020
3971 Clouds 1 1016 89 0 2.8 200 20:20 26.01.2020
3972 Clouds 1 1016 89 0 2.8 200 19:59 26.01.2020
3973 Clouds 1 1016 89 0 2.8 200 19:39 26.01.2020
3974 Clouds 1 1012 10 0 2.8 200 19:21 26.01.2020
3975 Clouds 1 1016 90 0 2.8 200 18:59 26.01.2020
3976 Clouds 1 1016 90 0 1.79 28 18:39 26.01.2020
3977 Clouds 1 1012 10 0 2.8 200 18:21 26.01.2020
3978 Clouds 1 1012 10 0 2.8 200 18:21 26.01.2020
3979 Clouds 1 1016 91 0 2.8 200 17:57 26.01.2020
3980 Clouds 1 1016 91 0 2.8 200 17:38 26.01.2020
3981 Clouds 1 1012 10 0 1.52 163 17:18 26.01.2020
3982 Clouds 1 1012 10 0 1.52 163 17:18 26.01.2020
3983 Clouds 2 1017 89 0 1.79 101 16:57 26.01.2020
3984 Clouds 2 1017 89 0 1.52 163 16:39 26.01.2020
3985 Clouds 2 1017 89 0 3.58 112 16:20 26.01.2020
3986 Clouds 2 1017 89 0 3.58 112 16:20 26.01.2020
3987 Clouds 2 1017 88 0 2.24 118 15:46 26.01.2020
3988 Clouds 2 1017 88 0 2.68 104 15:22 26.01.2020
3989 Clouds 2 1018 88 0 2.24 129 14:58 26.01.2020
3990 Clouds 2 1018 88 0 2.24 67 14:39 26.01.2020
3991 Clouds 2 1018 87 0 1.49 144 14:19 26.01.2020
3992 Clouds 2 1018 86 0 2.24 158 13:42 26.01.2020
3993 Clouds 2 1018 86 0 2.68 172 13:20 26.01.2020
3994 Clouds 2 1019 86 0 2.68 112 12:57 26.01.2020
3995 Clouds 2 1019 86 0 2.68 84 12:39 26.01.2020
3996 Clouds 2 1019 87 0 0.45 110 12:21 26.01.2020
3997 Clouds 2 1019 86 0 2.68 173 11:57 26.01.2020
3998 Clouds 2 1019 86 0 1.79 159 11:57 26.01.2020
3999 Clouds 2 1019 86 0 1.79 138 11:38 26.01.2020
4000 Clouds 1 1020 86 0 1.25 135 11:18 26.01.2020
4001 Clouds 1 1020 87 0 1.79 101 10:58 26.01.2020
4002 Clouds 1 1020 87 0 1.34 117 10:38 26.01.2020
4003 Clouds 1 1020 88 0 0.89 153 10:20 26.01.2020
4004 Clouds 1 1020 88 0 0.89 200 09:57 26.01.2020
4005 Clouds 1 1020 88 0 0.45 128 09:39 26.01.2020
4006 Clouds 1 1020 88 0 2.24 175 09:20 26.01.2020
4007 Clouds 1 1020 88 0 2.68 190 08:43 26.01.2020
4008 Clouds 0 1020 88 0 1.4 133 08:22 26.01.2020
4009 Clouds 0 1020 88 0 0.42 181 07:57 26.01.2020
4010 Clouds 1 1019 88 0 0.42 181 07:39 26.01.2020
4011 Clouds 0 1020 89 0 0.42 181 07:20 26.01.2020
4012 Clouds 0 1020 89 0 0.42 181 06:30 26.01.2020
4013 Clouds 0 1015 10 0 0.42 181 05:31 26.01.2020
4014 Clouds 0 1020 90 0 1.28 163 04:45 26.01.2020
4015 Clouds 0 1020 90 0 1.28 163 02:42 26.01.2020
4016 Clouds 0 1020 89 0 1.34 122 01:48 26.01.2020
4017 Clouds 0 1021 88 0 0.45 122 01:24 26.01.2020
4018 Clouds 0 1021 88 0 1.34 100 00:48 26.01.2020
4019 Clouds 0 1021 87 0 1.34 97 00:29 26.01.2020
4020 Clouds 0 1021 86 0 1.4 147 23:41 25.01.2020
4021 Clear 0 1021 86 0 0.75 160 23:22 25.01.2020
4022 Clear 0 1021 86 0 0.75 160 22:59 25.01.2020
4023 Clear 0 1021 86 0 0.75 160 22:40 25.01.2020
4024 Clear 0 1021 86 0 0.75 160 22:19 25.01.2020
4025 Clear 0 1021 86 0 0.75 160 21:57 25.01.2020
4026 Clear 0 1021 86 0 0.75 160 21:57 25.01.2020
4027 Clear 0 1021 86 0 0.89 165 21:38 25.01.2020
4028 Clear 0 1021 86 0 0.89 165 21:38 25.01.2020
4029 Clear 0 1022 86 0 1.79 146 21:20 25.01.2020
4030 Clear 1 1022 85 0 1.79 179 20:44 25.01.2020
4031 Clear 1 1022 85 0 1.79 179 20:44 25.01.2020
4032 Clouds 1 1022 85 0 0.32 80 20:25 25.01.2020
4033 Clouds 1 1022 85 0 0.32 80 20:25 25.01.2020
4034 Clear 1 1022 84 0 0.45 143 19:56 25.01.2020
4035 Clear 1 1022 84 0 0.54 338 19:37 25.01.2020
4036 Clear 1 1022 83 0 0.89 63 19:18 25.01.2020
4037 Clear 1 1022 82 0 0.54 338 18:43 25.01.2020
4038 Clear 1 1022 83 0 1.79 153 18:23 25.01.2020
4039 Clear 1 1022 82 0 1.79 146 17:59 25.01.2020
4040 Clear 1 1022 82 0 0.89 153 17:39 25.01.2020
4041 Clear 2 1021 81 0 0.45 134 17:19 25.01.2020
4042 Clouds 2 1021 81 0 0.89 165 16:56 25.01.2020
4043 Clear 2 1021 82 0 0.89 121 16:37 25.01.2020
4044 Clear 2 1021 81 0 1.34 189 16:18 25.01.2020
4045 Clear 2 1021 81 0 0.42 245 15:42 25.01.2020
4046 Clear 2 1021 80 0 0.42 245 15:23 25.01.2020
4047 Clear 2 1021 78 0 0.42 245 14:47 25.01.2020
4048 Clear 3 1022 78 0 0.45 94 14:20 25.01.2020
4049 Clear 3 1022 79 0 1.77 218 13:58 25.01.2020
4050 Clear 3 1022 80 0 1.79 169 13:39 25.01.2020
4051 Clear 3 1022 82 0 1.79 208 13:20 25.01.2020
4052 Clear 2 1023 83 0 1.34 206 12:43 25.01.2020
4053 Clear 2 1023 83 0 1.54 231 12:21 25.01.2020
4054 Clear 2 1023 83 0 4.02 162 11:45 25.01.2020
4055 Clear 2 1023 83 0 2.68 204 11:21 25.01.2020
4056 Clear 2 1023 84 0 0.89 193 10:58 25.01.2020
4057 Clear 1 1023 84 0 1.34 146 10:40 25.01.2020
4058 Clear 1 1023 85 0 0.45 190 10:20 25.01.2020
4059 Clear 1 1023 86 0 1.34 254 09:41 25.01.2020
4060 Clear 1 1023 86 0 2.24 199 09:22 25.01.2020
4061 Clear 1 1022 87 0 0.45 128 08:44 25.01.2020
4062 Clear 1 1022 89 0 0.89 223 08:22 25.01.2020
4063 Clear 1 1022 88 0 0.45 263 07:49 25.01.2020
4064 Clear 1 1022 88 0 0.89 232 06:51 25.01.2020
4065 Clear 1 1022 88 0 0.89 232 06:51 25.01.2020
4066 Clear 1 1022 87 0 0.89 273 06:27 25.01.2020
4067 Clear 1 1022 86 0 1.98 255 05:46 25.01.2020
4068 Clear 1 1021 86 0 1.79 275 04:50 25.01.2020
4069 Clear 1 1022 84 0 0.45 271 03:51 25.01.2020
4070 Clear 1 1022 85 0 1.34 295 02:57 25.01.2020
4071 Clouds 1 1022 85 0 1.34 293 02:20 25.01.2020
4072 Clouds 1 1022 84 0 1.65 255 01:43 25.01.2020
4073 Clouds 1 1022 85 0 1.46 242 00:44 25.01.2020
4074 Clouds 1 1022 85 0 2.24 237 00:26 25.01.2020
4075 Clouds 1 1023 85 0 0.45 252 23:58 24.01.2020
4076 Clouds 1 1022 85 0 0.45 166 23:40 24.01.2020
4077 Clouds 1 1022 85 0 1.79 215 23:22 24.01.2020
4078 Clouds 1 1022 86 0 1.79 203 22:44 24.01.2020
4079 Clouds 1 1023 87 0 3.13 289 22:25 24.01.2020
4080 Clouds 1 1023 87 0 1.34 276 21:56 24.01.2020
4081 Clouds 1 1023 87 0 0.89 254 21:37 24.01.2020
4082 Clouds 1 1023 87 0 6.26 278 21:18 24.01.2020
4083 Clouds 1 1023 86 0 1.79 279 20:42 24.01.2020
4084 Clouds 0 1022 86 0 1.79 323 20:21 24.01.2020
4085 Clouds 0 1023 86 0 0.89 317 19:57 24.01.2020
4086 Clouds 0 1023 86 0 1.79 289 19:39 24.01.2020
4087 Clouds 0 1022 87 0 4.47 300 19:21 24.01.2020
4088 Clouds 0 1022 90 0 1.88 288 18:43 24.01.2020
4089 Clouds 0 1022 90 0 1.88 288 18:25 24.01.2020
4090 Clouds 1 1022 89 0 1.88 288 17:56 24.01.2020
4091 Clouds 1 1022 88 0 1.88 288 17:38 24.01.2020
4092 Clear 1 1022 87 0 2.08 280 17:20 24.01.2020
4093 Clear 1 1022 87 0 1.34 247 16:39 24.01.2020
4094 Clear 1 1022 86 0 2.08 280 16:21 24.01.2020
4095 Clear 2 1022 82 0 0.89 256 15:56 24.01.2020
4096 Clear 2 1022 82 0 1.79 295 15:38 24.01.2020
4097 Clear 2 1022 82 0 0.89 285 15:19 24.01.2020
4098 Clear 3 1022 81 0 1.34 293 14:41 24.01.2020
4099 Clear 2 1022 81 0 1.79 230 14:22 24.01.2020
4100 Clear 3 1023 78 0 1.79 224 13:45 24.01.2020
4101 Clear 3 1023 78 0 2.68 258 13:24 24.01.2020
4102 Clear 3 1023 81 0 1.79 359 12:55 24.01.2020
4103 Clear 3 1023 81 0 3.13 287 12:36 24.01.2020
4104 Clear 3 1023 82 0 3.13 287 12:18 24.01.2020
4105 Clear 2 1023 86 0 2.04 277 11:42 24.01.2020
4106 Clear 2 1023 88 0 1.04 274 11:19 24.01.2020
4107 Clear 0 1023 90 0 1.04 274 10:43 24.01.2020
4108 Clear -1 1023 91 0 1.04 274 10:22 24.01.2020
4109 Clear -1 1023 91 0 1.04 274 09:56 24.01.2020
4110 Clear -1 1023 91 0 1.04 274 09:38 24.01.2020
4111 Clear -2 1023 91 0 1.04 274 09:20 24.01.2020
4112 Clear -3 1023 90 0 1.04 274 08:40 24.01.2020
4113 Clear -3 1023 91 0 1.59 267 08:19 24.01.2020
4114 Clear -3 1023 90 0 1.59 267 07:50 24.01.2020
4115 Clear -4 1023 90 0 1.59 267 07:28 24.01.2020
4116 Clear -3 1023 90 0 1.59 267 06:48 24.01.2020
4117 Clear -4 1023 90 0 1.59 267 06:29 24.01.2020
4118 Clear -4 1023 90 0 1.59 267 05:58 24.01.2020
4119 Clear -3 1024 90 0 0.53 166 04:57 24.01.2020
4120 Clear -3 1025 90 0 0.53 166 02:53 24.01.2020
4121 Clear -3 1025 90 0 1.44 188 02:25 24.01.2020
4122 Clear -3 1026 90 0 1.44 188 01:46 24.01.2020
4123 Clear -3 1026 90 0 1.44 188 01:28 24.01.2020
4124 Clear -2 1026 90 0 0.92 181 00:25 24.01.2020
4125 Clear -2 1027 90 0 0.92 181 23:49 23.01.2020
4126 Clear -1 1027 90 0 0.92 181 23:31 23.01.2020
4127 Clear -1 1027 89 0 1.75 179 22:59 23.01.2020
4128 Clear -2 1027 89 0 1.75 179 22:38 23.01.2020
4129 Clear -2 1027 89 0 1.75 179 22:38 23.01.2020
4130 Clear -1 1027 89 0 1.75 179 22:19 23.01.2020
4131 Clear -1 1028 89 0 1.75 179 21:58 23.01.2020
4132 Clear -1 1028 89 0 1.75 179 21:39 23.01.2020
4133 Clear 0 1028 89 0 1.75 179 21:20 23.01.2020
4134 Clear 0 1028 88 0 1.75 179 20:59 23.01.2020
4135 Clear -1 1028 87 0 1.75 179 20:39 23.01.2020
4136 Clouds 1 1028 87 0 1.24 136 20:20 23.01.2020
4137 Clouds 1 1028 87 0 1.24 136 19:56 23.01.2020
4138 Clouds 1 1028 86 0 1.24 136 19:38 23.01.2020
4139 Clouds 1 1005 86 0 1.24 136 19:19 23.01.2020
4140 Clouds 2 1029 85 0 1.24 136 18:55 23.01.2020
4141 Clouds 2 1029 85 0 1.24 136 18:37 23.01.2020
4142 Clouds 3 1029 83 0 1.24 136 18:18 23.01.2020
4143 Clouds 4 1029 82 0 1.24 136 17:43 23.01.2020
4144 Clouds 4 1029 80 0 0.7 60 17:20 23.01.2020
4145 Clouds 5 1029 76 0 0.7 60 16:58 23.01.2020
4146 Clouds 5 1029 74 0 0.7 60 16:37 23.01.2020
4147 Clouds 5 1030 72 0 1.79 152 16:18 23.01.2020
4148 Clouds 6 1030 70 0 0.7 60 15:57 23.01.2020
4149 Clouds 6 1031 69 0 0.7 60 15:37 23.01.2020
4150 Clouds 6 1026 73 0 0.7 60 15:18 23.01.2020
4151 Clouds 6 1026 73 0 0.7 60 14:56 23.01.2020
4152 Clouds 6 1031 68 0 0.89 145 14:38 23.01.2020
4153 Clouds 6 1031 68 0 0.89 146 14:20 23.01.2020
4154 Clouds 6 1032 68 0 1.21 232 13:44 23.01.2020
4155 Clouds 6 1028 73 0 1.26 194 13:21 23.01.2020
4156 Clouds 6 1028 71 0 1.26 194 12:55 23.01.2020
4157 Clouds 6 1033 67 0 1.54 175 12:36 23.01.2020
4158 Clouds 6 1033 67 0 1.54 175 12:18 23.01.2020
4159 Clouds 6 1034 70 0 1.26 194 11:43 23.01.2020
4160 Clouds 5 1034 73 0 1.26 194 11:24 23.01.2020
4161 Clouds 4 1035 93 0 1.1 223 10:58 23.01.2020
4162 Clouds 4 1035 93 0 1.48 238 10:40 23.01.2020
4163 Clouds 5 1034 83 0 1.48 238 10:18 23.01.2020
4164 Clouds 4 1034 86 0 1.48 238 09:41 23.01.2020
4165 Clouds 4 1034 86 0 1.48 238 09:40 23.01.2020
4166 Clouds 4 1034 86 0 1.48 238 09:21 23.01.2020
4167 Clouds 4 1035 87 0 1.48 238 08:56 23.01.2020
4168 Clouds 4 1035 87 0 1.48 238 08:37 23.01.2020
4169 Clouds 4 1035 87 0 1.26 282 08:18 23.01.2020
4170 Clouds 4 1035 88 0 1.26 282 07:37 23.01.2020
4171 Clouds 3 1035 95 0 1.26 282 07:18 23.01.2020
4172 Clouds 3 1030 10 0 1.26 282 06:44 23.01.2020
4173 Clouds 3 1030 10 0 1.26 282 06:18 23.01.2020
4174 Clouds 4 1034 88 0 0.45 186 04:25 23.01.2020
4175 Clouds 4 1030 10 0 2.34 268 03:23 23.01.2020
4176 Clouds 4 1035 88 0 1.34 239 01:55 23.01.2020
4177 Clouds 5 1036 88 0 2.88 282 00:44 23.01.2020
4178 Clouds 4 1036 89 0 2.88 282 00:24 23.01.2020
4179 Clouds 5 1035 88 0 2.88 282 23:46 22.01.2020
4180 Clouds 5 1035 88 0 2.88 282 23:28 22.01.2020
4181 Clouds 5 1035 88 0 3.37 279 22:54 22.01.2020
4182 Clouds 5 1035 88 0 1.79 262 22:36 22.01.2020
4183 Clouds 5 1035 88 0 3.37 279 22:18 22.01.2020
4184 Clouds 5 1035 87 0 0.89 261 21:38 22.01.2020
4185 Clouds 5 1035 88 0 0.45 186 21:19 22.01.2020
4186 Clouds 5 1035 88 0 3.37 279 20:55 22.01.2020
4187 Clouds 5 1035 88 0 1.34 201 20:36 22.01.2020
4188 Clouds 5 1034 87 0 3.58 248 20:18 22.01.2020
4189 Clouds 5 1034 86 0 2.24 271 19:54 22.01.2020
4190 Clouds 5 1034 86 0 3.73 285 19:36 22.01.2020
4191 Clouds 5 1034 86 0 0.45 303 19:18 22.01.2020
4192 Clouds 5 1034 86 0 0.89 278 18:54 22.01.2020
4193 Clouds 5 1034 86 0 3.73 285 18:36 22.01.2020
4194 Clouds 5 1034 85 0 3.73 285 18:18 22.01.2020
4195 Clouds 5 1033 86 0 3.73 285 17:39 22.01.2020
4196 Clouds 5 1033 86 0 2.68 245 17:20 22.01.2020
4197 Clouds 5 1033 86 0 1.34 310 16:57 22.01.2020
4198 Clouds 5 1033 85 0 0.45 279 16:39 22.01.2020
4199 Clouds 5 1033 85 0 2.68 268 16:20 22.01.2020
4200 Clouds 5 1032 84 0 1.34 272 15:55 22.01.2020
4201 Clouds 5 1032 84 0 3.13 269 15:37 22.01.2020
4202 Clouds 5 1032 83 0 2.68 304 15:18 22.01.2020
4203 Clouds 5 1032 84 0 2.24 275 14:39 22.01.2020
4204 Clouds 5 1033 84 0 5.36 292 14:20 22.01.2020
4205 Clouds 5 1033 85 0 5.81 280 13:57 22.01.2020
4206 Clouds 5 1033 84 0 3.13 280 13:37 22.01.2020
4207 Clouds 5 1033 85 0 0.45 282 13:19 22.01.2020
4208 Clouds 4 1033 85 0 3.13 269 12:57 22.01.2020
4209 Clouds 4 1033 85 0 3.58 300 12:38 22.01.2020
4210 Clouds 4 1033 84 0 5.81 289 12:19 22.01.2020
4211 Clouds 4 1033 84 0 2.68 304 11:57 22.01.2020
4212 Clouds 4 1033 85 0 1.34 230 11:39 22.01.2020
4213 Clouds 4 1033 84 0 2.24 280 11:19 22.01.2020
4214 Clouds 4 1033 84 0 3.58 280 10:46 22.01.2020
4215 Clouds 3 1033 84 0 3.13 304 10:21 22.01.2020
4216 Clouds 3 1033 84 0 1.79 272 09:59 22.01.2020
4217 Clouds 3 1033 84 0 1.34 247 09:40 22.01.2020
4218 Clouds 3 1033 85 0 1.34 239 09:22 22.01.2020
4219 Clouds 3 1033 85 0 2.68 280 08:56 22.01.2020
4220 Clouds 2 1033 86 0 0.89 221 08:37 22.01.2020
4221 Clouds 2 1033 86 0 2.24 196 08:19 22.01.2020
4222 Clouds 2 1033 86 0 0.45 179 07:44 22.01.2020
4223 Clouds 2 1033 86 0 2.24 227 07:26 22.01.2020
4224 Clouds 3 1033 84 0 0.45 214 06:36 22.01.2020
4225 Clouds 2 1033 84 0 0.89 190 05:57 22.01.2020
4226 Clouds 2 1034 84 0 4.02 276 04:26 22.01.2020
4227 Clouds 2 1034 84 0 3.13 283 03:27 22.01.2020
4228 Clouds 2 1035 84 0 2.24 287 02:48 22.01.2020
4229 Clouds 0 1035 89 0 4.2 289 00:48 22.01.2020
4230 Clouds 0 1036 90 0 3.13 248 00:28 22.01.2020
4231 Clouds 0 1037 89 0 4.2 289 23:59 21.01.2020
4232 Clouds 0 1037 89 0 4.2 289 23:37 21.01.2020
4233 Clear -1 1037 89 0 2.47 305 23:19 21.01.2020
4234 Clear -1 1037 89 0 2.47 305 22:42 21.01.2020
4235 Clear -1 1037 89 0 2.47 305 22:23 21.01.2020
4236 Clear -1 1037 88 0 2.47 305 21:58 21.01.2020
4237 Clear 0 1037 88 0 2.47 305 21:39 21.01.2020
4238 Clear 0 1037 88 0 2.47 305 21:21 21.01.2020
4239 Clear 0 1037 87 0 2.47 305 20:58 21.01.2020
4240 Clear 0 1037 86 0 2.47 305 20:39 21.01.2020
4241 Clouds 0 1037 86 0 0.45 186 20:20 21.01.2020
4242 Clouds 1 1037 85 0 3.67 256 19:58 21.01.2020
4243 Clouds 1 1037 84 0 0.45 156 19:39 21.01.2020
4244 Clouds 1 1037 83 0 1.34 124 19:21 21.01.2020
4245 Clouds 2 1037 84 0 3.67 256 18:57 21.01.2020
4246 Clouds 2 1037 84 0 2.24 221 18:39 21.01.2020
4247 Clouds 2 1038 84 0 4.47 252 18:39 21.01.2020
4248 Clouds 2 1038 84 0 1.79 254 18:20 21.01.2020
4249 Clouds 2 1037 83 0 4.47 259 17:56 21.01.2020
4250 Clouds 2 1038 85 0 3.58 262 17:38 21.01.2020
4251 Clear 3 1038 83 0 1.34 251 17:18 21.01.2020
4252 Clear 4 1038 82 0 1.79 273 16:38 21.01.2020
4253 Clear 4 1039 80 0 0.89 241 16:19 21.01.2020
4254 Clear 5 1039 80 0 2.78 282 15:59 21.01.2020
4255 Clear 5 1039 79 0 0.89 203 15:38 21.01.2020
4256 Clear 5 1039 78 0 1.34 272 15:19 21.01.2020
4257 Clear 6 1039 77 0 2.24 201 14:40 21.01.2020
4258 Clear 6 1040 79 0 3.29 278 14:21 21.01.2020
4259 Clear 6 1040 80 0 0.45 268 13:55 21.01.2020
4260 Clear 5 1040 80 0 0.89 80 13:37 21.01.2020
4261 Clear 5 1040 81 0 3.58 194 13:18 21.01.2020
4262 Clear 5 1041 82 0 0.89 73 12:42 21.01.2020
4263 Clear 4 1041 82 0 4.47 191 12:24 21.01.2020
4264 Clear 4 1041 83 0 1.79 220 11:56 21.01.2020
4265 Clear 4 1041 84 0 0.45 151 11:38 21.01.2020
4266 Clear 3 1041 86 0 1.79 180 11:19 21.01.2020
4267 Clear 2 1042 92 0 1.34 134 10:43 21.01.2020
4268 Clear 1 1042 91 0 2.25 256 10:23 21.01.2020
4269 Clear 0 1042 91 0 2.25 256 09:56 21.01.2020
4270 Clear 0 1042 91 0 2.25 256 09:56 21.01.2020
4271 Clear -1 1042 91 0 2.25 256 09:38 21.01.2020
4272 Clear -1 1042 91 0 2.25 256 09:20 21.01.2020
4273 Clear -2 1041 90 0 2.25 256 08:44 21.01.2020
4274 Clear -2 1041 90 0 2.01 256 08:26 21.01.2020
4275 Clear -2 1041 90 0 1.86 251 07:44 21.01.2020
4276 Clear -2 1041 90 0 0.45 95 07:25 21.01.2020
4277 Clear -2 1042 90 0 1.86 251 06:58 21.01.2020
4278 Clear -2 1042 90 0 1.86 251 06:38 21.01.2020
4279 Clear -2 1042 90 0 1.86 251 06:20 21.01.2020
4280 Clear -2 1042 90 0 1.86 251 05:40 21.01.2020
4281 Clear -2 1042 91 0 1.86 252 04:38 21.01.2020
4282 Clear -2 1043 92 0 1.86 252 02:29 21.01.2020
4283 Clouds -1 1044 92 0 1.58 211 01:37 21.01.2020
4284 Clouds -1 1044 91 0 1.39 213 00:52 21.01.2020
4285 Clouds -1 1044 92 0 1.79 213 00:29 21.01.2020
4286 Clouds -1 1045 92 0 1.39 213 23:56 20.01.2020
4287 Clouds -1 1045 91 0 1.39 213 23:36 20.01.2020
4288 Clouds -1 1045 91 0 1.39 213 23:36 20.01.2020
4289 Clouds -1 1045 91 0 2.23 235 23:18 20.01.2020
4290 Clouds -1 1045 91 0 2.23 235 22:55 20.01.2020
4291 Clouds -1 1045 91 0 2.23 235 22:36 20.01.2020
4292 Clouds -1 1045 91 0 2.23 235 22:18 20.01.2020
4293 Clouds 0 1045 91 0 0.89 183 21:55 20.01.2020
4294 Clouds 0 1045 91 0 2.23 235 21:36 20.01.2020
4295 Clouds 0 1045 91 0 2.23 235 21:18 20.01.2020
4296 Clouds 0 1046 90 0 2.23 235 20:54 20.01.2020
4297 Clouds 0 1046 91 0 2.06 242 20:36 20.01.2020
4298 Clouds 0 1045 90 0 0.45 87 20:18 20.01.2020
4299 Clouds 0 1046 90 0 2.25 285 19:54 20.01.2020
4300 Clouds 1 1046 89 0 2.25 285 19:36 20.01.2020
4301 Clouds 1 1045 90 0 2.25 285 19:18 20.01.2020
4302 Clouds 1 1045 90 0 1.79 156 18:42 20.01.2020
4303 Clouds 2 1045 89 0 2.25 285 18:21 20.01.2020
4304 Clouds 3 1041 97 0 2.25 285 17:39 20.01.2020
4305 Clouds 3 1046 84 0 2.39 281 17:19 20.01.2020
4306 Clouds 3 1046 84 0 2.39 281 16:55 20.01.2020
4307 Clouds 4 1046 83 0 2.39 281 16:36 20.01.2020
4308 Clouds 4 1046 81 0 2.39 281 16:18 20.01.2020
4309 Clouds 5 1046 78 0 0.45 261 15:41 20.01.2020
4310 Clouds 5 1046 75 0 0.89 271 15:22 20.01.2020
4311 Clouds 5 1046 75 0 2.39 281 14:59 20.01.2020
4312 Clouds 5 1046 76 0 2.24 245 14:41 20.01.2020
4313 Clouds 4 1046 74 0 0.89 313 14:21 20.01.2020
4314 Clouds 4 1046 76 0 0.89 307 13:57 20.01.2020
4315 Clouds 4 1046 77 0 0.45 265 13:38 20.01.2020
4316 Clear 4 1042 95 0 2.23 277 13:20 20.01.2020
4317 Clear 3 1042 99 0 2.23 277 12:44 20.01.2020
4318 Clear 3 1042 99 0 2.23 277 12:25 20.01.2020
4319 Clear 3 1042 99 0 2.23 277 12:25 20.01.2020
4320 Clear 3 1042 10 0 2.23 277 11:56 20.01.2020
4321 Clear 2 1048 97 0 0.45 34 11:37 20.01.2020
4322 Clouds 2 1042 10 0 2.57 284 11:19 20.01.2020
4323 Clouds 2 1042 10 0 2.57 284 10:47 20.01.2020
4324 Clouds 1 1042 10 0 2.57 284 10:21 20.01.2020
4325 Clouds 1 1042 10 0 2.57 284 09:42 20.01.2020
4326 Clouds 1 1042 10 0 2.57 284 09:24 20.01.2020
4327 Clouds 0 1042 10 0 2.57 284 08:59 20.01.2020
4328 Clouds 0 1041 10 0 2.57 284 08:39 20.01.2020
4329 Clear 0 1041 10 0 2.13 276 08:20 20.01.2020
4330 Clear 0 1041 10 0 2.13 276 07:42 20.01.2020
4331 Clear 0 1041 10 0 2.13 276 07:42 20.01.2020
4332 Clear 0 1046 95 0 0.89 282 07:22 20.01.2020
4333 Clear 0 1040 10 0 2.13 276 06:45 20.01.2020
4334 Clear 0 1040 10 0 2.13 276 06:25 20.01.2020
4335 Clear 0 1040 10 0 2.13 276 05:41 20.01.2020
4336 Clear 0 1040 10 0 2.89 295 05:21 20.01.2020
4337 Clear 0 1040 10 0 2.89 295 04:33 20.01.2020
4338 Clear 2 1041 85 0 2.89 295 02:55 20.01.2020
4339 Clouds 2 1039 10 0 3.31 300 01:42 20.01.2020
4340 Clouds 2 1039 10 0 3.15 296 01:23 20.01.2020
4341 Clouds 2 1038 10 0 3.15 296 00:43 20.01.2020
4342 Clouds 2 1038 10 0 3.15 296 00:22 20.01.2020
4343 Clouds 2 1038 10 0 3.15 296 23:39 19.01.2020
4344 Clouds 2 1038 10 0 2.81 294 23:19 19.01.2020
4345 Clouds 3 1038 99 0 2.81 294 22:56 19.01.2020
4346 Clouds 3 1037 97 0 2.81 294 22:37 19.01.2020
4347 Clouds 4 1037 95 0 2.81 294 22:19 19.01.2020
4348 Clouds 4 1042 91 0 2.81 294 21:56 19.01.2020
4349 Clouds 4 1036 88 0 2.81 294 21:38 19.01.2020
4350 Clouds 4 1036 88 0 2.81 294 21:19 19.01.2020
4351 Clouds 4 1036 88 0 2.81 294 20:57 19.01.2020
4352 Clouds 4 1036 88 0 2.81 294 20:38 19.01.2020
4353 Clouds 5 1041 90 0 3.19 298 20:20 19.01.2020
4354 Clouds 5 1035 90 0 3.19 298 19:56 19.01.2020
4355 Clouds 5 1035 91 0 3.19 298 19:38 19.01.2020
4356 Clouds 5 1035 91 0 3.19 298 19:19 19.01.2020
4357 Clouds 4 1034 91 0 3.19 298 18:56 19.01.2020
4358 Clouds 5 1034 92 0 3.19 298 18:37 19.01.2020
4359 Clouds 4 1034 91 0 3.19 298 18:19 19.01.2020
4360 Clouds 4 1039 89 0 0.89 359 17:58 19.01.2020
4361 Clouds 4 1039 89 0 0.89 359 17:58 19.01.2020
4362 Clouds 5 1038 83 0 3.19 298 17:39 19.01.2020
4363 Clear 5 1038 83 0 0.45 245 17:20 19.01.2020
4364 Clear 5 1037 83 0 3.13 359 16:57 19.01.2020
4365 Clear 5 1037 83 0 3.25 300 16:38 19.01.2020
4366 Clear 5 1037 85 0 3.25 300 16:19 19.01.2020
4367 Clear 5 1036 86 0 3.25 300 15:58 19.01.2020
4368 Clear 5 1036 84 0 3.25 300 15:37 19.01.2020
4369 Clear 6 1036 82 0 3.25 300 15:19 19.01.2020
4370 Clear 6 1035 81 0 3.25 300 14:57 19.01.2020
4371 Clear 6 1035 79 0 3.25 300 14:38 19.01.2020
4372 Clear 6 1035 79 0 3.25 300 14:38 19.01.2020
4373 Clear 6 1035 80 0 4.53 305 14:18 19.01.2020
4374 Clear 6 1035 80 0 4.53 305 14:18 19.01.2020
4375 Clear 5 1036 86 0 0.45 336 13:56 19.01.2020
4376 Clear 6 1035 79 0 4.53 305 13:37 19.01.2020
4377 Clear 6 1035 80 0 4.4 302 13:19 19.01.2020
4378 Clear 5 1035 82 0 4.4 302 12:55 19.01.2020
4379 Clear 5 1035 84 0 4.4 302 12:36 19.01.2020
4380 Clear 5 1034 83 0 2.68 292 12:18 19.01.2020
4381 Clear 4 1034 85 0 3.58 276 11:42 19.01.2020
4382 Clear 4 1034 87 0 0.45 297 11:20 19.01.2020
4383 Clear 4 1034 88 0 0.89 289 10:56 19.01.2020
4384 Clear 4 1034 87 0 2.24 286 10:38 19.01.2020
4385 Clear 4 1033 86 0 0.45 227 10:19 19.01.2020
4386 Clear 3 1033 86 0 2.24 263 09:55 19.01.2020
4387 Clear 3 1033 86 0 1.34 292 09:36 19.01.2020
4388 Clear 3 1032 87 0 1.79 306 09:18 19.01.2020
4389 Clear 3 1031 88 0 1.79 283 08:44 19.01.2020
4390 Clouds 3 1031 87 0 0.89 197 08:26 19.01.2020
4391 Clouds 3 1030 89 0 1.34 300 07:42 19.01.2020
4392 Clouds 3 1030 88 0 3.7 287 07:22 19.01.2020
4393 Clouds 3 1030 88 0 0.89 290 06:53 19.01.2020
4394 Clouds 3 1029 88 0 3.7 287 06:21 19.01.2020
4395 Clouds 3 1027 89 0 4.32 283 02:47 19.01.2020
4396 Clouds 3 1027 89 0 4.32 283 02:24 19.01.2020
4397 Clouds 3 1026 91 0 0.89 251 01:25 19.01.2020
4398 Clouds 2 1026 90 0 3.57 265 00:54 19.01.2020
4399 Clouds 2 1026 90 0 2.24 258 00:29 19.01.2020
4400 Clouds 2 1026 89 0 3.57 265 23:59 18.01.2020
4401 Clouds 3 1026 89 0 3.57 265 23:41 18.01.2020
4402 Clouds 3 1025 88 0 0.45 252 23:23 18.01.2020
4403 Clouds 3 1025 87 0 2.9 275 22:55 18.01.2020
4404 Clouds 3 1020 92 0 2.9 275 22:37 18.01.2020
4405 Clouds 3 1025 88 0 1.34 279 22:19 18.01.2020
4406 Clouds 3 1025 89 0 1.79 283 21:57 18.01.2020
4407 Clouds 3 1025 89 0 1.79 261 21:38 18.01.2020
4408 Clouds 3 1025 89 0 0.45 177 21:19 18.01.2020
4409 Clouds 4 1025 88 0 0.89 266 20:43 18.01.2020
4410 Clouds 4 1024 87 0 3.03 238 20:21 18.01.2020
4411 Clouds 4 1024 87 0 3.03 238 20:21 18.01.2020
4412 Clouds 4 1024 86 0 3.03 238 19:59 18.01.2020
4413 Clouds 4 1024 86 0 3.03 238 19:59 18.01.2020
4414 Clouds 5 1024 84 0 0.89 254 19:41 18.01.2020
4415 Clouds 4 1024 85 0 3.03 238 19:22 18.01.2020
4416 Clouds 5 1019 86 0 3.03 238 18:43 18.01.2020
4417 Clouds 4 1024 86 0 0.89 199 18:24 18.01.2020
4418 Clouds 5 1024 87 0 3.03 238 17:56 18.01.2020
4419 Clouds 5 1024 86 0 3.03 238 17:38 18.01.2020
4420 Clouds 5 1024 86 0 0.89 187 17:19 18.01.2020
4421 Clouds 5 1023 83 0 4.37 274 16:55 18.01.2020
4422 Clouds 6 1023 82 0 3.13 247 16:36 18.01.2020
4423 Clouds 6 1023 80 0 2.68 321 16:18 18.01.2020
4424 Clouds 7 1023 71 0 0.89 215 15:42 18.01.2020
4425 Clouds 7 1023 69 0 3.13 235 15:24 18.01.2020
4426 Clouds 7 1023 70 0 3.13 182 14:58 18.01.2020
4427 Clouds 7 1022 72 0 4.37 274 14:39 18.01.2020
4428 Clouds 7 1022 70 0 5.19 250 14:18 18.01.2020
4429 Clouds 7 1023 69 0 5.36 259 13:45 18.01.2020
4430 Clouds 7 1022 70 0 6.26 255 13:27 18.01.2020
4431 Clouds 7 1023 72 0 0.45 107 12:59 18.01.2020
4432 Clouds 7 1023 72 0 0.89 103 12:40 18.01.2020
4433 Clouds 7 1023 73 0 1.79 172 12:21 18.01.2020
4434 Clouds 7 1023 75 0 2.24 83 11:44 18.01.2020
4435 Clouds 7 1023 75 0 1.34 183 11:24 18.01.2020
4436 Clouds 6 1022 76 0 0.89 304 10:57 18.01.2020
4437 Clouds 5 1023 80 0 0.45 199 10:38 18.01.2020
4438 Clouds 5 1022 81 0 3.77 233 10:20 18.01.2020
4439 Clouds 5 1022 81 0 3.77 233 09:48 18.01.2020
4440 Clouds 4 1022 82 0 3.77 233 09:30 18.01.2020
4441 Clouds 4 1022 83 0 0.89 175 08:57 18.01.2020
4442 Clouds 4 1022 85 0 0.45 194 08:39 18.01.2020
4443 Clouds 4 1022 85 0 3.58 238 08:19 18.01.2020
4444 Clouds 4 1022 85 0 3.5 241 07:50 18.01.2020
4445 Clouds 4 1021 85 0 3.5 241 07:31 18.01.2020
4446 Clouds 4 1021 85 0 3.5 241 06:48 18.01.2020
4447 Clouds 5 1021 86 0 1.34 263 05:59 18.01.2020
4448 Clouds 5 1020 82 0 3.5 241 05:24 18.01.2020
4449 Clouds 6 1020 92 0 0.89 263 03:25 18.01.2020
4450 Rain 6 1018 82 0 4.68 267 01:59 18.01.2020
4451 Rain 6 1018 85 0 5.36 259 01:35 18.01.2020
4452 Rain 7 1017 86 0 0.89 272 00:38 18.01.2020
4453 Rain 7 1017 86 0 0.45 258 00:19 18.01.2020
4454 Rain 7 1016 88 0 4.02 273 23:44 17.01.2020
4455 Clouds 7 1016 89 0 0.45 249 23:20 17.01.2020
4456 Clouds 7 1016 89 0 0.45 249 23:20 17.01.2020
4457 Clouds 7 1016 88 0 4.23 239 22:59 17.01.2020
4458 Clouds 7 1016 86 0 4.23 239 22:40 17.01.2020
4459 Clouds 7 1016 86 0 4.23 239 22:19 17.01.2020
4460 Clouds 6 1015 86 0 0.45 247 21:42 17.01.2020
4461 Clouds 6 1015 85 0 4.23 239 21:24 17.01.2020
4462 Clouds 6 1015 85 0 4.23 239 20:59 17.01.2020
4463 Clouds 6 1015 86 0 4.23 239 20:40 17.01.2020
4464 Clouds 5 1015 87 0 4.04 224 20:20 17.01.2020
4465 Clouds 5 1015 87 0 3.87 227 19:57 17.01.2020
4466 Clouds 5 1015 87 0 3.87 227 19:38 17.01.2020
4467 Clouds 5 1015 88 0 3.87 227 19:19 17.01.2020
4468 Clouds 5 1014 89 0 3.87 227 18:57 17.01.2020
4469 Clouds 5 1015 90 0 3.87 227 18:37 17.01.2020
4470 Clouds 5 1015 90 0 3.87 227 18:19 17.01.2020
4471 Clouds 5 1014 90 0 0.89 156 17:40 17.01.2020
4472 Clouds 5 1014 90 0 0.89 156 17:40 17.01.2020
4473 Clear 5 1013 89 0 1.79 127 17:21 17.01.2020
4474 Clear 6 1014 88 0 3.49 177 16:57 17.01.2020
4475 Clear 6 1014 87 0 3.49 177 16:38 17.01.2020
4476 Clear 7 1014 84 0 1.79 143 16:18 17.01.2020
4477 Clear 7 1015 83 0 2.24 66 15:44 17.01.2020
4478 Clear 8 1015 82 0 2.24 88 15:26 17.01.2020
4479 Clear 8 1015 80 0 2.24 110 14:44 17.01.2020
4480 Clear 8 1015 80 0 4.02 132 14:26 17.01.2020
4481 Clear 8 1015 80 0 4.92 108 13:56 17.01.2020
4482 Clear 9 1016 80 0 4.02 129 13:37 17.01.2020
4483 Clear 9 1016 80 0 4.02 105 13:18 17.01.2020
4484 Clear 9 1016 80 0 4.02 105 13:18 17.01.2020
4485 Clear 7 1017 81 0 1.79 149 12:42 17.01.2020
4486 Clear 7 1017 81 0 2.24 138 12:21 17.01.2020
4487 Clear 7 1018 84 0 4.92 134 11:38 17.01.2020
4488 Clear 6 1018 86 0 1.79 177 11:18 17.01.2020
4489 Clear 4 1019 88 0 2.24 153 10:44 17.01.2020
4490 Clear 4 1019 90 0 4.92 167 10:23 17.01.2020
4491 Clear 3 1019 91 0 0.89 141 09:58 17.01.2020
4492 Clear 3 1020 91 0 0.45 26 09:40 17.01.2020
4493 Clear 3 1020 92 0 0.89 69 09:20 17.01.2020
4494 Clear 2 1020 93 0 1.79 108 08:46 17.01.2020
4495 Clear 1 1021 93 0 4.02 127 08:25 17.01.2020
4496 Clear 2 1021 93 0 2.68 152 08:25 17.01.2020
4497 Clear 1 1021 93 0 1.79 145 07:56 17.01.2020
4498 Clear 1 1021 93 0 1.79 145 07:56 17.01.2020
4499 Clear 1 1021 93 0 3.61 144 07:34 17.01.2020
4500 Clear 1 1021 93 0 3.61 144 06:59 17.01.2020
4501 Clear 1 1021 93 0 1.34 151 06:41 17.01.2020
4502 Clear 2 1022 92 0 3.61 144 05:57 17.01.2020
4503 Clear 2 1023 92 0 0.45 50 03:44 17.01.2020
4504 Clear 2 1023 92 0 2.91 161 02:55 17.01.2020
4505 Clear 2 1023 92 0 3.13 122 02:28 17.01.2020
4506 Clear 2 1024 92 0 0.45 175 01:32 17.01.2020
4507 Clear 3 1024 92 0 3.71 155 00:55 17.01.2020
4508 Clear 3 1024 92 0 0.45 183 00:28 17.01.2020
4509 Clear 3 1025 92 0 1.79 77 23:54 16.01.2020
4510 Clear 3 1025 92 0 1.79 151 23:36 16.01.2020
4511 Clear 4 1025 92 0 0.45 105 23:18 16.01.2020
4512 Clear 4 1025 92 0 1.79 121 22:40 16.01.2020
4513 Clear 4 1025 92 0 0.89 170 22:21 16.01.2020
4514 Clear 4 1026 91 0 0.89 98 21:56 16.01.2020
4515 Clear 4 1026 91 0 3.16 171 21:37 16.01.2020
4516 Clear 4 1026 91 0 1.34 108 21:18 16.01.2020
4517 Clear 5 1026 91 0 3.16 171 20:56 16.01.2020
4518 Clear 5 1026 91 0 1.79 159 20:37 16.01.2020
4519 Clouds 5 1026 91 0 2.24 124 20:18 16.01.2020
4520 Clouds 5 1026 91 0 1.34 136 19:54 16.01.2020
4521 Clouds 6 1026 91 0 0.89 114 19:36 16.01.2020
4522 Clouds 6 1026 91 0 1.79 132 19:18 16.01.2020
4523 Clouds 6 1026 91 0 1.34 129 18:54 16.01.2020
4524 Clouds 7 1026 90 0 0.89 112 18:36 16.01.2020
4525 Clouds 7 1026 90 0 2.24 28 18:18 16.01.2020
4526 Clouds 7 1026 89 0 1.34 103 17:41 16.01.2020
4527 Clouds 7 1026 89 0 0.89 115 17:21 16.01.2020
4528 Clouds 8 1026 87 0 0.45 134 16:56 16.01.2020
4529 Clouds 8 1027 85 0 0.89 134 16:37 16.01.2020
4530 Clouds 9 1027 83 0 3.23 157 16:19 16.01.2020
4531 Clouds 10 1027 81 0 1.79 105 15:44 16.01.2020
4532 Clouds 10 1027 79 0 0.89 149 15:22 16.01.2020
4533 Clouds 10 1027 76 0 2.24 79 14:56 16.01.2020
4534 Clouds 10 1027 73 0 3.13 19 14:37 16.01.2020
4535 Clear 10 1027 74 0 4.02 160 14:19 16.01.2020
4536 Clear 10 1027 72 0 0.89 101 13:44 16.01.2020
4537 Clear 10 1027 69 0 2.24 163 13:25 16.01.2020
4538 Clear 11 1028 72 0 2.23 174 12:46 16.01.2020
4539 Clear 10 1028 72 0 1.34 200 12:28 16.01.2020
4540 Clear 10 1028 76 0 0.45 162 11:58 16.01.2020
4541 Clear 9 1028 80 0 0.89 155 11:39 16.01.2020
4542 Clear 8 1028 81 0 2.11 206 11:21 16.01.2020
4543 Clear 6 1028 85 0 1.34 153 10:40 16.01.2020
4544 Clear 6 1028 88 0 0.89 151 10:21 16.01.2020
4545 Clear 5 1028 89 0 2.11 206 09:58 16.01.2020
4546 Clear 4 1028 89 0 2.11 206 09:40 16.01.2020
4547 Clear 4 1027 90 0 0.45 132 09:22 16.01.2020
4548 Clear 4 1027 90 0 1.79 98 08:53 16.01.2020
4549 Clear 4 1027 89 0 2.11 206 08:35 16.01.2020
4550 Clouds 4 1027 90 0 1.79 183 07:59 16.01.2020
4551 Clouds 4 1027 89 0 0.45 103 07:41 16.01.2020
4552 Clouds 4 1027 89 0 2.54 228 07:23 16.01.2020
4553 Clouds 4 1026 89 0 2.54 228 06:46 16.01.2020
4554 Clouds 4 1026 89 0 2.54 228 06:28 16.01.2020
4555 Clouds 5 1026 89 0 2.54 228 05:46 16.01.2020
4556 Clouds 6 1025 88 0 2.44 280 04:46 16.01.2020
4557 Clouds 8 1024 86 0 2.44 280 03:29 16.01.2020
4558 Clouds 9 1023 83 0 0.45 262 02:44 16.01.2020
4559 Clouds 10 1021 78 0 0.89 300 01:28 16.01.2020
4560 Clouds 10 1020 74 0 0.45 269 00:42 16.01.2020
4561 Clouds 10 1020 74 0 4.54 236 00:22 16.01.2020
4562 Clouds 10 1019 71 0 4.54 236 23:40 15.01.2020
4563 -273 0 0 0 0 0 23:21 15.01.2020
4564 Clouds 10 1019 71 0 4.47 359 23:19 15.01.2020
4565 Clouds 10 1018 70 0 0.89 121 22:56 15.01.2020
4566 Clouds 10 1018 69 0 2.68 359 22:37 15.01.2020
4567 Clouds 10 1017 69 0 2.24 165 22:18 15.01.2020
4568 Clouds 10 1017 70 0 1.34 224 21:55 15.01.2020
4569 Clouds 10 1017 69 0 4.92 359 21:36 15.01.2020
4570 Clouds 10 1017 69 0 1.79 142 21:18 15.01.2020
4571 Clouds 10 1016 71 0 2.24 177 20:54 15.01.2020
4572 Clouds 9 1016 70 0 2.68 213 20:36 15.01.2020
4573 Clouds 10 1016 69 0 4.92 169 20:18 15.01.2020
4574 Clouds 10 1016 69 0 4.92 169 20:18 15.01.2020
4575 Clouds 10 1016 68 0 4.92 201 19:54 15.01.2020
4576 Clouds 10 1016 68 0 4.47 183 19:36 15.01.2020
4577 Clouds 10 1016 68 0 2.24 158 19:18 15.01.2020
4578 Clouds 10 1016 67 0 1.34 211 18:55 15.01.2020
4579 Clouds 10 1015 66 0 1.79 214 18:37 15.01.2020
4580 Clouds 10 1014 66 0 2.68 176 18:19 15.01.2020
4581 Clouds 10 1014 68 0 2.68 170 17:41 15.01.2020
4582 Clear 10 1014 65 0 0.45 165 17:22 15.01.2020
4583 Clear 10 1014 65 0 2.68 201 16:59 15.01.2020
4584 Clear 11 1014 65 0 3.58 201 16:38 15.01.2020
4585 Clear 12 1013 63 0 2.24 170 16:20 15.01.2020
4586 Clear 12 1013 63 0 2.24 170 16:20 15.01.2020
4587 Clear 12 1013 63 0 2.24 170 16:20 15.01.2020
4588 Clear 12 1013 62 0 4.02 187 15:43 15.01.2020
4589 Clear 13 1013 61 0 3.58 210 15:21 15.01.2020
4590 Clear 13 1013 58 0 2.24 170 14:58 15.01.2020
4591 Clear 13 1013 56 0 2.68 172 14:39 15.01.2020
4592 Clouds 13 1013 58 0 0.89 213 14:18 15.01.2020
4593 Clouds 13 1013 58 0 0.89 213 14:18 15.01.2020
4594 Clouds 13 1013 58 0 3.58 156 13:45 15.01.2020
4595 Clouds 13 1013 60 0 4.02 180 13:24 15.01.2020
4596 Clouds 13 1013 61 0 3.13 180 12:58 15.01.2020
4597 Clouds 13 1013 60 0 2.24 268 12:39 15.01.2020
4598 Clouds 13 1013 59 0 1.34 119 12:19 15.01.2020
4599 Clouds 13 1013 61 0 3.13 132 11:56 15.01.2020
4600 Clouds 13 1014 63 0 2.68 149 11:37 15.01.2020
4601 Clouds 12 1014 66 0 2.24 136 11:18 15.01.2020
4602 Clouds 12 1014 68 0 3.13 208 10:42 15.01.2020
4603 Clouds 11 1014 69 0 5.81 213 10:24 15.01.2020
4604 Clouds 11 1014 69 0 7.15 159 09:42 15.01.2020
4605 Clouds 11 1014 68 0 0.45 203 09:23 15.01.2020
4606 Clouds 10 1013 69 0 3.13 182 08:56 15.01.2020
4607 Clouds 11 1013 69 0 4.02 200 08:38 15.01.2020
4608 Clouds 11 1013 68 0 3.13 143 08:19 15.01.2020
4609 Clouds 10 1013 68 0 2.68 215 07:51 15.01.2020
4610 Clouds 11 1013 69 0 4.92 177 07:31 15.01.2020
4611 Clouds 11 1013 69 0 1.34 204 06:45 15.01.2020
4612 Clouds 11 1012 68 0 2.68 162 06:19 15.01.2020
4613 Clouds 11 1011 71 0 1.79 206 04:42 15.01.2020
4614 Clouds 10 1011 73 0 8.74 223 02:38 15.01.2020
4615 Clouds 10 1011 72 0 2.24 359 01:28 15.01.2020
4616 Clouds 9 1011 74 0 2.24 103 00:46 15.01.2020
4617 Clouds 9 1011 74 0 5.36 359 00:27 15.01.2020
4618 Clouds 10 1010 75 0 1.34 359 23:57 14.01.2020
4619 Clouds 10 1010 74 0 2.68 359 23:38 14.01.2020
4620 Clouds 10 1010 74 0 1.34 359 23:19 14.01.2020
4621 Clouds 10 1010 72 0 3.58 359 22:41 14.01.2020
4622 Clouds 10 1010 72 0 0.89 359 22:19 14.01.2020
4623 Clouds 10 1010 71 0 3.58 158 21:59 14.01.2020
4624 Clouds 10 1010 71 0 3.13 359 21:40 14.01.2020
4625 Clouds 10 1010 71 0 6.71 359 21:22 14.01.2020
4626 Clouds 10 1010 72 0 3.13 359 20:59 14.01.2020
4627 Clouds 10 1010 72 0 5.81 359 20:40 14.01.2020
4628 Clouds 9 1010 73 0 4.92 359 20:20 14.01.2020
4629 Clouds 9 1010 75 0 8.7 208 19:56 14.01.2020
4630 Clouds 9 1010 75 0 8.7 208 19:38 14.01.2020
4631 Clouds 10 1010 74 0 8.7 208 19:19 14.01.2020
4632 Clouds 10 1010 73 0 5.36 359 18:56 14.01.2020
4633 Clouds 10 1010 73 0 8.7 208 18:37 14.01.2020
4634 Clouds 10 1010 73 0 5.81 359 18:19 14.01.2020
4635 Clouds 10 1010 73 0 8.7 208 17:39 14.01.2020
4636 Clouds 10 1010 73 0 5.81 8 17:19 14.01.2020
4637 Clouds 10 1010 73 0 5.76 210 16:56 14.01.2020
4638 Clouds 10 1010 72 0 4.47 359 16:38 14.01.2020
4639 Clouds 10 1010 69 0 5.76 210 16:19 14.01.2020
4640 Clouds 10 1010 70 0 5.76 210 15:54 14.01.2020
4641 Clouds 10 1010 70 0 3.13 359 15:36 14.01.2020
4642 Clouds 10 1010 70 0 3.13 359 15:18 14.01.2020
4643 Clouds 10 1010 70 0 5.76 210 14:41 14.01.2020
4644 Clouds 11 1009 70 0 1.79 359 14:20 14.01.2020
4645 Clouds 11 1009 69 0 8.25 221 13:42 14.01.2020
4646 Clouds 10 1010 69 0 4.92 359 13:20 14.01.2020
4647 Clouds 10 1010 69 0 8.34 222 12:57 14.01.2020
4648 Clouds 10 1009 69 0 8.34 222 12:39 14.01.2020
4649 Clouds 10 1009 69 0 8.34 222 12:20 14.01.2020
4650 Clouds 10 1009 69 0 8.34 222 12:20 14.01.2020
4651 Clouds 9 1009 70 0 8.34 222 11:42 14.01.2020
4652 Clouds 9 1009 69 0 8.34 222 11:23 14.01.2020
4653 Clouds 9 1009 72 0 8.79 205 10:58 14.01.2020
4654 Clouds 8 1009 73 0 6.26 359 10:39 14.01.2020
4655 Clouds 8 1009 73 0 4.47 359 10:19 14.01.2020
4656 Clouds 8 1009 74 0 8.79 205 10:19 14.01.2020
4657 Clouds 7 1009 75 0 4.92 359 09:57 14.01.2020
4658 Clouds 7 1009 76 0 8.79 205 09:39 14.01.2020
4659 Clouds 7 1009 79 0 2.24 359 09:20 14.01.2020
4660 Clouds 7 1009 82 0 8.79 205 08:44 14.01.2020
4661 Clouds 7 1009 82 0 8.5 199 08:23 14.01.2020
4662 Clouds 6 1009 84 0 5.81 359 07:53 14.01.2020
4663 Clouds 6 1009 85 0 0.89 359 07:31 14.01.2020
4664 Clouds 6 1009 86 0 8.5 199 06:51 14.01.2020
4665 Clouds 5 1009 87 0 1.79 359 06:23 14.01.2020
4666 Clouds 4 1010 91 0 2.68 359 05:25 14.01.2020
4667 Clouds 4 1010 92 0 3.58 359 03:51 14.01.2020
4668 Clouds 3 1012 92 0 2.24 59 02:42 14.01.2020
4669 Clouds 3 1012 92 0 2.24 359 01:53 14.01.2020
4670 Clouds 2 1013 92 0 5.81 124 00:51 14.01.2020
4671 Clouds 2 1013 92 0 4.47 100 00:32 14.01.2020
4672 Clouds 2 1013 92 0 4.47 100 00:32 14.01.2020
4673 Clouds 2 1014 93 0 0.89 42 23:55 13.01.2020
4674 Clouds 3 1014 92 0 2.24 182 23:37 13.01.2020
4675 Clouds 3 1014 93 0 2.68 153 23:18 13.01.2020
4676 Clouds 3 1010 10 0 5.56 192 22:42 13.01.2020
4677 Clouds 3 1014 92 0 5.56 192 22:21 13.01.2020
4678 Clouds 3 1015 91 0 1.34 131 21:57 13.01.2020
4679 Clouds 3 1015 91 0 5.56 192 21:38 13.01.2020
4680 Clouds 3 1015 91 0 5.56 192 21:38 13.01.2020
4681 Clouds 3 1015 91 0 1.34 148 21:19 13.01.2020
4682 Clouds 3 1015 91 0 1.34 148 21:19 13.01.2020
4683 Clouds 3 1015 91 0 1.34 139 20:59 13.01.2020
4684 Clouds 3 1015 91 0 1.79 151 20:41 13.01.2020
4685 Clear 3 1016 91 0 2.68 131 20:22 13.01.2020
4686 Clouds 3 1016 91 0 2.68 131 20:22 13.01.2020
4687 Clear 3 1016 90 0 2.68 118 19:59 13.01.2020
4688 Clear 3 1016 90 0 1.34 131 19:39 13.01.2020
4689 Clear 4 1017 90 0 0.45 132 19:20 13.01.2020
4690 Clear 4 1017 90 0 0.89 107 19:20 13.01.2020
4691 Clear 4 1016 90 0 1.79 210 18:56 13.01.2020
4692 Clear 4 1017 90 0 4.92 179 18:37 13.01.2020
4693 Clear 4 1017 90 0 4.14 197 18:19 13.01.2020
4694 Clear 5 1017 89 0 1.34 129 17:44 13.01.2020
4695 Clear 5 1017 89 0 2.68 359 17:25 13.01.2020
4696 Clear 6 1017 88 0 0.89 93 16:58 13.01.2020
4697 Clear 6 1017 87 0 1.34 114 16:38 13.01.2020
4698 Clear 7 1017 86 0 1.34 105 16:20 13.01.2020
4699 Clear 8 1018 83 0 0.89 359 15:54 13.01.2020
4700 Clear 8 1018 82 0 0.45 77 15:36 13.01.2020
4701 Clear 8 1018 80 0 2.68 359 15:18 13.01.2020
4702 Clear 8 1018 78 0 1.34 119 14:40 13.01.2020
4703 Clouds 8 1018 77 0 1.34 122 14:22 13.01.2020
4704 Clouds 9 1019 75 0 2.68 138 13:56 13.01.2020
4705 Clouds 9 1019 76 0 0.89 359 13:38 13.01.2020
4706 Clouds 9 1019 75 0 5.36 359 13:20 13.01.2020
4707 Clouds 8 1020 77 0 0.89 170 12:43 13.01.2020
4708 Clouds 8 1020 78 0 0.89 90 12:23 13.01.2020
4709 Clouds 8 1020 79 0 5.02 224 11:59 13.01.2020
4710 Clouds 7 1020 82 0 1.34 107 11:38 13.01.2020
4711 Clouds 7 1021 83 0 2.68 186 11:19 13.01.2020
4712 Clouds 7 1021 82 0 5.81 138 10:56 13.01.2020
4713 Clouds 6 1018 84 0 4.21 239 10:38 13.01.2020
4714 Clouds 6 1016 96 0 4.21 239 10:20 13.01.2020
4715 Clouds 6 1016 95 0 4.21 239 09:55 13.01.2020
4716 Clouds 5 1016 94 0 4.21 239 09:37 13.01.2020
4717 Clouds 5 1020 89 0 2.24 359 09:19 13.01.2020
4718 Clouds 5 1021 90 0 0.89 105 08:39 13.01.2020
4719 Clouds 5 1021 91 0 0.45 14 08:20 13.01.2020
4720 Clouds 5 1021 92 0 0.45 101 07:46 13.01.2020
4721 Clouds 5 1021 92 0 0.89 127 07:27 13.01.2020
4722 Clouds 5 1021 92 0 5 223 06:40 13.01.2020
4723 Clouds 5 1021 92 0 5 223 06:18 13.01.2020
4724 Clouds 6 1021 90 0 3.53 227 05:20 13.01.2020
4725 Clouds 6 1021 89 0 3.53 227 03:47 13.01.2020
4726 Clouds 7 1021 89 0 3.53 227 03:22 13.01.2020
4727 Clouds 6 1021 88 0 0.45 143 02:38 13.01.2020
4728 Clouds 6 1021 88 0 5.01 235 02:18 13.01.2020
4729 Clouds 6 1020 84 0 4.71 234 00:59 13.01.2020
4730 Clouds 6 1020 85 0 2.68 359 00:40 13.01.2020
4731 Clouds 6 1020 85 0 4.71 234 00:21 13.01.2020
4732 Clouds 6 1020 87 0 3.13 359 23:41 12.01.2020
4733 Clouds 6 1020 86 0 5.81 359 23:23 12.01.2020
4734 Clouds 6 1020 82 0 5.69 233 22:57 12.01.2020
4735 Clouds 6 1020 82 0 5.69 233 22:39 12.01.2020
4736 Clouds 6 1020 82 0 4.47 359 22:21 12.01.2020
4737 Clouds 6 1020 82 0 0.89 359 21:55 12.01.2020
4738 Clouds 6 1020 82 0 0.89 359 21:55 12.01.2020
4739 Clouds 6 1020 82 0 0.45 359 21:37 12.01.2020
4740 Clouds 6 1019 81 0 5.69 233 21:19 12.01.2020
4741 Clouds 6 1019 81 0 2.68 359 20:56 12.01.2020
4742 Clouds 6 1019 81 0 5.69 233 20:37 12.01.2020
4743 Clouds 6 1019 81 0 4.47 28 20:19 12.01.2020
4744 Clouds 6 1019 81 0 4.47 28 20:19 12.01.2020
4745 Clouds 6 1019 80 0 2.68 359 19:55 12.01.2020
4746 Clouds 6 1019 80 0 6.26 359 19:37 12.01.2020
4747 Clouds 6 1019 79 0 1.34 107 19:18 12.01.2020
4748 Clouds 5 1019 79 0 6.19 231 18:57 12.01.2020
4749 Clouds 6 1019 79 0 3.13 359 18:39 12.01.2020
4750 Clouds 5 1019 78 0 0.45 359 18:21 12.01.2020
4751 Clouds 5 1019 78 0 6.19 231 17:43 12.01.2020
4752 Clouds 5 1019 77 0 3.58 142 17:23 12.01.2020
4753 Clouds 5 1019 77 0 2.68 166 16:59 12.01.2020
4754 Clouds 5 1019 76 0 2.24 100 16:39 12.01.2020
4755 Clouds 5 1019 76 0 3.13 359 16:20 12.01.2020
4756 Clouds 5 1018 75 0 0.89 80 15:58 12.01.2020
4757 Clouds 5 1018 76 0 1.79 213 15:39 12.01.2020
4758 Clouds 5 1019 77 0 6.07 235 15:21 12.01.2020
4759 Clouds 5 1019 77 0 0.45 97 14:44 12.01.2020
4760 Clouds 5 1019 77 0 4.02 86 14:25 12.01.2020
4761 Clouds 6 1019 77 0 0.45 93 13:58 12.01.2020
4762 Clouds 6 1019 76 0 6.5 225 13:40 12.01.2020
4763 Clouds 6 1020 76 0 2.68 359 13:22 12.01.2020
4764 Clouds 5 1020 79 0 1.34 203 12:58 12.01.2020
4765 Clouds 5 1020 78 0 6.45 226 12:38 12.01.2020
4766 Clouds 5 1020 79 0 6.45 226 12:19 12.01.2020
4767 Clouds 5 1021 79 0 1.79 119 11:43 12.01.2020
4768 Clouds 5 1021 81 0 6.45 226 11:23 12.01.2020
4769 Clouds 5 1021 81 0 0.89 156 10:59 12.01.2020
4770 Clouds 4 1022 84 0 0.89 165 10:40 12.01.2020
4771 Clouds 4 1022 84 0 0.89 101 10:21 12.01.2020
4772 Clouds 3 1022 85 0 1.34 175 09:55 12.01.2020
4773 Clouds 3 1019 87 0 1.79 158 09:37 12.01.2020
4774 Clouds 2 1022 88 0 1.34 131 09:18 12.01.2020
4775 Clouds 1 1022 90 0 0.45 125 08:42 12.01.2020
4776 Clouds 1 1022 91 0 1.79 180 08:19 12.01.2020
4777 Clouds 1 1022 91 0 1.34 128 07:39 12.01.2020
4778 Clouds 1 1022 91 0 1.34 151 07:21 12.01.2020
4779 Clouds 1 1023 92 0 1.79 169 06:43 12.01.2020
4780 Clouds 1 1023 92 0 4.08 204 06:19 12.01.2020
4781 Clouds 1 1023 91 0 4.08 204 05:23 12.01.2020
4782 Clouds 1 1024 90 0 3.52 202 03:47 12.01.2020
4783 Clouds 1 1024 90 0 3.52 202 03:22 12.01.2020
4784 Clouds 1 1025 90 0 3.52 202 02:33 12.01.2020
4785 Clouds 1 1025 88 0 0.45 165 01:43 12.01.2020
4786 Clouds 2 1025 88 0 4.29 205 01:22 12.01.2020
4787 Clouds 2 1025 86 0 0.45 170 00:41 12.01.2020
4788 Clouds 2 1026 87 0 2.24 151 00:20 12.01.2020
4789 Clouds 2 1026 86 0 1.34 167 23:42 11.01.2020
4790 Clouds 2 1026 86 0 1.34 167 23:42 11.01.2020
4791 Clouds 2 1026 86 0 3.13 83 23:19 11.01.2020
4792 Clouds 2 1026 86 0 2.24 180 22:58 11.01.2020
4793 Clouds 2 1026 86 0 1.34 191 22:40 11.01.2020
4794 Clouds 2 1027 85 0 4.08 205 22:20 11.01.2020
4795 Clouds 3 1027 85 0 2.68 138 21:58 11.01.2020
4796 Clouds 3 1027 85 0 4.02 97 21:40 11.01.2020
4797 Clouds 2 1027 85 0 0.89 189 21:18 11.01.2020
4798 Clouds 3 1027 85 0 3.13 155 20:42 11.01.2020
4799 Clouds 3 1027 86 0 1.79 155 20:22 11.01.2020
4800 Clouds 3 1028 86 0 1.79 186 19:59 11.01.2020
4801 Clouds 3 1028 85 0 0.89 193 19:39 11.01.2020
4802 Clouds 3 1028 85 0 0.89 193 19:39 11.01.2020
4803 Clouds 3 1028 84 0 0.89 211 19:21 11.01.2020
4804 Clouds 3 1028 84 0 0.45 56 18:59 11.01.2020
4805 Clouds 3 1028 84 0 1.34 69 18:39 11.01.2020
4806 Clouds 4 1028 84 0 0.89 159 18:20 11.01.2020
4807 Clouds 4 1028 84 0 1.79 183 17:58 11.01.2020
4808 Clouds 4 1028 84 0 2.68 187 17:40 11.01.2020
4809 Clouds 4 1028 83 0 0.45 145 17:20 11.01.2020
4810 Clouds 5 1028 82 0 0.89 165 16:55 11.01.2020
4811 Clouds 5 1028 82 0 0.89 160 16:55 11.01.2020
4812 Clouds 5 1028 81 0 1.79 166 16:36 11.01.2020
4813 Clouds 5 1028 81 0 1.79 166 16:36 11.01.2020
4814 Clouds 5 1029 80 0 2.24 143 16:18 11.01.2020
4815 Clouds 6 1029 78 0 2.68 155 15:41 11.01.2020
4816 Clouds 6 1029 76 0 1.79 172 15:23 11.01.2020
4817 Clouds 7 1029 74 0 1.34 42 14:58 11.01.2020
4818 Clouds 7 1030 73 0 0.89 184 14:40 11.01.2020
4819 Clouds 7 1030 71 0 3.13 169 14:21 11.01.2020
4820 Clouds 7 1031 71 0 1.79 203 13:55 11.01.2020
4821 Clouds 7 1031 70 0 2.68 296 13:36 11.01.2020
4822 Clouds 7 1031 71 0 3.58 155 13:18 11.01.2020
4823 Clouds 7 1031 73 0 0.45 148 12:42 11.01.2020
4824 Clouds 7 1031 74 0 3.5 210 12:24 11.01.2020
4825 Clouds 6 1031 76 0 0.45 201 11:54 11.01.2020
4826 Clouds 6 1032 76 0 4.92 266 11:36 11.01.2020
4827 Clear 6 1032 79 0 4.92 244 11:18 11.01.2020
4828 Clear 6 1032 79 0 4.92 244 11:18 11.01.2020
4829 Clear 5 1032 82 0 2.24 269 10:43 11.01.2020
4830 Clear 5 1032 84 0 3.58 238 10:24 11.01.2020
4831 Clear 5 1031 87 0 1.34 255 09:40 11.01.2020
4832 Clear 5 1031 88 0 1.79 261 09:21 11.01.2020
4833 Clear 4 1031 88 0 2.92 258 08:43 11.01.2020
4834 Clouds 4 1031 87 0 2.68 238 08:23 11.01.2020
4835 Clouds 5 1030 84 0 0.45 251 07:45 11.01.2020
4836 Clouds 5 1030 83 0 4.58 289 07:26 11.01.2020
4837 Clouds 5 1030 83 0 4.58 289 07:26 11.01.2020
4838 Clouds 5 1030 80 0 1.79 249 06:56 11.01.2020
4839 Clouds 5 1030 79 0 2.24 175 06:28 11.01.2020
4840 Clouds 5 1029 83 0 0.45 224 05:18 11.01.2020
4841 Clouds 5 1028 84 0 3.58 299 04:37 11.01.2020
4842 Clouds 5 1028 85 0 4.32 285 04:19 11.01.2020
4843 Clouds 5 1027 83 0 4.02 283 02:45 11.01.2020
4844 Clouds 5 1027 83 0 2.24 265 01:45 11.01.2020
4845 Clouds 5 1026 81 0 4.47 213 01:22 11.01.2020
4846 Clouds 5 1026 80 0 5.81 279 00:51 11.01.2020
4847 Clouds 5 1026 79 0 3.58 290 00:21 11.01.2020
4848 Clouds 6 1025 78 0 1.79 317 23:56 10.01.2020
4849 Clouds 5 1025 76 0 7.6 265 23:38 10.01.2020
4850 Clouds 6 1025 76 0 5.36 314 23:20 10.01.2020
4851 Clouds 6 1024 76 0 2.68 290 22:41 10.01.2020
4852 Clouds 6 1023 77 0 5.81 280 22:22 10.01.2020
4853 Clouds 6 1023 78 0 4.02 300 21:58 10.01.2020
4854 Clouds 6 1022 76 0 3.58 287 21:40 10.01.2020
4855 Clouds 6 1022 72 0 4.47 247 21:20 10.01.2020
4856 Clouds 6 1022 73 0 3.13 320 20:57 10.01.2020
4857 Clouds 6 1021 73 0 3.58 292 20:38 10.01.2020
4858 Clouds 6 1021 73 0 3.58 292 20:38 10.01.2020
4859 Rain 7 1021 74 0 7.6 276 20:20 10.01.2020
4860 Rain 7 1020 75 0 4.02 271 19:41 10.01.2020
4861 Rain 8 1019 78 0 5.81 295 19:21 10.01.2020
4862 Rain 8 1019 81 0 1.34 359 18:56 10.01.2020
4863 Rain 8 1018 85 0 3.58 275 18:37 10.01.2020
4864 Rain 8 1018 86 0 0.45 242 18:18 10.01.2020
4865 Rain 8 1017 83 0 0.89 276 17:56 10.01.2020
4866 Rain 9 1017 82 0 4.02 299 17:38 10.01.2020
4867 Rain 9 1017 84 0 0.45 293 17:19 10.01.2020
4868 Rain 9 1017 84 0 0.45 293 17:19 10.01.2020
4869 Rain 10 1016 84 0 1.79 266 16:43 10.01.2020
4870 Rain 10 1016 84 0 2.68 258 16:22 10.01.2020
4871 Rain 10 1016 82 0 3.13 261 15:58 10.01.2020
4872 Rain 10 1015 81 0 2.24 245 15:39 10.01.2020
4873 Rain 11 1015 80 0 1.79 199 15:20 10.01.2020
4874 Rain 10 1015 80 0 2.24 217 14:59 10.01.2020
4875 Rain 10 1015 82 0 5.3 272 14:41 10.01.2020
4876 Clouds 10 1015 81 0 6.01 239 14:20 10.01.2020
4877 Clouds 11 1015 79 0 1.34 251 13:58 10.01.2020
4878 Clouds 11 1015 80 0 6.01 239 13:58 10.01.2020
4879 Clouds 11 1015 79 0 6.01 239 13:40 10.01.2020
4880 Clouds 11 1014 78 0 1.34 206 13:22 10.01.2020
4881 Clouds 11 1014 76 0 1.79 251 12:57 10.01.2020
4882 Clouds 11 1014 74 0 1.34 265 12:38 10.01.2020
4883 Clouds 11 1014 74 0 4.02 247 12:18 10.01.2020
4884 Clouds 11 1014 75 0 6.06 239 11:54 10.01.2020
4885 Clouds 11 1014 77 0 0.89 197 11:36 10.01.2020
4886 Clouds 10 1014 78 0 1.79 241 11:18 10.01.2020
4887 Clouds 10 1014 82 0 4.92 254 10:42 10.01.2020
4888 Clouds 10 1014 85 0 1.34 248 10:24 10.01.2020
4889 Clouds 10 1013 85 0 5.06 251 09:56 10.01.2020
4890 Clouds 10 1013 88 0 5.06 251 09:38 10.01.2020
4891 Clouds 9 1013 87 0 0.89 204 09:20 10.01.2020
4892 Clouds 9 1012 89 0 0.45 248 08:42 10.01.2020
4893 Clouds 9 1012 88 0 5.06 251 08:23 10.01.2020
4894 Clouds 9 1012 88 0 5.06 251 08:23 10.01.2020
4895 Clouds 10 1012 87 0 1.34 331 07:46 10.01.2020
4896 Clouds 10 1012 89 0 2.24 197 07:26 10.01.2020
4897 Clouds 10 1011 89 0 0.45 176 06:46 10.01.2020
4898 Clouds 10 1011 89 0 4.36 239 06:26 10.01.2020
4899 Clouds 10 1011 89 0 4.36 239 05:51 10.01.2020
4900 Clouds 10 1010 91 0 5.36 221 03:45 10.01.2020
4901 Clouds 10 1010 92 0 0.89 177 03:22 10.01.2020
4902 Clouds 10 1010 92 0 0.45 165 02:50 10.01.2020
4903 Rain 10 1010 93 0 1.34 151 01:47 10.01.2020
4904 Rain 10 1010 92 0 5.23 218 01:28 10.01.2020
4905 Rain 10 1010 92 0 0.89 131 00:44 10.01.2020
4906 Rain 10 1010 92 0 3.13 158 00:19 10.01.2020
4907 Rain 10 1010 92 0 1.34 143 23:39 09.01.2020
4908 Rain 10 1010 92 0 1.34 143 23:39 09.01.2020
4909 Rain 10 1010 92 0 1.34 143 23:39 09.01.2020
4910 Rain 10 1011 92 0 0.45 197 23:20 09.01.2020
4911 Rain 10 1010 91 0 5.37 211 22:58 09.01.2020
4912 Rain 10 1011 91 0 5.37 211 22:39 09.01.2020
4913 Rain 10 1011 92 0 5.37 211 22:19 09.01.2020
4914 Rain 10 1011 92 0 0.45 124 21:57 09.01.2020
4915 Rain 10 1011 93 0 1.79 203 21:38 09.01.2020
4916 Rain 10 1011 93 0 2.24 180 21:20 09.01.2020
4917 Rain 10 1011 93 0 0.89 170 20:58 09.01.2020
4918 Rain 10 1011 93 0 0.89 204 20:39 09.01.2020
4919 Rain 10 1011 92 0 0.89 103 20:20 09.01.2020
4920 Rain 10 1011 92 0 0.89 191 20:20 09.01.2020
4921 Rain 10 1011 93 0 2.68 156 19:59 09.01.2020
4922 Rain 10 1011 93 0 2.24 163 19:39 09.01.2020
4923 Rain 10 1011 92 0 2.68 180 19:20 09.01.2020
4924 Rain 10 1011 92 0 2.24 183 18:56 09.01.2020
4925 Rain 10 1011 92 0 2.24 172 18:38 09.01.2020
4926 Rain 10 1011 92 0 4.47 148 18:20 09.01.2020
4927 Rain 10 1011 92 0 1.34 169 17:41 09.01.2020
4928 Rain 10 1012 92 0 1.79 176 17:19 09.01.2020
4929 Rain 9 1004 92 0 1.34 169 16:56 09.01.2020
4930 Rain 9 1009 92 0 0.45 182 16:38 09.01.2020
4931 Rain 9 1012 91 0 5.81 359 16:20 09.01.2020
4932 Rain 9 1012 91 0 2.68 359 15:42 09.01.2020
4933 Rain 9 1013 91 0 3.13 186 15:22 09.01.2020
4934 Rain 9 1013 91 0 4.02 177 14:57 09.01.2020
4935 Rain 9 1013 91 0 0.45 143 14:38 09.01.2020
4936 Rain 9 1013 90 0 2.24 180 14:19 09.01.2020
4937 Rain 9 1013 90 0 2.68 152 13:55 09.01.2020
4938 Rain 9 1013 90 0 3.13 95 13:37 09.01.2020
4939 Rain 9 1009 90 0 1.79 183 13:18 09.01.2020
4940 Rain 9 1014 90 0 3.13 163 12:43 09.01.2020
4941 Rain 9 1014 90 0 8.05 163 12:24 09.01.2020
4942 Rain 9 1015 89 0 2.24 149 11:59 09.01.2020
4943 Rain 9 1015 89 0 4.47 184 11:41 09.01.2020
4944 Rain 9 1016 90 0 3.13 225 11:23 09.01.2020
4945 Rain 8 1016 90 0 5.76 188 10:57 09.01.2020
4946 Rain 8 1016 90 0 5.76 188 10:57 09.01.2020
4947 Rain 8 1016 90 0 4.92 104 10:39 09.01.2020
4948 Rain 8 1016 90 0 0.89 176 10:20 09.01.2020
4949 Rain 8 1017 91 0 2.68 87 09:45 09.01.2020
4950 Rain 8 1017 91 0 4.47 159 09:23 09.01.2020
4951 Rain 8 1017 91 0 1.34 142 09:23 09.01.2020
4952 Rain 7 1017 91 0 5.76 188 08:57 09.01.2020
4953 Rain 7 1018 91 0 0.45 73 08:38 09.01.2020
4954 Rain 7 1018 91 0 3.13 163 08:20 09.01.2020
4955 Rain 8 1018 91 0 4.47 121 07:46 09.01.2020
4956 Rain 8 1018 91 0 0.45 180 07:28 09.01.2020
4957 Rain 7 1019 91 0 0.89 88 06:40 09.01.2020
4958 Rain 8 1020 91 0 5.2 179 06:22 09.01.2020
4959 Rain 8 1020 92 0 5.2 179 05:51 09.01.2020
4960 Rain 8 1020 92 0 0.89 146 05:18 09.01.2020
4961 Rain 8 1021 92 0 3.76 193 04:38 09.01.2020
4962 Rain 8 1022 91 0 2.24 83 03:27 09.01.2020
4963 Rain 8 1022 91 0 3.76 193 02:46 09.01.2020
4964 Rain 8 1022 90 0 2.73 214 01:42 09.01.2020
4965 Rain 8 1022 89 0 1.34 242 00:59 09.01.2020
4966 Rain 8 1023 88 0 3.03 217 00:37 09.01.2020
4967 Rain 8 1023 88 0 3.03 217 00:19 09.01.2020
4968 Rain 8 1023 88 0 0.45 182 23:39 08.01.2020
4969 Clouds 8 1023 88 0 3.63 223 23:20 08.01.2020
4970 Clouds 8 1023 87 0 3.63 223 22:56 08.01.2020
4971 Clouds 9 1023 87 0 1.34 194 22:37 08.01.2020
4972 Clouds 8 1023 87 0 3.58 187 22:18 08.01.2020
4973 Clouds 8 1023 87 0 3.63 223 21:55 08.01.2020
4974 Clouds 8 1023 87 0 3.63 223 21:37 08.01.2020
4975 Clouds 8 1023 86 0 3.63 223 21:18 08.01.2020
4976 Clouds 8 1023 86 0 0.89 100 20:41 08.01.2020
4977 Clouds 8 1023 86 0 0.45 199 20:21 08.01.2020
4978 Clouds 8 1022 87 0 0.45 251 19:59 08.01.2020
4979 Clouds 8 1022 86 0 2.76 240 19:38 08.01.2020
4980 Clouds 8 1023 86 0 2.24 193 19:20 08.01.2020
4981 Clouds 8 1023 86 0 2.76 240 18:58 08.01.2020
4982 Clouds 9 1023 85 0 2.76 240 18:39 08.01.2020
4983 Clouds 9 1023 85 0 2.76 240 18:39 08.01.2020
4984 Clouds 9 1023 85 0 2.76 240 18:19 08.01.2020
4985 Clouds 8 1023 85 0 2.76 240 17:57 08.01.2020
4986 Clouds 8 1023 85 0 2.76 240 17:39 08.01.2020
4987 Clouds 8 1022 85 0 2.97 237 17:20 08.01.2020
4988 Clouds 8 1022 85 0 2.97 237 16:57 08.01.2020
4989 Clouds 8 1022 85 0 2.97 237 16:57 08.01.2020
4990 Clouds 8 1022 85 0 2.24 111 16:38 08.01.2020
4991 Clouds 8 1022 85 0 2.97 237 16:19 08.01.2020
4992 Clouds 9 1022 84 0 0.89 177 15:55 08.01.2020
4993 Clouds 9 1022 84 0 1.79 127 15:37 08.01.2020
4994 Clouds 9 1022 84 0 2.97 237 15:18 08.01.2020
4995 Clouds 8 1021 83 0 4.02 359 14:40 08.01.2020
4996 Clouds 8 1021 82 0 3.58 359 14:21 08.01.2020
4997 Clouds 8 1021 82 0 0.89 16 13:42 08.01.2020
4998 Clouds 8 1021 82 0 0.89 182 13:24 08.01.2020
4999 Clouds 8 1022 83 0 0.45 107 12:59 08.01.2020
5000 Clouds 8 1022 83 0 4.77 229 12:40 08.01.2020
5001 Clouds 8 1022 83 0 4.77 229 12:18 08.01.2020
5002 Clouds 8 1022 83 0 5.81 359 11:48 08.01.2020
5003 Rain 7 1022 83 0 4.82 208 11:20 08.01.2020
5004 Rain 7 1022 84 0 0.89 359 10:59 08.01.2020
5005 Rain 7 1022 83 0 4.92 359 10:41 08.01.2020
5006 Rain 7 1022 84 0 1.34 129 10:22 08.01.2020
5007 Rain 6 1022 85 0 4.92 359 09:58 08.01.2020
5008 Rain 6 1022 86 0 1.34 129 09:38 08.01.2020
5009 Rain 6 1022 85 0 4.82 208 09:18 08.01.2020
5010 Rain 6 1022 84 0 0.45 131 08:42 08.01.2020
5011 Rain 6 1022 84 0 3.58 359 08:23 08.01.2020
5012 Rain 6 1022 84 0 2.24 88 07:59 08.01.2020
5013 Rain 6 1022 84 0 2.24 88 07:59 08.01.2020
5014 Rain 6 1022 84 0 4.02 359 07:41 08.01.2020
5015 Rain 6 1022 83 0 2.24 359 07:20 08.01.2020
5016 Rain 6 1022 84 0 0.89 111 06:42 08.01.2020
5017 Rain 6 1021 84 0 0.89 87 05:57 08.01.2020
5018 Rain 6 1021 82 0 2.24 60 05:27 08.01.2020
5019 Clouds 5 1022 81 0 4.18 199 04:39 08.01.2020
5020 Clouds 5 1022 81 0 1.79 135 03:31 08.01.2020
5021 Clouds 4 1023 84 0 0.45 359 02:36 08.01.2020
5022 Clouds 4 1024 85 0 4.92 359 02:18 08.01.2020
5023 Clouds 5 1024 84 0 1.34 197 02:18 08.01.2020
5024 Clouds 4 1024 87 0 2.24 359 01:39 08.01.2020
5025 Clouds 3 1024 89 0 1.79 84 00:53 08.01.2020
5026 Clouds 3 1025 91 0 2.24 173 00:26 08.01.2020
5027 Clouds 3 1025 92 0 4.02 139 23:46 07.01.2020
5028 Clear 3 1025 92 0 4.03 212 23:22 07.01.2020
5029 Clear 3 1025 91 0 0.89 63 22:58 07.01.2020
5030 Clear 3 1025 91 0 1.34 95 22:39 07.01.2020
5031 Clear 3 1026 91 0 2.68 359 22:19 07.01.2020
5032 Clear 3 1026 91 0 0.89 359 21:54 07.01.2020
5033 Clear 3 1026 92 0 5.81 359 21:36 07.01.2020
5034 Clear 3 1026 92 0 4.03 212 21:18 07.01.2020
5035 Clear 3 1026 91 0 4.03 212 20:42 07.01.2020
5036 Clear 3 1026 91 0 2.33 211 20:23 07.01.2020
5037 Clear 3 1026 91 0 1.34 91 19:59 07.01.2020
5038 Clear 4 1027 90 0 2.33 211 19:38 07.01.2020
5039 Clear 4 1027 89 0 0.45 112 19:19 07.01.2020
5040 Clear 5 1027 90 0 2.33 211 18:58 07.01.2020
5041 Clear 5 1027 90 0 0.45 84 18:39 07.01.2020
5042 Clear 5 1027 90 0 2.33 211 18:18 07.01.2020
5043 Clear 5 1027 89 0 2.24 141 17:58 07.01.2020
5044 Clear 5 1027 88 0 2.33 211 17:38 07.01.2020
5045 Clear 6 1027 85 0 2.29 246 17:20 07.01.2020
5046 Clear 6 1027 84 0 2.24 359 16:55 07.01.2020
5047 Clear 6 1027 83 0 0.89 196 16:37 07.01.2020
5048 Clear 6 1027 83 0 2.29 246 16:18 07.01.2020
5049 Clear 6 1027 82 0 0.45 359 15:55 07.01.2020
5050 Clear 6 1027 81 0 4.47 237 15:36 07.01.2020
5051 Clear 6 1026 83 0 3.13 359 15:18 07.01.2020
5052 Clear 6 1026 83 0 1.34 193 14:41 07.01.2020
5053 Clear 6 1026 83 0 1.79 177 14:22 07.01.2020
5054 Clouds 6 1026 82 0 4.47 359 13:56 07.01.2020
5055 Clouds 6 1026 83 0 1.34 359 13:37 07.01.2020
5056 Clouds 6 1026 83 0 2.68 359 13:18 07.01.2020
5057 Clouds 5 1026 84 0 0.45 359 12:40 07.01.2020
5058 Clouds 5 1026 84 0 4.04 285 12:19 07.01.2020
5059 Clouds 4 1025 85 0 1.34 182 11:44 07.01.2020
5060 Clouds 4 1025 86 0 4.04 285 11:23 07.01.2020
5061 Clouds 4 1025 87 0 0.89 218 10:59 07.01.2020
5062 Clouds 4 1025 88 0 1.34 225 10:40 07.01.2020
5063 Clouds 4 1025 89 0 2.24 247 10:22 07.01.2020
5064 Clouds 3 1024 90 0 0.89 220 09:56 07.01.2020
5065 Clouds 3 1024 90 0 0.89 279 09:38 07.01.2020
5066 Clouds 3 1024 88 0 0.89 217 09:19 07.01.2020
5067 Clouds 2 1023 88 0 2.24 187 08:42 07.01.2020
5068 Clouds 2 1023 88 0 1.34 234 08:22 07.01.2020
5069 Clouds 2 1022 89 0 2.69 243 07:54 07.01.2020
5070 Clouds 2 1022 88 0 2.69 243 07:27 07.01.2020
5071 Clouds 1 1022 88 0 0.89 238 06:53 07.01.2020
5072 Clouds 1 1021 88 0 4.92 359 06:34 07.01.2020
5073 Clouds 0 1021 91 0 2.69 243 05:54 07.01.2020
5074 Clouds -1 1021 93 0 2.35 264 04:39 07.01.2020
5075 Clouds -2 1020 91 0 2.35 264 03:26 07.01.2020
5076 Clear -1 1020 91 0 2.01 206 02:22 07.01.2020
5077 Clear -1 1020 91 0 2.01 206 01:52 07.01.2020
5078 Clear -1 1020 91 0 2.01 206 01:30 07.01.2020
5079 Clear 0 1019 91 0 2.01 209 00:37 07.01.2020
5080 Clear 0 1019 91 0 2.01 209 00:37 07.01.2020
5081 Clear 0 1019 91 0 2.01 209 00:18 07.01.2020
5082 Clear 0 1019 91 0 2.01 209 00:18 07.01.2020
5083 Clear 0 1019 90 0 2.01 209 23:54 06.01.2020
5084 Clear 0 1020 90 0 2.01 209 23:36 06.01.2020
5085 Clear 0 1020 90 0 2.82 188 23:18 06.01.2020
5086 Clear 1 1020 90 0 2.82 188 22:42 06.01.2020
5087 Clear 1 1021 89 0 2.82 188 22:22 06.01.2020
5088 Clear 2 1021 90 0 1.79 94 21:56 06.01.2020
5089 Clear 2 1021 89 0 1.79 359 21:38 06.01.2020
5090 Clear 2 1021 89 0 2.82 188 21:20 06.01.2020
5091 Clear 3 1022 88 0 2.68 19 20:56 06.01.2020
5092 Clear 3 1022 87 0 0.89 33 20:37 06.01.2020
5093 Clouds 3 1022 87 0 1.79 359 20:19 06.01.2020
5094 Clouds 4 1022 85 0 2.24 84 19:56 06.01.2020
5095 Clouds 4 1023 81 0 1.79 359 19:37 06.01.2020
5096 Clouds 5 1023 80 0 3.51 189 19:19 06.01.2020
5097 Clouds 5 1023 80 0 3.51 189 19:19 06.01.2020
5098 Clouds 5 1023 76 0 0.45 359 18:46 06.01.2020
5099 Clouds 5 1019 79 0 3.51 189 18:21 06.01.2020
5100 Clouds 5 1024 77 0 3.51 189 17:57 06.01.2020
5101 Clouds 5 1024 78 0 3.51 189 17:37 06.01.2020
5102 Clouds 5 1024 78 0 3.51 189 17:37 06.01.2020
5103 Clouds 5 1024 78 0 4.02 359 17:18 06.01.2020
5104 Clouds 5 1025 79 0 3.61 213 16:44 06.01.2020
5105 Clouds 5 1025 79 0 2.68 112 16:24 06.01.2020
5106 Clouds 5 1025 80 0 3.13 359 15:59 06.01.2020
5107 Clouds 6 1025 80 0 4.02 359 15:38 06.01.2020
5108 Clouds 6 1025 80 0 3.61 213 15:18 06.01.2020
5109 Clouds 6 1025 81 0 0.45 359 14:56 06.01.2020
5110 Clouds 6 1026 81 0 3.61 213 14:37 06.01.2020
5111 Clouds 6 1026 81 0 0.89 241 14:18 06.01.2020
5112 Clouds 6 1026 81 0 3.13 139 13:41 06.01.2020
5113 Clouds 6 1026 80 0 1.79 359 13:22 06.01.2020
5114 Clouds 6 1026 80 0 3.38 226 12:59 06.01.2020
5115 Clouds 6 1027 81 0 1.79 359 12:41 06.01.2020
5116 Clouds 6 1027 82 0 0.45 122 12:20 06.01.2020
5117 Clouds 6 1027 81 0 3.38 226 11:56 06.01.2020
5118 Clouds 6 1027 82 0 0.45 71 11:38 06.01.2020
5119 Clouds 6 1027 82 0 0.45 71 11:38 06.01.2020
5120 Clouds 6 1027 82 0 4.92 194 11:20 06.01.2020
5121 Clouds 6 1027 82 0 4.92 194 11:20 06.01.2020
5122 Clouds 5 1028 82 0 2.24 18 10:43 06.01.2020
5123 Clouds 5 1028 82 0 2.24 18 10:43 06.01.2020
5124 Clouds 5 1028 83 0 3.65 220 10:24 06.01.2020
5125 Clouds 5 1028 84 0 3.65 220 09:57 06.01.2020
5126 Clouds 5 1028 85 0 3.65 220 09:37 06.01.2020
5127 Clouds 5 1028 85 0 3.65 220 09:19 06.01.2020
5128 Clouds 5 1028 86 0 3.65 220 08:42 06.01.2020
5129 Clouds 5 1029 86 0 3.05 221 08:23 06.01.2020
5130 Clouds 5 1029 86 0 3.05 221 07:48 06.01.2020
5131 Clouds 5 1029 86 0 3.05 221 07:23 06.01.2020
5132 Clouds 5 1029 83 0 3.05 221 06:45 06.01.2020
5133 Clouds 5 1029 81 0 3.05 221 06:18 06.01.2020
5134 Clouds 5 1029 80 0 3.05 221 05:40 06.01.2020
5135 Clouds 5 1029 84 0 0.89 359 04:30 06.01.2020
5136 Clouds 5 1029 85 0 0.45 359 03:59 06.01.2020
5137 Clouds 5 1030 87 0 2.89 240 02:46 06.01.2020
5138 Clouds 5 1030 87 0 2.89 240 02:23 06.01.2020
5139 Clouds 5 1030 87 0 3.36 237 01:43 06.01.2020
5140 Clouds 5 1030 86 0 4.47 359 01:21 06.01.2020
5141 Clouds 5 1031 86 0 0.45 359 00:41 06.01.2020
5142 Clouds 5 1031 86 0 1.34 119 00:20 06.01.2020
5143 Clouds 5 1031 85 0 0.89 359 23:41 05.01.2020
5144 Clouds 5 1032 85 0 1.34 12 23:22 05.01.2020
5145 Clouds 5 1032 86 0 0.45 108 22:55 05.01.2020
5146 Clouds 5 1032 87 0 2.24 146 22:37 05.01.2020
5147 Clouds 5 1032 87 0 2.68 233 22:19 05.01.2020
5148 Clouds 5 1032 87 0 2.68 233 21:54 05.01.2020
5149 Clouds 4 1032 87 0 0.45 359 21:36 05.01.2020
5150 Clouds 4 1032 87 0 2.68 233 21:18 05.01.2020
5151 Clouds 4 1032 87 0 2.68 233 20:54 05.01.2020
5152 Clouds 4 1032 87 0 2.68 233 20:36 05.01.2020
5153 Clouds 4 1033 87 0 2.76 244 20:18 05.01.2020
5154 Clouds 4 1032 87 0 2.76 244 19:41 05.01.2020
5155 Clouds 4 1032 87 0 0.45 206 19:21 05.01.2020
5156 Clouds 4 1032 87 0 0.45 111 18:56 05.01.2020
5157 Clouds 4 1032 87 0 2.76 244 18:38 05.01.2020
5158 Clouds 4 1032 87 0 3.13 2 18:20 05.01.2020
5159 Clouds 4 1033 86 0 2.76 244 17:59 05.01.2020
5160 Clouds 4 1033 86 0 2.76 244 17:39 05.01.2020
5161 Clouds 4 1033 86 0 2.66 201 17:20 05.01.2020
5162 Clouds 4 1033 86 0 0.89 176 16:57 05.01.2020
5163 Clouds 4 1033 85 0 2.24 114 16:39 05.01.2020
5164 Clouds 5 1033 84 0 2.66 201 16:20 05.01.2020
5165 Clouds 5 1033 83 0 2.66 201 15:41 05.01.2020
5166 Clouds 5 1033 82 0 0.45 175 15:22 05.01.2020
5167 Clouds 5 1033 82 0 1.34 218 14:58 05.01.2020
5168 Clouds 5 1033 84 0 0.45 244 14:40 05.01.2020
5169 Clear 5 1033 82 0 2.58 229 14:22 05.01.2020
5170 Clear 5 1033 81 0 2.24 173 13:59 05.01.2020
5171 Clear 5 1033 82 0 1.34 218 13:39 05.01.2020
5172 Clear 5 1034 84 0 0.45 128 13:20 05.01.2020
5173 Clear 4 1034 86 0 2.24 201 12:57 05.01.2020
5174 Clear 4 1034 86 0 2.38 225 12:57 05.01.2020
5175 Clear 4 1034 86 0 2.38 225 12:38 05.01.2020
5176 Clear 4 1034 85 0 2.38 225 12:20 05.01.2020
5177 Clear 4 1034 89 0 2.38 225 11:55 05.01.2020
5178 Clear 3 1034 90 0 0.89 234 11:37 05.01.2020
5179 Clear 3 1034 90 0 0.89 234 11:37 05.01.2020
5180 Clear 3 1034 90 0 2.45 253 11:19 05.01.2020
5181 Clear 3 1034 90 0 2.45 253 11:19 05.01.2020
5182 Clear 3 1034 90 0 2.45 253 11:19 05.01.2020
5183 Clear 2 1034 91 0 2.45 253 10:42 05.01.2020
5184 Clear 2 1034 92 0 2.45 253 10:20 05.01.2020
5185 Clear 1 1034 92 0 2.45 253 09:59 05.01.2020
5186 Clear 1 1034 92 0 2.45 253 09:41 05.01.2020
5187 Clear 1 1034 92 0 0.89 187 09:41 05.01.2020
5188 Clear 0 1034 92 0 0.45 184 09:21 05.01.2020
5189 Clear 0 1034 92 0 1.34 235 08:45 05.01.2020
5190 Clear 0 1034 92 0 1.34 247 08:25 05.01.2020
5191 Clear -1 1033 92 0 1.79 248 07:55 05.01.2020
5192 Clear -1 1033 92 0 3.19 285 07:32 05.01.2020
5193 Clear -1 1033 91 0 3.19 285 06:57 05.01.2020
5194 Clear 0 1032 90 0 3.19 285 05:53 05.01.2020
5195 Clear 0 1032 90 0 3.19 285 05:28 05.01.2020
5196 Clear 1 1032 90 0 0.89 269 04:24 05.01.2020
5197 Clear 1 1032 91 0 0.45 271 03:47 05.01.2020
5198 Clear 1 1031 91 0 4.33 289 02:43 05.01.2020
5199 Clear 1 1031 90 0 5.87 297 02:20 05.01.2020
5200 Clear 1 1030 90 0 2.24 272 01:40 05.01.2020
5201 Clear 1 1030 83 0 1.79 290 01:18 05.01.2020
5202 Clear 2 1029 79 0 1.79 299 00:41 05.01.2020
5203 Clear 2 1029 79 0 1.79 283 00:22 05.01.2020
5204 Clear 2 1029 79 0 1.79 302 23:59 04.01.2020
5205 Clear 2 1028 79 0 5.99 294 23:39 04.01.2020
5206 Clear 2 1028 77 0 4.92 286 23:19 04.01.2020
5207 Clear 2 1027 76 0 4.47 279 22:39 04.01.2020
5208 Clear 2 1027 76 0 4.02 280 22:21 04.01.2020
5209 Clear 3 1027 76 0 5.81 282 21:57 04.01.2020
5210 Clear 3 1027 76 0 3.58 309 21:38 04.01.2020
5211 Clear 3 1026 78 0 5.81 311 21:19 04.01.2020
5212 Clear 3 1026 78 0 6.26 289 20:57 04.01.2020
5213 Clear 3 1026 80 0 5.36 263 20:38 04.01.2020
5214 Rain 3 1025 80 0 2.24 302 20:20 04.01.2020
5215 Rain 3 1024 81 0 1.79 268 19:56 04.01.2020
5216 Rain 3 1024 81 0 3.58 297 19:37 04.01.2020
5217 Rain 3 1024 82 0 1.34 228 19:18 04.01.2020
5218 Rain 3 1024 82 0 3.58 300 18:54 04.01.2020
5219 Rain 3 1023 81 0 7.6 287 18:36 04.01.2020
5220 Rain 3 1023 80 0 2.24 302 18:18 04.01.2020
5221 Rain 4 1022 82 0 6.26 309 17:41 04.01.2020
5222 Rain 4 1021 81 0 2.24 225 17:22 04.01.2020
5223 Rain 4 1021 82 0 10.72 305 16:57 04.01.2020
5224 Rain 4 1021 83 0 5.36 345 16:39 04.01.2020
5225 Rain 4 1021 83 0 1.79 275 16:21 04.01.2020
5226 Rain 5 1021 81 0 3.13 293 15:43 04.01.2020
5227 Rain 6 1020 88 0 0.89 359 15:20 04.01.2020
5228 Rain 6 1014 99 0 10.72 305 14:59 04.01.2020
5229 Rain 6 1019 84 0 0.45 359 14:41 04.01.2020
5230 Rain 6 1019 84 0 0.45 359 14:20 04.01.2020
5231 Rain 6 1019 84 0 3.13 359 13:58 04.01.2020
5232 Rain 6 1019 84 0 10.28 278 13:38 04.01.2020
5233 Rain 6 1019 85 0 10.33 278 13:19 04.01.2020
5234 Rain 6 1020 86 0 4.47 327 12:57 04.01.2020
5235 Rain 6 1020 86 0 10.33 278 12:38 04.01.2020
5236 Rain 6 1020 86 0 10.33 278 12:18 04.01.2020
5237 Rain 6 1021 84 0 2.24 359 11:55 04.01.2020
5238 Rain 6 1021 84 0 0.89 359 11:36 04.01.2020
5239 Clouds 6 1021 84 0 6.26 359 11:18 04.01.2020
5240 Clouds 5 1021 81 0 9.47 271 10:40 04.01.2020
5241 Clouds 5 1022 81 0 9.47 271 10:21 04.01.2020
5242 Clouds 5 1022 81 0 0.45 359 09:47 04.01.2020
5243 Clouds 5 1022 82 0 0.45 359 09:26 04.01.2020
5244 Clouds 5 1022 82 0 2.68 359 08:49 04.01.2020
5245 Clouds 5 1022 82 0 1.34 359 08:29 04.01.2020
5246 Clouds 5 1022 83 0 0.45 359 07:57 04.01.2020
5247 Clouds 5 1022 83 0 7.36 268 07:39 04.01.2020
5248 Clouds 4 1023 85 0 7.36 268 06:44 04.01.2020
5249 Clouds 4 1023 87 0 4.92 359 05:59 04.01.2020
5250 Clouds 4 1023 89 0 6.71 359 04:53 04.01.2020
5251 Clouds 4 1023 89 0 6.12 271 04:32 04.01.2020
5252 Clouds 5 1023 88 0 6.12 271 03:37 04.01.2020
5253 Clouds 5 1023 90 0 4.47 359 03:18 04.01.2020
5254 Clouds 5 1023 87 0 2.68 359 02:20 04.01.2020
5255 Clouds 5 1023 88 0 6.01 283 01:53 04.01.2020
5256 Clouds 5 1022 87 0 6.26 359 01:30 04.01.2020
5257 Clouds 5 1022 89 0 6.25 286 00:30 04.01.2020
5258 Clouds 5 1022 87 0 6.25 286 23:59 03.01.2020
5259 Clouds 5 1021 87 0 6.25 286 23:38 03.01.2020
5260 Rain 6 1021 85 0 0.45 359 23:20 03.01.2020
5261 Rain 6 1019 84 0 8.99 308 22:41 03.01.2020
5262 Rain 6 1019 86 0 8.99 308 22:20 03.01.2020
5263 Rain 7 1018 88 0 8.99 308 21:58 03.01.2020
5264 Rain 7 1016 90 0 8.99 308 21:38 03.01.2020
5265 Rain 7 1016 91 0 8.99 308 21:19 03.01.2020
5266 Rain 7 1015 89 0 6.26 162 20:58 03.01.2020
5267 Rain 7 1015 88 0 8.99 308 20:40 03.01.2020
5268 Rain 7 1015 90 0 7.16 225 20:18 03.01.2020
5269 Rain 7 1015 90 0 7.16 225 19:56 03.01.2020
5270 Rain 7 1015 90 0 7.16 225 19:37 03.01.2020
5271 Rain 7 1015 90 0 7.16 225 19:19 03.01.2020
5272 Rain 7 1015 89 0 7.16 225 18:43 03.01.2020
5273 Rain 7 1015 88 0 1.79 359 18:24 03.01.2020
5274 Rain 7 1015 86 0 7.16 225 17:56 03.01.2020
5275 Rain 7 1015 85 0 7.16 225 17:37 03.01.2020
5276 Rain 7 1015 87 0 6.92 233 17:19 03.01.2020
5277 Rain 7 1015 86 0 3.13 359 16:42 03.01.2020
5278 Rain 7 1015 85 0 5.36 359 16:24 03.01.2020
5279 Rain 7 1015 84 0 6.92 233 15:57 03.01.2020
5280 Rain 7 1015 83 0 1.34 359 15:39 03.01.2020
5281 Rain 7 1015 83 0 6.92 233 15:18 03.01.2020
5282 Rain 7 1016 83 0 6.92 233 14:39 03.01.2020
5283 Clouds 7 1016 84 0 2.68 359 14:19 03.01.2020
5284 Clouds 7 1016 84 0 7.04 218 13:56 03.01.2020
5285 Clouds 7 1016 82 0 7.04 218 13:37 03.01.2020
5286 Clouds 7 1016 82 0 7.01 220 13:19 03.01.2020
5287 Clouds 6 1016 83 0 3.13 359 12:39 03.01.2020
5288 Clouds 6 1016 82 0 2.68 359 12:21 03.01.2020
5289 Clouds 6 1017 84 0 7.01 220 11:48 03.01.2020
5290 Clouds 6 1017 85 0 7.31 211 11:29 03.01.2020
5291 Clouds 6 1018 87 0 7.31 211 10:47 03.01.2020
5292 Clouds 5 1018 88 0 7.31 211 10:28 03.01.2020
5293 Clouds 5 1018 89 0 3.13 359 09:59 03.01.2020
5294 Clouds 5 1018 90 0 4.02 359 09:41 03.01.2020
5295 Clouds 5 1018 90 0 7.31 211 09:22 03.01.2020
5296 Clouds 5 1018 91 0 7.31 211 08:57 03.01.2020
5297 Clouds 4 1019 91 0 7.31 211 08:39 03.01.2020
5298 Clouds 4 1019 91 0 5.36 359 08:20 03.01.2020
5299 Clouds 4 1019 91 0 7.17 216 07:42 03.01.2020
5300 Clouds 4 1019 92 0 7.17 216 07:19 03.01.2020
5301 Clouds 4 1019 92 0 2.24 359 06:56 03.01.2020
5302 Clouds 4 1019 93 0 4.02 359 06:37 03.01.2020
5303 Clouds 4 1020 93 0 6.26 359 06:18 03.01.2020
5304 Clear 2 1020 95 0 0.89 179 04:42 03.01.2020
5305 Clear 2 1021 95 0 6.27 213 03:37 03.01.2020
5306 Clear 2 1022 95 0 0.89 184 02:50 03.01.2020
5307 Clear 2 1022 95 0 6.23 209 01:48 03.01.2020
5308 Clear 2 1022 95 0 0.89 203 00:57 03.01.2020
5309 Clear 2 1022 94 0 1.34 124 00:33 03.01.2020
5310 Clear 2 1023 94 0 6.25 211 23:59 02.01.2020
5311 Clear 2 1023 94 0 6.25 211 23:39 02.01.2020
5312 Clear 2 1023 93 0 4.03 204 23:20 02.01.2020
5313 Clear 2 1023 92 0 4.03 204 22:58 02.01.2020
5314 Clear 2 1024 92 0 4.03 204 22:39 02.01.2020
5315 Clear 2 1019 94 0 4.03 204 22:19 02.01.2020
5316 Clear 1 1025 91 0 4.03 204 21:55 02.01.2020
5317 Clear 1 1025 91 0 4.03 204 21:37 02.01.2020
5318 Clear 1 1025 91 0 4.03 204 21:18 02.01.2020
5319 Clear 1 1025 91 0 4.03 204 20:56 02.01.2020
5320 Clear 1 1025 91 0 4.03 204 20:36 02.01.2020
5321 Clear 0 1025 91 0 1.4 235 20:18 02.01.2020
5322 Clear 0 1025 91 0 1.88 215 19:54 02.01.2020
5323 Clear 1 1025 92 0 1.34 196 19:36 02.01.2020
5324 Clear 1 1025 91 0 1.88 215 19:18 02.01.2020
5325 Clear 1 1014 91 0 1.88 215 18:42 02.01.2020
5326 Clear 1 1020 10 0 1.88 215 18:23 02.01.2020
5327 Clear 1 1020 10 0 1.88 215 17:58 02.01.2020
5328 Clear 1 1020 10 0 1.88 215 17:58 02.01.2020
5329 Clear 2 1020 10 0 1.88 215 17:39 02.01.2020
5330 Clear 2 1020 10 0 1 237 17:20 02.01.2020
5331 Clear 2 1020 10 0 1 237 16:58 02.01.2020
5332 Clear 2 1020 10 0 1 237 16:40 02.01.2020
5333 Clear 2 1020 96 0 1 237 16:20 02.01.2020
5334 Clear 2 1019 93 0 1 237 15:58 02.01.2020
5335 Clear 3 1019 90 0 1 237 15:40 02.01.2020
5336 Clear 3 1019 86 0 1 237 15:21 02.01.2020
5337 Clear 3 1019 83 0 1 237 14:57 02.01.2020
5338 Clear 4 1022 78 0 1 237 14:36 02.01.2020
5339 Clear 4 1022 78 0 1 237 14:36 02.01.2020
5340 Clear 4 1020 75 0 1.71 199 14:18 02.01.2020
5341 Clear 4 1023 80 0 1.71 199 13:49 02.01.2020
5342 Clear 4 1020 65 0 1.34 197 13:31 02.01.2020
5343 Clear 5 1021 65 0 1.34 197 12:46 02.01.2020
5344 Clear 5 1021 66 0 1.34 197 12:26 02.01.2020
5345 Clear 4 1022 73 0 1.34 197 11:59 02.01.2020
5346 Clear 3 1022 72 0 1.34 197 11:40 02.01.2020
5347 Clear 1 1023 86 0 2.29 218 11:20 02.01.2020
5348 Clear -1 1023 96 0 2.29 218 10:45 02.01.2020
5349 Clear -1 1023 96 0 2.29 218 10:26 02.01.2020
5350 Clear -2 1023 89 0 2.29 218 09:52 02.01.2020
5351 Clear -3 1023 90 0 2.29 218 09:33 02.01.2020
5352 Clear -4 1023 97 0 2.29 218 08:48 02.01.2020
5353 Clear -4 1023 95 0 2.26 211 08:28 02.01.2020
5354 Clear -4 1023 96 0 1.19 162 07:57 02.01.2020
5355 Clear -4 1025 99 0 0.45 0 07:31 02.01.2020
5356 Clear -4 1026 99 0 0.45 0 06:57 02.01.2020
5357 Clear -4 1026 99 0 0.45 0 06:57 02.01.2020
5358 Clear -4 1026 99 0 0.45 0 06:57 02.01.2020
5359 Clear -4 1024 98 0 1.19 162 06:39 02.01.2020
5360 Clear -4 1024 98 0 1.19 162 05:37 02.01.2020
5361 Clear -4 1025 99 0 1 76 04:34 02.01.2020
5362 Clear -4 1025 98 0 1 76 03:19 02.01.2020
5363 Clear -4 1025 10 0 0.24 124 02:20 02.01.2020
5364 Clear -3 1025 99 0 0.24 124 01:48 02.01.2020
5365 Clear -4 1025 98 0 0.24 124 01:23 02.01.2020
5366 Clear -3 1025 98 0 0.35 102 00:38 02.01.2020
5367 Clear -3 1026 99 0 0.35 102 00:19 02.01.2020
5368 Clear -3 1028 87 0 0.35 102 23:41 01.01.2020
5369 Clear -3 1026 99 0 1.84 225 23:21 01.01.2020
5370 Clear -3 1026 10 0 1.84 225 22:39 01.01.2020
5371 Clear -2 1028 99 0 0.45 0 22:20 01.01.2020
5372 Clear -2 1026 10 0 1.84 225 21:58 01.01.2020
5373 Clear -2 1026 10 0 1.84 225 21:39 01.01.2020
5374 Clear -2 1026 10 0 1.84 225 21:20 01.01.2020
5375 Clear -2 1026 10 0 1.84 225 20:56 01.01.2020
5376 Clear -2 1026 10 0 1.84 225 20:38 01.01.2020
5377 Clear -2 1026 10 0 1.84 225 20:38 01.01.2020
5378 Clear -2 1029 99 0 0.89 0 20:19 01.01.2020
5379 Clear -2 1027 10 0 2.16 190 19:56 01.01.2020
5380 Clear -2 1027 10 0 2.16 190 19:37 01.01.2020
5381 Clear -2 1027 10 0 2.16 190 19:19 01.01.2020
5382 Clear -1 1027 10 0 2.16 190 18:56 01.01.2020
5383 Clear -1 1027 10 0 2.16 190 18:37 01.01.2020
5384 Clear -1 1027 10 0 2.16 190 18:19 01.01.2020
5385 Clear -1 1027 10 0 2.16 190 17:57 01.01.2020
5386 Clear 0 1027 10 0 2.16 190 17:39 01.01.2020
5387 Clear 0 1028 10 0 2.29 162 17:19 01.01.2020
5388 Clear 0 1028 10 0 2.29 162 16:56 01.01.2020
5389 Clear 1 1030 99 0 2.29 162 16:37 01.01.2020
5390 Clear 2 1028 98 0 2.29 162 16:19 01.01.2020
5391 Clear 3 1030 99 0 2.29 162 15:54 01.01.2020
5392 Clear 3 1027 87 0 2.29 162 15:36 01.01.2020
5393 Clear 3 1028 88 0 2.29 162 15:18 01.01.2020
5394 Clear 3 1028 85 0 2.29 162 14:41 01.01.2020
5395 Clear 4 1030 99 0 0.45 0 14:22 01.01.2020
5396 Clear 4 1028 81 0 2.63 152 13:57 01.01.2020
5397 Clear 4 1028 76 0 2.63 152 13:38 01.01.2020
5398 Clear 4 1028 76 0 2.63 152 13:19 01.01.2020
5399 Clear 4 1029 74 0 2.27 142 12:57 01.01.2020
5400 Clear 4 1029 75 0 2.27 142 12:39 01.01.2020
5401 Clear 5 1029 76 0 2.27 142 12:19 01.01.2020
5402 Clear 4 1032 99 0 0.45 0 11:56 01.01.2020
5403 Clear 3 1030 80 0 2.27 142 11:37 01.01.2020
5404 Clear 3 1030 80 0 1.54 242 11:18 01.01.2020
5405 Clear 2 1030 89 0 1.54 242 10:54 01.01.2020
5406 Clear 0 1030 96 0 1.54 242 10:36 01.01.2020
5407 Clear 1 1030 96 0 1.54 242 10:18 01.01.2020
5408 Clear 0 1030 90 0 1.54 242 09:39 01.01.2020
5409 Clear -1 1030 10 0 1.54 242 09:19 01.01.2020
5410 Clear -1 1031 86 0 0.45 148 08:56 01.01.2020
5411 Clear -1 1031 86 0 0.45 61 08:37 01.01.2020
5412 Clear -1 1031 86 0 0.45 61 08:37 01.01.2020
5413 Clear -1 1031 86 0 0.45 92 08:19 01.01.2020
5414 Clear -1 1030 10 0 2.12 260 07:56 01.01.2020
5415 Clear -1 1032 99 0 0.45 0 07:38 01.01.2020
5416 Clear 0 1030 10 0 2.12 260 06:50 01.01.2020
5417 Clear 0 1030 10 0 2.12 260 06:32 01.01.2020
5418 Clear 0 1030 10 0 2.12 260 05:46 01.01.2020
5419 Clear 1 1030 10 0 2.5 260 04:20 01.01.2020
5420 Clear 1 1030 10 0 2.5 260 03:39 01.01.2020
5421 Clear 1 1030 10 0 2.5 260 03:21 01.01.2020
5422 Clear 1 1029 10 0 2.5 260 02:41 01.01.2020
5423 Clouds 1 1030 10 0 2.91 276 02:22 01.01.2020
5424 Clouds 1 1030 10 0 2.91 276 01:41 01.01.2020
5425 Clouds 1 1030 10 0 2.92 278 01:22 01.01.2020
5426 Clouds 1 1030 10 0 2.92 278 00:45 01.01.2020
5427 Clouds 1 1030 10 0 2.92 278 00:26 01.01.2020
5428 Clouds 1 1034 91 0 2.92 278 23:56 31.12.2019
5429 Clouds 2 1030 99 0 2.92 278 23:36 31.12.2019
5430 Clouds 2 1030 99 0 3.82 284 23:18 31.12.2019
5431 Clouds 3 1030 10 0 3.82 284 22:55 31.12.2019
5432 Clouds 3 1034 92 0 3.82 284 22:36 31.12.2019
5433 Clouds 2 1030 99 0 3.82 284 22:18 31.12.2019
5434 Clouds 3 1030 97 0 3.82 284 21:42 31.12.2019
5435 Clouds 3 1029 96 0 3.82 284 21:24 31.12.2019
5436 Clouds 3 1029 96 0 3.82 284 20:57 31.12.2019
5437 Clouds 3 1029 96 0 3.82 284 20:57 31.12.2019
5438 Clouds 3 1029 95 0 3.82 284 20:38 31.12.2019
5439 Clouds 4 1029 94 0 4.33 281 20:20 31.12.2019
5440 Clouds 4 1031 99 0 0.89 0 19:57 31.12.2019
5441 Clouds 4 1031 99 0 0.89 0 19:39 31.12.2019
5442 Clouds 4 1029 96 0 4.33 281 19:20 31.12.2019
5443 Clouds 4 1029 95 0 4.33 281 18:56 31.12.2019
5444 Clouds 4 1028 96 0 4.33 281 18:38 31.12.2019
5445 Clouds 5 1028 97 0 4.33 281 18:19 31.12.2019
5446 Clouds 5 1028 95 0 4.33 281 17:56 31.12.2019
5447 Clouds 5 1028 95 0 4.33 281 17:56 31.12.2019
5448 Clouds 5 1028 92 0 4.33 281 17:36 31.12.2019
5449 Clouds 6 1030 99 0 0.89 0 17:18 31.12.2019
5450 Clouds 6 1028 90 0 4.73 296 16:56 31.12.2019
5451 Clouds 6 1027 89 0 4.73 296 16:37 31.12.2019
5452 Clouds 7 1027 86 0 4.73 296 16:18 31.12.2019
5453 Clouds 7 1027 84 0 4.73 296 15:56 31.12.2019
5454 Clouds 7 1027 82 0 4.73 296 15:38 31.12.2019
5455 Clouds 7 1026 81 0 4.73 296 15:19 31.12.2019
5456 Clouds 7 1026 80 0 4.73 296 14:55 31.12.2019
5457 Clouds 7 1026 79 0 4.73 296 14:37 31.12.2019
5458 Clouds 8 1026 78 0 6.78 303 14:18 31.12.2019
5459 Clouds 8 1028 90 0 3.13 0 13:56 31.12.2019
5460 Clouds 8 1026 75 0 6.62 302 13:38 31.12.2019
5461 Clouds 7 1027 77 0 0.45 295 13:19 31.12.2019
5462 Clouds 7 1027 92 0 2.24 0 12:55 31.12.2019
5463 Clouds 7 1027 92 0 2.24 0 12:55 31.12.2019
5464 Clouds 7 1027 79 0 0.89 318 12:37 31.12.2019
5465 Clouds 7 1027 79 0 0.89 318 12:37 31.12.2019
5466 Clouds 7 1027 99 0 2.68 0 12:18 31.12.2019
5467 Clouds 6 1028 99 0 2.68 0 11:55 31.12.2019
5468 Clouds 6 1030 87 0 6.62 302 11:37 31.12.2019
5469 Clouds 6 1026 85 0 5.9 285 11:19 31.12.2019
5470 Clouds 6 1026 85 0 5.9 285 11:19 31.12.2019
5471 Clouds 6 1026 85 0 5.9 285 10:56 31.12.2019
5472 Clouds 6 1025 88 0 5.9 285 10:37 31.12.2019
5473 Clouds 5 1027 99 0 4.02 0 10:19 31.12.2019
5474 Clouds 5 1024 90 0 5.9 285 09:57 31.12.2019
5475 Clouds 5 1028 90 0 5.9 285 09:38 31.12.2019
5476 Clouds 5 1024 98 0 5.9 285 09:19 31.12.2019
5477 Clouds 5 1023 10 0 5.9 285 08:43 31.12.2019
5478 Clouds 5 1023 10 0 7.68 297 08:24 31.12.2019
5479 Clouds 5 1023 99 0 7.35 296 07:59 31.12.2019
5480 Clouds 5 1022 99 0 7.35 296 07:41 31.12.2019
5481 Clouds 5 1024 99 0 2.68 0 07:19 31.12.2019
5482 Clouds 5 1024 99 0 2.24 0 06:42 31.12.2019
5483 Clouds 5 1021 10 0 7.35 296 05:54 31.12.2019
5484 Clouds 5 1019 76 0 8.36 286 04:27 31.12.2019
5485 Clouds 5 1021 74 0 2.68 0 03:27 31.12.2019
5486 Clouds 4 1018 53 0 8.36 286 02:43 31.12.2019
5487 Clear 4 1020 54 0 5.21 275 01:53 31.12.2019
5488 Clear 4 1019 51 0 5.21 275 01:34 31.12.2019
5489 Clear 4 1020 44 0 4.33 273 00:58 31.12.2019
5490 Clear 4 1020 99 0 2.68 0 00:39 31.12.2019
5491 Clear 5 1020 99 0 2.68 0 00:21 31.12.2019
5492 Clear 4 1023 60 0 4.33 273 23:56 30.12.2019
5493 Clear 5 1019 33 0 4.33 273 23:37 30.12.2019
5494 Clear 5 1018 31 0 2.82 247 23:19 30.12.2019
5495 Clear 4 1019 58 0 2.82 247 22:56 30.12.2019
5496 Clear 4 1019 58 0 2.82 247 22:37 30.12.2019
5497 Clear 4 1019 51 0 2.82 247 22:18 30.12.2019
5498 Clear 5 1019 41 0 2.82 247 21:56 30.12.2019
5499 Clear 5 1019 35 0 2.82 247 21:38 30.12.2019
5500 Clear 5 1019 32 0 2.82 247 21:18 30.12.2019
5501 Clear 5 1019 31 0 2.82 247 20:56 30.12.2019
5502 Clear 5 1020 32 0 3.11 249 20:37 30.12.2019
5503 Clouds 5 1020 31 0 3.45 237 20:19 30.12.2019
5504 Clouds 5 1022 44 0 3.45 237 19:56 30.12.2019
5505 Clouds 5 1022 43 0 3.45 237 19:37 30.12.2019
5506 Clouds 5 1022 99 0 1.34 0 19:18 30.12.2019
5507 Clouds 5 1023 44 0 0.89 81 18:56 30.12.2019
5508 Clouds 6 1023 45 0 0.45 114 18:37 30.12.2019
5509 Clouds 5 1022 99 0 2.68 0 18:19 30.12.2019
5510 Clouds 5 1021 63 0 3.45 237 17:54 30.12.2019
5511 Clouds 5 1021 60 0 3.45 237 17:36 30.12.2019
5512 Clouds 6 1021 51 0 3.8 227 17:18 30.12.2019
5513 Clouds 7 1021 37 0 3.8 227 16:54 30.12.2019
5514 Clouds 7 1024 99 0 1.79 0 16:36 30.12.2019
5515 Clouds 7 1024 99 0 1.79 0 16:18 30.12.2019
5516 Clouds 7 1023 51 0 3.8 227 15:54 30.12.2019
5517 Clouds 7 1022 41 0 3.8 227 15:36 30.12.2019
5518 Clouds 8 1022 44 0 3.8 227 15:18 30.12.2019
5519 Clouds 8 1022 45 0 3.8 227 14:42 30.12.2019
5520 Clouds 8 1022 45 0 3.42 235 14:19 30.12.2019
5521 Clouds 8 1023 49 0 3.42 235 13:54 30.12.2019
5522 Clouds 7 1023 49 0 3.42 235 13:36 30.12.2019
5523 Clouds 8 1025 51 0 0.89 99 13:18 30.12.2019
5524 Clouds 7 1023 50 0 3.17 236 12:42 30.12.2019
5525 Clouds 7 1026 99 0 1.34 0 12:20 30.12.2019
5526 Clouds 6 1024 52 0 3.17 236 11:58 30.12.2019
5527 Clouds 6 1025 59 0 3.17 236 11:40 30.12.2019
5528 Clouds 4 1025 62 0 3.31 226 11:19 30.12.2019
5529 Clouds 5 1025 64 0 3.31 226 10:44 30.12.2019
5530 Clouds 4 1027 100 0 0.45 0 10:21 30.12.2019
5531 Clouds 4 1025 74 0 3.31 226 09:58 30.12.2019
5532 Clouds 3 1026 69 0 3.31 226 09:40 30.12.2019
5533 Clouds 3 1026 80 0 3.31 226 09:20 30.12.2019
5534 Clouds 3 1026 82 0 3.31 226 08:50 30.12.2019
5535 Clouds 3 1026 82 0 3.31 226 08:50 30.12.2019
5536 Clouds 2 1029 65 0 0.89 98 08:23 30.12.2019
5537 Clouds 2 1026 88 0 2.27 221 07:56 30.12.2019
5538 Clouds 2 1026 86 0 2.27 221 07:37 30.12.2019
5539 Clouds 2 1026 85 0 2.27 221 06:52 30.12.2019
5540 Clouds 1 1029 99 0 0.45 0 04:58 30.12.2019
5541 Clouds 2 1028 88 0 2.32 203 03:57 30.12.2019
5542 Clouds 2 1028 90 0 2.32 203 03:19 30.12.2019
5543 Clouds 1 1028 87 0 2.32 203 02:40 30.12.2019
5544 Clouds 1 1029 90 0 2.45 209 01:55 30.12.2019
5545 Clouds 1 1029 92 0 2.45 209 01:23 30.12.2019
5546 Clouds 1 1031 81 0 0.45 122 00:45 30.12.2019
5547 Clouds 1 1032 99 0 0.45 0 00:19 30.12.2019
5548 Clouds 1 1030 96 0 1.88 223 23:39 29.12.2019
5549 Clouds 1 1032 99 0 0.89 0 23:21 29.12.2019
5550 Clouds 1 1032 99 0 0.89 0 23:21 29.12.2019
5551 Clouds 1 1030 95 0 2.09 211 22:56 29.12.2019
5552 Clouds 1 1030 95 0 2.09 211 22:37 29.12.2019
5553 Clouds 1 1031 93 0 2.09 211 22:18 29.12.2019
5554 Clouds 1 1031 93 0 2.09 211 21:43 29.12.2019
5555 Clouds 1 1031 91 0 2.09 211 21:21 29.12.2019
5556 Clouds 1 1034 82 0 2.09 211 20:58 29.12.2019
5557 Clouds 1 1033 99 0 1.34 0 20:39 29.12.2019
5558 Clouds 1 1031 91 0 1.21 173 20:21 29.12.2019
5559 Clouds 1 1031 92 0 1.21 173 19:59 29.12.2019
5560 Clouds 1 1031 92 0 1.21 173 19:40 29.12.2019
5561 Clouds 0 1031 93 0 1.21 173 19:21 29.12.2019
5562 Clouds 0 1032 92 0 1.21 173 18:58 29.12.2019
5563 Clouds 0 1032 94 0 1.21 173 18:39 29.12.2019
5564 Clouds 0 1032 95 0 1.21 173 18:20 29.12.2019
5565 Clouds 0 1032 95 0 1.21 173 17:58 29.12.2019
5566 Clouds 0 1032 95 0 1.21 173 17:58 29.12.2019
5567 Clouds 0 1032 95 0 1.21 173 17:39 29.12.2019
5568 Clouds 0 1032 93 0 1.95 150 17:20 29.12.2019
5569 Clouds 0 1032 93 0 1.95 150 16:57 29.12.2019
5570 Clouds 1 1032 91 0 1.95 150 16:39 29.12.2019
5571 Clouds 1 1032 90 0 1.95 150 16:21 29.12.2019
5572 Clouds 1 1033 89 0 1.95 150 15:59 29.12.2019
5573 Clouds 1 1033 89 0 1.95 150 15:40 29.12.2019
5574 Clouds 1 1033 87 0 1.95 150 15:20 29.12.2019
5575 Clouds 2 1033 86 0 1.95 150 14:58 29.12.2019
5576 Clouds 2 1033 82 0 1.95 150 14:39 29.12.2019
5577 Clouds 2 1033 83 0 1.85 151 14:19 29.12.2019
5578 Clouds 2 1035 99 0 4.47 0 13:59 29.12.2019
5579 Clouds 2 1033 80 0 1.85 151 13:40 29.12.2019
5580 Clouds 2 1033 78 0 1.79 159 13:22 29.12.2019
5581 Clouds 2 1034 78 0 1.79 159 12:57 29.12.2019
5582 Clouds 2 1034 78 0 1.79 159 12:38 29.12.2019
5583 Clouds 2 1034 72 0 1.79 159 12:20 29.12.2019
5584 Clouds 0 1035 81 0 1.79 159 11:41 29.12.2019
5585 Clouds 0 1035 83 0 2.03 155 11:21 29.12.2019
5586 Clouds -1 1035 85 0 2.03 155 10:57 29.12.2019
5587 Clouds -1 1035 85 0 2.03 155 10:39 29.12.2019
5588 Clouds -1 1035 91 0 2.03 155 10:18 29.12.2019
5589 Clouds -2 1035 85 0 2.03 155 09:46 29.12.2019
5590 Clouds -3 1037 99 0 0.45 0 09:28 29.12.2019
5591 Clouds -4 1035 10 0 2.03 155 08:56 29.12.2019
5592 Clouds -4 1037 99 0 0.45 0 08:38 29.12.2019
5593 Clouds -4 1038 84 0 0.45 90 08:20 29.12.2019
5594 Clouds -4 1035 10 0 3.35 162 07:44 29.12.2019
5595 Clouds -4 1035 98 0 3.35 162 07:25 29.12.2019
5596 Clouds -4 1035 99 0 3.35 162 06:42 29.12.2019
5597 Clouds -4 1035 10 0 3.35 162 06:19 29.12.2019
5598 Clouds -4 1035 10 0 3.35 162 05:44 29.12.2019
5599 Clouds -4 1036 96 0 2.23 164 04:33 29.12.2019
5600 Clouds -4 1037 97 0 2.23 164 03:36 29.12.2019
5601 Clouds -3 1036 90 0 2.23 164 02:36 29.12.2019
5602 Clouds -3 1036 90 0 3.24 161 02:18 29.12.2019
5603 Clouds -3 1036 89 0 3.24 161 01:31 29.12.2019
5604 Clouds -2 1037 92 0 3.48 166 00:51 29.12.2019
5605 Clouds -2 1037 93 0 3.48 166 00:25 29.12.2019
5606 Clouds -2 1037 90 0 3.48 166 23:56 28.12.2019
5607 Clouds -2 1038 92 0 3.48 166 23:37 28.12.2019
5608 Clouds -2 1038 93 0 2.67 157 23:18 28.12.2019
5609 Clouds -2 1038 93 0 2.67 157 23:18 28.12.2019
5610 Clouds -2 1038 93 0 2.67 157 23:18 28.12.2019
5611 Clouds -2 1038 91 0 2.67 157 22:38 28.12.2019
5612 Clouds -2 1038 91 0 2.67 157 22:38 28.12.2019
5613 Clouds -2 1037 80 0 2.67 157 22:19 28.12.2019
5614 Clouds -1 1038 90 0 2.67 157 21:57 28.12.2019
5615 Clouds -1 1038 90 0 2.67 157 21:57 28.12.2019
5616 Clouds -2 1039 95 0 2.67 157 21:38 28.12.2019
5617 Clouds -2 1039 95 0 2.67 157 21:38 28.12.2019
5618 Clouds -1 1038 79 0 2.67 157 21:20 28.12.2019
5619 Clouds -1 1039 97 0 2.67 157 20:55 28.12.2019
5620 Clouds -1 1039 95 0 2.67 157 20:36 28.12.2019
5621 Clouds -1 1039 91 0 1.73 142 20:18 28.12.2019
5622 Clouds -1 1039 95 0 1.73 142 19:54 28.12.2019
5623 Clouds -1 1037 78 0 1.73 142 19:36 28.12.2019
5624 Clouds -1 1037 77 0 1.73 142 19:18 28.12.2019
5625 Clouds 0 1038 10 0 1.73 142 18:55 28.12.2019
5626 Clouds 0 1041 99 0 1.73 142 18:37 28.12.2019
5627 Clouds 0 1038 73 0 1.73 142 18:18 28.12.2019
5628 Clouds 0 1041 99 0 0.45 0 17:42 28.12.2019
5629 Clouds 0 1041 99 0 0.65 121 17:21 28.12.2019
5630 Clouds 1 1038 96 0 0.65 121 16:58 28.12.2019
5631 Clouds 1 1038 91 0 0.65 121 16:40 28.12.2019
5632 Clouds 1 1038 89 0 0.65 121 16:21 28.12.2019
5633 Clouds 2 1038 84 0 0.65 121 15:43 28.12.2019
5634 Clouds 2 1038 92 0 0.65 121 15:23 28.12.2019
5635 Clouds 2 1038 69 0 0.65 121 14:56 28.12.2019
5636 Clouds 2 1038 87 0 0.65 121 14:37 28.12.2019
5637 Clear 2 1038 90 0 1.2 33 14:19 28.12.2019
5638 Clear 2 1038 89 0 1.2 33 13:42 28.12.2019
5639 Clear 2 1038 89 0 1.2 33 13:21 28.12.2019
5640 Clear 2 1038 96 0 1.04 38 12:59 28.12.2019
5641 Clear 2 1039 95 0 1.04 38 12:40 28.12.2019
5642 Clear 2 1039 95 0 1.04 38 12:21 28.12.2019
5643 Clear 2 1038 94 0 1.04 38 11:54 28.12.2019
5644 Clear 1 1038 94 0 1.04 38 11:36 28.12.2019
5645 Clear 1 1038 98 0 0.96 356 11:18 28.12.2019
5646 Clear 0 1038 98 0 0.96 356 10:41 28.12.2019
5647 Clear 0 1038 98 0 0.96 356 10:20 28.12.2019
5648 Clear 0 1038 99 0 0.96 356 09:55 28.12.2019
5649 Clear 0 1038 99 0 0.96 356 09:55 28.12.2019
5650 Clear -1 1038 10 0 0.96 356 09:37 28.12.2019
5651 Clear -1 1038 10 0 0.96 356 09:18 28.12.2019
5652 Clear -1 1037 10 0 0.96 356 08:43 28.12.2019
5653 Clear -1 1037 10 0 0.96 356 08:25 28.12.2019
5654 Clear -1 1037 10 0 1.4 350 07:49 28.12.2019
5655 Clear -1 1037 10 0 1.4 350 07:25 28.12.2019
5656 Clear -1 1036 10 0 1.4 350 05:52 28.12.2019
5657 Clear -1 1036 10 0 2.01 334 03:52 28.12.2019
5658 Clear -1 1036 10 0 2.01 334 03:33 28.12.2019
5659 Clear -1 1038 99 0 0.45 0 02:43 28.12.2019
5660 Clouds -1 1035 10 0 1.81 25 01:59 28.12.2019
5661 Clouds -1 1034 10 0 2.04 12 01:25 28.12.2019
5662 Clouds 0 1033 87 0 2.04 12 00:54 28.12.2019
5663 Clouds 0 1036 99 0 0.45 0 00:36 28.12.2019
5664 Clouds 0 1034 10 0 2.04 12 00:18 28.12.2019
5665 Clouds 1 1034 10 0 2.04 12 23:42 27.12.2019
5666 Clouds 1 1034 10 0 2.07 7 23:19 27.12.2019
5667 Clouds 1 1033 10 0 2.07 7 22:57 27.12.2019
5668 Clouds 1 1033 10 0 2.07 7 22:38 27.12.2019
5669 Clouds 2 1033 86 0 2.07 7 22:20 27.12.2019
5670 Clouds 2 1033 10 0 2.07 7 21:55 27.12.2019
5671 Clouds 2 1033 10 0 2.07 7 21:36 27.12.2019
5672 Clouds 2 1032 10 0 2.07 7 21:18 27.12.2019
5673 Clouds 2 1032 86 0 2.07 7 20:41 27.12.2019
5674 Clouds 2 1032 10 0 1.98 345 20:22 27.12.2019
5675 Clouds 2 1031 10 0 1.98 345 19:42 27.12.2019
5676 Clouds 3 1033 99 0 0.45 0 19:21 27.12.2019
5677 Clouds 3 1030 10 0 1.98 345 18:59 27.12.2019
5678 Clouds 3 1030 99 0 1.98 345 18:39 27.12.2019
5679 Clouds 3 1032 99 0 0.45 0 18:20 27.12.2019
5680 Clouds 3 1029 96 0 1.98 345 17:57 27.12.2019
5681 Clouds 3 1029 96 0 1.98 345 17:39 27.12.2019
5682 Clear 3 1029 93 0 2.61 354 17:19 27.12.2019
5683 Clear 3 1029 93 0 2.61 354 16:58 27.12.2019
5684 Clear 3 1028 90 0 2.61 354 16:38 27.12.2019
5685 Clear 3 1028 89 0 2.61 354 16:19 27.12.2019
5686 Clear 3 1028 86 0 2.61 354 15:44 27.12.2019
5687 Clear 3 1028 83 0 2.61 354 15:22 27.12.2019
5688 Clear 4 1027 79 0 2.61 354 14:58 27.12.2019
5689 Clear 4 1027 79 0 2.61 354 14:39 27.12.2019
5690 Clouds 4 1027 85 0 3.26 8 14:20 27.12.2019
5691 Clouds 4 1027 88 0 3.26 8 13:55 27.12.2019
5692 Clouds 4 1026 89 0 3.26 8 13:37 27.12.2019
5693 Clouds 4 1026 76 0 2.95 18 13:18 27.12.2019
5694 Clouds 4 1026 89 0 2.95 18 12:40 27.12.2019
5695 Clouds 4 1026 89 0 2.95 18 12:22 27.12.2019
5696 Clouds 4 1025 90 0 2.95 18 11:46 27.12.2019
5697 Clouds 4 1026 82 0 0.45 270 11:26 27.12.2019
5698 Clouds 4 1026 82 0 0.45 270 11:26 27.12.2019
5699 Clear 4 1025 88 0 2.47 8 10:59 27.12.2019
5700 Clear 4 1027 99 0 2.47 8 10:40 27.12.2019
5701 Clear 3 1027 99 0 2.47 8 10:22 27.12.2019
5702 Clear 3 1023 10 0 2.47 8 09:46 27.12.2019
5703 Clear 3 1023 10 0 2.47 8 09:22 27.12.2019
5704 Clear 3 1023 87 0 2.47 8 08:59 27.12.2019
5705 Clear 3 1025 99 0 2.47 8 08:38 27.12.2019
5706 Clouds 2 1021 10 0 1.11 7 07:57 27.12.2019
5707 Clouds 2 1021 10 0 1.11 7 07:38 27.12.2019
5708 Clouds 2 1021 10 0 1.11 7 06:43 27.12.2019
5709 Clouds 2 1021 10 0 1.11 7 06:22 27.12.2019
5710 Clouds 2 1020 10 0 0.56 138 04:32 27.12.2019
5711 Clouds 3 1019 10 0 0.56 138 02:28 27.12.2019
5712 Clouds 3 1019 10 0 0.62 145 01:42 27.12.2019
5713 Clouds 3 1022 99 0 0.62 145 01:20 27.12.2019
5714 Clouds 4 1019 10 0 1.22 166 00:46 27.12.2019
5715 Clouds 4 1019 10 0 1.22 166 00:25 27.12.2019
5716 Clouds 4 1019 10 0 1.22 166 23:56 26.12.2019
5717 Clouds 4 1019 10 0 1.22 166 23:37 26.12.2019
5718 Clouds 4 1019 10 0 1.03 235 23:19 26.12.2019
5719 Clouds 4 1019 10 0 1.03 235 22:40 26.12.2019
5720 Clouds 4 1022 99 0 0.89 0 22:18 26.12.2019
5721 Clouds 4 1019 10 0 1.03 235 21:40 26.12.2019
5722 Clouds 4 1019 10 0 1.03 235 21:21 26.12.2019
5723 Clouds 4 1019 10 0 1.03 235 20:58 26.12.2019
5724 Clouds 4 1019 10 0 1.03 235 20:39 26.12.2019
5725 Clouds 4 1019 10 0 1.58 260 20:21 26.12.2019
5726 Clouds 4 1019 10 0 1.58 260 19:56 26.12.2019
5727 Clouds 4 1021 99 0 0.89 0 19:38 26.12.2019
5728 Clouds 4 1021 99 0 0.45 0 19:20 26.12.2019
5729 Clouds 4 1019 10 0 1.58 260 18:57 26.12.2019
5730 Clouds 4 1019 10 0 1.58 260 18:37 26.12.2019
5731 Clouds 5 1019 10 0 1.58 260 18:18 26.12.2019
5732 Clouds 5 1019 10 0 1.58 260 17:42 26.12.2019
5733 Clouds 5 1019 10 0 3 294 17:22 26.12.2019
5734 Clouds 5 1019 10 0 3 294 16:54 26.12.2019
5735 Clouds 5 1019 10 0 3 294 16:36 26.12.2019
5736 Clouds 6 1021 99 0 0.89 0 16:18 26.12.2019
5737 Clouds 6 1020 84 0 3 294 15:40 26.12.2019
5738 Clouds 6 1019 99 0 3 294 15:19 26.12.2019
5739 Clouds 6 1021 83 0 3 294 14:54 26.12.2019
5740 Clouds 6 1019 96 0 3 294 14:36 26.12.2019
5741 Clouds 6 1019 94 0 4.95 288 14:18 26.12.2019
5742 Clouds 6 1019 92 0 4.95 288 13:42 26.12.2019
5743 Clouds 7 1019 90 0 4.95 288 13:20 26.12.2019
5744 Clouds 7 1020 84 0 0.89 341 12:56 26.12.2019
5745 Clouds 7 1019 87 0 4.91 288 12:37 26.12.2019
5746 Clouds 6 1019 92 0 4.91 288 12:19 26.12.2019
5747 Clouds 6 1020 85 0 0.45 128 11:56 26.12.2019
5748 Clouds 6 1020 96 0 4.91 288 11:37 26.12.2019
5749 Clouds 6 1020 96 0 4.89 280 11:19 26.12.2019
5750 Clouds 5 1020 99 0 4.89 280 10:41 26.12.2019
5751 Clouds 5 1019 96 0 4.89 280 10:18 26.12.2019
5752 Clouds 5 1019 99 0 4.89 280 09:45 26.12.2019
5753 Clouds 4 1019 10 0 4.89 280 09:26 26.12.2019
5754 Clouds 4 1019 10 0 4.89 280 08:42 26.12.2019
5755 Clouds 4 1019 10 0 4.19 286 08:24 26.12.2019
5756 Clouds 4 1019 10 0 4.02 286 07:53 26.12.2019
5757 Clouds 4 1019 86 0 0.45 90 07:27 26.12.2019
5758 Clouds 4 1019 10 0 4.02 286 06:53 26.12.2019
5759 Clouds 4 1019 10 0 4.02 286 06:32 26.12.2019
5760 Clouds 4 1019 87 0 4.02 286 05:45 26.12.2019
5761 Clouds 4 1021 99 0 1.34 0 04:57 26.12.2019
5762 Clouds 4 1018 10 0 4.87 293 04:30 26.12.2019
5763 Clouds 4 1019 10 0 4.87 293 02:58 26.12.2019
5764 Clouds 5 1019 10 0 4.87 293 02:34 26.12.2019
5765 Clouds 5 1018 10 0 4 286 01:51 26.12.2019
5766 Clouds 5 1018 10 0 4.26 295 01:33 26.12.2019
5767 Clouds 5 1018 10 0 4.26 295 00:50 26.12.2019
5768 Clouds 5 1018 10 0 4.26 295 00:27 26.12.2019
5769 Clouds 5 1018 10 0 4.26 295 23:59 25.12.2019
5770 Clouds 5 1018 10 0 4.26 295 23:40 25.12.2019
5771 Rain 5 1020 99 0 1.79 0 23:21 25.12.2019
5772 Rain 5 1017 10 0 4.51 294 22:59 25.12.2019
5773 Rain 5 1017 10 0 4.51 294 22:40 25.12.2019
5774 Rain 5 1017 10 0 4.51 294 22:22 25.12.2019
5775 Rain 5 1017 10 0 4.51 294 21:59 25.12.2019
5776 Rain 5 1017 10 0 4.51 294 21:40 25.12.2019
5777 Rain 5 1017 10 0 4.51 294 21:21 25.12.2019
5778 Rain 5 1017 10 0 4.51 294 21:21 25.12.2019
5779 Rain 6 1016 10 0 4.51 294 20:57 25.12.2019
5780 Clouds 6 1019 99 0 0.89 0 20:39 25.12.2019
5781 Rain 6 1017 86 0 4.9 290 20:18 25.12.2019
5782 Rain 6 1019 99 0 0.89 0 20:18 25.12.2019
5783 Rain 6 1017 86 0 4.9 290 20:18 25.12.2019
5784 Rain 6 1016 10 0 4.9 290 19:44 25.12.2019
5785 Rain 6 1016 10 0 4.9 290 19:25 25.12.2019
5786 Rain 6 1015 10 0 4.9 290 18:59 25.12.2019
5787 Rain 6 1016 87 0 4.9 290 18:38 25.12.2019
5788 Rain 6 1015 10 0 4.9 290 18:20 25.12.2019
5789 Rain 6 1015 10 0 4.9 290 17:43 25.12.2019
5790 Clouds 6 1015 10 0 3.85 298 17:21 25.12.2019
5791 Clouds 6 1014 10 0 3.85 298 16:59 25.12.2019
5792 Clouds 6 1014 10 0 3.85 298 16:39 25.12.2019
5793 Clouds 6 1014 10 0 3.85 298 16:19 25.12.2019
5794 Clouds 6 1014 10 0 3.85 298 15:57 25.12.2019
5795 Clouds 6 1014 10 0 3.85 298 15:57 25.12.2019
5796 Clouds 6 1013 10 0 3.85 298 15:39 25.12.2019
5797 Clouds 6 1015 99 0 2.24 0 15:20 25.12.2019
5798 Clouds 6 1013 10 0 3.85 298 14:58 25.12.2019
5799 Clouds 6 1012 10 0 3.85 298 14:40 25.12.2019
5800 Clouds 6 1013 85 0 2.74 329 14:21 25.12.2019
5801 Clouds 6 1013 85 0 2.74 329 14:21 25.12.2019
5802 Clouds 6 1012 10 0 2.74 329 13:57 25.12.2019
5803 Clouds 6 1011 10 0 2.74 329 13:38 25.12.2019
5804 Rain 6 1011 99 0 3.64 312 13:19 25.12.2019
5805 Rain 6 1011 99 0 3.64 312 12:40 25.12.2019
5806 Rain 6 1010 99 0 3.64 312 12:20 25.12.2019
5807 Rain 6 1010 10 0 3.64 312 11:56 25.12.2019
5808 Rain 6 1010 10 0 3.64 312 11:38 25.12.2019
5809 Rain 6 1010 10 0 3.63 342 11:18 25.12.2019
5810 Rain 6 1009 10 0 3.63 342 10:38 25.12.2019
5811 Rain 6 1009 10 0 3.63 342 10:20 25.12.2019
5812 Rain 5 1008 10 0 3.63 342 09:51 25.12.2019
5813 Rain 5 1008 10 0 3.63 342 09:32 25.12.2019
5814 Rain 5 1007 10 0 3.63 342 08:51 25.12.2019
5815 Rain 5 1007 10 0 3.74 310 08:31 25.12.2019
5816 Rain 5 1007 10 0 4.1 340 07:52 25.12.2019
5817 Rain 5 1006 10 0 4.1 340 07:34 25.12.2019
5818 Rain 6 1006 10 0 4.1 340 06:58 25.12.2019
5819 Rain 6 1005 10 0 4.1 340 06:23 25.12.2019
5820 Rain 6 1008 99 0 0.89 0 05:31 25.12.2019
5821 Rain 6 1006 87 0 4.95 293 04:39 25.12.2019
5822 Rain 6 1005 10 0 4.95 293 04:20 25.12.2019
5823 Rain 6 1004 10 0 4.95 293 03:43 25.12.2019
5824 Rain 7 1004 10 0 4.95 293 02:56 25.12.2019
5825 Rain 7 1003 10 0 6.39 281 02:28 25.12.2019
5826 Rain 7 1003 10 0 6.2 278 01:26 25.12.2019
5827 Rain 7 1002 10 0 6.2 278 00:56 25.12.2019
5828 Rain 7 1003 86 0 6.2 278 00:33 25.12.2019
5829 Rain 7 1004 99 0 0.89 0 23:59 24.12.2019
5830 Rain 7 1002 10 0 6.2 278 23:39 24.12.2019
5831 Rain 7 1002 10 0 6.2 278 23:39 24.12.2019
5832 Rain 7 1002 10 0 5.54 263 23:20 24.12.2019
5833 Rain 7 1001 10 0 5.54 263 22:42 24.12.2019
5834 Rain 7 1001 10 0 5.54 263 22:23 24.12.2019
5835 Rain 7 1001 10 0 5.54 263 21:57 24.12.2019
5836 Rain 6 1001 10 0 5.54 263 21:37 24.12.2019
5837 Rain 6 1001 10 0 5.54 263 21:19 24.12.2019
5838 Rain 6 1000 10 0 5.54 263 20:41 24.12.2019
5839 Rain 6 1000 10 0 6.82 264 20:22 24.12.2019
5840 Rain 6 1000 10 0 6.82 264 19:47 24.12.2019
5841 Rain 5 1000 10 0 6.82 264 19:22 24.12.2019
5842 Rain 5 1000 10 0 6.82 264 18:59 24.12.2019
5843 Rain 6 1000 10 0 6.82 264 18:40 24.12.2019
5844 Rain 6 1000 10 0 6.82 264 18:18 24.12.2019
5845 Rain 6 1001 10 0 6.82 264 17:43 24.12.2019
5846 Rain 6 1001 10 0 6.08 178 17:22 24.12.2019
5847 Rain 6 1001 10 0 6.08 178 16:58 24.12.2019
5848 Rain 6 1001 10 0 6.08 178 16:39 24.12.2019
5849 Rain 6 1001 10 0 6.08 178 16:39 24.12.2019
5850 Rain 6 1001 10 0 6.08 178 16:21 24.12.2019
5851 Rain 7 1001 10 0 6.08 178 15:57 24.12.2019
5852 Rain 7 1001 99 0 6.08 178 15:37 24.12.2019
5853 Rain 7 1004 99 0 0.89 0 15:19 24.12.2019
5854 Rain 7 1003 81 0 0.89 102 14:58 24.12.2019
5855 Rain 7 1002 85 0 6.08 178 14:40 24.12.2019
5856 Rain 7 1002 85 0 6.08 178 14:40 24.12.2019
5857 Clouds 7 1005 99 0 0.89 0 14:21 24.12.2019
5858 Clouds 8 1003 83 0 4.88 209 13:56 24.12.2019
5859 Clouds 8 1003 83 0 4.88 209 13:38 24.12.2019
5860 Clouds 8 1003 82 0 4.99 213 13:20 24.12.2019
5861 Clouds 8 1004 76 0 4.99 213 12:56 24.12.2019
5862 Clouds 8 1004 76 0 4.99 213 12:56 24.12.2019
5863 Clouds 8 1004 76 0 4.99 213 12:38 24.12.2019
5864 Clouds 7 1005 81 0 4.99 213 12:19 24.12.2019
5865 Clouds 7 1005 84 0 4.99 213 11:56 24.12.2019
5866 Clouds 7 1005 83 0 4.99 213 11:37 24.12.2019
5867 Clouds 7 1006 78 0 4.54 225 11:19 24.12.2019
5868 Clouds 6 1006 84 0 4.54 225 10:56 24.12.2019
5869 Clouds 6 1007 85 0 4.54 225 10:38 24.12.2019
5870 Clouds 6 1009 85 0 0.89 115 10:19 24.12.2019
5871 Clouds 6 1007 87 0 4.54 225 09:56 24.12.2019
5872 Clouds 5 1007 80 0 4.54 225 09:38 24.12.2019
5873 Clouds 5 1010 99 0 0.89 0 09:20 24.12.2019
5874 Clouds 5 1010 99 0 0.45 0 08:47 24.12.2019
5875 Clouds 5 1008 99 0 4.54 225 08:24 24.12.2019
5876 Clouds 5 1008 96 0 4.13 230 07:56 24.12.2019
5877 Clouds 5 1008 94 0 4.13 230 07:38 24.12.2019
5878 Clouds 5 1008 93 0 4.13 230 07:20 24.12.2019
5879 Clouds 5 1010 99 0 0.89 0 06:39 24.12.2019
5880 Clouds 5 1008 95 0 4.13 230 06:19 24.12.2019
5881 Clouds 5 1008 93 0 4.13 230 05:50 24.12.2019
5882 Clouds 5 1009 84 0 0.89 48 05:19 24.12.2019
5883 Clouds 5 1010 99 0 1.79 0 04:21 24.12.2019
5884 Clouds 5 1008 93 0 4.53 258 03:46 24.12.2019
5885 Clouds 6 1008 91 0 4.53 258 02:29 24.12.2019
5886 Clouds 6 1007 91 0 4.71 264 01:54 24.12.2019
5887 Clouds 6 1007 93 0 4.77 263 01:26 24.12.2019
5888 Clouds 6 1007 95 0 4.77 263 00:58 24.12.2019
5889 Clouds 6 1007 94 0 4.77 263 00:39 24.12.2019
5890 Clouds 7 1007 92 0 4.77 263 00:20 24.12.2019
5891 Clouds 7 1007 90 0 4.77 263 23:43 23.12.2019
5892 Clouds 7 1006 89 0 4.77 263 23:24 23.12.2019
5893 Clouds 7 1006 91 0 5.46 267 22:57 23.12.2019
5894 Clouds 7 1006 93 0 5.46 267 22:38 23.12.2019
5895 Clouds 7 1006 93 0 5.46 267 22:38 23.12.2019
5896 Clouds 7 1008 99 0 1.34 0 22:20 23.12.2019
5897 Clouds 7 1005 88 0 5.46 267 21:56 23.12.2019
5898 Clouds 7 1005 88 0 5.46 267 21:37 23.12.2019
5899 Clouds 7 1005 89 0 5.46 267 21:19 23.12.2019
5900 Clouds 6 1005 89 0 5.46 267 20:59 23.12.2019
5901 Clouds 6 1005 91 0 5.46 267 20:40 23.12.2019
5902 Clouds 6 1005 93 0 4.64 260 20:19 23.12.2019
5903 Clouds 6 1004 95 0 4.01 261 19:58 23.12.2019
5904 Clouds 6 1006 99 0 0.89 0 19:40 23.12.2019
5905 Clouds 7 1006 99 0 0.45 0 19:21 23.12.2019
5906 Clouds 7 1008 85 0 4.01 261 18:58 23.12.2019
5907 Clouds 7 1008 85 0 4.01 261 18:58 23.12.2019
5908 Clouds 7 1005 99 0 0.89 0 18:39 23.12.2019
5909 Clouds 6 1003 96 0 4.01 261 18:21 23.12.2019
5910 Clouds 6 1003 98 0 4.01 261 17:59 23.12.2019
5911 Clouds 7 1005 81 0 0.89 133 17:40 23.12.2019
5912 Rain 7 1002 93 0 6.18 280 17:19 23.12.2019
5913 Rain 7 1002 93 0 6.18 280 17:19 23.12.2019
5914 Rain 7 1002 94 0 6.18 280 16:58 23.12.2019
5915 Rain 7 1004 99 0 2.24 0 16:40 23.12.2019
5916 Rain 8 1001 91 0 6.18 280 16:19 23.12.2019
5917 Rain 8 1001 91 0 6.18 280 15:58 23.12.2019
5918 Rain 8 1001 91 0 6.18 280 15:37 23.12.2019
5919 Rain 8 1001 92 0 6.18 280 15:19 23.12.2019
5920 Rain 8 1002 78 0 0.45 258 14:57 23.12.2019
5921 Rain 9 1002 78 0 0.89 172 14:39 23.12.2019
5922 Clouds 9 999 78 0 7.04 280 14:19 23.12.2019
5923 Clouds 9 999 77 0 7.04 280 13:57 23.12.2019
5924 Clouds 9 1000 79 0 0.89 67 13:39 23.12.2019
5925 Clouds 9 999 73 0 6.77 280 13:39 23.12.2019
5926 Clouds 9 999 80 0 1.34 14 13:20 23.12.2019
5927 Clouds 8 1001 96 0 1.79 0 12:55 23.12.2019
5928 Clouds 8 998 77 0 6.77 280 12:36 23.12.2019
5929 Clouds 8 998 80 0 6.77 280 12:18 23.12.2019
5930 Clouds 8 998 75 0 6.77 280 11:42 23.12.2019
5931 Clouds 8 998 75 0 6.77 280 11:24 23.12.2019
5932 Clouds 8 997 78 0 5.81 279 10:56 23.12.2019
5933 Clouds 8 997 80 0 5.81 279 10:38 23.12.2019
5934 Clouds 8 997 80 0 5.81 279 10:38 23.12.2019
5935 Clouds 8 997 82 0 5.81 279 10:20 23.12.2019
5936 Clouds 7 996 87 0 5.81 279 09:58 23.12.2019
5937 Clouds 7 996 88 0 5.81 279 09:39 23.12.2019
5938 Clouds 7 996 88 0 5.81 279 09:39 23.12.2019
5939 Clouds 7 995 92 0 5.81 279 09:20 23.12.2019
5940 Clouds 7 995 93 0 5.81 279 08:55 23.12.2019
5941 Clouds 7 995 96 0 5.81 279 08:37 23.12.2019
5942 Rain 7 995 97 0 7.45 275 08:18 23.12.2019
5943 Rain 7 996 99 0 1.34 0 07:43 23.12.2019
5944 Rain 7 994 87 0 0.45 313 07:19 23.12.2019
5945 Rain 7 993 10 0 6.99 272 06:50 23.12.2019
5946 Rain 7 992 10 0 6.99 272 06:23 23.12.2019
5947 Rain 7 992 10 0 6.99 272 05:49 23.12.2019
5948 Clouds 7 991 10 0 6.76 263 05:19 23.12.2019
5949 Clouds 7 990 10 0 6.76 263 04:20 23.12.2019
5950 Clouds 7 988 95 0 6.76 263 02:55 23.12.2019
5951 Clouds 7 988 95 0 6.76 263 02:25 23.12.2019
5952 Clouds 6 987 97 0 3.88 244 01:55 23.12.2019
5953 Clouds 6 987 10 0 3.88 244 01:36 23.12.2019
5954 Rain 6 987 10 0 3.83 239 01:18 23.12.2019
5955 Rain 6 988 87 0 0.45 125 00:35 23.12.2019
5956 Rain 6 986 10 0 3.83 239 23:57 22.12.2019
5957 Rain 6 986 10 0 3.83 239 23:39 22.12.2019
5958 Rain 6 988 99 0 0.45 0 23:20 22.12.2019
5959 Rain 6 985 10 0 3.15 187 22:58 22.12.2019
5960 Rain 5 985 10 0 3.15 187 22:38 22.12.2019
5961 Rain 5 985 10 0 3.15 187 22:19 22.12.2019
5962 Rain 5 985 10 0 3.15 187 21:57 22.12.2019
5963 Rain 5 988 99 0 3.15 187 21:39 22.12.2019
5964 Rain 5 985 10 0 3.15 187 21:20 22.12.2019
5965 Rain 5 984 10 0 3.15 187 20:56 22.12.2019
5966 Rain 5 987 99 0 3.15 187 20:38 22.12.2019
5967 Clouds 5 984 10 0 3.44 151 20:18 22.12.2019
5968 Clouds 5 987 87 0 3.44 151 19:54 22.12.2019
5969 Clouds 5 984 98 0 3.44 151 19:36 22.12.2019
5970 Clouds 5 984 98 0 3.44 151 19:18 22.12.2019
5971 Clouds 5 984 98 0 3.44 151 18:39 22.12.2019
5972 Clouds 5 984 98 0 3.44 151 18:39 22.12.2019
5973 Clouds 5 984 97 0 3.44 151 18:21 22.12.2019
5974 Clouds 5 984 96 0 3.44 151 17:55 22.12.2019
5975 Clouds 5 983 96 0 3.44 151 17:37 22.12.2019
5976 Clouds 5 984 97 0 3.72 141 17:18 22.12.2019
5977 Clouds 5 983 98 0 3.72 141 16:56 22.12.2019
5978 Clouds 5 986 99 0 3.72 141 16:37 22.12.2019
5979 Clouds 5 983 96 0 3.72 141 16:19 22.12.2019
5980 Clouds 5 983 96 0 3.72 141 15:55 22.12.2019
5981 Clouds 5 985 86 0 3.72 141 15:36 22.12.2019
5982 Clouds 5 983 95 0 3.72 141 15:18 22.12.2019
5983 Clouds 5 986 99 0 3.72 141 14:54 22.12.2019
5984 Clouds 5 983 94 0 3.72 141 14:36 22.12.2019
5985 Clouds 5 983 94 0 3.83 158 14:18 22.12.2019
5986 Clouds 5 983 92 0 3.83 158 13:54 22.12.2019
5987 Clouds 5 983 93 0 3.83 158 13:36 22.12.2019
5988 Clouds 5 983 94 0 3.83 158 13:18 22.12.2019
5989 Clouds 4 986 86 0 3.36 158 12:54 22.12.2019
5990 Clouds 5 983 94 0 3.36 158 12:36 22.12.2019
5991 Clouds 4 983 94 0 3.36 158 12:18 22.12.2019
5992 Clouds 4 983 97 0 3.36 158 11:39 22.12.2019
5993 Clouds 3 983 98 0 4.34 148 11:20 22.12.2019
5994 Clouds 3 983 98 0 4.34 148 10:58 22.12.2019
5995 Clouds 3 983 99 0 4.34 148 10:40 22.12.2019
5996 Clouds 3 983 10 0 4.34 148 10:21 22.12.2019
5997 Clouds 2 983 10 0 4.34 148 09:59 22.12.2019
5998 Clouds 2 986 99 0 4.34 148 09:40 22.12.2019
5999 Clouds 2 983 10 0 4.34 148 09:21 22.12.2019
6000 Clouds 2 986 99 0 4.34 148 08:59 22.12.2019
6001 Clouds 2 983 10 0 4.34 148 08:37 22.12.2019
6002 Clouds 2 983 10 0 3.82 152 08:18 22.12.2019
6003 Clouds 2 983 10 0 3.82 152 08:18 22.12.2019
6004 Clouds 1 983 10 0 3.82 152 07:38 22.12.2019
6005 Clouds 1 983 10 0 3.82 152 07:19 22.12.2019
6006 Clouds 1 983 10 0 3.82 152 06:40 22.12.2019
6007 Clouds 1 983 10 0 3.82 152 05:54 22.12.2019
6008 Clouds 1 983 10 0 3.73 126 05:21 22.12.2019
6009 Clouds 1 984 10 0 3.73 126 04:29 22.12.2019
6010 Clouds 1 983 10 0 3.73 126 03:53 22.12.2019
6011 Clouds 1 985 10 0 3.73 126 02:40 22.12.2019
6012 Clouds 1 985 10 0 3.73 126 02:40 22.12.2019
6013 Clear 1 985 10 0 2.96 142 01:47 22.12.2019
6014 Clear 1 985 10 0 2.96 142 01:28 22.12.2019
6015 Clear 1 985 10 0 3.48 135 00:47 22.12.2019
6016 Clear 1 985 10 0 3.48 135 00:23 22.12.2019
6017 Clear 1 986 10 0 3.48 135 23:57 21.12.2019
6018 Clear 1 986 10 0 3.48 135 23:38 21.12.2019
6019 Clear 2 986 10 0 2.96 177 23:19 21.12.2019
6020 Clear 2 986 10 0 2.96 177 22:41 21.12.2019
6021 Clear 2 986 10 0 2.96 177 22:19 21.12.2019
6022 Clear 2 986 10 0 2.96 177 21:57 21.12.2019
6023 Clear 2 986 10 0 2.96 177 21:38 21.12.2019
6024 Clear 2 989 87 0 0.45 101 21:20 21.12.2019
6025 Clear 3 989 99 0 2.96 177 20:59 21.12.2019
6026 Clear 3 989 99 0 0.45 0 20:40 21.12.2019
6027 Clear 3 987 10 0 3.37 180 20:22 21.12.2019
6028 Clear 3 987 10 0 3.37 180 19:58 21.12.2019
6029 Clear 4 990 99 0 3.37 180 19:40 21.12.2019
6030 Clear 4 987 99 0 3.37 180 19:19 21.12.2019
6031 Clear 4 987 10 0 3.37 180 18:56 21.12.2019
6032 Clear 4 987 10 0 3.37 180 18:37 21.12.2019
6033 Clear 4 987 99 0 3.37 180 18:19 21.12.2019
6034 Clear 4 988 98 0 3.37 180 17:55 21.12.2019
6035 Clear 4 987 99 0 3.37 180 17:55 21.12.2019
6036 Clear 5 988 94 0 3.37 180 17:37 21.12.2019
6037 Clear 5 991 84 0 3.43 184 17:18 21.12.2019
6038 Clear 6 988 90 0 3.43 184 16:41 21.12.2019
6039 Clear 7 988 88 0 3.43 184 16:19 21.12.2019
6040 Clear 7 989 83 0 3.43 184 15:58 21.12.2019
6041 Clear 8 989 81 0 3.43 184 15:39 21.12.2019
6042 Clear 8 991 82 0 3.43 184 15:20 21.12.2019
6043 Clear 8 989 79 0 3.43 184 14:59 21.12.2019
6044 Clear 9 991 81 0 3.43 184 14:40 21.12.2019
6045 Clear 9 989 76 0 3.73 232 14:22 21.12.2019
6046 Clear 9 988 75 0 3.73 232 13:57 21.12.2019
6047 Clear 9 991 78 0 0.89 0 13:38 21.12.2019
6048 Clear 9 992 82 0 0.89 0 13:18 21.12.2019
6049 Clear 10 993 80 0 4.2 225 12:56 21.12.2019
6050 Clear 10 989 67 0 4.2 225 12:37 21.12.2019
6051 Clear 10 989 69 0 4.2 225 12:19 21.12.2019
6052 Clear 9 990 73 0 4.2 225 11:45 21.12.2019
6053 Clear 8 992 88 0 0.45 0 11:26 21.12.2019
6054 Clear 8 990 78 0 3.93 220 10:57 21.12.2019
6055 Clear 7 990 86 0 3.93 220 10:39 21.12.2019
6056 Clear 7 989 89 0 3.93 220 10:21 21.12.2019
6057 Clear 7 990 90 0 3.93 220 09:57 21.12.2019
6058 Clear 6 992 99 0 0.45 0 09:39 21.12.2019
6059 Clear 6 990 87 0 3.93 220 09:19 21.12.2019
6060 Clear 5 994 90 0 3.93 220 08:46 21.12.2019
6061 Clouds 5 989 10 0 3.61 210 08:26 21.12.2019
6062 Clouds 6 989 10 0 3.73 221 07:47 21.12.2019
6063 Clouds 6 989 10 0 3.73 221 07:23 21.12.2019
6064 Clouds 7 989 97 0 3.73 221 06:46 21.12.2019
6065 Clouds 7 989 98 0 3.73 221 06:28 21.12.2019
6066 Clouds 7 993 89 0 3.73 221 05:58 21.12.2019
6067 Clouds 8 989 10 0 2.86 225 04:59 21.12.2019
6068 Clouds 8 989 10 0 2.86 225 04:33 21.12.2019
6069 Clouds 8 988 10 0 2.86 225 03:56 21.12.2019
6070 Clouds 8 987 10 0 3.5 256 02:19 21.12.2019
6071 Clouds 8 987 10 0 3.5 256 01:42 21.12.2019
6072 Rain 9 987 10 0 3.94 251 01:23 21.12.2019
6073 Rain 8 987 99 0 3.94 251 00:39 21.12.2019
6074 Rain 8 986 92 0 3.94 251 00:20 21.12.2019
6075 Rain 8 986 92 0 3.94 251 23:38 20.12.2019
6076 Clouds 8 985 93 0 4.47 196 23:20 20.12.2019
6077 Clouds 8 985 94 0 4.47 196 22:57 20.12.2019
6078 Clouds 8 985 93 0 4.47 196 22:38 20.12.2019
6079 Clouds 8 985 93 0 4.47 196 22:18 20.12.2019
6080 Clouds 8 985 96 0 4.47 196 21:41 20.12.2019
6081 Clouds 8 985 95 0 4.47 196 21:21 20.12.2019
6082 Clouds 8 985 96 0 4.47 196 20:59 20.12.2019
6083 Clouds 8 985 97 0 4.47 196 20:38 20.12.2019
6084 Clouds 8 989 83 0 0.45 53 20:19 20.12.2019
6085 Clouds 8 989 83 0 5.12 162 19:56 20.12.2019
6086 Clouds 8 985 94 0 5.12 162 19:38 20.12.2019
6087 Clouds 8 985 94 0 5.12 162 19:18 20.12.2019
6088 Clouds 8 985 85 0 5.12 162 18:41 20.12.2019
6089 Clouds 8 985 87 0 5.12 162 18:23 20.12.2019
6090 Clouds 8 988 84 0 5.12 162 17:58 20.12.2019
6091 Clouds 8 985 90 0 5.12 162 17:39 20.12.2019
6092 Clouds 8 989 99 0 3.35 158 17:20 20.12.2019
6093 Clouds 8 986 86 0 3.35 158 16:57 20.12.2019
6094 Clouds 8 987 84 0 3.35 158 16:38 20.12.2019
6095 Clouds 8 989 99 0 3.35 158 16:19 20.12.2019
6096 Clouds 8 986 84 0 3.35 158 15:55 20.12.2019
6097 Clouds 9 986 82 0 3.35 158 15:37 20.12.2019
6098 Clouds 9 990 99 0 0.45 0 15:19 20.12.2019
6099 Clouds 9 987 78 0 3.35 158 14:43 20.12.2019
6100 Clouds 9 987 82 0 3.35 158 14:24 20.12.2019
6101 Clouds 9 987 80 0 6.76 132 13:59 20.12.2019
6102 Clouds 9 987 80 0 6.76 132 13:59 20.12.2019
6103 Clouds 10 987 72 0 6.76 132 13:40 20.12.2019
6104 Clouds 10 988 72 0 6.76 132 13:19 20.12.2019
6105 Clouds 9 987 71 0 6.18 132 12:57 20.12.2019
6106 Clouds 9 988 71 0 6.18 132 12:37 20.12.2019
6107 Clouds 8 988 76 0 6.18 132 12:19 20.12.2019
6108 Clouds 8 992 86 0 0.45 116 11:58 20.12.2019
6109 Clouds 8 990 76 0 6.18 132 11:39 20.12.2019
6110 Clouds 6 994 99 0 5.05 152 11:18 20.12.2019
6111 Clouds 7 991 85 0 5.05 152 10:57 20.12.2019
6112 Clouds 7 991 85 0 5.05 152 10:57 20.12.2019
6113 Clouds 4 992 87 0 5.05 152 10:38 20.12.2019
6114 Clouds 4 992 87 0 5.05 152 10:20 20.12.2019
6115 Clouds 4 992 79 0 5.05 152 09:44 20.12.2019
6116 Clouds 4 992 84 0 5.05 152 09:22 20.12.2019
6117 Clouds 3 993 97 0 5.05 152 08:59 20.12.2019
6118 Clouds 3 993 97 0 5.05 152 08:41 20.12.2019
6119 Clear 2 996 99 0 4.14 139 08:22 20.12.2019
6120 Clear 2 993 98 0 3.69 144 07:58 20.12.2019
6121 Clear 3 994 97 0 3.69 144 07:39 20.12.2019
6122 Clear 2 994 98 0 3.69 144 07:18 20.12.2019
6123 Clear 2 995 10 0 3.69 144 06:48 20.12.2019
6124 Clear 2 995 10 0 3.69 144 06:30 20.12.2019
6125 Clear 2 998 99 0 3.69 144 05:52 20.12.2019
6126 Clear 2 996 10 0 3.69 144 05:34 20.12.2019
6127 Clear 3 998 10 0 3.52 158 03:57 20.12.2019
6128 Clear 3 1000 88 0 3.52 158 03:29 20.12.2019
6129 Clear 3 999 10 0 3.52 158 02:41 20.12.2019
6130 Clouds 4 1000 10 0 2.58 171 01:47 20.12.2019
6131 Clouds 4 1000 10 0 2.58 171 01:29 20.12.2019
6132 Clouds 4 1000 10 0 2.73 168 00:42 20.12.2019
6133 Clouds 4 1003 99 0 2.73 168 00:20 20.12.2019
6134 Clouds 4 1001 10 0 2.73 168 23:43 19.12.2019
6135 Clouds 4 1001 10 0 2.73 168 23:24 19.12.2019
6136 Clear 4 1002 10 0 3.53 160 22:56 19.12.2019
6137 Clear 4 1002 10 0 3.53 160 22:36 19.12.2019
6138 Clear 4 1002 10 0 3.53 160 22:36 19.12.2019
6139 Clear 5 1005 99 0 3.53 160 22:18 19.12.2019
6140 Clear 5 1007 88 0 0.89 133 22:18 19.12.2019
6141 Clear 5 1003 10 0 3.53 160 21:55 19.12.2019
6142 Clear 5 1007 88 0 3.53 160 21:37 19.12.2019
6143 Clear 5 1003 10 0 3.53 160 21:18 19.12.2019
6144 Clear 5 1004 10 0 3.53 160 20:55 19.12.2019
6145 Clouds 6 1008 88 0 0.45 116 20:36 19.12.2019
6146 Clouds 6 1005 10 0 3.47 138 20:18 19.12.2019
6147 Clouds 6 1005 10 0 3.47 138 19:54 19.12.2019
6148 Clouds 6 1008 99 0 3.47 138 19:36 19.12.2019
6149 Clouds 6 1005 10 0 3.47 138 19:18 19.12.2019
6150 Clouds 6 1006 10 0 3.47 138 18:41 19.12.2019
6151 Clouds 6 1009 99 0 3.47 138 18:22 19.12.2019
6152 Clouds 6 1006 10 0 3.47 138 17:57 19.12.2019
6153 Clouds 7 1007 10 0 3.47 138 17:39 19.12.2019
6154 Clouds 7 1007 10 0 3.79 130 17:19 19.12.2019
6155 Clouds 7 1007 10 0 3.79 130 16:57 19.12.2019
6156 Clouds 7 1007 10 0 3.79 130 16:39 19.12.2019
6157 Clouds 7 1007 99 0 3.79 130 16:21 19.12.2019
6158 Clouds 7 1011 99 0 3.79 130 15:59 19.12.2019
6159 Clouds 7 1008 98 0 3.79 130 15:39 19.12.2019
6160 Clouds 8 1008 98 0 3.79 130 15:20 19.12.2019
6161 Clouds 8 1008 98 0 3.79 130 15:20 19.12.2019
6162 Clouds 8 1008 96 0 3.79 130 14:59 19.12.2019
6163 Clouds 8 1008 95 0 3.79 130 14:41 19.12.2019
6164 Clear 8 1012 99 0 4.09 141 14:19 19.12.2019
6165 Clear 8 1009 90 0 4.09 141 13:57 19.12.2019
6166 Clear 8 1009 91 0 4.09 141 13:37 19.12.2019
6167 Clear 7 1010 90 0 3.89 136 13:18 19.12.2019
6168 Clear 9 1012 83 0 2.68 113 12:55 19.12.2019
6169 Clear 7 1010 88 0 3.89 136 12:55 19.12.2019
6170 Clear 9 1011 93 0 3.89 136 12:37 19.12.2019
6171 Clear 9 1011 93 0 3.89 136 12:18 19.12.2019
6172 Clear 9 1011 93 0 3.89 136 12:18 19.12.2019
6173 Clear 9 1011 93 0 3.89 136 12:18 19.12.2019
6174 Clear 9 1011 93 0 3.89 136 12:18 19.12.2019
6175 Clear 9 1011 92 0 3.89 136 11:57 19.12.2019
6176 Clear 8 1011 91 0 3.89 136 11:38 19.12.2019
6177 Clear 6 1012 92 0 4.17 160 11:18 19.12.2019
6178 Clear 5 1012 98 0 4.17 160 10:55 19.12.2019
6179 Clear 5 1013 10 0 4.17 160 10:36 19.12.2019
6180 Clear 4 1013 10 0 4.17 160 10:18 19.12.2019
6181 Clear 4 1013 10 0 4.17 160 10:18 19.12.2019
6182 Clear 4 1013 10 0 4.17 160 10:18 19.12.2019
6183 Clear 3 1013 10 0 4.17 160 09:38 19.12.2019
6184 Clear 3 1013 10 0 4.17 160 09:20 19.12.2019
6185 Clear 3 1013 10 0 4.17 160 09:20 19.12.2019
6186 Clear 3 1013 10 0 4.17 160 09:20 19.12.2019
6187 Clear 3 1014 88 0 4.17 160 08:58 19.12.2019
6188 Clear 3 1016 99 0 0.45 0 08:39 19.12.2019
6189 Clouds 3 1013 10 0 4.18 152 08:19 19.12.2019
6190 Clouds 3 1013 10 0 4.18 152 07:56 19.12.2019
6191 Clouds 3 1014 10 0 4.18 152 07:38 19.12.2019
6192 Clouds 3 1014 10 0 4.18 152 07:19 19.12.2019
6193 Clouds 3 1013 10 0 4.18 152 06:49 19.12.2019
6194 Clouds 3 1013 10 0 4.18 152 06:28 19.12.2019
6195 Clouds 3 1014 89 0 4.18 152 05:55 19.12.2019
6196 Clouds 3 1013 10 0 4.18 152 05:33 19.12.2019
6197 Clouds 2 1014 10 0 3.46 146 04:51 19.12.2019
6198 Clouds 3 1015 88 0 3.46 146 02:54 19.12.2019
6199 Clouds 3 1015 10 0 3.44 146 01:51 19.12.2019
6200 Clear 3 1015 10 0 3.46 140 01:22 19.12.2019
6201 Clear 3 1015 10 0 3.46 140 00:41 19.12.2019
6202 Clear 3 1015 10 0 3.46 140 00:22 19.12.2019
6203 Clear 3 1016 10 0 3.46 140 23:57 18.12.2019
6204 Clear 4 1016 10 0 3.46 140 23:38 18.12.2019
6205 Clouds 4 1016 10 0 2.29 169 23:18 18.12.2019
6206 Clouds 3 1016 10 0 2.29 169 22:55 18.12.2019
6207 Clouds 3 1016 10 0 2.29 169 22:36 18.12.2019
6208 Clouds 4 1016 10 0 2.29 169 22:18 18.12.2019
6209 Clouds 4 1017 86 0 2.29 169 21:56 18.12.2019
6210 Clouds 3 1019 99 0 2.29 169 21:56 18.12.2019
6211 Clouds 3 1019 99 0 2.29 169 21:37 18.12.2019
6212 Clouds 3 1016 10 0 2.29 169 21:19 18.12.2019
6213 Clouds 3 1016 10 0 2.29 169 20:55 18.12.2019
6214 Clouds 3 1016 10 0 2.29 169 20:55 18.12.2019
6215 Clear 3 1017 86 0 2.01 180 20:37 18.12.2019
6216 Clear 4 1017 86 0 1.51 214 20:19 18.12.2019
6217 Clear 4 1018 99 0 1.51 214 19:55 18.12.2019
6218 Clear 3 1016 10 0 1.51 214 19:37 18.12.2019
6219 Clear 3 1018 84 0 1.51 214 19:18 18.12.2019
6220 Clear 3 1018 84 0 1.51 214 19:18 18.12.2019
6221 Clear 4 1016 10 0 1.51 214 18:44 18.12.2019
6222 Clear 4 1016 10 0 1.51 214 18:25 18.12.2019
6223 Clear 5 1015 10 0 1.51 214 17:57 18.12.2019
6224 Clear 5 1015 10 0 1.51 214 17:39 18.12.2019
6225 Clear 5 1015 10 0 1.35 169 17:19 18.12.2019
6226 Clear 5 1015 10 0 1.35 169 17:19 18.12.2019
6227 Clear 6 1015 98 0 1.35 169 16:57 18.12.2019
6228 Clear 6 1015 98 0 1.35 169 16:38 18.12.2019
6229 Clear 7 1015 78 0 1.35 169 16:20 18.12.2019
6230 Clear 8 1014 90 0 1.35 169 15:55 18.12.2019
6231 Clear 8 1014 88 0 1.35 169 15:37 18.12.2019
6232 Clear 8 1014 88 0 1.35 169 15:37 18.12.2019
6233 Clear 9 1014 83 0 1.35 169 15:19 18.12.2019
6234 Clear 10 1013 78 0 1.35 169 14:42 18.12.2019
6235 Clouds 10 1013 76 0 1.77 242 14:22 18.12.2019
6236 Clouds 10 1013 74 0 1.77 242 13:57 18.12.2019
6237 Clouds 10 1016 91 0 0.89 0 13:39 18.12.2019
6238 Clouds 10 1013 76 0 0.45 130 13:20 18.12.2019
6239 Clouds 10 1013 61 0 2.33 232 12:59 18.12.2019
6240 Clouds 10 1013 63 0 2.33 232 12:39 18.12.2019
6241 Clouds 9 1012 65 0 2.33 232 12:20 18.12.2019
6242 Clouds 9 1012 70 0 2.33 232 11:56 18.12.2019
6243 Clouds 9 1012 70 0 2.33 232 11:38 18.12.2019
6244 Clouds 9 1012 77 0 2.69 277 11:20 18.12.2019
6245 Clouds 9 1012 77 0 2.69 277 10:57 18.12.2019
6246 Clouds 9 1012 76 0 2.69 277 10:39 18.12.2019
6247 Clouds 9 1011 78 0 2.69 277 10:20 18.12.2019
6248 Clouds 9 1011 78 0 2.69 277 09:57 18.12.2019
6249 Clouds 9 1010 81 0 2.69 277 09:19 18.12.2019
6250 Clouds 8 1010 83 0 2.69 277 08:42 18.12.2019
6251 Clouds 8 1010 83 0 2.69 277 08:42 18.12.2019
6252 Clouds 9 1009 82 0 3.99 279 08:24 18.12.2019
6253 Clouds 9 1008 81 0 3.99 279 07:57 18.12.2019
6254 Clouds 10 1008 79 0 3.99 279 07:39 18.12.2019
6255 Clouds 10 1008 79 0 3.99 279 07:19 18.12.2019
6256 Clouds 10 1007 76 0 3.99 279 06:51 18.12.2019
6257 Clouds 10 1007 81 0 3.99 279 06:23 18.12.2019
6258 Clouds 10 1005 81 0 3.99 279 05:34 18.12.2019
6259 Clouds 12 1003 68 0 1.34 139 03:49 18.12.2019
6260 Clouds 13 1002 59 0 5.87 234 02:46 18.12.2019
6261 Clouds 12 1002 59 0 5.87 234 02:27 18.12.2019
6262 Clouds 12 1001 54 0 7.87 195 01:44 18.12.2019
6263 Clouds 12 1001 54 0 6.43 206 01:25 18.12.2019
6264 Clouds 12 1000 60 0 6.43 206 00:55 18.12.2019
6265 Clouds 12 1000 61 0 6.43 206 00:36 18.12.2019
6266 Clouds 12 1000 61 0 6.43 206 00:18 18.12.2019
6267 Clouds 12 1000 60 0 6.43 206 23:43 17.12.2019
6268 Clouds 11 1000 59 0 6.43 206 23:23 17.12.2019
6269 Clouds 11 1001 74 0 6.28 191 22:57 17.12.2019
6270 Clouds 11 1000 61 0 6.28 191 22:39 17.12.2019
6271 Clouds 11 1000 64 0 6.28 191 22:20 17.12.2019
6272 Clouds 11 1001 63 0 6.28 191 21:57 17.12.2019
6273 Clouds 11 1002 77 0 0.89 149 21:39 17.12.2019
6274 Clouds 11 1003 62 0 1.79 0 21:20 17.12.2019
6275 Clouds 11 1003 62 0 1.79 0 21:20 17.12.2019
6276 Clouds 11 1003 62 0 1.79 0 21:20 17.12.2019
6277 Clouds 11 1001 66 0 6.28 191 20:59 17.12.2019
6278 Clouds 11 1001 66 0 6.28 191 20:40 17.12.2019
6279 Clouds 11 1004 64 0 3.13 0 20:19 17.12.2019
6280 Clouds 11 1001 65 0 5.46 219 19:57 17.12.2019
6281 Clouds 11 1002 67 0 5.46 219 19:39 17.12.2019
6282 Clouds 11 1001 65 0 5.46 219 19:20 17.12.2019
6283 Clouds 11 1001 63 0 5.46 219 18:57 17.12.2019
6284 Clouds 11 1001 64 0 5.46 219 18:38 17.12.2019
6285 Clouds 11 1003 68 0 2.24 0 18:20 17.12.2019
6286 Clouds 11 1001 65 0 5.46 219 17:55 17.12.2019
6287 Clouds 11 1001 66 0 5.46 219 17:37 17.12.2019
6288 Clouds 11 1002 75 0 5.66 208 17:18 17.12.2019
6289 Clouds 11 1001 65 0 5.66 208 16:55 17.12.2019
6290 Clouds 11 1001 65 0 5.66 208 16:37 17.12.2019
6291 Clouds 11 1001 66 0 5.66 208 16:18 17.12.2019
6292 Clouds 11 1001 66 0 5.66 208 16:18 17.12.2019
6293 Clouds 12 1000 64 0 5.66 208 15:54 17.12.2019
6294 Clouds 12 1000 63 0 5.66 208 15:36 17.12.2019
6295 Clouds 12 1000 64 0 5.66 208 15:18 17.12.2019
6296 Clouds 12 1000 63 0 5.66 208 14:54 17.12.2019
6297 Clouds 12 1000 62 0 5.66 208 14:36 17.12.2019
6298 Clouds 13 1000 62 0 6.26 199 14:18 17.12.2019
6299 Clouds 13 1002 67 0 2.24 0 13:54 17.12.2019
6300 Clouds 13 1001 74 0 0.89 112 13:36 17.12.2019
6301 Clouds 13 1001 73 0 0.45 131 13:18 17.12.2019
6302 Clouds 13 1002 75 0 1.34 0 12:39 17.12.2019
6303 Clouds 13 1000 63 0 6.39 204 12:19 17.12.2019
6304 Clouds 12 1000 63 0 6.39 204 11:59 17.12.2019
6305 Clouds 12 1000 60 0 6.39 204 11:37 17.12.2019
6306 Clouds 12 1000 62 0 6.39 204 11:37 17.12.2019
6307 Clouds 11 1000 64 0 5.48 200 11:19 17.12.2019
6308 Clouds 11 1000 64 0 5.48 200 11:19 17.12.2019
6309 Clouds 10 1000 75 0 5.48 200 10:59 17.12.2019
6310 Clouds 9 1000 79 0 5.48 200 10:40 17.12.2019
6311 Clouds 8 1000 82 0 5.48 200 10:21 17.12.2019
6312 Clouds 8 1000 80 0 5.48 200 09:59 17.12.2019
6313 Clouds 8 1000 82 0 5.48 200 09:41 17.12.2019
6314 Clouds 8 1000 82 0 5.48 200 09:20 17.12.2019
6315 Clouds 7 1002 82 0 0.89 129 08:56 17.12.2019
6316 Clouds 7 999 83 0 5.48 200 08:38 17.12.2019
6317 Clouds 7 999 84 0 6.5 201 08:19 17.12.2019
6318 Clouds 7 999 84 0 5.37 202 07:46 17.12.2019
6319 Clouds 6 999 84 0 5.37 202 07:26 17.12.2019
6320 Clouds 7 1002 99 0 0.89 0 06:56 17.12.2019
6321 Clouds 6 999 85 0 5.37 202 06:35 17.12.2019
6322 Clouds 6 999 88 0 5.37 202 05:53 17.12.2019
6323 Clouds 6 999 88 0 5.37 202 05:35 17.12.2019
6324 Clouds 5 1000 95 0 4.06 167 04:30 17.12.2019
6325 Clouds 5 1003 99 0 4.06 167 02:34 17.12.2019
6326 Clouds 5 1001 10 0 3.06 165 01:55 17.12.2019
6327 Clouds 5 1001 10 0 3.43 176 00:59 17.12.2019
6328 Clouds 5 1004 99 0 3.43 176 00:38 17.12.2019
6329 Clouds 5 1004 99 0 3.43 176 00:19 17.12.2019
6330 Clouds 5 1001 10 0 3.43 176 23:41 16.12.2019
6331 Clouds 6 1001 10 0 2.66 204 23:19 16.12.2019
6332 Clouds 6 1001 10 0 2.66 204 22:56 16.12.2019
6333 Clouds 5 1001 10 0 2.66 204 22:37 16.12.2019
6334 Clouds 5 1005 87 0 2.66 204 22:19 16.12.2019
6335 Clouds 5 1005 87 0 2.66 204 22:19 16.12.2019
6336 Clouds 6 1004 99 0 0.45 0 21:55 16.12.2019
6337 Clouds 6 1004 99 0 0.45 0 21:55 16.12.2019
6338 Clouds 6 1006 87 0 2.66 204 21:37 16.12.2019
6339 Clouds 6 1002 10 0 2.66 204 21:19 16.12.2019
6340 Clouds 7 1005 87 0 2.66 204 20:57 16.12.2019
6341 Clouds 7 1005 87 0 2.66 204 20:57 16.12.2019
6342 Clouds 7 1005 87 0 2.66 204 20:37 16.12.2019
6343 Clouds 7 1002 10 0 2.88 191 20:19 16.12.2019
6344 Clouds 7 1002 10 0 2.88 191 19:56 16.12.2019
6345 Clouds 7 1002 10 0 2.88 191 19:37 16.12.2019
6346 Clouds 7 1005 99 0 0.45 0 19:19 16.12.2019
6347 Clouds 7 1002 10 0 2.88 191 18:56 16.12.2019
6348 Clouds 7 1002 10 0 2.88 191 18:38 16.12.2019
6349 Clouds 7 1002 10 0 2.88 191 18:38 16.12.2019
6350 Clouds 8 1002 10 0 2.88 191 18:19 16.12.2019
6351 Clouds 8 1003 10 0 2.88 191 17:57 16.12.2019
6352 Clouds 8 1003 10 0 2.88 191 17:38 16.12.2019
6353 Clouds 8 1004 86 0 3.92 201 17:20 16.12.2019
6354 Clouds 8 1003 10 0 3.92 201 16:56 16.12.2019
6355 Clouds 8 1004 86 0 3.92 201 16:38 16.12.2019
6356 Clouds 8 1003 97 0 3.92 201 16:19 16.12.2019
6357 Clouds 8 1003 97 0 3.92 201 15:57 16.12.2019
6358 Clouds 8 1003 97 0 3.92 201 15:38 16.12.2019
6359 Clouds 9 1003 99 0 3.92 201 15:20 16.12.2019
6360 Clouds 9 1005 99 0 1.34 0 14:55 16.12.2019
6361 Clouds 8 1003 93 0 3.92 201 14:37 16.12.2019
6362 Clouds 8 1003 93 0 3.92 201 14:37 16.12.2019
6363 Clouds 9 1003 92 0 4.33 201 14:18 16.12.2019
6364 Clouds 9 1003 92 0 4.33 201 14:18 16.12.2019
6365 Clouds 9 1003 92 0 4.33 201 14:18 16.12.2019
6366 Clouds 9 1003 89 0 4.33 201 13:56 16.12.2019
6367 Clouds 9 1003 90 0 4.33 201 13:37 16.12.2019
6368 Rain 9 1003 89 0 4.78 193 13:19 16.12.2019
6369 Rain 9 1003 89 0 4.78 193 12:56 16.12.2019
6370 Clouds 9 1003 88 0 4.96 202 12:38 16.12.2019
6371 Rain 9 1004 86 0 4.78 193 12:18 16.12.2019
6372 Rain 8 1004 87 0 4.78 193 11:57 16.12.2019
6373 Clouds 8 1004 87 0 4.96 202 11:39 16.12.2019
6374 Clouds 8 1006 84 0 4.77 186 11:19 16.12.2019
6375 Clouds 7 1007 99 0 0.89 0 10:54 16.12.2019
6376 Clouds 7 1004 87 0 4.77 186 10:36 16.12.2019
6377 Clouds 7 1004 87 0 4.77 186 10:18 16.12.2019
6378 Clouds 6 1005 87 0 4.77 186 09:44 16.12.2019
6379 Clouds 6 1004 87 0 4.43 190 09:26 16.12.2019
6380 Clouds 5 1004 89 0 4.77 186 08:41 16.12.2019
6381 Clouds 5 1004 91 0 3.88 180 08:20 16.12.2019
6382 Clouds 5 1004 92 0 3.88 180 07:53 16.12.2019
6383 Clouds 5 1004 92 0 3.88 180 07:31 16.12.2019
6384 Clouds 4 1005 91 0 3.88 180 06:59 16.12.2019
6385 Clouds 4 1005 86 0 3.88 180 06:40 16.12.2019
6386 Clouds 4 1005 88 0 3.88 180 06:21 16.12.2019
6387 Clouds 4 1005 87 0 3.88 180 05:41 16.12.2019
6388 Clouds 4 1005 87 0 3.88 180 05:23 16.12.2019
6389 Clouds 4 1005 85 0 4.15 190 03:29 16.12.2019
6390 Clouds 4 1006 81 0 0.45 195 01:52 16.12.2019
6391 Clouds 4 1005 85 0 4.1 217 01:33 16.12.2019
6392 Clouds 4 1006 80 0 0.45 90 00:41 16.12.2019
6393 Clouds 4 1004 82 0 4.1 217 00:21 16.12.2019
6394 Clouds 4 1003 81 0 4.1 217 23:57 15.12.2019
6395 Clouds 4 1004 80 0 4.1 217 23:37 15.12.2019
6396 Clouds 5 1003 80 0 4.59 229 23:19 15.12.2019
6397 Clouds 5 1003 83 0 4.59 229 22:54 15.12.2019
6398 Clouds 5 1003 83 0 4.59 229 22:36 15.12.2019
6399 Clouds 5 1003 81 0 4.59 229 22:18 15.12.2019
6400 Clouds 5 1002 78 0 4.59 229 21:55 15.12.2019
6401 Clouds 5 1002 78 0 4.59 229 21:37 15.12.2019
6402 Clouds 6 1002 76 0 4.59 229 21:18 15.12.2019
6403 Clouds 6 1001 75 0 4.59 229 20:55 15.12.2019
6404 Clouds 6 1001 73 0 4.59 229 20:36 15.12.2019
6405 Clouds 6 1001 72 0 5.19 228 20:18 15.12.2019
6406 Clouds 6 1000 71 0 5.19 228 19:56 15.12.2019
6407 Clouds 6 1000 69 0 5.37 223 19:38 15.12.2019
6408 Clouds 6 1000 70 0 5.19 228 19:18 15.12.2019
6409 Clouds 6 1000 70 0 5.37 223 18:55 15.12.2019
6410 Clouds 6 999 70 0 5.19 228 18:37 15.12.2019
6411 Clouds 6 999 70 0 5.19 228 18:18 15.12.2019
6412 Clouds 7 999 71 0 5.19 228 17:56 15.12.2019
6413 Clouds 7 999 71 0 5.19 228 17:36 15.12.2019
6414 Clouds 7 998 69 0 5.23 242 17:18 15.12.2019
6415 Clouds 7 998 69 0 5.23 242 17:18 15.12.2019
6416 Clouds 7 998 67 0 5.23 242 16:54 15.12.2019
6417 Clear 7 998 66 0 5.46 238 16:36 15.12.2019
6418 Clear 7 997 64 0 5.46 238 16:18 15.12.2019
6419 Clear 8 997 66 0 5.46 238 15:54 15.12.2019
6420 Clouds 8 996 65 0 5.23 242 15:36 15.12.2019
6421 Clouds 8 996 65 0 5.23 242 15:18 15.12.2019
6422 Clouds 9 996 63 0 5.23 242 14:54 15.12.2019
6423 Clouds 9 995 61 0 5.23 242 14:36 15.12.2019
6424 Rain 9 997 67 0 2.68 200 14:18 15.12.2019
6425 Rain 9 997 54 0 3.13 0 14:18 15.12.2019
6426 Rain 9 995 64 0 5.95 251 13:54 15.12.2019
6427 Rain 10 994 60 0 5.95 251 13:36 15.12.2019
6428 Rain 10 994 59 0 6.92 256 13:18 15.12.2019
6429 Rain 10 993 60 0 6.92 256 12:55 15.12.2019
6430 Rain 10 993 60 0 6.92 256 12:36 15.12.2019
6431 Rain 10 993 63 0 6.92 256 12:18 15.12.2019
6432 Rain 9 992 76 0 6.92 256 11:38 15.12.2019
6433 Rain 9 993 85 0 1.34 89 11:19 15.12.2019
6434 Rain 9 993 85 0 1.34 89 11:19 15.12.2019
6435 Rain 8 992 92 0 4.45 214 10:56 15.12.2019
6436 Rain 8 992 93 0 4.45 214 10:38 15.12.2019
6437 Rain 8 993 86 0 2.24 126 10:19 15.12.2019
6438 Rain 7 991 93 0 4.45 214 09:58 15.12.2019
6439 Rain 7 991 93 0 4.45 214 09:37 15.12.2019
6440 Rain 7 990 95 0 4.45 214 09:19 15.12.2019
6441 Rain 6 993 99 0 2.68 0 08:55 15.12.2019
6442 Rain 5 991 86 0 4.45 214 08:36 15.12.2019
6443 Clouds 5 991 86 0 7.41 178 08:18 15.12.2019
6444 Clouds 5 991 87 0 7.41 178 07:47 15.12.2019
6445 Clouds 5 991 88 0 7.41 178 07:28 15.12.2019
6446 Clouds 4 992 86 0 7.41 178 06:26 15.12.2019
6447 Clouds 3 993 89 0 7.41 178 05:42 15.12.2019
6448 Clouds 3 993 87 0 4.23 183 05:21 15.12.2019
6449 Clouds 3 994 84 0 4.23 183 04:22 15.12.2019
6450 Clouds 3 995 88 0 4.23 183 02:55 15.12.2019
6451 Clouds 3 995 89 0 4.23 183 02:32 15.12.2019
6452 Clouds 3 998 99 0 1.79 0 01:41 15.12.2019
6453 Clouds 4 995 85 0 5 247 01:19 15.12.2019
6454 Clouds 4 995 85 0 5 247 00:51 15.12.2019
6455 Clouds 4 995 85 0 5 247 00:32 15.12.2019
6456 Clouds 5 996 84 0 1.34 186 23:55 14.12.2019
6457 Clouds 5 994 88 0 5 247 23:37 14.12.2019
6458 Rain 5 994 87 0 7.78 247 23:18 14.12.2019
6459 Rain 5 994 87 0 7.78 247 23:18 14.12.2019
6460 Rain 5 993 88 0 7.78 247 22:56 14.12.2019
6461 Rain 5 992 87 0 7.78 247 22:37 14.12.2019
6462 Rain 5 992 81 0 3.13 79 22:18 14.12.2019
6463 Rain 5 990 85 0 7.78 247 21:55 14.12.2019
6464 Rain 5 990 85 0 7.78 247 21:37 14.12.2019
6465 Rain 5 989 87 0 7.78 247 21:18 14.12.2019
6466 Rain 5 989 88 0 7.78 247 20:42 14.12.2019
6467 Rain 5 989 88 0 7.11 228 20:20 14.12.2019
6468 Rain 5 989 89 0 7.11 228 19:59 14.12.2019
6469 Rain 5 989 82 0 7.11 228 19:39 14.12.2019
6470 Rain 5 989 74 0 7.11 228 19:21 14.12.2019
6471 Rain 5 989 76 0 7.11 228 18:57 14.12.2019
6472 Rain 5 991 99 0 1.79 0 18:39 14.12.2019
6473 Rain 5 989 78 0 7.11 228 18:21 14.12.2019
6474 Rain 5 991 84 0 0.89 129 17:58 14.12.2019
6475 Rain 5 991 85 0 0.89 120 17:40 14.12.2019
6476 Rain 5 988 80 0 5.19 244 17:21 14.12.2019
6477 Rain 6 988 87 0 5.19 244 16:41 14.12.2019
6478 Rain 5 987 89 0 5.19 244 16:19 14.12.2019
6479 Rain 5 987 91 0 5.19 244 15:56 14.12.2019
6480 Rain 6 987 90 0 5.19 244 15:38 14.12.2019
6481 Rain 6 986 88 0 5.19 244 15:19 14.12.2019
6482 Rain 6 986 88 0 5.19 244 14:57 14.12.2019
6483 Rain 6 987 84 0 1.79 87 14:37 14.12.2019
6484 Rain 6 985 88 0 7.96 275 14:18 14.12.2019
6485 Rain 6 984 92 0 7.96 275 13:44 14.12.2019
6486 Rain 5 984 96 0 8.82 273 13:19 14.12.2019
6487 Rain 5 985 86 0 0.89 107 12:58 14.12.2019
6488 Rain 5 983 10 0 8.82 273 12:40 14.12.2019
6489 Rain 4 985 99 0 0.89 0 12:20 14.12.2019
6490 Rain 4 982 10 0 7.96 279 11:58 14.12.2019
6491 Rain 4 982 10 0 8.82 273 11:39 14.12.2019
6492 Rain 4 981 10 0 3.61 171 11:19 14.12.2019
6493 Rain 4 981 10 0 3.61 171 10:57 14.12.2019
6494 Rain 4 981 99 0 3.59 163 10:39 14.12.2019
6495 Rain 4 980 10 0 3.61 171 10:20 14.12.2019
6496 Rain 4 980 10 0 3.59 163 09:55 14.12.2019
6497 Rain 4 980 10 0 3.61 171 09:55 14.12.2019
6498 Rain 4 980 10 0 3.61 171 09:36 14.12.2019
6499 Rain 4 982 88 0 0.89 120 09:18 14.12.2019
6500 Rain 4 979 97 0 3.59 163 08:41 14.12.2019
6501 Clouds 3 979 98 0 4.95 200 08:19 14.12.2019
6502 Clouds 3 981 87 0 0.45 91 07:43 14.12.2019
6503 Clouds 3 980 10 0 4.95 200 07:23 14.12.2019
6504 Clouds 3 980 10 0 4.95 200 06:55 14.12.2019
6505 Clouds 3 980 10 0 4.95 200 06:36 14.12.2019
6506 Clouds 3 981 88 0 0.45 101 05:57 14.12.2019
6507 Rain 3 980 10 0 3.9 221 04:47 14.12.2019
6508 Rain 3 980 10 0 4.1 238 02:31 14.12.2019
6509 Rain 3 980 10 0 4.1 238 01:56 14.12.2019
6510 Rain 3 980 10 0 4.1 238 01:37 14.12.2019
6511 Rain 3 980 99 0 3.5 227 00:47 14.12.2019
6512 Rain 2 980 99 0 3.5 227 00:27 14.12.2019
6513 Rain 3 979 96 0 3.5 227 23:56 13.12.2019
6514 Rain 2 979 96 0 3.5 227 23:37 13.12.2019
6515 Clouds 2 979 96 0 2.34 205 23:18 13.12.2019
6516 Clouds 2 981 99 0 2.34 205 22:40 13.12.2019
6517 Clouds 2 979 96 0 2.34 205 22:19 13.12.2019
6518 Clouds 2 979 95 0 2.34 205 21:56 13.12.2019
6519 Clouds 2 979 95 0 2.34 205 21:38 13.12.2019
6520 Clouds 2 979 94 0 2.34 205 21:20 13.12.2019
6521 Clouds 2 978 94 0 2.34 205 20:43 13.12.2019
6522 Clouds 2 981 99 0 0.45 0 20:24 13.12.2019
6523 Clouds 2 978 94 0 2.82 157 19:59 13.12.2019
6524 Clouds 2 978 94 0 2.82 157 19:41 13.12.2019
6525 Clouds 2 981 99 0 2.82 157 19:23 13.12.2019
6526 Clouds 2 978 93 0 2.82 157 18:59 13.12.2019
6527 Clouds 2 977 93 0 2.82 157 18:41 13.12.2019
6528 Clouds 2 977 93 0 2.82 157 18:19 13.12.2019
6529 Clouds 2 979 86 0 2.82 157 17:57 13.12.2019
6530 Clouds 2 977 92 0 2.82 157 17:38 13.12.2019
6531 Clouds 2 977 92 0 4.59 146 17:18 13.12.2019
6532 Clouds 2 980 99 0 4.59 146 16:54 13.12.2019
6533 Clouds 2 980 99 0 4.59 146 16:36 13.12.2019
6534 Clouds 2 977 90 0 4.59 146 16:18 13.12.2019
6535 Clouds 2 977 85 0 4.59 146 15:40 13.12.2019
6536 Clouds 3 976 83 0 4.59 146 15:20 13.12.2019
6537 Clouds 3 976 81 0 4.59 146 14:55 13.12.2019
6538 Clouds 3 976 81 0 4.59 146 14:36 13.12.2019
6539 Clouds 3 976 80 0 5.66 130 14:18 13.12.2019
6540 Clouds 3 976 80 0 5.66 130 13:43 13.12.2019
6541 Clouds 3 976 81 0 5.66 130 13:23 13.12.2019
6542 Clouds 3 979 99 0 0.45 0 12:54 13.12.2019
6543 Clouds 3 976 78 0 6.13 131 12:36 13.12.2019
6544 Clouds 3 978 83 0 0.89 51 12:18 13.12.2019
6545 Clouds 3 977 75 0 6.13 131 11:42 13.12.2019
6546 Clouds 2 977 74 0 6.13 131 11:24 13.12.2019
6547 Clouds 2 981 99 0 0.45 0 10:56 13.12.2019
6548 Clouds 2 977 80 0 6.55 133 10:38 13.12.2019
6549 Clouds 1 978 86 0 6.55 133 10:19 13.12.2019
6550 Clouds 1 978 82 0 6.55 133 09:41 13.12.2019
6551 Clouds 0 981 87 0 0.89 18 09:21 13.12.2019
6552 Clouds 0 982 99 0 0.45 0 08:45 13.12.2019
6553 Clouds 0 979 93 0 6.87 127 08:26 13.12.2019
6554 Clear 0 980 94 0 6.19 143 07:49 13.12.2019
6555 Clear 0 980 94 0 6.19 143 07:26 13.12.2019
6556 Clear 0 981 94 0 6.19 143 06:57 13.12.2019
6557 Clear 0 984 99 0 0.45 0 06:31 13.12.2019
6558 Clear 0 982 95 0 6.19 143 05:51 13.12.2019
6559 Clear 0 982 95 0 6.19 143 05:31 13.12.2019
6560 Clear 0 983 96 0 5.58 145 04:54 13.12.2019
6561 Clear 0 984 98 0 5.58 145 03:52 13.12.2019
6562 Clear 0 986 99 0 5.58 145 02:35 13.12.2019
6563 Clouds 0 990 99 0 0.45 0 01:51 13.12.2019
6564 Clouds 1 988 10 0 4.97 157 01:27 13.12.2019
6565 Clouds 1 989 10 0 5.35 160 00:47 13.12.2019
6566 Clouds 1 989 10 0 5.35 160 00:26 13.12.2019
6567 Clouds 1 990 10 0 5.35 160 23:42 12.12.2019
6568 Clouds 2 990 10 0 5.35 160 23:24 12.12.2019
6569 Clouds 2 991 98 0 4.41 171 22:56 12.12.2019
6570 Clouds 2 994 99 0 0.89 0 22:38 12.12.2019
6571 Clouds 2 992 96 0 4.41 171 22:19 12.12.2019
6572 Clouds 2 992 95 0 4.41 171 21:56 12.12.2019
6573 Clouds 2 992 95 0 4.41 171 21:37 12.12.2019
6574 Clouds 2 992 94 0 4.41 171 21:19 12.12.2019
6575 Clouds 2 993 93 0 4.41 171 20:58 12.12.2019
6576 Clouds 2 993 94 0 4.41 171 20:40 12.12.2019
6577 Clouds 2 994 95 0 3.39 178 20:21 12.12.2019
6578 Clouds 2 994 95 0 3.83 184 19:56 12.12.2019
6579 Clouds 2 994 94 0 3.83 184 19:37 12.12.2019
6580 Clouds 2 994 94 0 3.83 184 19:18 12.12.2019
6581 Clouds 3 995 95 0 3.83 184 18:55 12.12.2019
6582 Clouds 3 996 87 0 3.83 184 18:37 12.12.2019
6583 Clouds 2 995 95 0 3.83 184 18:19 12.12.2019
6584 Clouds 3 995 97 0 3.83 184 17:56 12.12.2019
6585 Clouds 3 995 97 0 3.83 184 17:38 12.12.2019
6586 Clouds 3 996 97 0 3.89 202 17:19 12.12.2019
6587 Clouds 3 996 96 0 3.89 202 16:54 12.12.2019
6588 Clouds 3 996 97 0 3.89 202 16:36 12.12.2019
6589 Clouds 4 996 99 0 3.89 202 16:18 12.12.2019
6590 Clouds 4 996 98 0 3.89 202 15:42 12.12.2019
6591 Clouds 5 996 93 0 3.89 202 15:20 12.12.2019
6592 Clouds 5 996 92 0 3.89 202 14:59 12.12.2019
6593 Clouds 5 997 92 0 3.89 202 14:38 12.12.2019
6594 Clouds 5 997 94 0 4.71 214 14:19 12.12.2019
6595 Clouds 5 997 92 0 4.71 214 13:56 12.12.2019
6596 Clouds 5 997 95 0 4.71 214 13:38 12.12.2019
6597 Clouds 5 997 94 0 4.27 216 13:20 12.12.2019
6598 Clouds 5 998 94 0 4.27 216 12:56 12.12.2019
6599 Clouds 5 998 96 0 4.27 216 12:38 12.12.2019
6600 Clouds 4 1000 99 0 2.24 0 12:19 12.12.2019
6601 Clouds 4 998 97 0 4.27 216 11:54 12.12.2019
6602 Clouds 4 998 98 0 4.27 216 11:36 12.12.2019
6603 Clouds 4 998 98 0 4.21 215 11:18 12.12.2019
6604 Clouds 3 999 10 0 4.21 215 10:41 12.12.2019
6605 Clouds 3 999 10 0 4.21 215 10:23 12.12.2019
6606 Clouds 3 999 10 0 4.21 215 10:23 12.12.2019
6607 Clouds 2 999 10 0 4.21 215 09:59 12.12.2019
6608 Clouds 3 999 10 0 4.21 215 09:41 12.12.2019
6609 Clouds 2 999 10 0 4.21 215 09:23 12.12.2019
6610 Clouds 2 998 10 0 4.21 215 08:56 12.12.2019
6611 Clouds 2 998 10 0 4.21 215 08:38 12.12.2019
6612 Clouds 2 998 10 0 4.21 215 08:38 12.12.2019
6613 Clouds 2 1001 99 0 0.45 0 08:19 12.12.2019
6614 Rain 2 998 10 0 3.04 204 07:42 12.12.2019
6615 Rain 2 998 10 0 3.04 204 07:24 12.12.2019
6616 Rain 2 998 10 0 3.04 204 06:48 12.12.2019
6617 Rain 2 998 10 0 3.04 204 06:48 12.12.2019
6618 Rain 2 998 10 0 3.04 204 06:30 12.12.2019
6619 Rain 2 998 10 0 3.04 204 05:36 12.12.2019
6620 Rain 2 998 87 0 0.45 104 04:51 12.12.2019
6621 Rain 2 1001 99 0 0.45 0 04:51 12.12.2019
6622 Rain 1 1001 99 0 0.45 0 04:51 12.12.2019
6623 Rain 1 999 10 0 3.45 230 03:24 12.12.2019
6624 Rain 1 999 10 0 3.45 230 02:38 12.12.2019
6625 Rain 1 999 10 0 2.96 209 02:19 12.12.2019
6626 Rain 2 999 10 0 2.95 213 01:37 12.12.2019
6627 Rain 2 999 10 0 2.95 213 01:19 12.12.2019
6628 Rain 2 999 10 0 2.95 213 00:46 12.12.2019
6629 Rain 2 1000 87 0 0.45 105 00:19 12.12.2019
6630 Rain 2 1000 87 0 0.89 79 23:44 11.12.2019
6631 Rain 2 1000 10 0 4.21 215 23:21 11.12.2019
6632 Rain 2 1001 86 0 0.45 103 22:57 11.12.2019
6633 Rain 2 1003 99 0 0.89 0 22:38 11.12.2019
6634 Rain 2 1002 86 0 0.89 97 22:20 11.12.2019
6635 Rain 2 1001 10 0 4.21 215 21:57 11.12.2019
6636 Rain 2 1001 10 0 4.21 215 21:38 11.12.2019
6637 Rain 2 1001 10 0 4.21 215 21:19 11.12.2019
6638 Rain 3 1001 10 0 4.21 215 21:19 11.12.2019
6639 Rain 3 1001 10 0 4.21 215 20:56 11.12.2019
6640 Rain 3 1004 99 0 1.34 0 20:37 11.12.2019
6641 Rain 3 1001 10 0 5.31 191 20:19 11.12.2019
6642 Rain 3 1001 98 0 5.31 191 19:57 11.12.2019
6643 Rain 3 1001 97 0 5.31 191 19:39 11.12.2019
6644 Rain 3 1003 86 0 0.45 124 19:19 11.12.2019
6645 Rain 3 1002 97 0 5.31 191 18:41 11.12.2019
6646 Rain 3 1002 98 0 5.31 191 18:21 11.12.2019
6647 Rain 3 1002 99 0 5.31 191 17:57 11.12.2019
6648 Rain 3 1002 99 0 5.31 191 17:57 11.12.2019
6649 Rain 3 1002 99 0 5.31 191 17:39 11.12.2019
6650 Rain 4 1002 10 0 5.3 183 17:19 11.12.2019
6651 Rain 4 1002 10 0 5.3 183 16:57 11.12.2019
6652 Rain 4 1003 99 0 5.3 183 16:39 11.12.2019
6653 Rain 4 1003 99 0 5.3 183 16:21 11.12.2019
6654 Rain 4 1003 99 0 5.3 183 15:59 11.12.2019
6655 Rain 4 1003 98 0 5.3 183 15:40 11.12.2019
6656 Rain 4 1003 98 0 5.3 183 15:22 11.12.2019
6657 Rain 4 1003 98 0 5.3 183 15:22 11.12.2019
6658 Rain 4 1004 98 0 5.3 183 14:56 11.12.2019
6659 Rain 4 1004 98 0 5.3 183 14:38 11.12.2019
6660 Rain 4 1004 97 0 4.46 183 14:19 11.12.2019
6661 Rain 4 1004 97 0 4.46 183 13:55 11.12.2019
6662 Rain 4 1007 99 0 2.24 0 13:36 11.12.2019
6663 Rain 4 1007 99 0 2.24 0 13:18 11.12.2019
6664 Rain 4 1005 96 0 5.05 186 12:55 11.12.2019
6665 Rain 4 1005 97 0 5.05 186 12:37 11.12.2019
6666 Rain 4 1005 96 0 5.05 186 12:18 11.12.2019
6667 Rain 4 1005 96 0 5.05 186 12:18 11.12.2019
6668 Rain 4 1006 96 0 5.05 186 11:57 11.12.2019
6669 Rain 4 1006 96 0 5.05 186 11:57 11.12.2019
6670 Rain 4 1006 96 0 5.05 186 11:38 11.12.2019
6671 Rain 4 1006 96 0 5.05 186 11:38 11.12.2019
6672 Rain 4 1006 95 0 4.78 190 11:18 11.12.2019
6673 Rain 4 1006 95 0 4.78 190 11:18 11.12.2019
6674 Rain 4 1009 99 0 1.79 0 10:45 11.12.2019
6675 Rain 4 1007 94 0 4.78 190 10:27 11.12.2019
6676 Rain 4 1007 78 0 1.34 76 09:59 11.12.2019
6677 Rain 4 1007 93 0 4.78 190 09:39 11.12.2019
6678 Rain 4 1007 93 0 4.78 190 09:39 11.12.2019
6679 Rain 4 1007 93 0 4.78 190 09:39 11.12.2019
6680 Rain 3 1007 89 0 4.78 190 09:20 11.12.2019
6681 Rain 3 1007 88 0 4.78 190 08:57 11.12.2019
6682 Rain 3 1007 90 0 4.78 190 08:38 11.12.2019
6683 Rain 3 1007 90 0 4.7 200 08:19 11.12.2019
6684 Rain 3 1010 99 0 1.34 0 07:55 11.12.2019
6685 Rain 3 1007 88 0 4.7 200 07:37 11.12.2019
6686 Rain 3 1008 85 0 4.7 200 07:18 11.12.2019
6687 Rain 3 1008 85 0 4.7 200 07:18 11.12.2019
6688 Rain 3 1008 81 0 4.7 200 06:43 11.12.2019
6689 Rain 4 1008 80 0 4.7 200 06:22 11.12.2019
6690 Rain 3 1008 81 0 4.7 200 05:41 11.12.2019
6691 Clouds 3 1008 78 0 6.38 185 05:19 11.12.2019
6692 Clouds 3 1009 75 0 6.38 185 04:27 11.12.2019
6693 Clouds 3 1010 79 0 6.38 185 02:49 11.12.2019
6694 Clouds 2 1012 82 0 7.28 184 01:25 11.12.2019
6695 Clouds 2 1012 82 0 7.28 184 00:47 11.12.2019
6696 Clouds 2 1013 84 0 7.28 184 00:22 11.12.2019
6697 Clouds 2 1013 83 0 7.28 184 23:57 10.12.2019
6698 Clouds 2 1015 82 0 0.89 112 23:39 10.12.2019
6699 Clouds 1 1014 83 0 5.36 179 23:21 10.12.2019
6700 Clouds 1 1014 82 0 5.36 179 22:40 10.12.2019
6701 Clouds 1 1014 82 0 5.36 179 22:40 10.12.2019
6702 Clouds 1 1015 81 0 5.36 179 22:22 10.12.2019
6703 Clouds 1 1016 83 0 0.89 117 21:57 10.12.2019
6704 Clouds 1 1018 99 0 0.89 0 21:39 10.12.2019
6705 Clouds 1 1016 85 0 5.36 179 21:21 10.12.2019
6706 Clouds 1 1016 85 0 5.36 179 21:21 10.12.2019
6707 Clouds 1 1016 86 0 5.36 179 20:57 10.12.2019
6708 Clouds 1 1017 84 0 0.89 115 20:38 10.12.2019
6709 Clouds 1 1016 86 0 3.7 191 20:19 10.12.2019
6710 Clouds 1 1016 86 0 3.7 191 20:19 10.12.2019
6711 Clouds 1 1016 86 0 3.7 191 19:55 10.12.2019
6712 Clouds 1 1017 86 0 3.7 191 19:37 10.12.2019
6713 Clouds 2 1017 85 0 3.7 191 19:19 10.12.2019
6714 Clouds 2 1018 84 0 3.7 191 18:42 10.12.2019
6715 Clouds 2 1018 84 0 3.7 191 18:21 10.12.2019
6716 Clouds 2 1018 83 0 3.7 191 17:59 10.12.2019
6717 Clouds 3 1018 81 0 3.7 191 17:41 10.12.2019
6718 Clear 3 1018 82 0 3.35 215 17:22 10.12.2019
6719 Clear 3 1019 85 0 3.35 215 16:57 10.12.2019
6720 Clear 4 1019 87 0 3.35 215 16:39 10.12.2019
6721 Clear 4 1023 81 0 3.35 215 16:19 10.12.2019
6722 Clear 5 1019 80 0 3.35 215 15:39 10.12.2019
6723 Clear 5 1019 80 0 3.35 215 15:18 10.12.2019
6724 Clear 6 1019 77 0 3.35 215 14:56 10.12.2019
6725 Clear 6 1019 76 0 3.35 215 14:38 10.12.2019
6726 Clouds 6 1019 75 0 4.74 275 14:20 10.12.2019
6727 Clouds 6 1019 73 0 4.74 275 13:58 10.12.2019
6728 Clouds 6 1020 79 0 0.89 126 13:40 10.12.2019
6729 Clear 6 1021 99 0 1.79 0 13:20 10.12.2019
6730 Clear 6 1021 99 0 1.79 0 13:20 10.12.2019
6731 Clear 6 1019 66 0 4.49 277 12:49 10.12.2019
6732 Clear 6 1020 80 0 0.45 81 12:28 10.12.2019
6733 Clear 6 1020 83 0 4.49 277 11:58 10.12.2019
6734 Clear 6 1019 68 0 4.49 277 11:40 10.12.2019
6735 Clear 5 1020 85 0 0.45 83 11:21 10.12.2019
6736 Clear 5 1019 77 0 4.42 277 10:43 10.12.2019
6737 Clear 4 1019 82 0 4.42 277 10:24 10.12.2019
6738 Clear 3 1018 84 0 4.42 277 09:57 10.12.2019
6739 Clear 3 1018 84 0 4.42 277 09:57 10.12.2019
6740 Clear 3 1020 99 0 1.79 0 09:39 10.12.2019
6741 Clear 3 1020 86 0 4.42 277 09:20 10.12.2019
6742 Clear 2 1018 88 0 4.42 277 08:58 10.12.2019
6743 Clear 2 1017 91 0 4.42 277 08:39 10.12.2019
6744 Clear 2 1017 92 0 6.37 287 08:21 10.12.2019
6745 Clear 2 1017 93 0 6.37 287 07:54 10.12.2019
6746 Clear 2 1017 92 0 6.37 287 07:36 10.12.2019
6747 Clear 3 1016 91 0 6.37 287 07:18 10.12.2019
6748 Clear 3 1016 90 0 6.37 287 06:42 10.12.2019
6749 Clear 3 1015 88 0 6.37 287 06:19 10.12.2019
6750 Clear 3 1015 87 0 6.37 287 05:51 10.12.2019
6751 Clear 3 1013 89 0 6.91 290 04:35 10.12.2019
6752 Clear 4 1013 84 0 0.89 187 03:31 10.12.2019
6753 Clear 4 1010 87 0 6.91 290 02:36 10.12.2019
6754 Clouds 4 1009 85 0 7.67 297 01:42 10.12.2019
6755 Clouds 4 1008 85 0 8.01 292 01:19 10.12.2019
6756 Clouds 5 1011 85 0 8.01 292 00:38 10.12.2019
6757 Clouds 5 1007 86 0 8.01 292 00:18 10.12.2019
6758 Clouds 5 1006 87 0 8.01 292 23:40 09.12.2019
6759 Rain 5 1005 88 0 5.42 304 23:22 09.12.2019
6760 Rain 6 1005 89 0 5.42 304 22:57 09.12.2019
6761 Rain 6 1007 80 0 0.45 253 22:39 09.12.2019
6762 Rain 6 1004 91 0 5.42 304 22:19 09.12.2019
6763 Rain 6 1003 92 0 5.42 304 21:56 09.12.2019
6764 Rain 6 1003 94 0 5.42 304 21:38 09.12.2019
6765 Rain 6 1002 95 0 5.42 304 21:18 09.12.2019
6766 Rain 6 1001 96 0 5.42 304 20:56 09.12.2019
6767 Rain 6 1001 96 0 5.42 304 20:38 09.12.2019
6768 Rain 7 1000 95 0 6.51 287 20:20 09.12.2019
6769 Rain 7 1000 90 0 6.51 287 19:55 09.12.2019
6770 Rain 7 999 90 0 6.51 287 19:37 09.12.2019
6771 Rain 7 999 89 0 6.51 287 19:19 09.12.2019
6772 Rain 7 998 89 0 6.51 287 18:56 09.12.2019
6773 Rain 7 998 89 0 6.51 287 18:37 09.12.2019
6774 Rain 7 997 91 0 6.51 287 18:19 09.12.2019
6775 Rain 7 997 91 0 6.51 287 17:57 09.12.2019
6776 Rain 7 996 91 0 6.51 287 17:38 09.12.2019
6777 Rain 7 998 99 0 1.34 0 17:20 09.12.2019
6778 Rain 7 995 92 0 5.6 232 16:56 09.12.2019
6779 Rain 8 995 91 0 5.6 232 16:37 09.12.2019
6780 Rain 8 995 82 0 0.45 58 16:19 09.12.2019
6781 Rain 8 994 85 0 5.6 232 15:55 09.12.2019
6782 Rain 8 994 91 0 5.6 232 15:55 09.12.2019
6783 Rain 9 994 81 0 5.6 232 15:37 09.12.2019
6784 Rain 9 994 81 0 5.6 232 15:37 09.12.2019
6785 Rain 9 993 78 0 5.6 232 15:19 09.12.2019
6786 Rain 9 994 74 0 0.45 100 14:42 09.12.2019
6787 Clouds 9 994 73 0 0.89 122 14:19 09.12.2019
6788 Clouds 9 992 67 0 6.35 217 13:59 09.12.2019
6789 Clouds 9 992 67 0 6.35 217 13:39 09.12.2019
6790 Clouds 9 992 66 0 5.5 219 13:19 09.12.2019
6791 Clouds 9 992 68 0 5.5 219 12:57 09.12.2019
6792 Clouds 9 992 69 0 5.5 219 12:38 09.12.2019
6793 Clouds 9 993 75 0 5.5 219 12:20 09.12.2019
6794 Clouds 9 993 70 0 5.5 219 11:59 09.12.2019
6795 Clouds 9 993 68 0 5.5 219 11:39 09.12.2019
6796 Clouds 9 993 68 0 5.5 219 11:39 09.12.2019
6797 Clouds 9 993 66 0 6.39 213 11:21 09.12.2019
6798 Clouds 8 996 93 0 1.79 0 10:56 09.12.2019
6799 Clouds 8 993 69 0 6.39 213 10:38 09.12.2019
6800 Clouds 7 993 75 0 6.39 213 10:18 09.12.2019
6801 Clouds 7 998 88 0 6.39 213 09:41 09.12.2019
6802 Clouds 7 993 72 0 6.39 213 09:23 09.12.2019
6803 Clouds 6 993 77 0 6.39 213 08:55 09.12.2019
6804 Clouds 6 993 77 0 6.39 213 08:37 09.12.2019
6805 Clouds 6 993 77 0 5.3 219 08:19 09.12.2019
6806 Clouds 5 993 80 0 5.3 219 07:44 09.12.2019
6807 Clouds 5 993 81 0 5.3 219 07:25 09.12.2019
6808 Clouds 5 993 78 0 5.3 219 06:55 09.12.2019
6809 Clouds 5 993 79 0 5.3 219 06:29 09.12.2019
6810 Clouds 6 993 78 0 5.3 219 05:31 09.12.2019
6811 Clouds 6 993 76 0 5.02 236 04:58 09.12.2019
6812 Clouds 7 993 76 0 5.02 236 04:25 09.12.2019
6813 Clouds 8 993 75 0 5.02 236 02:28 09.12.2019
6814 Clouds 7 994 76 0 1.34 164 01:46 09.12.2019
6815 Clouds 7 992 77 0 5 222 00:57 09.12.2019
6816 Clouds 7 992 77 0 5 222 00:33 09.12.2019
6817 Clouds 8 992 76 0 5 222 23:55 08.12.2019
6818 Clouds 8 993 74 0 5 222 23:37 08.12.2019
6819 Clouds 8 993 74 0 3.45 227 23:18 08.12.2019
6820 Clouds 8 993 76 0 3.45 227 22:56 08.12.2019
6821 Clouds 8 993 79 0 3.45 227 22:38 08.12.2019
6822 Clouds 8 993 79 0 3.45 227 22:38 08.12.2019
6823 Clouds 8 993 80 0 3.45 227 22:18 08.12.2019
6824 Clouds 8 996 80 0 0.89 164 21:56 08.12.2019
6825 Clouds 8 998 82 0 3.45 227 21:37 08.12.2019
6826 Clouds 8 995 78 0 0.45 69 21:19 08.12.2019
6827 Clouds 8 994 84 0 3.45 227 20:55 08.12.2019
6828 Clouds 9 996 77 0 0.89 76 20:37 08.12.2019
6829 Clouds 9 996 75 0 1.34 133 20:19 08.12.2019
6830 Clouds 9 993 82 0 4.82 256 19:55 08.12.2019
6831 Clouds 9 994 86 0 4.82 256 19:36 08.12.2019
6832 Clouds 10 998 86 0 4.82 256 19:18 08.12.2019
6833 Clouds 10 998 86 0 4.82 256 19:18 08.12.2019
6834 Clouds 10 993 90 0 4.82 256 18:54 08.12.2019
6835 Clouds 10 993 90 0 4.82 256 18:54 08.12.2019
6836 Clouds 10 993 93 0 4.82 256 18:36 08.12.2019
6837 Clouds 10 993 95 0 4.82 256 18:18 08.12.2019
6838 Clouds 10 993 98 0 4.82 256 17:54 08.12.2019
6839 Clouds 10 993 10 0 4.82 256 17:36 08.12.2019
6840 Clouds 10 993 10 0 7.74 223 17:18 08.12.2019
6841 Clouds 10 993 10 0 7.74 223 17:18 08.12.2019
6842 Clouds 11 993 10 0 7.74 223 16:55 08.12.2019
6843 Clouds 11 993 94 0